<?xml version="1.0" encoding="UTF-8" standalone="no" ?>
<gpx xmlns="http://www.topografix.com/GPX/1/1" creator="MapSource 6.16.3" version="1.1" xmlns:xsi="http://www.w3.org/2001/XMLSchema-instance" xsi:schemaLocation="http://www.topografix.com/GPX/1/1 http://www.topografix.com/GPX/1/1/gpx.xsd">

  <metadata>
    <link href="http://www.garmin.com">
      <text>Garmin International</text>
    </link>
    <time>2016-10-31T17:25:09Z</time>
    <bounds maxlat="40.253275260329247" maxlon="-6.852279184386134" minlat="40.125937890261412" minlon="-6.948154494166374"/>
  </metadata>

  <trk>
    <name>30-10-2016</name>
    <extensions>
      <gpxx:TrackExtension xmlns:gpxx="http://www.garmin.com/xmlschemas/GpxExtensions/v3">
        <gpxx:DisplayColor>Green</gpxx:DisplayColor>
      </gpxx:TrackExtension>
    </extensions>
    <trkseg>
      <trkpt lat="40.2223892044276" lon="-6.87868595123291">
        <ele>482.238525390625</ele>
        <time>2016-10-30T08:14:11Z</time>
      </trkpt>
      <trkpt lat="40.2223892044276" lon="-6.87868595123291">
        <ele>482.238525390625</ele>
        <time>2016-10-30T08:14:16Z</time>
      </trkpt>
      <trkpt lat="40.222164234146476" lon="-6.878703720867634">
        <ele>482.238525390625</ele>
        <time>2016-10-30T08:14:21Z</time>
      </trkpt>
      <trkpt lat="40.222004223614931" lon="-6.878743702545762">
        <ele>480.796630859375</ele>
        <time>2016-10-30T08:14:26Z</time>
      </trkpt>
      <trkpt lat="40.221789730712771" lon="-6.878797262907028">
        <ele>480.796630859375</ele>
        <time>2016-10-30T08:14:31Z</time>
      </trkpt>
      <trkpt lat="40.221719741821289" lon="-6.878814697265625">
        <ele>480.796630859375</ele>
        <time>2016-10-30T08:14:36Z</time>
      </trkpt>
      <trkpt lat="40.221370970830321" lon="-6.878901952877641">
        <ele>479.3544921875</ele>
        <time>2016-10-30T08:14:41Z</time>
      </trkpt>
      <trkpt lat="40.221141139045358" lon="-6.878959536552429">
        <ele>479.8350830078125</ele>
        <time>2016-10-30T08:14:46Z</time>
      </trkpt>
      <trkpt lat="40.220914911478758" lon="-6.879016030579805">
        <ele>479.8350830078125</ele>
        <time>2016-10-30T08:14:51Z</time>
      </trkpt>
      <trkpt lat="40.220663119107485" lon="-6.879095491021872">
        <ele>476.4705810546875</ele>
        <time>2016-10-30T08:14:56Z</time>
      </trkpt>
      <trkpt lat="40.220394227653742" lon="-6.879185177385807">
        <ele>478.3931884765625</ele>
        <time>2016-10-30T08:15:01Z</time>
      </trkpt>
      <trkpt lat="40.220155511051416" lon="-6.879273019731045">
        <ele>478.3931884765625</ele>
        <time>2016-10-30T08:15:06Z</time>
      </trkpt>
      <trkpt lat="40.219928361475468" lon="-6.879378966987133">
        <ele>477.9124755859375</ele>
        <time>2016-10-30T08:15:11Z</time>
      </trkpt>
      <trkpt lat="40.219697440043092" lon="-6.879486758261919">
        <ele>477.9124755859375</ele>
        <time>2016-10-30T08:15:16Z</time>
      </trkpt>
      <trkpt lat="40.219452017918229" lon="-6.879641991108656">
        <ele>477.9124755859375</ele>
        <time>2016-10-30T08:15:21Z</time>
      </trkpt>
      <trkpt lat="40.219263006001711" lon="-6.879793116822839">
        <ele>478.3931884765625</ele>
        <time>2016-10-30T08:15:25Z</time>
      </trkpt>
      <trkpt lat="40.219144821166992" lon="-6.879887580871582">
        <ele>479.3544921875</ele>
        <time>2016-10-30T08:15:30Z</time>
      </trkpt>
      <trkpt lat="40.21875330246985" lon="-6.880148677155376">
        <ele>479.8350830078125</ele>
        <time>2016-10-30T08:15:35Z</time>
      </trkpt>
      <trkpt lat="40.21848457865417" lon="-6.880327882245183">
        <ele>478.8739013671875</ele>
        <time>2016-10-30T08:15:40Z</time>
      </trkpt>
      <trkpt lat="40.218205377459526" lon="-6.880593420937657">
        <ele>475.9898681640625</ele>
        <time>2016-10-30T08:15:45Z</time>
      </trkpt>
      <trkpt lat="40.217992728576064" lon="-6.880943784490228">
        <ele>474.5479736328125</ele>
        <time>2016-10-30T08:15:50Z</time>
      </trkpt>
      <trkpt lat="40.217895247042179" lon="-6.88137830235064">
        <ele>474.0672607421875</ele>
        <time>2016-10-30T08:15:55Z</time>
      </trkpt>
      <trkpt lat="40.21779608912766" lon="-6.881834277883172">
        <ele>474.0672607421875</ele>
        <time>2016-10-30T08:16:00Z</time>
      </trkpt>
      <trkpt lat="40.217674467712641" lon="-6.882335599511862">
        <ele>473.1060791015625</ele>
        <time>2016-10-30T08:16:05Z</time>
      </trkpt>
      <trkpt lat="40.21754446439445" lon="-6.882855696603656">
        <ele>471.183349609375</ele>
        <time>2016-10-30T08:16:10Z</time>
      </trkpt>
      <trkpt lat="40.217364253476262" lon="-6.883366908878088">
        <ele>469.7413330078125</ele>
        <time>2016-10-30T08:16:15Z</time>
      </trkpt>
      <trkpt lat="40.217108773067594" lon="-6.883831014856696">
        <ele>467.338134765625</ele>
        <time>2016-10-30T08:16:20Z</time>
      </trkpt>
      <trkpt lat="40.216748015955091" lon="-6.884257402271032">
        <ele>462.5313720703125</ele>
        <time>2016-10-30T08:16:25Z</time>
      </trkpt>
      <trkpt lat="40.216347444802523" lon="-6.884730812162161">
        <ele>459.6475830078125</ele>
        <time>2016-10-30T08:16:30Z</time>
      </trkpt>
      <trkpt lat="40.215980736538768" lon="-6.885309498757124">
        <ele>457.2442626953125</ele>
        <time>2016-10-30T08:16:35Z</time>
      </trkpt>
      <trkpt lat="40.215752245858312" lon="-6.886044172570109">
        <ele>452.918212890625</ele>
        <time>2016-10-30T08:16:40Z</time>
      </trkpt>
      <trkpt lat="40.215570442378521" lon="-6.886628223583102">
        <ele>448.5924072265625</ele>
        <time>2016-10-30T08:16:45Z</time>
      </trkpt>
      <trkpt lat="40.215419316664338" lon="-6.887114122509956">
        <ele>447.6309814453125</ele>
        <time>2016-10-30T08:16:50Z</time>
      </trkpt>
      <trkpt lat="40.215191412717104" lon="-6.887561548501253">
        <ele>445.2276611328125</ele>
        <time>2016-10-30T08:16:55Z</time>
      </trkpt>
      <trkpt lat="40.214943559840322" lon="-6.888036634773016">
        <ele>444.2664794921875</ele>
        <time>2016-10-30T08:17:00Z</time>
      </trkpt>
      <trkpt lat="40.21480861119926" lon="-6.888487916439772">
        <ele>443.3050537109375</ele>
        <time>2016-10-30T08:17:05Z</time>
      </trkpt>
      <trkpt lat="40.214552544057369" lon="-6.888795364648104">
        <ele>439.9404296875</ele>
        <time>2016-10-30T08:17:10Z</time>
      </trkpt>
      <trkpt lat="40.214274935424328" lon="-6.889137597754598">
        <ele>439.459716796875</ele>
        <time>2016-10-30T08:17:15Z</time>
      </trkpt>
      <trkpt lat="40.214028926566243" lon="-6.889501456171274">
        <ele>438.017822265625</ele>
        <time>2016-10-30T08:17:20Z</time>
      </trkpt>
      <trkpt lat="40.213858606293797" lon="-6.889956425875425">
        <ele>436.575927734375</ele>
        <time>2016-10-30T08:17:25Z</time>
      </trkpt>
      <trkpt lat="40.213718209415674" lon="-6.890447773039341">
        <ele>436.09521484375</ele>
        <time>2016-10-30T08:17:30Z</time>
      </trkpt>
      <trkpt lat="40.213674791157246" lon="-6.890945238992572">
        <ele>435.614501953125</ele>
        <time>2016-10-30T08:17:35Z</time>
      </trkpt>
      <trkpt lat="40.213651657104492" lon="-6.891446895897389">
        <ele>435.614501953125</ele>
        <time>2016-10-30T08:17:40Z</time>
      </trkpt>
      <trkpt lat="40.213651657104492" lon="-6.891837408766151">
        <ele>436.575927734375</ele>
        <time>2016-10-30T08:17:45Z</time>
      </trkpt>
      <trkpt lat="40.21372583694756" lon="-6.892052404582501">
        <ele>439.459716796875</ele>
        <time>2016-10-30T08:17:50Z</time>
      </trkpt>
      <trkpt lat="40.213806889951229" lon="-6.892214342951775">
        <ele>443.3050537109375</ele>
        <time>2016-10-30T08:17:55Z</time>
      </trkpt>
      <trkpt lat="40.213859612122178" lon="-6.892392206937075">
        <ele>446.669677734375</ele>
        <time>2016-10-30T08:18:00Z</time>
      </trkpt>
      <trkpt lat="40.213907808065414" lon="-6.892611142247915">
        <ele>446.1890869140625</ele>
        <time>2016-10-30T08:18:05Z</time>
      </trkpt>
      <trkpt lat="40.213893475010991" lon="-6.892840219661593">
        <ele>446.1890869140625</ele>
        <time>2016-10-30T08:18:10Z</time>
      </trkpt>
      <trkpt lat="40.213876375928521" lon="-6.893113804981113">
        <ele>444.7470703125</ele>
        <time>2016-10-30T08:18:15Z</time>
      </trkpt>
      <trkpt lat="40.213872520253062" lon="-6.893395688384771">
        <ele>441.3824462890625</ele>
        <time>2016-10-30T08:18:20Z</time>
      </trkpt>
      <trkpt lat="40.213886685669422" lon="-6.893665501847863">
        <ele>440.4212646484375</ele>
        <time>2016-10-30T08:18:25Z</time>
      </trkpt>
      <trkpt lat="40.213900180533528" lon="-6.89392140135169">
        <ele>441.3824462890625</ele>
        <time>2016-10-30T08:18:30Z</time>
      </trkpt>
      <trkpt lat="40.213894983753562" lon="-6.894182246178389">
        <ele>441.8631591796875</ele>
        <time>2016-10-30T08:18:35Z</time>
      </trkpt>
      <trkpt lat="40.213839998468757" lon="-6.894530514255166">
        <ele>439.9404296875</ele>
        <time>2016-10-30T08:18:40Z</time>
      </trkpt>
      <trkpt lat="40.213784845545888" lon="-6.894879704341292">
        <ele>439.9404296875</ele>
        <time>2016-10-30T08:18:45Z</time>
      </trkpt>
      <trkpt lat="40.213780403137207" lon="-6.894907951354981">
        <ele>438.49853515625</ele>
        <time>2016-10-30T08:18:50Z</time>
      </trkpt>
      <trkpt lat="40.213780403137207" lon="-6.894907951354981">
        <ele>438.49853515625</ele>
        <time>2016-10-30T08:18:55Z</time>
      </trkpt>
      <trkpt lat="40.213602539151907" lon="-6.895781429484487">
        <ele>438.017822265625</ele>
        <time>2016-10-30T08:19:00Z</time>
      </trkpt>
      <trkpt lat="40.21351813338697" lon="-6.89600732177496">
        <ele>438.9791259765625</ele>
        <time>2016-10-30T08:19:05Z</time>
      </trkpt>
      <trkpt lat="40.213425764814019" lon="-6.896246206015348">
        <ele>438.49853515625</ele>
        <time>2016-10-30T08:19:10Z</time>
      </trkpt>
      <trkpt lat="40.213348902761936" lon="-6.896494058892131">
        <ele>439.9404296875</ele>
        <time>2016-10-30T08:19:15Z</time>
      </trkpt>
      <trkpt lat="40.213322164490819" lon="-6.896716766059399">
        <ele>440.90185546875</ele>
        <time>2016-10-30T08:19:20Z</time>
      </trkpt>
      <trkpt lat="40.213400786742568" lon="-6.896884404122829">
        <ele>441.3824462890625</ele>
        <time>2016-10-30T08:19:25Z</time>
      </trkpt>
      <trkpt lat="40.2134561073035" lon="-6.897019101306796">
        <ele>442.3438720703125</ele>
        <time>2016-10-30T08:19:30Z</time>
      </trkpt>
      <trkpt lat="40.21350690163672" lon="-6.897177351638675">
        <ele>444.2664794921875</ele>
        <time>2016-10-30T08:19:35Z</time>
      </trkpt>
      <trkpt lat="40.213529784232378" lon="-6.89734130166471">
        <ele>443.7857666015625</ele>
        <time>2016-10-30T08:19:40Z</time>
      </trkpt>
      <trkpt lat="40.213542273268104" lon="-6.897497288882732">
        <ele>443.7857666015625</ele>
        <time>2016-10-30T08:19:45Z</time>
      </trkpt>
      <trkpt lat="40.213557276874781" lon="-6.897656796500087">
        <ele>444.7470703125</ele>
        <time>2016-10-30T08:19:50Z</time>
      </trkpt>
      <trkpt lat="40.213559372350574" lon="-6.897834744304419">
        <ele>445.7083740234375</ele>
        <time>2016-10-30T08:19:55Z</time>
      </trkpt>
      <trkpt lat="40.213526599109173" lon="-6.898001460358501">
        <ele>446.669677734375</ele>
        <time>2016-10-30T08:20:00Z</time>
      </trkpt>
      <trkpt lat="40.213490724563599" lon="-6.898177731782198">
        <ele>447.6309814453125</ele>
        <time>2016-10-30T08:20:05Z</time>
      </trkpt>
      <trkpt lat="40.213456945493817" lon="-6.898326091468334">
        <ele>450.5150146484375</ele>
        <time>2016-10-30T08:20:10Z</time>
      </trkpt>
      <trkpt lat="40.213466333225369" lon="-6.898488365113735">
        <ele>452.4376220703125</ele>
        <time>2016-10-30T08:20:15Z</time>
      </trkpt>
      <trkpt lat="40.213491395115852" lon="-6.898640329018235">
        <ele>452.918212890625</ele>
        <time>2016-10-30T08:20:20Z</time>
      </trkpt>
      <trkpt lat="40.213568257167935" lon="-6.898797657340765">
        <ele>454.3602294921875</ele>
        <time>2016-10-30T08:20:25Z</time>
      </trkpt>
      <trkpt lat="40.21364863961935" lon="-6.898931013420224">
        <ele>455.321533203125</ele>
        <time>2016-10-30T08:20:30Z</time>
      </trkpt>
      <trkpt lat="40.213719718158245" lon="-6.899064872413874">
        <ele>457.2442626953125</ele>
        <time>2016-10-30T08:20:35Z</time>
      </trkpt>
      <trkpt lat="40.213750060647726" lon="-6.899243490770459">
        <ele>457.7249755859375</ele>
        <time>2016-10-30T08:20:40Z</time>
      </trkpt>
      <trkpt lat="40.213764058426023" lon="-6.899444153532386">
        <ele>460.128173828125</ele>
        <time>2016-10-30T08:20:45Z</time>
      </trkpt>
      <trkpt lat="40.213748719543219" lon="-6.899642888456583">
        <ele>463.973388671875</ele>
        <time>2016-10-30T08:20:50Z</time>
      </trkpt>
      <trkpt lat="40.213726758956909" lon="-6.899839024990797">
        <ele>463.973388671875</ele>
        <time>2016-10-30T08:20:55Z</time>
      </trkpt>
      <trkpt lat="40.213708151131868" lon="-6.900003980845213">
        <ele>464.4541015625</ele>
        <time>2016-10-30T08:21:00Z</time>
      </trkpt>
      <trkpt lat="40.213641682639718" lon="-6.900222832337022">
        <ele>464.934814453125</ele>
        <time>2016-10-30T08:21:05Z</time>
      </trkpt>
      <trkpt lat="40.213584266602993" lon="-6.900438666343689">
        <ele>462.05078125</ele>
        <time>2016-10-30T08:21:10Z</time>
      </trkpt>
      <trkpt lat="40.213532214984298" lon="-6.900666737928987">
        <ele>461.0894775390625</ele>
        <time>2016-10-30T08:21:15Z</time>
      </trkpt>
      <trkpt lat="40.213497849181294" lon="-6.900855833664537">
        <ele>457.7249755859375</ele>
        <time>2016-10-30T08:21:20Z</time>
      </trkpt>
      <trkpt lat="40.213488209992647" lon="-6.901053981855512">
        <ele>459.1668701171875</ele>
        <time>2016-10-30T08:21:25Z</time>
      </trkpt>
      <trkpt lat="40.213478486984968" lon="-6.901274593546987">
        <ele>458.6861572265625</ele>
        <time>2016-10-30T08:21:30Z</time>
      </trkpt>
      <trkpt lat="40.213447976857424" lon="-6.90148925408721">
        <ele>458.6861572265625</ele>
        <time>2016-10-30T08:21:35Z</time>
      </trkpt>
      <trkpt lat="40.213419562205672" lon="-6.901696538552642">
        <ele>461.0894775390625</ele>
        <time>2016-10-30T08:21:40Z</time>
      </trkpt>
      <trkpt lat="40.213404055684805" lon="-6.901911366730928">
        <ele>461.0894775390625</ele>
        <time>2016-10-30T08:21:45Z</time>
      </trkpt>
      <trkpt lat="40.213359380140901" lon="-6.902105491608381">
        <ele>462.5313720703125</ele>
        <time>2016-10-30T08:21:50Z</time>
      </trkpt>
      <trkpt lat="40.213309675455093" lon="-6.9022754766047">
        <ele>464.4541015625</ele>
        <time>2016-10-30T08:21:55Z</time>
      </trkpt>
      <trkpt lat="40.213271370157599" lon="-6.902442611753941">
        <ele>465.8961181640625</ele>
        <time>2016-10-30T08:22:00Z</time>
      </trkpt>
      <trkpt lat="40.213235830888152" lon="-6.902601197361946">
        <ele>468.29931640625</ele>
        <time>2016-10-30T08:22:05Z</time>
      </trkpt>
      <trkpt lat="40.213216301053762" lon="-6.902753580361605">
        <ele>469.7413330078125</ele>
        <time>2016-10-30T08:22:10Z</time>
      </trkpt>
      <trkpt lat="40.213207919150591" lon="-6.902894983068109">
        <ele>470.221923828125</ele>
        <time>2016-10-30T08:22:15Z</time>
      </trkpt>
      <trkpt lat="40.213195430114865" lon="-6.903053233399987">
        <ele>470.70263671875</ele>
        <time>2016-10-30T08:22:20Z</time>
      </trkpt>
      <trkpt lat="40.21317564882338" lon="-6.903198407962918">
        <ele>471.183349609375</ele>
        <time>2016-10-30T08:22:25Z</time>
      </trkpt>
      <trkpt lat="40.213161986321211" lon="-6.903366046026349">
        <ele>472.6253662109375</ele>
        <time>2016-10-30T08:22:30Z</time>
      </trkpt>
      <trkpt lat="40.213159890845418" lon="-6.903526056557894">
        <ele>472.6253662109375</ele>
        <time>2016-10-30T08:22:35Z</time>
      </trkpt>
      <trkpt lat="40.21317414008081" lon="-6.903819004073739">
        <ele>471.183349609375</ele>
        <time>2016-10-30T08:22:43Z</time>
      </trkpt>
      <trkpt lat="40.213231472298503" lon="-6.904030982404947">
        <ele>471.6639404296875</ele>
        <time>2016-10-30T08:22:49Z</time>
      </trkpt>
      <trkpt lat="40.213263910263777" lon="-6.904217479750514">
        <ele>473.586669921875</ele>
        <time>2016-10-30T08:22:54Z</time>
      </trkpt>
      <trkpt lat="40.213314034044743" lon="-6.904386123642325">
        <ele>475.0286865234375</ele>
        <time>2016-10-30T08:22:59Z</time>
      </trkpt>
      <trkpt lat="40.21332761272788" lon="-6.90454613417387">
        <ele>475.0286865234375</ele>
        <time>2016-10-30T08:23:04Z</time>
      </trkpt>
      <trkpt lat="40.21332954056561" lon="-6.90470882691443">
        <ele>475.50927734375</ele>
        <time>2016-10-30T08:23:09Z</time>
      </trkpt>
      <trkpt lat="40.21333197131753" lon="-6.90486473031342">
        <ele>475.0286865234375</ele>
        <time>2016-10-30T08:23:14Z</time>
      </trkpt>
      <trkpt lat="40.213321661576629" lon="-6.905031362548471">
        <ele>476.9512939453125</ele>
        <time>2016-10-30T08:23:19Z</time>
      </trkpt>
      <trkpt lat="40.2133007068187" lon="-6.905197575688362">
        <ele>477.431884765625</ele>
        <time>2016-10-30T08:23:24Z</time>
      </trkpt>
      <trkpt lat="40.213289139792323" lon="-6.905374601483345">
        <ele>475.50927734375</ele>
        <time>2016-10-30T08:23:29Z</time>
      </trkpt>
      <trkpt lat="40.213297018781304" lon="-6.905548442155123">
        <ele>476.4705810546875</ele>
        <time>2016-10-30T08:23:34Z</time>
      </trkpt>
      <trkpt lat="40.213305987417698" lon="-6.905717588961124">
        <ele>476.4705810546875</ele>
        <time>2016-10-30T08:23:39Z</time>
      </trkpt>
      <trkpt lat="40.213302383199334" lon="-6.905906014144421">
        <ele>478.3931884765625</ele>
        <time>2016-10-30T08:23:44Z</time>
      </trkpt>
      <trkpt lat="40.213337587192655" lon="-6.906089410185814">
        <ele>478.8739013671875</ele>
        <time>2016-10-30T08:23:49Z</time>
      </trkpt>
      <trkpt lat="40.213352926075459" lon="-6.906307423487306">
        <ele>479.8350830078125</ele>
        <time>2016-10-30T08:23:54Z</time>
      </trkpt>
      <trkpt lat="40.213378071784973" lon="-6.906559551134706">
        <ele>478.3931884765625</ele>
        <time>2016-10-30T08:23:59Z</time>
      </trkpt>
      <trkpt lat="40.21341260522604" lon="-6.906844535842538">
        <ele>479.3544921875</ele>
        <time>2016-10-30T08:24:04Z</time>
      </trkpt>
      <trkpt lat="40.213442109525204" lon="-6.907191714271903">
        <ele>479.3544921875</ele>
        <time>2016-10-30T08:24:09Z</time>
      </trkpt>
      <trkpt lat="40.213446551933885" lon="-6.907530594617128">
        <ele>479.8350830078125</ele>
        <time>2016-10-30T08:24:14Z</time>
      </trkpt>
      <trkpt lat="40.213447390124202" lon="-6.907857405021787">
        <ele>479.8350830078125</ele>
        <time>2016-10-30T08:24:19Z</time>
      </trkpt>
      <trkpt lat="40.213441355153918" lon="-6.908178264275193">
        <ele>481.7578125</ele>
        <time>2016-10-30T08:24:24Z</time>
      </trkpt>
      <trkpt lat="40.213389806449413" lon="-6.908470541238785">
        <ele>481.7578125</ele>
        <time>2016-10-30T08:24:29Z</time>
      </trkpt>
      <trkpt lat="40.213315207511187" lon="-6.908760387450457">
        <ele>482.238525390625</ele>
        <time>2016-10-30T08:24:34Z</time>
      </trkpt>
      <trkpt lat="40.213325433433056" lon="-6.909028105437756">
        <ele>484.1611328125</ele>
        <time>2016-10-30T08:24:39Z</time>
      </trkpt>
      <trkpt lat="40.213405983522534" lon="-6.909208819270134">
        <ele>486.083740234375</ele>
        <time>2016-10-30T08:24:44Z</time>
      </trkpt>
      <trkpt lat="40.213333982974291" lon="-6.909448290243745">
        <ele>486.083740234375</ele>
        <time>2016-10-30T08:24:49Z</time>
      </trkpt>
      <trkpt lat="40.213181935250759" lon="-6.909541077911854">
        <ele>483.1998291015625</ele>
        <time>2016-10-30T08:24:54Z</time>
      </trkpt>
      <trkpt lat="40.21304028108716" lon="-6.909733945503831">
        <ele>480.31591796875</ele>
        <time>2016-10-30T08:24:59Z</time>
      </trkpt>
      <trkpt lat="40.21295134909451" lon="-6.910049775615335">
        <ele>479.3544921875</ele>
        <time>2016-10-30T08:25:04Z</time>
      </trkpt>
      <trkpt lat="40.212797708809376" lon="-6.910372227430344">
        <ele>479.3544921875</ele>
        <time>2016-10-30T08:25:09Z</time>
      </trkpt>
      <trkpt lat="40.212643230333924" lon="-6.910594934597611">
        <ele>480.796630859375</ele>
        <time>2016-10-30T08:25:14Z</time>
      </trkpt>
      <trkpt lat="40.212518507614732" lon="-6.910845385864377">
        <ele>479.8350830078125</ele>
        <time>2016-10-30T08:25:19Z</time>
      </trkpt>
      <trkpt lat="40.212355563417077" lon="-6.911121904850006">
        <ele>480.31591796875</ele>
        <time>2016-10-30T08:25:24Z</time>
      </trkpt>
      <trkpt lat="40.212114499881864" lon="-6.911407308652997">
        <ele>477.9124755859375</ele>
        <time>2016-10-30T08:25:29Z</time>
      </trkpt>
      <trkpt lat="40.211868993937969" lon="-6.911768903955817">
        <ele>473.586669921875</ele>
        <time>2016-10-30T08:25:34Z</time>
      </trkpt>
      <trkpt lat="40.211953483521938" lon="-6.912178443744779">
        <ele>471.183349609375</ele>
        <time>2016-10-30T08:25:39Z</time>
      </trkpt>
      <trkpt lat="40.211667912080884" lon="-6.912391260266304">
        <ele>468.780029296875</ele>
        <time>2016-10-30T08:25:44Z</time>
      </trkpt>
      <trkpt lat="40.211347723379731" lon="-6.912564262747765">
        <ele>469.2607421875</ele>
        <time>2016-10-30T08:25:49Z</time>
      </trkpt>
      <trkpt lat="40.211066510528326" lon="-6.912811528891325">
        <ele>465.41552734375</ele>
        <time>2016-10-30T08:25:54Z</time>
      </trkpt>
      <trkpt lat="40.210843551903963" lon="-6.913131298497319">
        <ele>462.05078125</ele>
        <time>2016-10-30T08:25:59Z</time>
      </trkpt>
      <trkpt lat="40.210630232468247" lon="-6.913442267104983">
        <ele>458.20556640625</ele>
        <time>2016-10-30T08:26:04Z</time>
      </trkpt>
      <trkpt lat="40.210337536409497" lon="-6.913702692836523">
        <ele>457.7249755859375</ele>
        <time>2016-10-30T08:26:09Z</time>
      </trkpt>
      <trkpt lat="40.210125725716352" lon="-6.91405775025487">
        <ele>453.879638671875</ele>
        <time>2016-10-30T08:26:14Z</time>
      </trkpt>
      <trkpt lat="40.209944508969784" lon="-6.914556389674544">
        <ele>449.5537109375</ele>
        <time>2016-10-30T08:26:19Z</time>
      </trkpt>
      <trkpt lat="40.209820289164782" lon="-6.915074558928609">
        <ele>451.95703125</ele>
        <time>2016-10-30T08:26:24Z</time>
      </trkpt>
      <trkpt lat="40.209694392979145" lon="-6.915402794256806">
        <ele>454.3602294921875</ele>
        <time>2016-10-30T08:26:29Z</time>
      </trkpt>
      <trkpt lat="40.209525665268302" lon="-6.91563505679369">
        <ele>455.80224609375</ele>
        <time>2016-10-30T08:26:34Z</time>
      </trkpt>
      <trkpt lat="40.209392393007874" lon="-6.91583882085979">
        <ele>456.282958984375</ele>
        <time>2016-10-30T08:26:39Z</time>
      </trkpt>
      <trkpt lat="40.209284266456962" lon="-6.916000843048096">
        <ele>459.1668701171875</ele>
        <time>2016-10-30T08:26:44Z</time>
      </trkpt>
      <trkpt lat="40.209164656698704" lon="-6.916186921298504">
        <ele>459.6475830078125</ele>
        <time>2016-10-30T08:26:49Z</time>
      </trkpt>
      <trkpt lat="40.209063235670328" lon="-6.916484059765935">
        <ele>460.6087646484375</ele>
        <time>2016-10-30T08:26:54Z</time>
      </trkpt>
      <trkpt lat="40.209019565954804" lon="-6.916989320889115">
        <ele>458.20556640625</ele>
        <time>2016-10-30T08:26:59Z</time>
      </trkpt>
      <trkpt lat="40.209118807688355" lon="-6.917437082156539">
        <ele>453.879638671875</ele>
        <time>2016-10-30T08:27:04Z</time>
      </trkpt>
      <trkpt lat="40.208924598991871" lon="-6.917735561728478">
        <ele>452.4376220703125</ele>
        <time>2016-10-30T08:27:09Z</time>
      </trkpt>
      <trkpt lat="40.20859133452177" lon="-6.918034628033638">
        <ele>450.034423828125</ele>
        <time>2016-10-30T08:27:14Z</time>
      </trkpt>
      <trkpt lat="40.208423612639308" lon="-6.918497309088707">
        <ele>452.4376220703125</ele>
        <time>2016-10-30T08:27:19Z</time>
      </trkpt>
      <trkpt lat="40.208320347592235" lon="-6.918872650712729">
        <ele>453.39892578125</ele>
        <time>2016-10-30T08:27:24Z</time>
      </trkpt>
      <trkpt lat="40.208209538832307" lon="-6.919197784736753">
        <ele>453.39892578125</ele>
        <time>2016-10-30T08:27:29Z</time>
      </trkpt>
      <trkpt lat="40.208037374541163" lon="-6.919357795268297">
        <ele>446.669677734375</ele>
        <time>2016-10-30T08:27:34Z</time>
      </trkpt>
      <trkpt lat="40.208091270178556" lon="-6.919655101373792">
        <ele>442.824462890625</ele>
        <time>2016-10-30T08:27:39Z</time>
      </trkpt>
      <trkpt lat="40.207886919379234" lon="-6.919872863218188">
        <ele>439.459716796875</ele>
        <time>2016-10-30T08:27:44Z</time>
      </trkpt>
      <trkpt lat="40.207653986290097" lon="-6.919997166842222">
        <ele>441.3824462890625</ele>
        <time>2016-10-30T08:27:49Z</time>
      </trkpt>
      <trkpt lat="40.207436894997954" lon="-6.920138904824853">
        <ele>439.9404296875</ele>
        <time>2016-10-30T08:27:54Z</time>
      </trkpt>
      <trkpt lat="40.207279399037361" lon="-6.920361025258899">
        <ele>437.537109375</ele>
        <time>2016-10-30T08:27:59Z</time>
      </trkpt>
      <trkpt lat="40.207089381292462" lon="-6.920352810993791">
        <ele>439.459716796875</ele>
        <time>2016-10-30T08:28:04Z</time>
      </trkpt>
      <trkpt lat="40.2069509960711" lon="-6.920219287276268">
        <ele>440.90185546875</ele>
        <time>2016-10-30T08:28:09Z</time>
      </trkpt>
      <trkpt lat="40.20681613124907" lon="-6.92010847851634">
        <ele>443.3050537109375</ele>
        <time>2016-10-30T08:28:14Z</time>
      </trkpt>
      <trkpt lat="40.206679003313184" lon="-6.920045614242554">
        <ele>444.2664794921875</ele>
        <time>2016-10-30T08:28:19Z</time>
      </trkpt>
      <trkpt lat="40.20652930252254" lon="-6.91998828202486">
        <ele>443.3050537109375</ele>
        <time>2016-10-30T08:28:24Z</time>
      </trkpt>
      <trkpt lat="40.206385804340243" lon="-6.919970512390137">
        <ele>445.2276611328125</ele>
        <time>2016-10-30T08:28:29Z</time>
      </trkpt>
      <trkpt lat="40.206261584535241" lon="-6.919942181557417">
        <ele>445.7083740234375</ele>
        <time>2016-10-30T08:28:34Z</time>
      </trkpt>
      <trkpt lat="40.206173742190003" lon="-6.919975876808167">
        <ele>446.669677734375</ele>
        <time>2016-10-30T08:28:39Z</time>
      </trkpt>
      <trkpt lat="40.206146165728569" lon="-6.920082662254572">
        <ele>447.6309814453125</ele>
        <time>2016-10-30T08:28:44Z</time>
      </trkpt>
      <trkpt lat="40.206127222627401" lon="-6.920187352225184">
        <ele>449.072998046875</ele>
        <time>2016-10-30T08:28:49Z</time>
      </trkpt>
      <trkpt lat="40.206086235120893" lon="-6.920296400785446">
        <ele>450.99560546875</ele>
        <time>2016-10-30T08:28:54Z</time>
      </trkpt>
      <trkpt lat="40.206048935651779" lon="-6.920384159311652">
        <ele>451.95703125</ele>
        <time>2016-10-30T08:28:59Z</time>
      </trkpt>
      <trkpt lat="40.206026807427406" lon="-6.920468229800463">
        <ele>452.4376220703125</ele>
        <time>2016-10-30T08:29:04Z</time>
      </trkpt>
      <trkpt lat="40.205995794385672" lon="-6.920565878972411">
        <ele>453.879638671875</ele>
        <time>2016-10-30T08:29:09Z</time>
      </trkpt>
      <trkpt lat="40.205951873213053" lon="-6.920656571164727">
        <ele>455.321533203125</ele>
        <time>2016-10-30T08:29:14Z</time>
      </trkpt>
      <trkpt lat="40.205895379185677" lon="-6.92078129388392">
        <ele>459.6475830078125</ele>
        <time>2016-10-30T08:29:19Z</time>
      </trkpt>
      <trkpt lat="40.205848440527916" lon="-6.920900903642178">
        <ele>460.6087646484375</ele>
        <time>2016-10-30T08:29:24Z</time>
      </trkpt>
      <trkpt lat="40.205784821882844" lon="-6.921028308570385">
        <ele>462.05078125</ele>
        <time>2016-10-30T08:29:29Z</time>
      </trkpt>
      <trkpt lat="40.205729668959975" lon="-6.921158647164702">
        <ele>463.973388671875</ele>
        <time>2016-10-30T08:29:34Z</time>
      </trkpt>
      <trkpt lat="40.205695806071162" lon="-6.921287141740322">
        <ele>464.4541015625</ele>
        <time>2016-10-30T08:29:39Z</time>
      </trkpt>
      <trkpt lat="40.205676527693868" lon="-6.921403734013438">
        <ele>466.857421875</ele>
        <time>2016-10-30T08:29:44Z</time>
      </trkpt>
      <trkpt lat="40.205683233216405" lon="-6.921488223597407">
        <ele>467.8187255859375</ele>
        <time>2016-10-30T08:29:49Z</time>
      </trkpt>
      <trkpt lat="40.205676276236773" lon="-6.921599032357335">
        <ele>469.7413330078125</ele>
        <time>2016-10-30T08:29:54Z</time>
      </trkpt>
      <trkpt lat="40.205653142184019" lon="-6.921663321554661">
        <ele>469.7413330078125</ele>
        <time>2016-10-30T08:29:59Z</time>
      </trkpt>
      <trkpt lat="40.205614250153303" lon="-6.921732807531953">
        <ele>470.70263671875</ele>
        <time>2016-10-30T08:30:04Z</time>
      </trkpt>
      <trkpt lat="40.205583907663822" lon="-6.921779410913587">
        <ele>470.70263671875</ele>
        <time>2016-10-30T08:30:09Z</time>
      </trkpt>
      <trkpt lat="40.205544680356979" lon="-6.921833055093885">
        <ele>470.70263671875</ele>
        <time>2016-10-30T08:30:14Z</time>
      </trkpt>
      <trkpt lat="40.205498496070504" lon="-6.921887705102563">
        <ele>470.221923828125</ele>
        <time>2016-10-30T08:30:19Z</time>
      </trkpt>
      <trkpt lat="40.205471087247133" lon="-6.921946294605732">
        <ele>472.6253662109375</ele>
        <time>2016-10-30T08:30:24Z</time>
      </trkpt>
      <trkpt lat="40.205425657331944" lon="-6.922012092545629">
        <ele>474.5479736328125</ele>
        <time>2016-10-30T08:30:29Z</time>
      </trkpt>
      <trkpt lat="40.205383244901896" lon="-6.922072106972337">
        <ele>475.0286865234375</ele>
        <time>2016-10-30T08:30:34Z</time>
      </trkpt>
      <trkpt lat="40.20535902120173" lon="-6.922152740880847">
        <ele>477.431884765625</ele>
        <time>2016-10-30T08:30:39Z</time>
      </trkpt>
      <trkpt lat="40.205321805551648" lon="-6.922212587669492">
        <ele>478.8739013671875</ele>
        <time>2016-10-30T08:30:44Z</time>
      </trkpt>
      <trkpt lat="40.205285847187042" lon="-6.922288946807385">
        <ele>480.31591796875</ele>
        <time>2016-10-30T08:30:49Z</time>
      </trkpt>
      <trkpt lat="40.205243937671185" lon="-6.922354074195027">
        <ele>481.2772216796875</ele>
        <time>2016-10-30T08:30:54Z</time>
      </trkpt>
      <trkpt lat="40.205206386744976" lon="-6.922435546293855">
        <ele>483.680419921875</ele>
        <time>2016-10-30T08:30:59Z</time>
      </trkpt>
      <trkpt lat="40.205170847475529" lon="-6.922497823834419">
        <ele>485.1224365234375</ele>
        <time>2016-10-30T08:31:04Z</time>
      </trkpt>
      <trkpt lat="40.205152910202742" lon="-6.922569824382663">
        <ele>487.525634765625</ele>
        <time>2016-10-30T08:31:09Z</time>
      </trkpt>
      <trkpt lat="40.205138577148318" lon="-6.922704521566629">
        <ele>489.4483642578125</ele>
        <time>2016-10-30T08:31:14Z</time>
      </trkpt>
      <trkpt lat="40.205112174153328" lon="-6.922809379175305">
        <ele>490.4097900390625</ele>
        <time>2016-10-30T08:31:19Z</time>
      </trkpt>
      <trkpt lat="40.205099685117602" lon="-6.922909962013364">
        <ele>492.81298828125</ele>
        <time>2016-10-30T08:31:24Z</time>
      </trkpt>
      <trkpt lat="40.205082502216101" lon="-6.923009539023042">
        <ele>494.2550048828125</ele>
        <time>2016-10-30T08:31:29Z</time>
      </trkpt>
      <trkpt lat="40.205066157504916" lon="-6.923092771321535">
        <ele>496.177734375</ele>
        <time>2016-10-30T08:31:34Z</time>
      </trkpt>
      <trkpt lat="40.205059200525284" lon="-6.923198299482465">
        <ele>497.61962890625</ele>
        <time>2016-10-30T08:31:39Z</time>
      </trkpt>
      <trkpt lat="40.205038078129292" lon="-6.923309443518519">
        <ele>498.100341796875</ele>
        <time>2016-10-30T08:31:44Z</time>
      </trkpt>
      <trkpt lat="40.205030618235469" lon="-6.92340424284339">
        <ele>500.02294921875</ele>
        <time>2016-10-30T08:31:49Z</time>
      </trkpt>
      <trkpt lat="40.205025086179376" lon="-6.923503065481782">
        <ele>500.5035400390625</ele>
        <time>2016-10-30T08:31:54Z</time>
      </trkpt>
      <trkpt lat="40.205027852207422" lon="-6.923563666641712">
        <ele>500.02294921875</ele>
        <time>2016-10-30T08:31:59Z</time>
      </trkpt>
      <trkpt lat="40.205041011795402" lon="-6.923658130690455">
        <ele>500.5035400390625</ele>
        <time>2016-10-30T08:32:04Z</time>
      </trkpt>
      <trkpt lat="40.205048806965351" lon="-6.923762988299131">
        <ele>500.5035400390625</ele>
        <time>2016-10-30T08:32:09Z</time>
      </trkpt>
      <trkpt lat="40.205074287950993" lon="-6.92388360388577">
        <ele>498.100341796875</ele>
        <time>2016-10-30T08:32:14Z</time>
      </trkpt>
      <trkpt lat="40.205054255202413" lon="-6.923967758193612">
        <ele>496.6583251953125</ele>
        <time>2016-10-30T08:32:19Z</time>
      </trkpt>
      <trkpt lat="40.205055428668857" lon="-6.924046967178583">
        <ele>496.177734375</ele>
        <time>2016-10-30T08:32:24Z</time>
      </trkpt>
      <trkpt lat="40.205028438940644" lon="-6.924150232225657">
        <ele>494.735595703125</ele>
        <time>2016-10-30T08:32:29Z</time>
      </trkpt>
      <trkpt lat="40.204973118379712" lon="-6.924252575263381">
        <ele>492.81298828125</ele>
        <time>2016-10-30T08:32:34Z</time>
      </trkpt>
      <trkpt lat="40.204905644059181" lon="-6.924346033483744">
        <ele>491.8516845703125</ele>
        <time>2016-10-30T08:32:39Z</time>
      </trkpt>
      <trkpt lat="40.204831883311272" lon="-6.924450471997261">
        <ele>492.3323974609375</ele>
        <time>2016-10-30T08:32:44Z</time>
      </trkpt>
      <trkpt lat="40.204731216654181" lon="-6.924539152532816">
        <ele>493.7742919921875</ele>
        <time>2016-10-30T08:32:49Z</time>
      </trkpt>
      <trkpt lat="40.20463977009058" lon="-6.924625234678388">
        <ele>493.2935791015625</ele>
        <time>2016-10-30T08:32:54Z</time>
      </trkpt>
      <trkpt lat="40.204556537792087" lon="-6.924710227176547">
        <ele>491.8516845703125</ele>
        <time>2016-10-30T08:32:59Z</time>
      </trkpt>
      <trkpt lat="40.204475065693259" lon="-6.924798237159848">
        <ele>491.8516845703125</ele>
        <time>2016-10-30T08:33:04Z</time>
      </trkpt>
      <trkpt lat="40.204401891678572" lon="-6.924899406731129">
        <ele>492.3323974609375</ele>
        <time>2016-10-30T08:33:09Z</time>
      </trkpt>
      <trkpt lat="40.204365011304617" lon="-6.924973838031292">
        <ele>493.2935791015625</ele>
        <time>2016-10-30T08:33:13Z</time>
      </trkpt>
      <trkpt lat="40.204268703237176" lon="-6.925108032301068">
        <ele>492.3323974609375</ele>
        <time>2016-10-30T08:33:19Z</time>
      </trkpt>
      <trkpt lat="40.204099472612143" lon="-6.925314143300057">
        <ele>493.7742919921875</ele>
        <time>2016-10-30T08:33:24Z</time>
      </trkpt>
      <trkpt lat="40.203847596421838" lon="-6.925503071397543">
        <ele>494.2550048828125</ele>
        <time>2016-10-30T08:33:29Z</time>
      </trkpt>
      <trkpt lat="40.203631930053234" lon="-6.925697531551123">
        <ele>494.735595703125</ele>
        <time>2016-10-30T08:33:34Z</time>
      </trkpt>
      <trkpt lat="40.203495472669601" lon="-6.925975643098354">
        <ele>495.6968994140625</ele>
        <time>2016-10-30T08:33:39Z</time>
      </trkpt>
      <trkpt lat="40.203395308926702" lon="-6.926195835694671">
        <ele>495.6968994140625</ele>
        <time>2016-10-30T08:33:44Z</time>
      </trkpt>
      <trkpt lat="40.203331187367439" lon="-6.926330365240574">
        <ele>495.6968994140625</ele>
        <time>2016-10-30T08:33:49Z</time>
      </trkpt>
      <trkpt lat="40.203277794644237" lon="-6.926450980827212">
        <ele>496.6583251953125</ele>
        <time>2016-10-30T08:33:54Z</time>
      </trkpt>
      <trkpt lat="40.203231442719698" lon="-6.926555670797825">
        <ele>500.02294921875</ele>
        <time>2016-10-30T08:33:59Z</time>
      </trkpt>
      <trkpt lat="40.203200094401836" lon="-6.926663545891643">
        <ele>501.46484375</ele>
        <time>2016-10-30T08:34:04Z</time>
      </trkpt>
      <trkpt lat="40.203149886801839" lon="-6.926763541996479">
        <ele>503.387451171875</ele>
        <time>2016-10-30T08:34:09Z</time>
      </trkpt>
      <trkpt lat="40.20311526954174" lon="-6.92686278373003">
        <ele>505.3101806640625</ele>
        <time>2016-10-30T08:34:14Z</time>
      </trkpt>
      <trkpt lat="40.203070426359773" lon="-6.926955403760076">
        <ele>507.2327880859375</ele>
        <time>2016-10-30T08:34:19Z</time>
      </trkpt>
      <trkpt lat="40.203025583177805" lon="-6.927062943577766">
        <ele>507.2327880859375</ele>
        <time>2016-10-30T08:34:24Z</time>
      </trkpt>
      <trkpt lat="40.202994318678975" lon="-6.927154138684273">
        <ele>507.7135009765625</ele>
        <time>2016-10-30T08:34:29Z</time>
      </trkpt>
      <trkpt lat="40.20296179689467" lon="-6.927245585247874">
        <ele>508.6746826171875</ele>
        <time>2016-10-30T08:34:34Z</time>
      </trkpt>
      <trkpt lat="40.202923491597176" lon="-6.927330829203129">
        <ele>509.6361083984375</ele>
        <time>2016-10-30T08:34:39Z</time>
      </trkpt>
      <trkpt lat="40.202884683385491" lon="-6.927408026531339">
        <ele>510.11669921875</ele>
        <time>2016-10-30T08:34:44Z</time>
      </trkpt>
      <trkpt lat="40.202837828546762" lon="-6.927478602156043">
        <ele>511.0780029296875</ele>
        <time>2016-10-30T08:34:49Z</time>
      </trkpt>
      <trkpt lat="40.202782256528735" lon="-6.927546244114637">
        <ele>511.5587158203125</ele>
        <time>2016-10-30T08:34:54Z</time>
      </trkpt>
      <trkpt lat="40.202729282900691" lon="-6.927622687071562">
        <ele>512.0394287109375</ele>
        <time>2016-10-30T08:34:59Z</time>
      </trkpt>
      <trkpt lat="40.202658036723733" lon="-6.927690580487251">
        <ele>513.4814453125</ele>
        <time>2016-10-30T08:35:04Z</time>
      </trkpt>
      <trkpt lat="40.202602380886674" lon="-6.927756294608116">
        <ele>513.4814453125</ele>
        <time>2016-10-30T08:35:09Z</time>
      </trkpt>
      <trkpt lat="40.202540019527078" lon="-6.927849836647511">
        <ele>513.9620361328125</ele>
        <time>2016-10-30T08:35:14Z</time>
      </trkpt>
      <trkpt lat="40.202478747814894" lon="-6.927940864115953">
        <ele>515.404052734375</ele>
        <time>2016-10-30T08:35:19Z</time>
      </trkpt>
      <trkpt lat="40.202417727559805" lon="-6.928015630692244">
        <ele>516.845947265625</ele>
        <time>2016-10-30T08:35:24Z</time>
      </trkpt>
      <trkpt lat="40.202363831922412" lon="-6.92809316329658">
        <ele>517.8072509765625</ele>
        <time>2016-10-30T08:35:29Z</time>
      </trkpt>
      <trkpt lat="40.202301889657974" lon="-6.928162397816777">
        <ele>518.287841796875</ele>
        <time>2016-10-30T08:35:34Z</time>
      </trkpt>
      <trkpt lat="40.202237349003553" lon="-6.928224926814437">
        <ele>518.287841796875</ele>
        <time>2016-10-30T08:35:39Z</time>
      </trkpt>
      <trkpt lat="40.202173814177513" lon="-6.928297933191061">
        <ele>518.287841796875</ele>
        <time>2016-10-30T08:35:44Z</time>
      </trkpt>
      <trkpt lat="40.202191667631269" lon="-6.928384099155664">
        <ele>520.2105712890625</ele>
        <time>2016-10-30T08:35:49Z</time>
      </trkpt>
      <trkpt lat="40.202296273782849" lon="-6.92840731702745">
        <ele>520.2105712890625</ele>
        <time>2016-10-30T08:35:54Z</time>
      </trkpt>
      <trkpt lat="40.202421164140105" lon="-6.928386194631457">
        <ele>520.2105712890625</ele>
        <time>2016-10-30T08:35:59Z</time>
      </trkpt>
      <trkpt lat="40.202556112781167" lon="-6.928323414176703">
        <ele>520.2105712890625</ele>
        <time>2016-10-30T08:36:04Z</time>
      </trkpt>
      <trkpt lat="40.202695168554783" lon="-6.928252587094903">
        <ele>522.1331787109375</ele>
        <time>2016-10-30T08:36:09Z</time>
      </trkpt>
      <trkpt lat="40.202774042263627" lon="-6.928153848275542">
        <ele>523.5751953125</ele>
        <time>2016-10-30T08:36:14Z</time>
      </trkpt>
      <trkpt lat="40.202863225713372" lon="-6.928047901019454">
        <ele>524.5364990234375</ele>
        <time>2016-10-30T08:36:19Z</time>
      </trkpt>
      <trkpt lat="40.202962635084987" lon="-6.927926447242498">
        <ele>526.4591064453125</ele>
        <time>2016-10-30T08:36:24Z</time>
      </trkpt>
      <trkpt lat="40.203082161024213" lon="-6.927828127518296">
        <ele>527.42041015625</ele>
        <time>2016-10-30T08:36:29Z</time>
      </trkpt>
      <trkpt lat="40.203193891793489" lon="-6.927729556336999">
        <ele>527.42041015625</ele>
        <time>2016-10-30T08:36:34Z</time>
      </trkpt>
      <trkpt lat="40.203318446874619" lon="-6.927652945742011">
        <ele>527.9010009765625</ele>
        <time>2016-10-30T08:36:39Z</time>
      </trkpt>
      <trkpt lat="40.203428920358419" lon="-6.927563259378076">
        <ele>528.862548828125</ele>
        <time>2016-10-30T08:36:44Z</time>
      </trkpt>
      <trkpt lat="40.20355062559247" lon="-6.927533252164722">
        <ele>528.3818359375</ele>
        <time>2016-10-30T08:36:49Z</time>
      </trkpt>
      <trkpt lat="40.203677359968424" lon="-6.92753710784018">
        <ele>527.9010009765625</ele>
        <time>2016-10-30T08:36:54Z</time>
      </trkpt>
      <trkpt lat="40.203792443498969" lon="-6.927550183609128">
        <ele>529.3431396484375</ele>
        <time>2016-10-30T08:36:59Z</time>
      </trkpt>
      <trkpt lat="40.203893361613154" lon="-6.927567450329661">
        <ele>530.78515625</ele>
        <time>2016-10-30T08:37:04Z</time>
      </trkpt>
      <trkpt lat="40.204015234485269" lon="-6.927604163065553">
        <ele>532.22705078125</ele>
        <time>2016-10-30T08:37:09Z</time>
      </trkpt>
      <trkpt lat="40.204135347157717" lon="-6.92765680141747">
        <ele>533.1883544921875</ele>
        <time>2016-10-30T08:37:14Z</time>
      </trkpt>
      <trkpt lat="40.204223776236176" lon="-6.92773207090795">
        <ele>534.63037109375</ele>
        <time>2016-10-30T08:37:19Z</time>
      </trkpt>
      <trkpt lat="40.204375991597772" lon="-6.927861906588078">
        <ele>535.1109619140625</ele>
        <time>2016-10-30T08:37:24Z</time>
      </trkpt>
      <trkpt lat="40.204458637163043" lon="-6.927978666499257">
        <ele>535.1109619140625</ele>
        <time>2016-10-30T08:37:29Z</time>
      </trkpt>
      <trkpt lat="40.204490823671222" lon="-6.928141694515944">
        <ele>533.6689453125</ele>
        <time>2016-10-30T08:37:34Z</time>
      </trkpt>
      <trkpt lat="40.20451714284718" lon="-6.928274296224117">
        <ele>532.22705078125</ele>
        <time>2016-10-30T08:37:39Z</time>
      </trkpt>
      <trkpt lat="40.204551676288247" lon="-6.928482335060835">
        <ele>533.1883544921875</ele>
        <time>2016-10-30T08:37:44Z</time>
      </trkpt>
      <trkpt lat="40.204615546390414" lon="-6.928645698353648">
        <ele>535.1109619140625</ele>
        <time>2016-10-30T08:37:49Z</time>
      </trkpt>
      <trkpt lat="40.204733815044165" lon="-6.92863505333662">
        <ele>538.956298828125</ele>
        <time>2016-10-30T08:37:54Z</time>
      </trkpt>
      <trkpt lat="40.204858286306262" lon="-6.928532123565674">
        <ele>540.3983154296875</ele>
        <time>2016-10-30T08:37:59Z</time>
      </trkpt>
      <trkpt lat="40.204970771446824" lon="-6.928540086373687">
        <ele>540.87890625</ele>
        <time>2016-10-30T08:38:04Z</time>
      </trkpt>
      <trkpt lat="40.205019302666187" lon="-6.928660869598389">
        <ele>539.9176025390625</ele>
        <time>2016-10-30T08:38:09Z</time>
      </trkpt>
      <trkpt lat="40.205000108107924" lon="-6.928834207355976">
        <ele>537.9949951171875</ele>
        <time>2016-10-30T08:38:14Z</time>
      </trkpt>
      <trkpt lat="40.205021146684885" lon="-6.928974017500877">
        <ele>537.03369140625</ele>
        <time>2016-10-30T08:38:19Z</time>
      </trkpt>
      <trkpt lat="40.205151066184044" lon="-6.929011652246118">
        <ele>536.5531005859375</ele>
        <time>2016-10-30T08:38:24Z</time>
      </trkpt>
      <trkpt lat="40.205308813601732" lon="-6.929028583690524">
        <ele>536.0723876953125</ele>
        <time>2016-10-30T08:38:29Z</time>
      </trkpt>
      <trkpt lat="40.205458849668503" lon="-6.929034618660808">
        <ele>536.5531005859375</ele>
        <time>2016-10-30T08:38:34Z</time>
      </trkpt>
      <trkpt lat="40.205624224618077" lon="-6.929036295041442">
        <ele>537.03369140625</ele>
        <time>2016-10-30T08:38:39Z</time>
      </trkpt>
      <trkpt lat="40.205791611224413" lon="-6.929114330559969">
        <ele>536.5531005859375</ele>
        <time>2016-10-30T08:38:44Z</time>
      </trkpt>
      <trkpt lat="40.205952879041433" lon="-6.929235616698861">
        <ele>538.4757080078125</ele>
        <time>2016-10-30T08:38:49Z</time>
      </trkpt>
      <trkpt lat="40.206103082746267" lon="-6.929316585883498">
        <ele>539.4368896484375</ele>
        <time>2016-10-30T08:38:54Z</time>
      </trkpt>
      <trkpt lat="40.206266781315207" lon="-6.929410630837083">
        <ele>539.9176025390625</ele>
        <time>2016-10-30T08:38:59Z</time>
      </trkpt>
      <trkpt lat="40.20640374161303" lon="-6.929572485387325">
        <ele>539.9176025390625</ele>
        <time>2016-10-30T08:39:04Z</time>
      </trkpt>
      <trkpt lat="40.206477669999003" lon="-6.929773231968284">
        <ele>538.956298828125</ele>
        <time>2016-10-30T08:39:09Z</time>
      </trkpt>
      <trkpt lat="40.206627119332552" lon="-6.929897200316191">
        <ele>540.87890625</ele>
        <time>2016-10-30T08:39:14Z</time>
      </trkpt>
      <trkpt lat="40.206793835386634" lon="-6.929901978000999">
        <ele>543.2821044921875</ele>
        <time>2016-10-30T08:39:19Z</time>
      </trkpt>
      <trkpt lat="40.206970777362585" lon="-6.929954532533884">
        <ele>541.8402099609375</ele>
        <time>2016-10-30T08:39:24Z</time>
      </trkpt>
      <trkpt lat="40.207112934440374" lon="-6.930065341293812">
        <ele>541.8402099609375</ele>
        <time>2016-10-30T08:39:29Z</time>
      </trkpt>
      <trkpt lat="40.207190215587616" lon="-6.930191740393639">
        <ele>542.3209228515625</ele>
        <time>2016-10-30T08:39:34Z</time>
      </trkpt>
      <trkpt lat="40.207287697121501" lon="-6.930381339043379">
        <ele>541.8402099609375</ele>
        <time>2016-10-30T08:39:39Z</time>
      </trkpt>
      <trkpt lat="40.20736975595355" lon="-6.930570183321834">
        <ele>541.8402099609375</ele>
        <time>2016-10-30T08:39:44Z</time>
      </trkpt>
      <trkpt lat="40.207436894997954" lon="-6.930784257128835">
        <ele>540.3983154296875</ele>
        <time>2016-10-30T08:39:49Z</time>
      </trkpt>
      <trkpt lat="40.207482073456049" lon="-6.930976873263717">
        <ele>540.87890625</ele>
        <time>2016-10-30T08:39:54Z</time>
      </trkpt>
      <trkpt lat="40.207488695159554" lon="-6.931203352287412">
        <ele>540.87890625</ele>
        <time>2016-10-30T08:39:59Z</time>
      </trkpt>
      <trkpt lat="40.207582823932171" lon="-6.931258086115122">
        <ele>541.8402099609375</ele>
        <time>2016-10-30T08:40:04Z</time>
      </trkpt>
      <trkpt lat="40.207744427025318" lon="-6.931080222129822">
        <ele>541.3594970703125</ele>
        <time>2016-10-30T08:40:09Z</time>
      </trkpt>
      <trkpt lat="40.20793603733182" lon="-6.930920546874404">
        <ele>542.801513671875</ele>
        <time>2016-10-30T08:40:14Z</time>
      </trkpt>
      <trkpt lat="40.208124462515116" lon="-6.93092280998826">
        <ele>543.2821044921875</ele>
        <time>2016-10-30T08:40:19Z</time>
      </trkpt>
      <trkpt lat="40.208263183012605" lon="-6.931080305948854">
        <ele>541.3594970703125</ele>
        <time>2016-10-30T08:40:24Z</time>
      </trkpt>
      <trkpt lat="40.208371309563518" lon="-6.931296726688743">
        <ele>540.87890625</ele>
        <time>2016-10-30T08:40:29Z</time>
      </trkpt>
      <trkpt lat="40.208470551297069" lon="-6.931506777182221">
        <ele>541.3594970703125</ele>
        <time>2016-10-30T08:40:34Z</time>
      </trkpt>
      <trkpt lat="40.208551939576864" lon="-6.931751109659672">
        <ele>540.3983154296875</ele>
        <time>2016-10-30T08:40:39Z</time>
      </trkpt>
      <trkpt lat="40.208587646484375" lon="-6.932022180408239">
        <ele>537.9949951171875</ele>
        <time>2016-10-30T08:40:44Z</time>
      </trkpt>
      <trkpt lat="40.208587646484375" lon="-6.932269027456641">
        <ele>538.956298828125</ele>
        <time>2016-10-30T08:40:49Z</time>
      </trkpt>
      <trkpt lat="40.208623604848981" lon="-6.932474300265312">
        <ele>537.9949951171875</ele>
        <time>2016-10-30T08:40:54Z</time>
      </trkpt>
      <trkpt lat="40.208757882937789" lon="-6.932650320231915">
        <ele>539.9176025390625</ele>
        <time>2016-10-30T08:40:59Z</time>
      </trkpt>
      <trkpt lat="40.208888053894043" lon="-6.93286363966763">
        <ele>540.87890625</ele>
        <time>2016-10-30T08:41:04Z</time>
      </trkpt>
      <trkpt lat="40.208888053894043" lon="-6.933102607727051">
        <ele>539.4368896484375</ele>
        <time>2016-10-30T08:41:09Z</time>
      </trkpt>
      <trkpt lat="40.208828877657652" lon="-6.933327578008175">
        <ele>540.87890625</ele>
        <time>2016-10-30T08:41:14Z</time>
      </trkpt>
      <trkpt lat="40.209010764956474" lon="-6.933381306007505">
        <ele>541.8402099609375</ele>
        <time>2016-10-30T08:41:19Z</time>
      </trkpt>
      <trkpt lat="40.209212768822908" lon="-6.933326236903667">
        <ele>542.3209228515625</ele>
        <time>2016-10-30T08:41:24Z</time>
      </trkpt>
      <trkpt lat="40.209388704970479" lon="-6.933278292417526">
        <ele>543.7628173828125</ele>
        <time>2016-10-30T08:41:29Z</time>
      </trkpt>
      <trkpt lat="40.209621889516711" lon="-6.933428663760424">
        <ele>544.7242431640625</ele>
        <time>2016-10-30T08:41:34Z</time>
      </trkpt>
      <trkpt lat="40.209636054933071" lon="-6.933656064793468">
        <ele>542.3209228515625</ele>
        <time>2016-10-30T08:41:39Z</time>
      </trkpt>
      <trkpt lat="40.209652818739414" lon="-6.933924285694957">
        <ele>541.3594970703125</ele>
        <time>2016-10-30T08:41:44Z</time>
      </trkpt>
      <trkpt lat="40.209649968892336" lon="-6.934195188805461">
        <ele>540.3983154296875</ele>
        <time>2016-10-30T08:41:49Z</time>
      </trkpt>
      <trkpt lat="40.209629517048597" lon="-6.934481346979737">
        <ele>539.9176025390625</ele>
        <time>2016-10-30T08:41:54Z</time>
      </trkpt>
      <trkpt lat="40.209566904231906" lon="-6.934732049703598">
        <ele>538.4757080078125</ele>
        <time>2016-10-30T08:41:59Z</time>
      </trkpt>
      <trkpt lat="40.20952851511538" lon="-6.93498132750392">
        <ele>540.87890625</ele>
        <time>2016-10-30T08:42:04Z</time>
      </trkpt>
      <trkpt lat="40.209734374657273" lon="-6.935058441013098">
        <ele>542.3209228515625</ele>
        <time>2016-10-30T08:42:09Z</time>
      </trkpt>
      <trkpt lat="40.209918022155762" lon="-6.935272263363004">
        <ele>543.2821044921875</ele>
        <time>2016-10-30T08:42:14Z</time>
      </trkpt>
      <trkpt lat="40.209889020770788" lon="-6.93556621670723">
        <ele>542.801513671875</ele>
        <time>2016-10-30T08:42:19Z</time>
      </trkpt>
      <trkpt lat="40.209810147061944" lon="-6.935850782319903">
        <ele>542.801513671875</ele>
        <time>2016-10-30T08:42:24Z</time>
      </trkpt>
      <trkpt lat="40.209796484559774" lon="-6.936054211109877">
        <ele>543.7628173828125</ele>
        <time>2016-10-30T08:42:29Z</time>
      </trkpt>
      <trkpt lat="40.209975773468614" lon="-6.936173820868135">
        <ele>544.7242431640625</ele>
        <time>2016-10-30T08:42:34Z</time>
      </trkpt>
      <trkpt lat="40.210193451493979" lon="-6.936318911612034">
        <ele>544.7242431640625</ele>
        <time>2016-10-30T08:42:39Z</time>
      </trkpt>
      <trkpt lat="40.210332004353404" lon="-6.93648629821837">
        <ele>544.7242431640625</ele>
        <time>2016-10-30T08:42:44Z</time>
      </trkpt>
      <trkpt lat="40.210478687658906" lon="-6.936739599332213">
        <ele>544.7242431640625</ele>
        <time>2016-10-30T08:42:49Z</time>
      </trkpt>
      <trkpt lat="40.210626628249884" lon="-6.936995247378945">
        <ele>544.24365234375</ele>
        <time>2016-10-30T08:42:54Z</time>
      </trkpt>
      <trkpt lat="40.210785884410143" lon="-6.937214517965913">
        <ele>545.204833984375</ele>
        <time>2016-10-30T08:42:59Z</time>
      </trkpt>
      <trkpt lat="40.21096701733768" lon="-6.937335385009646">
        <ele>545.204833984375</ele>
        <time>2016-10-30T08:43:04Z</time>
      </trkpt>
      <trkpt lat="40.211146976798773" lon="-6.937394561246038">
        <ele>547.608154296875</ele>
        <time>2016-10-30T08:43:09Z</time>
      </trkpt>
      <trkpt lat="40.211340682581067" lon="-6.937448289245367">
        <ele>549.050048828125</ele>
        <time>2016-10-30T08:43:14Z</time>
      </trkpt>
      <trkpt lat="40.211548889055848" lon="-6.937506124377251">
        <ele>550.4921875</ele>
        <time>2016-10-30T08:43:19Z</time>
      </trkpt>
      <trkpt lat="40.211753994226456" lon="-6.937563121318817">
        <ele>550.4921875</ele>
        <time>2016-10-30T08:43:24Z</time>
      </trkpt>
      <trkpt lat="40.211897240951657" lon="-6.937618358060718">
        <ele>552.895263671875</ele>
        <time>2016-10-30T08:43:29Z</time>
      </trkpt>
      <trkpt lat="40.212047109380364" lon="-6.937677199020982">
        <ele>554.33740234375</ele>
        <time>2016-10-30T08:43:34Z</time>
      </trkpt>
      <trkpt lat="40.21220862865448" lon="-6.93774065002799">
        <ele>557.221435546875</ele>
        <time>2016-10-30T08:43:39Z</time>
      </trkpt>
      <trkpt lat="40.212361598387361" lon="-6.93780074827373">
        <ele>560.105224609375</ele>
        <time>2016-10-30T08:43:44Z</time>
      </trkpt>
      <trkpt lat="40.212493445724249" lon="-6.93785254843533">
        <ele>560.5859375</ele>
        <time>2016-10-30T08:43:49Z</time>
      </trkpt>
      <trkpt lat="40.212614564225078" lon="-6.937900073826313">
        <ele>564.43115234375</ele>
        <time>2016-10-30T08:43:54Z</time>
      </trkpt>
      <trkpt lat="40.212688744068146" lon="-6.937929326668382">
        <ele>565.873291015625</ele>
        <time>2016-10-30T08:43:58Z</time>
      </trkpt>
      <trkpt lat="40.212780190631747" lon="-6.937965201213956">
        <ele>567.795654296875</ele>
        <time>2016-10-30T08:44:04Z</time>
      </trkpt>
      <trkpt lat="40.212903236970305" lon="-6.938013564795256">
        <ele>570.198974609375</ele>
        <time>2016-10-30T08:44:09Z</time>
      </trkpt>
      <trkpt lat="40.213028965517879" lon="-6.937995292246342">
        <ele>566.83447265625</ele>
        <time>2016-10-30T08:44:14Z</time>
      </trkpt>
      <trkpt lat="40.213094092905521" lon="-6.937951538711786">
        <ele>566.353759765625</ele>
        <time>2016-10-30T08:44:19Z</time>
      </trkpt>
      <trkpt lat="40.213165674358606" lon="-6.937844166532159">
        <ele>566.83447265625</ele>
        <time>2016-10-30T08:44:24Z</time>
      </trkpt>
      <trkpt lat="40.213238429278135" lon="-6.937735117971897">
        <ele>566.353759765625</ele>
        <time>2016-10-30T08:44:29Z</time>
      </trkpt>
      <trkpt lat="40.213248571380973" lon="-6.93759304471314">
        <ele>566.353759765625</ele>
        <time>2016-10-30T08:44:34Z</time>
      </trkpt>
      <trkpt lat="40.213213115930557" lon="-6.937380814924836">
        <ele>567.315185546875</ele>
        <time>2016-10-30T08:44:39Z</time>
      </trkpt>
      <trkpt lat="40.213227616623044" lon="-6.937059536576271">
        <ele>568.757080078125</ele>
        <time>2016-10-30T08:44:44Z</time>
      </trkpt>
      <trkpt lat="40.213416628539562" lon="-6.936918972060084">
        <ele>565.873291015625</ele>
        <time>2016-10-30T08:44:49Z</time>
      </trkpt>
      <trkpt lat="40.213584769517183" lon="-6.936894999817014">
        <ele>563.950439453125</ele>
        <time>2016-10-30T08:44:54Z</time>
      </trkpt>
      <trkpt lat="40.213765986263752" lon="-6.93690849468112">
        <ele>564.911865234375</ele>
        <time>2016-10-30T08:44:59Z</time>
      </trkpt>
      <trkpt lat="40.213917279615998" lon="-6.936970772221685">
        <ele>563.469970703125</ele>
        <time>2016-10-30T08:45:04Z</time>
      </trkpt>
      <trkpt lat="40.214072596281767" lon="-6.937034726142883">
        <ele>563.950439453125</ele>
        <time>2016-10-30T08:45:09Z</time>
      </trkpt>
      <trkpt lat="40.214205197989941" lon="-6.93708929233253">
        <ele>563.469970703125</ele>
        <time>2016-10-30T08:45:14Z</time>
      </trkpt>
      <trkpt lat="40.21437082439661" lon="-6.937157604843378">
        <ele>562.9892578125</ele>
        <time>2016-10-30T08:45:19Z</time>
      </trkpt>
      <trkpt lat="40.214519267901778" lon="-6.937179565429688">
        <ele>561.066650390625</ele>
        <time>2016-10-30T08:45:24Z</time>
      </trkpt>
      <trkpt lat="40.214662263169885" lon="-6.937179565429688">
        <ele>559.14404296875</ele>
        <time>2016-10-30T08:45:29Z</time>
      </trkpt>
      <trkpt lat="40.214816574007273" lon="-6.937179565429688">
        <ele>556.74072265625</ele>
        <time>2016-10-30T08:45:34Z</time>
      </trkpt>
      <trkpt lat="40.214971303939819" lon="-6.937179565429688">
        <ele>556.260009765625</ele>
        <time>2016-10-30T08:45:39Z</time>
      </trkpt>
      <trkpt lat="40.215153358876705" lon="-6.937145870178938">
        <ele>560.105224609375</ele>
        <time>2016-10-30T08:45:44Z</time>
      </trkpt>
      <trkpt lat="40.215307585895061" lon="-6.937105301767588">
        <ele>560.5859375</ele>
        <time>2016-10-30T08:45:49Z</time>
      </trkpt>
      <trkpt lat="40.215453933924437" lon="-6.937066745012999">
        <ele>563.469970703125</ele>
        <time>2016-10-30T08:45:54Z</time>
      </trkpt>
      <trkpt lat="40.215581003576517" lon="-6.937033385038376">
        <ele>560.105224609375</ele>
        <time>2016-10-30T08:45:59Z</time>
      </trkpt>
      <trkpt lat="40.215713689103723" lon="-6.936998516321182">
        <ele>560.105224609375</ele>
        <time>2016-10-30T08:46:04Z</time>
      </trkpt>
      <trkpt lat="40.215848973020911" lon="-6.936969263479114">
        <ele>561.066650390625</ele>
        <time>2016-10-30T08:46:09Z</time>
      </trkpt>
      <trkpt lat="40.215961122885346" lon="-6.937025338411331">
        <ele>561.54736328125</ele>
        <time>2016-10-30T08:46:14Z</time>
      </trkpt>
      <trkpt lat="40.216121468693018" lon="-6.937105469405651">
        <ele>561.066650390625</ele>
        <time>2016-10-30T08:46:19Z</time>
      </trkpt>
      <trkpt lat="40.216239737346768" lon="-6.937164645642042">
        <ele>561.066650390625</ele>
        <time>2016-10-30T08:46:24Z</time>
      </trkpt>
      <trkpt lat="40.216372506693006" lon="-6.937168166041374">
        <ele>560.5859375</ele>
        <time>2016-10-30T08:46:29Z</time>
      </trkpt>
      <trkpt lat="40.216507203876972" lon="-6.937153246253729">
        <ele>561.54736328125</ele>
        <time>2016-10-30T08:46:34Z</time>
      </trkpt>
      <trkpt lat="40.216636536642909" lon="-6.937138997018337">
        <ele>566.83447265625</ele>
        <time>2016-10-30T08:46:39Z</time>
      </trkpt>
      <trkpt lat="40.216772826388478" lon="-6.937097758054733">
        <ele>569.23779296875</ele>
        <time>2016-10-30T08:46:44Z</time>
      </trkpt>
      <trkpt lat="40.21691020578146" lon="-6.937051992863417">
        <ele>569.718505859375</ele>
        <time>2016-10-30T08:46:49Z</time>
      </trkpt>
      <trkpt lat="40.217014560475945" lon="-6.937017291784287">
        <ele>570.198974609375</ele>
        <time>2016-10-30T08:46:54Z</time>
      </trkpt>
      <trkpt lat="40.217058984562755" lon="-6.936996672302485">
        <ele>572.6025390625</ele>
        <time>2016-10-30T08:46:59Z</time>
      </trkpt>
      <trkpt lat="40.217269621789455" lon="-6.936856275424361">
        <ele>572.6025390625</ele>
        <time>2016-10-30T08:47:04Z</time>
      </trkpt>
      <trkpt lat="40.217410605400801" lon="-6.936762314289808">
        <ele>573.083251953125</ele>
        <time>2016-10-30T08:47:09Z</time>
      </trkpt>
      <trkpt lat="40.217520911246538" lon="-6.936688721179962">
        <ele>575.005859375</ele>
        <time>2016-10-30T08:47:14Z</time>
      </trkpt>
      <trkpt lat="40.217612693086267" lon="-6.936627449467778">
        <ele>575.486328125</ele>
        <time>2016-10-30T08:47:19Z</time>
      </trkpt>
      <trkpt lat="40.217686705291271" lon="-6.93657816387713">
        <ele>577.8896484375</ele>
        <time>2016-10-30T08:47:24Z</time>
      </trkpt>
      <trkpt lat="40.217789383605123" lon="-6.936509683728218">
        <ele>578.370361328125</ele>
        <time>2016-10-30T08:47:29Z</time>
      </trkpt>
      <trkpt lat="40.217898096889257" lon="-6.936437264084816">
        <ele>580.29296875</ele>
        <time>2016-10-30T08:47:34Z</time>
      </trkpt>
      <trkpt lat="40.217970851808786" lon="-6.936388732865453">
        <ele>582.215576171875</ele>
        <time>2016-10-30T08:47:39Z</time>
      </trkpt>
      <trkpt lat="40.218021143227816" lon="-6.936355289071798">
        <ele>582.6962890625</ele>
        <time>2016-10-30T08:47:44Z</time>
      </trkpt>
      <trkpt lat="40.218132622539997" lon="-6.936220172792673">
        <ele>583.1767578125</ele>
        <time>2016-10-30T08:47:49Z</time>
      </trkpt>
      <trkpt lat="40.218169670552015" lon="-6.936158398166299">
        <ele>583.1767578125</ele>
        <time>2016-10-30T08:47:54Z</time>
      </trkpt>
      <trkpt lat="40.218202276155353" lon="-6.936104083433747">
        <ele>586.54150390625</ele>
        <time>2016-10-30T08:47:59Z</time>
      </trkpt>
      <trkpt lat="40.2182378154248" lon="-6.936044823378325">
        <ele>588.46435546875</ele>
        <time>2016-10-30T08:48:04Z</time>
      </trkpt>
      <trkpt lat="40.218271845951676" lon="-6.935988161712885">
        <ele>589.90625</ele>
        <time>2016-10-30T08:48:09Z</time>
      </trkpt>
      <trkpt lat="40.218322221189737" lon="-6.935904175043106">
        <ele>590.386962890625</ele>
        <time>2016-10-30T08:48:14Z</time>
      </trkpt>
      <trkpt lat="40.218365555629134" lon="-6.935831923037767">
        <ele>589.425537109375</ele>
        <time>2016-10-30T08:48:19Z</time>
      </trkpt>
      <trkpt lat="40.218399502336979" lon="-6.93577534519136">
        <ele>593.75146484375</ele>
        <time>2016-10-30T08:48:24Z</time>
      </trkpt>
      <trkpt lat="40.218429006636143" lon="-6.935726227238774">
        <ele>591.828857421875</ele>
        <time>2016-10-30T08:48:29Z</time>
      </trkpt>
      <trkpt lat="40.218478376045823" lon="-6.93564391694963">
        <ele>591.828857421875</ele>
        <time>2016-10-30T08:48:34Z</time>
      </trkpt>
      <trkpt lat="40.219084471464157" lon="-6.936044320464134">
        <ele>593.75146484375</ele>
        <time>2016-10-30T08:48:39Z</time>
      </trkpt>
      <trkpt lat="40.21920776925981" lon="-6.935955472290516">
        <ele>587.9833984375</ele>
        <time>2016-10-30T08:48:44Z</time>
      </trkpt>
      <trkpt lat="40.219299048185349" lon="-6.935847345739603">
        <ele>587.02197265625</ele>
        <time>2016-10-30T08:48:49Z</time>
      </trkpt>
      <trkpt lat="40.219374652951956" lon="-6.935727652162314">
        <ele>586.060791015625</ele>
        <time>2016-10-30T08:48:54Z</time>
      </trkpt>
      <trkpt lat="40.219493675976992" lon="-6.935675432905555">
        <ele>584.618896484375</ele>
        <time>2016-10-30T08:48:59Z</time>
      </trkpt>
      <trkpt lat="40.219620913267136" lon="-6.93569085560739">
        <ele>587.02197265625</ele>
        <time>2016-10-30T08:49:04Z</time>
      </trkpt>
      <trkpt lat="40.219728201627731" lon="-6.935686077922583">
        <ele>591.828857421875</ele>
        <time>2016-10-30T08:49:09Z</time>
      </trkpt>
      <trkpt lat="40.219861473888159" lon="-6.935674929991365">
        <ele>592.790283203125</ele>
        <time>2016-10-30T08:49:14Z</time>
      </trkpt>
      <trkpt lat="40.219974378123879" lon="-6.935663195326924">
        <ele>594.712646484375</ele>
        <time>2016-10-30T08:49:19Z</time>
      </trkpt>
      <trkpt lat="40.220105219632387" lon="-6.935645844787359">
        <ele>594.712646484375</ele>
        <time>2016-10-30T08:49:24Z</time>
      </trkpt>
      <trkpt lat="40.22023388184607" lon="-6.935612233355641">
        <ele>599.519287109375</ele>
        <time>2016-10-30T08:49:29Z</time>
      </trkpt>
      <trkpt lat="40.220346786081791" lon="-6.935583064332604">
        <ele>603.364501953125</ele>
        <time>2016-10-30T08:49:34Z</time>
      </trkpt>
      <trkpt lat="40.220446363091469" lon="-6.935520535334945">
        <ele>605.76806640625</ele>
        <time>2016-10-30T08:49:39Z</time>
      </trkpt>
      <trkpt lat="40.220546778291464" lon="-6.935454485937953">
        <ele>604.326171875</ele>
        <time>2016-10-30T08:49:44Z</time>
      </trkpt>
      <trkpt lat="40.220657587051392" lon="-6.93538005463779">
        <ele>604.326171875</ele>
        <time>2016-10-30T08:49:49Z</time>
      </trkpt>
      <trkpt lat="40.220727743580937" lon="-6.935290955007076">
        <ele>603.84521484375</ele>
        <time>2016-10-30T08:49:54Z</time>
      </trkpt>
      <trkpt lat="40.220839390531182" lon="-6.935242088511586">
        <ele>603.84521484375</ele>
        <time>2016-10-30T08:49:59Z</time>
      </trkpt>
      <trkpt lat="40.220956737175584" lon="-6.935227504000068">
        <ele>604.326171875</ele>
        <time>2016-10-30T08:50:04Z</time>
      </trkpt>
      <trkpt lat="40.221030078828335" lon="-6.935262707993388">
        <ele>605.287353515625</ele>
        <time>2016-10-30T08:50:09Z</time>
      </trkpt>
      <trkpt lat="40.221112975850701" lon="-6.935329595580697">
        <ele>607.690673828125</ele>
        <time>2016-10-30T08:50:14Z</time>
      </trkpt>
      <trkpt lat="40.221203165128827" lon="-6.935388520359993">
        <ele>610.574462890625</ele>
        <time>2016-10-30T08:50:19Z</time>
      </trkpt>
      <trkpt lat="40.22132009267807" lon="-6.935436716303229">
        <ele>611.535888671875</ele>
        <time>2016-10-30T08:50:24Z</time>
      </trkpt>
      <trkpt lat="40.221429644152522" lon="-6.935478122904897">
        <ele>609.132568359375</ele>
        <time>2016-10-30T08:50:29Z</time>
      </trkpt>
      <trkpt lat="40.221524862572551" lon="-6.935478458181024">
        <ele>609.61328125</ele>
        <time>2016-10-30T08:50:34Z</time>
      </trkpt>
      <trkpt lat="40.221568951383233" lon="-6.935395309701562">
        <ele>609.132568359375</ele>
        <time>2016-10-30T08:50:39Z</time>
      </trkpt>
      <trkpt lat="40.221523270010948" lon="-6.935321213677526">
        <ele>610.09375</ele>
        <time>2016-10-30T08:50:44Z</time>
      </trkpt>
      <trkpt lat="40.221407683566213" lon="-6.935304366052151">
        <ele>612.0166015625</ele>
        <time>2016-10-30T08:50:49Z</time>
      </trkpt>
      <trkpt lat="40.221283547580242" lon="-6.935263713821769">
        <ele>616.34228515625</ele>
        <time>2016-10-30T08:50:54Z</time>
      </trkpt>
      <trkpt lat="40.221189502626657" lon="-6.935198754072189">
        <ele>617.3037109375</ele>
        <time>2016-10-30T08:50:59Z</time>
      </trkpt>
      <trkpt lat="40.221088752150536" lon="-6.935094818472862">
        <ele>616.34228515625</ele>
        <time>2016-10-30T08:51:04Z</time>
      </trkpt>
      <trkpt lat="40.220924634486437" lon="-6.935001192614436">
        <ele>614.900390625</ele>
        <time>2016-10-30T08:51:09Z</time>
      </trkpt>
      <trkpt lat="40.220777615904808" lon="-6.93495593033731">
        <ele>613.93896484375</ele>
        <time>2016-10-30T08:51:14Z</time>
      </trkpt>
      <trkpt lat="40.220638560131192" lon="-6.934949392452836">
        <ele>612.0166015625</ele>
        <time>2016-10-30T08:51:19Z</time>
      </trkpt>
      <trkpt lat="40.220515094697475" lon="-6.934904549270868">
        <ele>609.61328125</ele>
        <time>2016-10-30T08:51:24Z</time>
      </trkpt>
      <trkpt lat="40.220360700041056" lon="-6.93486699834466">
        <ele>607.2099609375</ele>
        <time>2016-10-30T08:51:29Z</time>
      </trkpt>
      <trkpt lat="40.220217956230044" lon="-6.934843361377716">
        <ele>607.690673828125</ele>
        <time>2016-10-30T08:51:34Z</time>
      </trkpt>
      <trkpt lat="40.220096250995994" lon="-6.934758368879557">
        <ele>606.24853515625</ele>
        <time>2016-10-30T08:51:39Z</time>
      </trkpt>
      <trkpt lat="40.220054006204009" lon="-6.934608919546008">
        <ele>608.65185546875</ele>
        <time>2016-10-30T08:51:44Z</time>
      </trkpt>
      <trkpt lat="40.220170179381967" lon="-6.934472294524312">
        <ele>610.574462890625</ele>
        <time>2016-10-30T08:51:49Z</time>
      </trkpt>
      <trkpt lat="40.220264727249742" lon="-6.93436274304986">
        <ele>612.4970703125</ele>
        <time>2016-10-30T08:51:54Z</time>
      </trkpt>
      <trkpt lat="40.220339326187968" lon="-6.934255957603455">
        <ele>612.4970703125</ele>
        <time>2016-10-30T08:51:59Z</time>
      </trkpt>
      <trkpt lat="40.220413841307163" lon="-6.934164930135012">
        <ele>610.574462890625</ele>
        <time>2016-10-30T08:52:04Z</time>
      </trkpt>
      <trkpt lat="40.220490032806993" lon="-6.934082033112645">
        <ele>610.574462890625</ele>
        <time>2016-10-30T08:52:09Z</time>
      </trkpt>
      <trkpt lat="40.220557507127523" lon="-6.933989748358727">
        <ele>611.535888671875</ele>
        <time>2016-10-30T08:52:14Z</time>
      </trkpt>
      <trkpt lat="40.220630681142211" lon="-6.933893105015159">
        <ele>611.535888671875</ele>
        <time>2016-10-30T08:52:19Z</time>
      </trkpt>
      <trkpt lat="40.220719696953893" lon="-6.93376611918211">
        <ele>610.574462890625</ele>
        <time>2016-10-30T08:52:24Z</time>
      </trkpt>
      <trkpt lat="40.22078406997025" lon="-6.933666542172432">
        <ele>609.132568359375</ele>
        <time>2016-10-30T08:52:29Z</time>
      </trkpt>
      <trkpt lat="40.220843413844705" lon="-6.933576269075275">
        <ele>609.132568359375</ele>
        <time>2016-10-30T08:52:34Z</time>
      </trkpt>
      <trkpt lat="40.22092086263001" lon="-6.933495802804828">
        <ele>610.09375</ele>
        <time>2016-10-30T08:52:39Z</time>
      </trkpt>
      <trkpt lat="40.220981128513813" lon="-6.93340796045959">
        <ele>612.0166015625</ele>
        <time>2016-10-30T08:52:44Z</time>
      </trkpt>
      <trkpt lat="40.221084309741855" lon="-6.933335792273283">
        <ele>612.4970703125</ele>
        <time>2016-10-30T08:52:49Z</time>
      </trkpt>
      <trkpt lat="40.221158741042018" lon="-6.933243507519364">
        <ele>612.977783203125</ele>
        <time>2016-10-30T08:52:54Z</time>
      </trkpt>
      <trkpt lat="40.221228059381247" lon="-6.933162538334727">
        <ele>613.93896484375</ele>
        <time>2016-10-30T08:52:59Z</time>
      </trkpt>
      <trkpt lat="40.221327049657702" lon="-6.933075450360775">
        <ele>616.822998046875</ele>
        <time>2016-10-30T08:53:04Z</time>
      </trkpt>
      <trkpt lat="40.221404833719134" lon="-6.932992050424218">
        <ele>618.264892578125</ele>
        <time>2016-10-30T08:53:09Z</time>
      </trkpt>
      <trkpt lat="40.221554785966873" lon="-6.932930024340749">
        <ele>620.187744140625</ele>
        <time>2016-10-30T08:53:14Z</time>
      </trkpt>
      <trkpt lat="40.221634078770876" lon="-6.932837823405862">
        <ele>619.70703125</ele>
        <time>2016-10-30T08:53:19Z</time>
      </trkpt>
      <trkpt lat="40.221733236685395" lon="-6.932769175618887">
        <ele>623.07177734375</ele>
        <time>2016-10-30T08:53:24Z</time>
      </trkpt>
      <trkpt lat="40.221826191991568" lon="-6.932702036574483">
        <ele>624.994384765625</ele>
        <time>2016-10-30T08:53:29Z</time>
      </trkpt>
      <trkpt lat="40.221911855041981" lon="-6.932652918621898">
        <ele>629.320068359375</ele>
        <time>2016-10-30T08:53:34Z</time>
      </trkpt>
      <trkpt lat="40.222006486728787" lon="-6.932569686323404">
        <ele>631.723388671875</ele>
        <time>2016-10-30T08:53:39Z</time>
      </trkpt>
      <trkpt lat="40.222105979919434" lon="-6.932459296658635">
        <ele>630.76220703125</ele>
        <time>2016-10-30T08:53:44Z</time>
      </trkpt>
      <trkpt lat="40.222187619656324" lon="-6.932380758225918">
        <ele>632.2041015625</ele>
        <time>2016-10-30T08:53:49Z</time>
      </trkpt>
      <trkpt lat="40.222269762307405" lon="-6.932303812354803">
        <ele>633.64599609375</ele>
        <time>2016-10-30T08:53:54Z</time>
      </trkpt>
      <trkpt lat="40.222376799210906" lon="-6.932236421853304">
        <ele>632.684814453125</ele>
        <time>2016-10-30T08:53:59Z</time>
      </trkpt>
      <trkpt lat="40.222506802529097" lon="-6.932189986109734">
        <ele>632.684814453125</ele>
        <time>2016-10-30T08:54:04Z</time>
      </trkpt>
      <trkpt lat="40.222649043425918" lon="-6.932158721610904">
        <ele>633.64599609375</ele>
        <time>2016-10-30T08:54:09Z</time>
      </trkpt>
      <trkpt lat="40.222775861620903" lon="-6.932166684418917">
        <ele>635.088134765625</ele>
        <time>2016-10-30T08:54:14Z</time>
      </trkpt>
      <trkpt lat="40.22292229346931" lon="-6.93218294531107">
        <ele>636.049560546875</ele>
        <time>2016-10-30T08:54:19Z</time>
      </trkpt>
      <trkpt lat="40.223053051158786" lon="-6.932168863713741">
        <ele>637.0107421875</ele>
        <time>2016-10-30T08:54:24Z</time>
      </trkpt>
      <trkpt lat="40.223164446651936" lon="-6.932120583951473">
        <ele>638.93359375</ele>
        <time>2016-10-30T08:54:29Z</time>
      </trkpt>
      <trkpt lat="40.223262598738074" lon="-6.932060485705733">
        <ele>640.85595703125</ele>
        <time>2016-10-30T08:54:34Z</time>
      </trkpt>
      <trkpt lat="40.223417161032557" lon="-6.931989993900061">
        <ele>638.93359375</ele>
        <time>2016-10-30T08:54:39Z</time>
      </trkpt>
      <trkpt lat="40.223506595939398" lon="-6.931915730237961">
        <ele>637.491455078125</ele>
        <time>2016-10-30T08:54:43Z</time>
      </trkpt>
      <trkpt lat="40.223625870421529" lon="-6.931789834052324">
        <ele>634.607421875</ele>
        <time>2016-10-30T08:54:49Z</time>
      </trkpt>
      <trkpt lat="40.223741373047233" lon="-6.931657483801246">
        <ele>635.568603515625</ele>
        <time>2016-10-30T08:54:54Z</time>
      </trkpt>
      <trkpt lat="40.223825359717011" lon="-6.931534269824624">
        <ele>635.568603515625</ele>
        <time>2016-10-30T08:54:59Z</time>
      </trkpt>
      <trkpt lat="40.223902137950063" lon="-6.931395381689072">
        <ele>637.491455078125</ele>
        <time>2016-10-30T08:55:04Z</time>
      </trkpt>
      <trkpt lat="40.223988052457571" lon="-6.931264288723469">
        <ele>638.452880859375</ele>
        <time>2016-10-30T08:55:09Z</time>
      </trkpt>
      <trkpt lat="40.224070530384779" lon="-6.931126825511456">
        <ele>637.0107421875</ele>
        <time>2016-10-30T08:55:14Z</time>
      </trkpt>
      <trkpt lat="40.22417857311666" lon="-6.931012077257037">
        <ele>637.97216796875</ele>
        <time>2016-10-30T08:55:19Z</time>
      </trkpt>
      <trkpt lat="40.224274629727006" lon="-6.93089397624135">
        <ele>637.491455078125</ele>
        <time>2016-10-30T08:55:24Z</time>
      </trkpt>
      <trkpt lat="40.224377727136016" lon="-6.93084703758359">
        <ele>637.491455078125</ele>
        <time>2016-10-30T08:55:29Z</time>
      </trkpt>
      <trkpt lat="40.224517537280917" lon="-6.930807810276747">
        <ele>638.452880859375</ele>
        <time>2016-10-30T08:55:34Z</time>
      </trkpt>
      <trkpt lat="40.22463982924819" lon="-6.93074444308877">
        <ele>638.93359375</ele>
        <time>2016-10-30T08:55:39Z</time>
      </trkpt>
      <trkpt lat="40.224779723212123" lon="-6.930680824443698">
        <ele>640.37548828125</ele>
        <time>2016-10-30T08:55:44Z</time>
      </trkpt>
      <trkpt lat="40.224912911653519" lon="-6.930566830560565">
        <ele>641.336669921875</ele>
        <time>2016-10-30T08:55:49Z</time>
      </trkpt>
      <trkpt lat="40.224994719028473" lon="-6.930412771180272">
        <ele>642.298095703125</ele>
        <time>2016-10-30T08:55:54Z</time>
      </trkpt>
      <trkpt lat="40.225046435371041" lon="-6.93026608787477">
        <ele>644.220703125</ele>
        <time>2016-10-30T08:55:59Z</time>
      </trkpt>
      <trkpt lat="40.225102594122291" lon="-6.930091492831707">
        <ele>645.66259765625</ele>
        <time>2016-10-30T08:56:04Z</time>
      </trkpt>
      <trkpt lat="40.225177947431803" lon="-6.929913712665439">
        <ele>644.701171875</ele>
        <time>2016-10-30T08:56:09Z</time>
      </trkpt>
      <trkpt lat="40.225277943536639" lon="-6.929798126220703">
        <ele>643.739990234375</ele>
        <time>2016-10-30T08:56:14Z</time>
      </trkpt>
      <trkpt lat="40.225385567173362" lon="-6.929705338552594">
        <ele>642.298095703125</ele>
        <time>2016-10-30T08:56:19Z</time>
      </trkpt>
      <trkpt lat="40.225510960444808" lon="-6.929629314690828">
        <ele>639.4140625</ele>
        <time>2016-10-30T08:56:24Z</time>
      </trkpt>
      <trkpt lat="40.225630654022098" lon="-6.929525043815374">
        <ele>638.93359375</ele>
        <time>2016-10-30T08:56:29Z</time>
      </trkpt>
      <trkpt lat="40.225749341771007" lon="-6.929397219792008">
        <ele>638.93359375</ele>
        <time>2016-10-30T08:56:34Z</time>
      </trkpt>
      <trkpt lat="40.225850427523255" lon="-6.929247602820396">
        <ele>639.894775390625</ele>
        <time>2016-10-30T08:56:39Z</time>
      </trkpt>
      <trkpt lat="40.22594790905714" lon="-6.929142493754625">
        <ele>640.37548828125</ele>
        <time>2016-10-30T08:56:44Z</time>
      </trkpt>
      <trkpt lat="40.226059891283512" lon="-6.929059596732259">
        <ele>639.894775390625</ele>
        <time>2016-10-30T08:56:49Z</time>
      </trkpt>
      <trkpt lat="40.226175813004375" lon="-6.928921295329928">
        <ele>640.37548828125</ele>
        <time>2016-10-30T08:56:54Z</time>
      </trkpt>
      <trkpt lat="40.22628209553659" lon="-6.928741754963994">
        <ele>641.336669921875</ele>
        <time>2016-10-30T08:56:59Z</time>
      </trkpt>
      <trkpt lat="40.226306486874819" lon="-6.928513599559665">
        <ele>645.181884765625</ele>
        <time>2016-10-30T08:57:04Z</time>
      </trkpt>
      <trkpt lat="40.226315455511212" lon="-6.928318468853831">
        <ele>646.6240234375</ele>
        <time>2016-10-30T08:57:09Z</time>
      </trkpt>
      <trkpt lat="40.226366082206368" lon="-6.928171869367361">
        <ele>651.430419921875</ele>
        <time>2016-10-30T08:57:14Z</time>
      </trkpt>
      <trkpt lat="40.226430371403694" lon="-6.928008254617453">
        <ele>652.87255859375</ele>
        <time>2016-10-30T08:57:19Z</time>
      </trkpt>
      <trkpt lat="40.226503545418382" lon="-6.927858553826809">
        <ele>653.353271484375</ele>
        <time>2016-10-30T08:57:24Z</time>
      </trkpt>
      <trkpt lat="40.226614605635405" lon="-6.927706925198436">
        <ele>651.430419921875</ele>
        <time>2016-10-30T08:57:29Z</time>
      </trkpt>
      <trkpt lat="40.226729353889823" lon="-6.927574658766389">
        <ele>649.027099609375</ele>
        <time>2016-10-30T08:57:34Z</time>
      </trkpt>
      <trkpt lat="40.226835468783975" lon="-6.927450941875577">
        <ele>647.585205078125</ele>
        <time>2016-10-30T08:57:39Z</time>
      </trkpt>
      <trkpt lat="40.22694225423038" lon="-6.927368380129337">
        <ele>646.143310546875</ele>
        <time>2016-10-30T08:57:44Z</time>
      </trkpt>
      <trkpt lat="40.22706245072186" lon="-6.927266204729676">
        <ele>647.1044921875</ele>
        <time>2016-10-30T08:57:49Z</time>
      </trkpt>
      <trkpt lat="40.227128164842725" lon="-6.927103009074926">
        <ele>649.027099609375</ele>
        <time>2016-10-30T08:57:54Z</time>
      </trkpt>
      <trkpt lat="40.22713084705174" lon="-6.926908129826188">
        <ele>652.87255859375</ele>
        <time>2016-10-30T08:57:59Z</time>
      </trkpt>
      <trkpt lat="40.227211648598313" lon="-6.92674845457077">
        <ele>653.353271484375</ele>
        <time>2016-10-30T08:58:04Z</time>
      </trkpt>
      <trkpt lat="40.227317428216338" lon="-6.926619540899992">
        <ele>651.9111328125</ele>
        <time>2016-10-30T08:58:09Z</time>
      </trkpt>
      <trkpt lat="40.227421531453729" lon="-6.926512755453587">
        <ele>651.430419921875</ele>
        <time>2016-10-30T08:58:14Z</time>
      </trkpt>
      <trkpt lat="40.227511636912823" lon="-6.926409993320704">
        <ele>651.9111328125</ele>
        <time>2016-10-30T08:58:19Z</time>
      </trkpt>
      <trkpt lat="40.227501662448049" lon="-6.926200529560447">
        <ele>652.87255859375</ele>
        <time>2016-10-30T08:58:24Z</time>
      </trkpt>
      <trkpt lat="40.227396050468087" lon="-6.9260941632092">
        <ele>655.27587890625</ele>
        <time>2016-10-30T08:58:29Z</time>
      </trkpt>
      <trkpt lat="40.227267974987626" lon="-6.925971368327737">
        <ele>658.159912109375</ele>
        <time>2016-10-30T08:58:34Z</time>
      </trkpt>
      <trkpt lat="40.227172756567597" lon="-6.925849579274654">
        <ele>660.56298828125</ele>
        <time>2016-10-30T08:58:39Z</time>
      </trkpt>
      <trkpt lat="40.227078208699822" lon="-6.925705242902041">
        <ele>662.96630859375</ele>
        <time>2016-10-30T08:58:44Z</time>
      </trkpt>
      <trkpt lat="40.227010482922196" lon="-6.925538275390863">
        <ele>664.888916015625</ele>
        <time>2016-10-30T08:58:49Z</time>
      </trkpt>
      <trkpt lat="40.226922556757927" lon="-6.925371559336782">
        <ele>665.36962890625</ele>
        <time>2016-10-30T08:58:54Z</time>
      </trkpt>
      <trkpt lat="40.226895650848746" lon="-6.925150444731116">
        <ele>664.888916015625</ele>
        <time>2016-10-30T08:58:59Z</time>
      </trkpt>
      <trkpt lat="40.226976787671447" lon="-6.924954140558839">
        <ele>665.36962890625</ele>
        <time>2016-10-30T08:59:04Z</time>
      </trkpt>
      <trkpt lat="40.227033700793982" lon="-6.924780383706093">
        <ele>665.36962890625</ele>
        <time>2016-10-30T08:59:09Z</time>
      </trkpt>
      <trkpt lat="40.227099163457751" lon="-6.92461702041328">
        <ele>666.8115234375</ele>
        <time>2016-10-30T08:59:14Z</time>
      </trkpt>
      <trkpt lat="40.227172840386629" lon="-6.924450220540166">
        <ele>669.215087890625</ele>
        <time>2016-10-30T08:59:19Z</time>
      </trkpt>
      <trkpt lat="40.227284990251064" lon="-6.924274954944849">
        <ele>665.850341796875</ele>
        <time>2016-10-30T08:59:24Z</time>
      </trkpt>
      <trkpt lat="40.227386578917503" lon="-6.92415970377624">
        <ele>666.330810546875</ele>
        <time>2016-10-30T08:59:29Z</time>
      </trkpt>
      <trkpt lat="40.227538207545877" lon="-6.924103209748864">
        <ele>670.17626953125</ele>
        <time>2016-10-30T08:59:34Z</time>
      </trkpt>
      <trkpt lat="40.227707186713815" lon="-6.924050068482757">
        <ele>668.734375</ele>
        <time>2016-10-30T08:59:39Z</time>
      </trkpt>
      <trkpt lat="40.227864682674408" lon="-6.924016540870071">
        <ele>666.8115234375</ele>
        <time>2016-10-30T08:59:44Z</time>
      </trkpt>
      <trkpt lat="40.228006169199944" lon="-6.924023665487766">
        <ele>667.292236328125</ele>
        <time>2016-10-30T08:59:49Z</time>
      </trkpt>
      <trkpt lat="40.2281603962183" lon="-6.924067502841353">
        <ele>667.292236328125</ele>
        <time>2016-10-30T08:59:54Z</time>
      </trkpt>
      <trkpt lat="40.228305906057358" lon="-6.924129612743855">
        <ele>669.215087890625</ele>
        <time>2016-10-30T08:59:59Z</time>
      </trkpt>
      <trkpt lat="40.228471951559186" lon="-6.924221226945519">
        <ele>671.1376953125</ele>
        <time>2016-10-30T09:00:04Z</time>
      </trkpt>
      <trkpt lat="40.228619808331132" lon="-6.924310242757201">
        <ele>674.021484375</ele>
        <time>2016-10-30T09:00:09Z</time>
      </trkpt>
      <trkpt lat="40.228769425302744" lon="-6.924394816160202">
        <ele>674.98291015625</ele>
        <time>2016-10-30T09:00:14Z</time>
      </trkpt>
      <trkpt lat="40.228914180770516" lon="-6.924464888870716">
        <ele>675.46337890625</ele>
        <time>2016-10-30T09:00:19Z</time>
      </trkpt>
      <trkpt lat="40.229060025885701" lon="-6.924550132825971">
        <ele>677.38623046875</ele>
        <time>2016-10-30T09:00:24Z</time>
      </trkpt>
      <trkpt lat="40.229210648685694" lon="-6.924499087035656">
        <ele>679.30859375</ele>
        <time>2016-10-30T09:00:29Z</time>
      </trkpt>
      <trkpt lat="40.229309052228928" lon="-6.924335891380906">
        <ele>682.192626953125</ele>
        <time>2016-10-30T09:00:34Z</time>
      </trkpt>
      <trkpt lat="40.229405779391527" lon="-6.924172444269061">
        <ele>680.27001953125</ele>
        <time>2016-10-30T09:00:39Z</time>
      </trkpt>
      <trkpt lat="40.22950803861022" lon="-6.92401553504169">
        <ele>678.828125</ele>
        <time>2016-10-30T09:00:44Z</time>
      </trkpt>
      <trkpt lat="40.229621194303036" lon="-6.923879664391279">
        <ele>679.789306640625</ele>
        <time>2016-10-30T09:00:49Z</time>
      </trkpt>
      <trkpt lat="40.229756059125066" lon="-6.923767849802971">
        <ele>681.7119140625</ele>
        <time>2016-10-30T09:00:54Z</time>
      </trkpt>
      <trkpt lat="40.229883883148432" lon="-6.92364513874054">
        <ele>682.67333984375</ele>
        <time>2016-10-30T09:00:59Z</time>
      </trkpt>
      <trkpt lat="40.230039786547422" lon="-6.923489486798644">
        <ele>680.750732421875</ele>
        <time>2016-10-30T09:01:04Z</time>
      </trkpt>
      <trkpt lat="40.230172304436564" lon="-6.92327382043004">
        <ele>678.347412109375</ele>
        <time>2016-10-30T09:01:09Z</time>
      </trkpt>
      <trkpt lat="40.230301385745406" lon="-6.923114228993654">
        <ele>676.905517578125</ele>
        <time>2016-10-30T09:01:14Z</time>
      </trkpt>
      <trkpt lat="40.230428371578455" lon="-6.922958660870791">
        <ele>678.347412109375</ele>
        <time>2016-10-30T09:01:19Z</time>
      </trkpt>
      <trkpt lat="40.230524931102991" lon="-6.922764452174306">
        <ele>679.30859375</ele>
        <time>2016-10-30T09:01:24Z</time>
      </trkpt>
      <trkpt lat="40.230560302734375" lon="-6.922604274004698">
        <ele>680.750732421875</ele>
        <time>2016-10-30T09:01:29Z</time>
      </trkpt>
      <trkpt lat="40.230560302734375" lon="-6.922341417521238">
        <ele>683.634521484375</ele>
        <time>2016-10-30T09:01:34Z</time>
      </trkpt>
      <trkpt lat="40.230560302734375" lon="-6.922041345387697">
        <ele>685.557373046875</ele>
        <time>2016-10-30T09:01:39Z</time>
      </trkpt>
      <trkpt lat="40.230560302734375" lon="-6.921741021797061">
        <ele>684.59619140625</ele>
        <time>2016-10-30T09:01:44Z</time>
      </trkpt>
      <trkpt lat="40.230626268312335" lon="-6.921449666842818">
        <ele>680.750732421875</ele>
        <time>2016-10-30T09:01:49Z</time>
      </trkpt>
      <trkpt lat="40.230821650475264" lon="-6.921269791200757">
        <ele>679.30859375</ele>
        <time>2016-10-30T09:01:54Z</time>
      </trkpt>
      <trkpt lat="40.230997083708644" lon="-6.921152947470546">
        <ele>677.86669921875</ele>
        <time>2016-10-30T09:01:59Z</time>
      </trkpt>
      <trkpt lat="40.231213588267565" lon="-6.921084048226476">
        <ele>678.828125</ele>
        <time>2016-10-30T09:02:04Z</time>
      </trkpt>
      <trkpt lat="40.231445012614131" lon="-6.921026213094592">
        <ele>681.2314453125</ele>
        <time>2016-10-30T09:02:09Z</time>
      </trkpt>
      <trkpt lat="40.23167610168457" lon="-6.921055549755693">
        <ele>680.27001953125</ele>
        <time>2016-10-30T09:02:14Z</time>
      </trkpt>
      <trkpt lat="40.231903921812773" lon="-6.921153282746673">
        <ele>679.789306640625</ele>
        <time>2016-10-30T09:02:19Z</time>
      </trkpt>
      <trkpt lat="40.232109613716602" lon="-6.921241460368037">
        <ele>680.750732421875</ele>
        <time>2016-10-30T09:02:24Z</time>
      </trkpt>
      <trkpt lat="40.232327962294221" lon="-6.921275826171041">
        <ele>684.115478515625</ele>
        <time>2016-10-30T09:02:29Z</time>
      </trkpt>
      <trkpt lat="40.232528289780021" lon="-6.921295942738652">
        <ele>685.557373046875</ele>
        <time>2016-10-30T09:02:34Z</time>
      </trkpt>
      <trkpt lat="40.232666591182351" lon="-6.921259732916951">
        <ele>686.999267578125</ele>
        <time>2016-10-30T09:02:39Z</time>
      </trkpt>
      <trkpt lat="40.232837917283177" lon="-6.921180691570044">
        <ele>686.0380859375</ele>
        <time>2016-10-30T09:02:44Z</time>
      </trkpt>
      <trkpt lat="40.233002956956625" lon="-6.921104500070214">
        <ele>685.557373046875</ele>
        <time>2016-10-30T09:02:49Z</time>
      </trkpt>
      <trkpt lat="40.233218120411038" lon="-6.921035181730986">
        <ele>684.115478515625</ele>
        <time>2016-10-30T09:02:54Z</time>
      </trkpt>
      <trkpt lat="40.23350260220468" lon="-6.921006850898266">
        <ele>681.2314453125</ele>
        <time>2016-10-30T09:02:59Z</time>
      </trkpt>
      <trkpt lat="40.233590360730886" lon="-6.921200221404433">
        <ele>678.347412109375</ele>
        <time>2016-10-30T09:03:04Z</time>
      </trkpt>
      <trkpt lat="40.233564376831055" lon="-6.920914649963379">
        <ele>675.944091796875</ele>
        <time>2016-10-30T09:03:09Z</time>
      </trkpt>
      <trkpt lat="40.233698152005672" lon="-6.921681594103575">
        <ele>674.98291015625</ele>
        <time>2016-10-30T09:03:14Z</time>
      </trkpt>
      <trkpt lat="40.233764369040728" lon="-6.921958113089204">
        <ele>674.502197265625</ele>
        <time>2016-10-30T09:03:19Z</time>
      </trkpt>
      <trkpt lat="40.233776774257421" lon="-6.922373771667481">
        <ele>672.098876953125</ele>
        <time>2016-10-30T09:03:24Z</time>
      </trkpt>
      <trkpt lat="40.233897054567933" lon="-6.922679962590337">
        <ele>672.098876953125</ele>
        <time>2016-10-30T09:03:29Z</time>
      </trkpt>
      <trkpt lat="40.234069805592299" lon="-6.922901412472129">
        <ele>671.6181640625</ele>
        <time>2016-10-30T09:03:34Z</time>
      </trkpt>
      <trkpt lat="40.234191175550222" lon="-6.923170639201999">
        <ele>671.6181640625</ele>
        <time>2016-10-30T09:03:39Z</time>
      </trkpt>
      <trkpt lat="40.234358729794621" lon="-6.92345310933888">
        <ele>671.1376953125</ele>
        <time>2016-10-30T09:03:44Z</time>
      </trkpt>
      <trkpt lat="40.234444057568908" lon="-6.923871366307139">
        <ele>671.6181640625</ele>
        <time>2016-10-30T09:03:49Z</time>
      </trkpt>
      <trkpt lat="40.234484542161226" lon="-6.924300603568554">
        <ele>668.253662109375</ele>
        <time>2016-10-30T09:03:54Z</time>
      </trkpt>
      <trkpt lat="40.234308019280434" lon="-6.924664042890072">
        <ele>666.330810546875</ele>
        <time>2016-10-30T09:03:59Z</time>
      </trkpt>
      <trkpt lat="40.233915830031037" lon="-6.924790693446994">
        <ele>663.927490234375</ele>
        <time>2016-10-30T09:04:04Z</time>
      </trkpt>
      <trkpt lat="40.233635455369949" lon="-6.924988087266684">
        <ele>660.56298828125</ele>
        <time>2016-10-30T09:04:09Z</time>
      </trkpt>
      <trkpt lat="40.233340328559279" lon="-6.925153126940131">
        <ele>658.159912109375</ele>
        <time>2016-10-30T09:04:14Z</time>
      </trkpt>
      <trkpt lat="40.233255000784993" lon="-6.925334008410573">
        <ele>656.237060546875</ele>
        <time>2016-10-30T09:04:19Z</time>
      </trkpt>
      <trkpt lat="40.233485670760274" lon="-6.925572641193867">
        <ele>655.27587890625</ele>
        <time>2016-10-30T09:04:24Z</time>
      </trkpt>
      <trkpt lat="40.233781803399324" lon="-6.925685210153461">
        <ele>655.27587890625</ele>
        <time>2016-10-30T09:04:29Z</time>
      </trkpt>
      <trkpt lat="40.234073828905821" lon="-6.925899870693684">
        <ele>655.27587890625</ele>
        <time>2016-10-30T09:04:34Z</time>
      </trkpt>
      <trkpt lat="40.234348336234689" lon="-6.926207570359111">
        <ele>655.27587890625</ele>
        <time>2016-10-30T09:04:39Z</time>
      </trkpt>
      <trkpt lat="40.234636338427663" lon="-6.926655415445566">
        <ele>654.795166015625</ele>
        <time>2016-10-30T09:04:44Z</time>
      </trkpt>
      <trkpt lat="40.235000532120466" lon="-6.926616439595819">
        <ele>642.298095703125</ele>
        <time>2016-10-30T09:04:49Z</time>
      </trkpt>
      <trkpt lat="40.235287947580218" lon="-6.926324665546417">
        <ele>633.165283203125</ele>
        <time>2016-10-30T09:04:54Z</time>
      </trkpt>
      <trkpt lat="40.23566136136651" lon="-6.926093827933073">
        <ele>625.95556640625</ele>
        <time>2016-10-30T09:04:59Z</time>
      </trkpt>
      <trkpt lat="40.235951039940119" lon="-6.925820745527744">
        <ele>616.822998046875</ele>
        <time>2016-10-30T09:05:04Z</time>
      </trkpt>
      <trkpt lat="40.236114570870996" lon="-6.925374576821923">
        <ele>613.45849609375</ele>
        <time>2016-10-30T09:05:09Z</time>
      </trkpt>
      <trkpt lat="40.236324789002538" lon="-6.924938466399908">
        <ele>609.132568359375</ele>
        <time>2016-10-30T09:05:14Z</time>
      </trkpt>
      <trkpt lat="40.236569456756115" lon="-6.924719447270036">
        <ele>607.2099609375</ele>
        <time>2016-10-30T09:05:19Z</time>
      </trkpt>
      <trkpt lat="40.237199356779456" lon="-6.924997474998236">
        <ele>601.44189453125</ele>
        <time>2016-10-30T09:05:27Z</time>
      </trkpt>
      <trkpt lat="40.237640496343374" lon="-6.924871243536472">
        <ele>596.15478515625</ele>
        <time>2016-10-30T09:05:33Z</time>
      </trkpt>
      <trkpt lat="40.237809391692281" lon="-6.92450076341629">
        <ele>592.3095703125</ele>
        <time>2016-10-30T09:05:38Z</time>
      </trkpt>
      <trkpt lat="40.237929252907634" lon="-6.923989551141858">
        <ele>592.3095703125</ele>
        <time>2016-10-30T09:05:43Z</time>
      </trkpt>
      <trkpt lat="40.237974682822824" lon="-6.923537431284785">
        <ele>591.828857421875</ele>
        <time>2016-10-30T09:05:48Z</time>
      </trkpt>
      <trkpt lat="40.237842248752713" lon="-6.923149349167943">
        <ele>590.386962890625</ele>
        <time>2016-10-30T09:05:53Z</time>
      </trkpt>
      <trkpt lat="40.237674359232187" lon="-6.922798315063119">
        <ele>588.945068359375</ele>
        <time>2016-10-30T09:05:58Z</time>
      </trkpt>
      <trkpt lat="40.237807296216488" lon="-6.922587174922228">
        <ele>587.9833984375</ele>
        <time>2016-10-30T09:06:03Z</time>
      </trkpt>
      <trkpt lat="40.238024471327662" lon="-6.922580301761627">
        <ele>589.90625</ele>
        <time>2016-10-30T09:06:08Z</time>
      </trkpt>
      <trkpt lat="40.238189762458205" lon="-6.922529172152281">
        <ele>590.867431640625</ele>
        <time>2016-10-30T09:06:13Z</time>
      </trkpt>
      <trkpt lat="40.238302415236831" lon="-6.92230973392725">
        <ele>589.90625</ele>
        <time>2016-10-30T09:06:18Z</time>
      </trkpt>
      <trkpt lat="40.238440968096256" lon="-6.921941684558988">
        <ele>587.502685546875</ele>
        <time>2016-10-30T09:06:23Z</time>
      </trkpt>
      <trkpt lat="40.238644313067198" lon="-6.921517392620444">
        <ele>585.099609375</ele>
        <time>2016-10-30T09:06:28Z</time>
      </trkpt>
      <trkpt lat="40.238899793475866" lon="-6.921283286064863">
        <ele>584.13818359375</ele>
        <time>2016-10-30T09:06:33Z</time>
      </trkpt>
      <trkpt lat="40.239151669666171" lon="-6.921150432899594">
        <ele>583.1767578125</ele>
        <time>2016-10-30T09:06:38Z</time>
      </trkpt>
      <trkpt lat="40.239458028227091" lon="-6.921040210872889">
        <ele>581.25439453125</ele>
        <time>2016-10-30T09:06:43Z</time>
      </trkpt>
      <trkpt lat="40.239712335169315" lon="-6.920818760991097">
        <ele>579.33154296875</ele>
        <time>2016-10-30T09:06:48Z</time>
      </trkpt>
      <trkpt lat="40.239939820021391" lon="-6.92059219814837">
        <ele>577.4091796875</ele>
        <time>2016-10-30T09:06:53Z</time>
      </trkpt>
      <trkpt lat="40.24012397043407" lon="-6.920666713267565">
        <ele>580.29296875</ele>
        <time>2016-10-30T09:06:58Z</time>
      </trkpt>
      <trkpt lat="40.240021627396345" lon="-6.920886822044849">
        <ele>580.773681640625</ele>
        <time>2016-10-30T09:07:03Z</time>
      </trkpt>
      <trkpt lat="40.239844601601362" lon="-6.921128304675221">
        <ele>583.1767578125</ele>
        <time>2016-10-30T09:07:08Z</time>
      </trkpt>
      <trkpt lat="40.239675454795361" lon="-6.921365931630135">
        <ele>584.618896484375</ele>
        <time>2016-10-30T09:07:13Z</time>
      </trkpt>
      <trkpt lat="40.239538662135601" lon="-6.921632727608085">
        <ele>586.54150390625</ele>
        <time>2016-10-30T09:07:18Z</time>
      </trkpt>
      <trkpt lat="40.23948778398335" lon="-6.921896087005734">
        <ele>587.502685546875</ele>
        <time>2016-10-30T09:07:23Z</time>
      </trkpt>
      <trkpt lat="40.239396002143621" lon="-6.921995496377349">
        <ele>589.90625</ele>
        <time>2016-10-30T09:07:28Z</time>
      </trkpt>
      <trkpt lat="40.239329030737281" lon="-6.922116698697209">
        <ele>590.867431640625</ele>
        <time>2016-10-30T09:07:33Z</time>
      </trkpt>
      <trkpt lat="40.239249235019088" lon="-6.922271093353629">
        <ele>592.3095703125</ele>
        <time>2016-10-30T09:07:38Z</time>
      </trkpt>
      <trkpt lat="40.239233309403062" lon="-6.922458177432418">
        <ele>592.790283203125</ele>
        <time>2016-10-30T09:07:43Z</time>
      </trkpt>
      <trkpt lat="40.239245546981692" lon="-6.922673089429736">
        <ele>594.232177734375</ele>
        <time>2016-10-30T09:07:48Z</time>
      </trkpt>
      <trkpt lat="40.239228364080191" lon="-6.922922702506185">
        <ele>591.828857421875</ele>
        <time>2016-10-30T09:07:53Z</time>
      </trkpt>
      <trkpt lat="40.239223251119256" lon="-6.923187989741564">
        <ele>589.90625</ele>
        <time>2016-10-30T09:07:58Z</time>
      </trkpt>
      <trkpt lat="40.239237248897552" lon="-6.923448666930199">
        <ele>590.386962890625</ele>
        <time>2016-10-30T09:08:03Z</time>
      </trkpt>
      <trkpt lat="40.239242361858487" lon="-6.923688556998968">
        <ele>591.34814453125</ele>
        <time>2016-10-30T09:08:08Z</time>
      </trkpt>
      <trkpt lat="40.239306734874845" lon="-6.923939930275083">
        <ele>591.828857421875</ele>
        <time>2016-10-30T09:08:13Z</time>
      </trkpt>
      <trkpt lat="40.239474540576339" lon="-6.924145957455039">
        <ele>591.828857421875</ele>
        <time>2016-10-30T09:08:18Z</time>
      </trkpt>
      <trkpt lat="40.239714095368981" lon="-6.92426866851747">
        <ele>594.232177734375</ele>
        <time>2016-10-30T09:08:23Z</time>
      </trkpt>
      <trkpt lat="40.239853318780661" lon="-6.924489950761199">
        <ele>594.232177734375</ele>
        <time>2016-10-30T09:08:28Z</time>
      </trkpt>
      <trkpt lat="40.239650644361973" lon="-6.924702012911439">
        <ele>595.674072265625</ele>
        <time>2016-10-30T09:08:33Z</time>
      </trkpt>
      <trkpt lat="40.239471774548292" lon="-6.924837380647659">
        <ele>596.635498046875</ele>
        <time>2016-10-30T09:08:38Z</time>
      </trkpt>
      <trkpt lat="40.239298855885863" lon="-6.925033517181873">
        <ele>596.635498046875</ele>
        <time>2016-10-30T09:08:43Z</time>
      </trkpt>
      <trkpt lat="40.239123003557324" lon="-6.925353705883026">
        <ele>596.635498046875</ele>
        <time>2016-10-30T09:08:48Z</time>
      </trkpt>
      <trkpt lat="40.239127781242132" lon="-6.925839269533753">
        <ele>595.674072265625</ele>
        <time>2016-10-30T09:08:53Z</time>
      </trkpt>
      <trkpt lat="40.239341519773006" lon="-6.926121152937412">
        <ele>595.674072265625</ele>
        <time>2016-10-30T09:08:58Z</time>
      </trkpt>
      <trkpt lat="40.239299442619085" lon="-6.926312511786819">
        <ele>596.15478515625</ele>
        <time>2016-10-30T09:09:03Z</time>
      </trkpt>
      <trkpt lat="40.239135073497891" lon="-6.926478892564774">
        <ele>597.115966796875</ele>
        <time>2016-10-30T09:09:08Z</time>
      </trkpt>
      <trkpt lat="40.239017307758331" lon="-6.926672849804163">
        <ele>597.5966796875</ele>
        <time>2016-10-30T09:09:13Z</time>
      </trkpt>
      <trkpt lat="40.238892752677202" lon="-6.92691064439714">
        <ele>598.557861328125</ele>
        <time>2016-10-30T09:09:18Z</time>
      </trkpt>
      <trkpt lat="40.238778674975038" lon="-6.92712714895606">
        <ele>599.03857421875</ele>
        <time>2016-10-30T09:09:23Z</time>
      </trkpt>
      <trkpt lat="40.23865076713264" lon="-6.927338372915983">
        <ele>600</ele>
        <time>2016-10-30T09:09:28Z</time>
      </trkpt>
      <trkpt lat="40.238569965586066" lon="-6.927586644887924">
        <ele>600.480712890625</ele>
        <time>2016-10-30T09:09:33Z</time>
      </trkpt>
      <trkpt lat="40.238452618941665" lon="-6.927828714251518">
        <ele>600.961181640625</ele>
        <time>2016-10-30T09:09:38Z</time>
      </trkpt>
      <trkpt lat="40.23840987123549" lon="-6.928147813305259">
        <ele>600.961181640625</ele>
        <time>2016-10-30T09:09:43Z</time>
      </trkpt>
      <trkpt lat="40.2384093683213" lon="-6.928540924564004">
        <ele>595.674072265625</ele>
        <time>2016-10-30T09:09:48Z</time>
      </trkpt>
      <trkpt lat="40.238478938117623" lon="-6.92891894839704">
        <ele>594.712646484375</ele>
        <time>2016-10-30T09:09:53Z</time>
      </trkpt>
      <trkpt lat="40.238726371899247" lon="-6.929099159315229">
        <ele>596.15478515625</ele>
        <time>2016-10-30T09:09:58Z</time>
      </trkpt>
      <trkpt lat="40.239084530621767" lon="-6.928964797407389">
        <ele>585.580078125</ele>
        <time>2016-10-30T09:10:03Z</time>
      </trkpt>
      <trkpt lat="40.239267842844129" lon="-6.928643519058824">
        <ele>581.25439453125</ele>
        <time>2016-10-30T09:10:08Z</time>
      </trkpt>
      <trkpt lat="40.239423578605056" lon="-6.928390050306916">
        <ele>576.44775390625</ele>
        <time>2016-10-30T09:10:13Z</time>
      </trkpt>
      <trkpt lat="40.239524245262146" lon="-6.928637903183699">
        <ele>577.4091796875</ele>
        <time>2016-10-30T09:10:18Z</time>
      </trkpt>
      <trkpt lat="40.239513935521245" lon="-6.929059764370322">
        <ele>575.486328125</ele>
        <time>2016-10-30T09:10:23Z</time>
      </trkpt>
      <trkpt lat="40.239494740962982" lon="-6.929524121806026">
        <ele>575.005859375</ele>
        <time>2016-10-30T09:10:28Z</time>
      </trkpt>
      <trkpt lat="40.239766063168645" lon="-6.929596625268459">
        <ele>574.525146484375</ele>
        <time>2016-10-30T09:10:33Z</time>
      </trkpt>
      <trkpt lat="40.240030512213707" lon="-6.929399063810706">
        <ele>573.56396484375</ele>
        <time>2016-10-30T09:10:38Z</time>
      </trkpt>
      <trkpt lat="40.240351958200336" lon="-6.929212566465139">
        <ele>571.640869140625</ele>
        <time>2016-10-30T09:10:43Z</time>
      </trkpt>
      <trkpt lat="40.24045187048614" lon="-6.929422114044428">
        <ele>570.6796875</ele>
        <time>2016-10-30T09:10:48Z</time>
      </trkpt>
      <trkpt lat="40.240412140265107" lon="-6.929660243913531">
        <ele>573.083251953125</ele>
        <time>2016-10-30T09:10:53Z</time>
      </trkpt>
      <trkpt lat="40.240324717015028" lon="-6.929891668260098">
        <ele>577.8896484375</ele>
        <time>2016-10-30T09:10:58Z</time>
      </trkpt>
      <trkpt lat="40.240229582414031" lon="-6.930122170597315">
        <ele>581.73486328125</ele>
        <time>2016-10-30T09:11:03Z</time>
      </trkpt>
      <trkpt lat="40.240326980128884" lon="-6.930253598839045">
        <ele>583.657470703125</ele>
        <time>2016-10-30T09:11:08Z</time>
      </trkpt>
      <trkpt lat="40.240567037835717" lon="-6.930141616612673">
        <ele>584.13818359375</ele>
        <time>2016-10-30T09:11:13Z</time>
      </trkpt>
      <trkpt lat="40.24089653044939" lon="-6.930067101493478">
        <ele>583.1767578125</ele>
        <time>2016-10-30T09:11:18Z</time>
      </trkpt>
      <trkpt lat="40.241235243156552" lon="-6.930107921361923">
        <ele>582.215576171875</ele>
        <time>2016-10-30T09:11:23Z</time>
      </trkpt>
      <trkpt lat="40.241246474906802" lon="-6.930402964353561">
        <ele>581.73486328125</ele>
        <time>2016-10-30T09:11:28Z</time>
      </trkpt>
      <trkpt lat="40.241052182391286" lon="-6.93060178309679">
        <ele>582.215576171875</ele>
        <time>2016-10-30T09:11:33Z</time>
      </trkpt>
      <trkpt lat="40.240920418873429" lon="-6.930890455842018">
        <ele>581.25439453125</ele>
        <time>2016-10-30T09:11:38Z</time>
      </trkpt>
      <trkpt lat="40.240816818550229" lon="-6.931158928200603">
        <ele>580.773681640625</ele>
        <time>2016-10-30T09:11:43Z</time>
      </trkpt>
      <trkpt lat="40.240727048367262" lon="-6.931409882381558">
        <ele>580.773681640625</ele>
        <time>2016-10-30T09:11:48Z</time>
      </trkpt>
      <trkpt lat="40.240947073325515" lon="-6.931597720831633">
        <ele>575.967041015625</ele>
        <time>2016-10-30T09:11:53Z</time>
      </trkpt>
      <trkpt lat="40.241272710263729" lon="-6.931744236499071">
        <ele>575.005859375</ele>
        <time>2016-10-30T09:11:58Z</time>
      </trkpt>
      <trkpt lat="40.241523496806622" lon="-6.932023018598557">
        <ele>574.04443359375</ele>
        <time>2016-10-30T09:12:03Z</time>
      </trkpt>
      <trkpt lat="40.24148971773684" lon="-6.932276403531432">
        <ele>573.083251953125</ele>
        <time>2016-10-30T09:12:08Z</time>
      </trkpt>
      <trkpt lat="40.241300454363227" lon="-6.93223868496716">
        <ele>571.640869140625</ele>
        <time>2016-10-30T09:12:13Z</time>
      </trkpt>
      <trkpt lat="40.241141701117158" lon="-6.932266429066658">
        <ele>572.6025390625</ele>
        <time>2016-10-30T09:12:18Z</time>
      </trkpt>
      <trkpt lat="40.240972135215998" lon="-6.932325605303049">
        <ele>572.6025390625</ele>
        <time>2016-10-30T09:12:23Z</time>
      </trkpt>
      <trkpt lat="40.24082419462502" lon="-6.932368017733097">
        <ele>570.6796875</ele>
        <time>2016-10-30T09:12:28Z</time>
      </trkpt>
      <trkpt lat="40.24066443555057" lon="-6.932435994967818">
        <ele>568.757080078125</ele>
        <time>2016-10-30T09:12:33Z</time>
      </trkpt>
      <trkpt lat="40.240516327321529" lon="-6.932497853413224">
        <ele>565.392578125</ele>
        <time>2016-10-30T09:12:38Z</time>
      </trkpt>
      <trkpt lat="40.240356484428048" lon="-6.932567590847611">
        <ele>565.873291015625</ele>
        <time>2016-10-30T09:12:43Z</time>
      </trkpt>
      <trkpt lat="40.240178871899843" lon="-6.932608662173152">
        <ele>566.83447265625</ele>
        <time>2016-10-30T09:12:48Z</time>
      </trkpt>
      <trkpt lat="40.240025147795677" lon="-6.932716369628906">
        <ele>566.353759765625</ele>
        <time>2016-10-30T09:12:53Z</time>
      </trkpt>
      <trkpt lat="40.239977203309536" lon="-6.93288610316813">
        <ele>566.353759765625</ele>
        <time>2016-10-30T09:12:58Z</time>
      </trkpt>
      <trkpt lat="40.239897323772311" lon="-6.933008646592498">
        <ele>565.392578125</ele>
        <time>2016-10-30T09:13:03Z</time>
      </trkpt>
      <trkpt lat="40.239778636023402" lon="-6.932936143130064">
        <ele>566.83447265625</ele>
        <time>2016-10-30T09:13:08Z</time>
      </trkpt>
      <trkpt lat="40.239629270508885" lon="-6.932776300236583">
        <ele>566.83447265625</ele>
        <time>2016-10-30T09:13:13Z</time>
      </trkpt>
      <trkpt lat="40.239439001306891" lon="-6.932702120393515">
        <ele>566.353759765625</ele>
        <time>2016-10-30T09:13:18Z</time>
      </trkpt>
      <trkpt lat="40.239271111786366" lon="-6.932663898915052">
        <ele>566.353759765625</ele>
        <time>2016-10-30T09:13:23Z</time>
      </trkpt>
      <trkpt lat="40.239107077941298" lon="-6.932654930278659">
        <ele>566.353759765625</ele>
        <time>2016-10-30T09:13:28Z</time>
      </trkpt>
      <trkpt lat="40.238938685506582" lon="-6.932634394615889">
        <ele>565.873291015625</ele>
        <time>2016-10-30T09:13:33Z</time>
      </trkpt>
      <trkpt lat="40.238764928653836" lon="-6.932608326897025">
        <ele>567.315185546875</ele>
        <time>2016-10-30T09:13:38Z</time>
      </trkpt>
      <trkpt lat="40.23862193338573" lon="-6.932536661624908">
        <ele>568.2763671875</ele>
        <time>2016-10-30T09:13:43Z</time>
      </trkpt>
      <trkpt lat="40.238460917025805" lon="-6.932500535622239">
        <ele>568.757080078125</ele>
        <time>2016-10-30T09:13:48Z</time>
      </trkpt>
      <trkpt lat="40.238303504884243" lon="-6.932490561157465">
        <ele>570.198974609375</ele>
        <time>2016-10-30T09:13:53Z</time>
      </trkpt>
      <trkpt lat="40.238157408311963" lon="-6.932561807334423">
        <ele>569.718505859375</ele>
        <time>2016-10-30T09:13:58Z</time>
      </trkpt>
      <trkpt lat="40.237985160201788" lon="-6.93258510902524">
        <ele>569.718505859375</ele>
        <time>2016-10-30T09:14:03Z</time>
      </trkpt>
      <trkpt lat="40.237816097214818" lon="-6.932540936395526">
        <ele>571.160400390625</ele>
        <time>2016-10-30T09:14:08Z</time>
      </trkpt>
      <trkpt lat="40.237649967893958" lon="-6.932511096820235">
        <ele>571.160400390625</ele>
        <time>2016-10-30T09:14:13Z</time>
      </trkpt>
      <trkpt lat="40.237541170790792" lon="-6.932627772912383">
        <ele>572.6025390625</ele>
        <time>2016-10-30T09:14:18Z</time>
      </trkpt>
      <trkpt lat="40.237602274864912" lon="-6.932798177003861">
        <ele>578.85107421875</ele>
        <time>2016-10-30T09:14:23Z</time>
      </trkpt>
      <trkpt lat="40.237689111381769" lon="-6.932809827849269">
        <ele>579.812255859375</ele>
        <time>2016-10-30T09:14:28Z</time>
      </trkpt>
      <trkpt lat="40.237769829109311" lon="-6.932810079306364">
        <ele>579.33154296875</ele>
        <time>2016-10-30T09:14:33Z</time>
      </trkpt>
      <trkpt lat="40.237848116084933" lon="-6.932816868647933">
        <ele>580.29296875</ele>
        <time>2016-10-30T09:14:38Z</time>
      </trkpt>
      <trkpt lat="40.237930091097951" lon="-6.932837655767798">
        <ele>581.25439453125</ele>
        <time>2016-10-30T09:14:43Z</time>
      </trkpt>
      <trkpt lat="40.238022292032838" lon="-6.932847797870636">
        <ele>581.73486328125</ele>
        <time>2016-10-30T09:14:48Z</time>
      </trkpt>
      <trkpt lat="40.238102255389094" lon="-6.932875961065292">
        <ele>582.215576171875</ele>
        <time>2016-10-30T09:14:53Z</time>
      </trkpt>
      <trkpt lat="40.238188840448856" lon="-6.932892054319382">
        <ele>584.618896484375</ele>
        <time>2016-10-30T09:14:58Z</time>
      </trkpt>
      <trkpt lat="40.23829311132431" lon="-6.932912673801184">
        <ele>586.060791015625</ele>
        <time>2016-10-30T09:15:03Z</time>
      </trkpt>
      <trkpt lat="40.238388078287244" lon="-6.932938573881984">
        <ele>585.580078125</ele>
        <time>2016-10-30T09:15:08Z</time>
      </trkpt>
      <trkpt lat="40.238462677225471" lon="-6.93299263715744">
        <ele>588.945068359375</ele>
        <time>2016-10-30T09:15:13Z</time>
      </trkpt>
      <trkpt lat="40.238554961979389" lon="-6.933067236095667">
        <ele>589.90625</ele>
        <time>2016-10-30T09:15:18Z</time>
      </trkpt>
      <trkpt lat="40.238646157085896" lon="-6.933126160874963">
        <ele>589.425537109375</ele>
        <time>2016-10-30T09:15:23Z</time>
      </trkpt>
      <trkpt lat="40.238733496516943" lon="-6.93316999822855">
        <ele>591.34814453125</ele>
        <time>2016-10-30T09:15:28Z</time>
      </trkpt>
      <trkpt lat="40.238823685795069" lon="-6.93319589830935">
        <ele>595.674072265625</ele>
        <time>2016-10-30T09:15:33Z</time>
      </trkpt>
      <trkpt lat="40.238930219784379" lon="-6.933220457285643">
        <ele>597.115966796875</ele>
        <time>2016-10-30T09:15:38Z</time>
      </trkpt>
      <trkpt lat="40.239020828157663" lon="-6.933274352923036">
        <ele>598.077392578125</ele>
        <time>2016-10-30T09:15:43Z</time>
      </trkpt>
      <trkpt lat="40.239088721573353" lon="-6.933313328772783">
        <ele>598.077392578125</ele>
        <time>2016-10-30T09:15:48Z</time>
      </trkpt>
      <trkpt lat="40.239176899194717" lon="-6.933366134762764">
        <ele>598.077392578125</ele>
        <time>2016-10-30T09:15:53Z</time>
      </trkpt>
      <trkpt lat="40.23925518617034" lon="-6.933411313220859">
        <ele>601.44189453125</ele>
        <time>2016-10-30T09:15:58Z</time>
      </trkpt>
      <trkpt lat="40.23934755474329" lon="-6.933470740914345">
        <ele>599.519287109375</ele>
        <time>2016-10-30T09:16:03Z</time>
      </trkpt>
      <trkpt lat="40.239419303834438" lon="-6.933509381487966">
        <ele>599.519287109375</ele>
        <time>2016-10-30T09:16:07Z</time>
      </trkpt>
      <trkpt lat="40.239526759833097" lon="-6.933589093387127">
        <ele>599.03857421875</ele>
        <time>2016-10-30T09:16:13Z</time>
      </trkpt>
      <trkpt lat="40.239653158932924" lon="-6.933680959045887">
        <ele>596.15478515625</ele>
        <time>2016-10-30T09:16:18Z</time>
      </trkpt>
      <trkpt lat="40.239756675437093" lon="-6.933750277385116">
        <ele>595.674072265625</ele>
        <time>2016-10-30T09:16:23Z</time>
      </trkpt>
      <trkpt lat="40.239858096465468" lon="-6.933749103918672">
        <ele>596.15478515625</ele>
        <time>2016-10-30T09:16:28Z</time>
      </trkpt>
      <trkpt lat="40.239946944639087" lon="-6.933725383132696">
        <ele>597.5966796875</ele>
        <time>2016-10-30T09:16:33Z</time>
      </trkpt>
      <trkpt lat="40.240034032613039" lon="-6.933696297928691">
        <ele>600.480712890625</ele>
        <time>2016-10-30T09:16:38Z</time>
      </trkpt>
      <trkpt lat="40.240112319588661" lon="-6.933671906590462">
        <ele>602.8837890625</ele>
        <time>2016-10-30T09:16:43Z</time>
      </trkpt>
      <trkpt lat="40.240177782252431" lon="-6.933652879670262">
        <ele>606.729248046875</ele>
        <time>2016-10-30T09:16:48Z</time>
      </trkpt>
      <trkpt lat="40.240205023437738" lon="-6.933642402291298">
        <ele>607.690673828125</ele>
        <time>2016-10-30T09:16:53Z</time>
      </trkpt>
      <trkpt lat="40.240254979580641" lon="-6.933613065630198">
        <ele>610.574462890625</ele>
        <time>2016-10-30T09:16:58Z</time>
      </trkpt>
      <trkpt lat="40.240319520235062" lon="-6.933595212176442">
        <ele>612.0166015625</ele>
        <time>2016-10-30T09:17:03Z</time>
      </trkpt>
      <trkpt lat="40.240411050617695" lon="-6.93357115611434">
        <ele>613.45849609375</ele>
        <time>2016-10-30T09:17:08Z</time>
      </trkpt>
      <trkpt lat="40.240490511059761" lon="-6.933558499440551">
        <ele>614.419677734375</ele>
        <time>2016-10-30T09:17:13Z</time>
      </trkpt>
      <trkpt lat="40.240569971501827" lon="-6.933578280732036">
        <ele>612.977783203125</ele>
        <time>2016-10-30T09:17:18Z</time>
      </trkpt>
      <trkpt lat="40.240638284012675" lon="-6.933608623221517">
        <ele>613.93896484375</ele>
        <time>2016-10-30T09:17:23Z</time>
      </trkpt>
      <trkpt lat="40.240707769989967" lon="-6.933653298765421">
        <ele>612.4970703125</ele>
        <time>2016-10-30T09:17:28Z</time>
      </trkpt>
      <trkpt lat="40.240785973146558" lon="-6.933696968480945">
        <ele>612.977783203125</ele>
        <time>2016-10-30T09:17:33Z</time>
      </trkpt>
      <trkpt lat="40.240861913189292" lon="-6.933762347325683">
        <ele>612.977783203125</ele>
        <time>2016-10-30T09:17:38Z</time>
      </trkpt>
      <trkpt lat="40.240916144102812" lon="-6.93383845500648">
        <ele>612.0166015625</ele>
        <time>2016-10-30T09:17:43Z</time>
      </trkpt>
      <trkpt lat="40.240985210984945" lon="-6.933945994824171">
        <ele>610.574462890625</ele>
        <time>2016-10-30T09:17:48Z</time>
      </trkpt>
      <trkpt lat="40.241025863215327" lon="-6.934068202972412">
        <ele>609.61328125</ele>
        <time>2016-10-30T09:17:53Z</time>
      </trkpt>
      <trkpt lat="40.241075400263071" lon="-6.934204325079918">
        <ele>607.2099609375</ele>
        <time>2016-10-30T09:17:58Z</time>
      </trkpt>
      <trkpt lat="40.241118147969246" lon="-6.934334579855204">
        <ele>605.287353515625</ele>
        <time>2016-10-30T09:18:03Z</time>
      </trkpt>
      <trkpt lat="40.241167601197958" lon="-6.934454021975398">
        <ele>604.326171875</ele>
        <time>2016-10-30T09:18:08Z</time>
      </trkpt>
      <trkpt lat="40.241175899282098" lon="-6.934591485187411">
        <ele>604.326171875</ele>
        <time>2016-10-30T09:18:13Z</time>
      </trkpt>
      <trkpt lat="40.241183191537857" lon="-6.934725595638156">
        <ele>602.8837890625</ele>
        <time>2016-10-30T09:18:18Z</time>
      </trkpt>
      <trkpt lat="40.24118185043335" lon="-6.934865405783057">
        <ele>603.364501953125</ele>
        <time>2016-10-30T09:18:23Z</time>
      </trkpt>
      <trkpt lat="40.241145305335522" lon="-6.935007814317942">
        <ele>605.287353515625</ele>
        <time>2016-10-30T09:18:28Z</time>
      </trkpt>
      <trkpt lat="40.241102976724505" lon="-6.935114013031125">
        <ele>605.76806640625</ele>
        <time>2016-10-30T09:18:33Z</time>
      </trkpt>
      <trkpt lat="40.241091996431351" lon="-6.935205711051822">
        <ele>607.690673828125</ele>
        <time>2016-10-30T09:18:38Z</time>
      </trkpt>
      <trkpt lat="40.241111610084772" lon="-6.935283578932285">
        <ele>608.17138671875</ele>
        <time>2016-10-30T09:18:43Z</time>
      </trkpt>
      <trkpt lat="40.241173719987273" lon="-6.935336636379361">
        <ele>609.132568359375</ele>
        <time>2016-10-30T09:18:48Z</time>
      </trkpt>
      <trkpt lat="40.241271704435349" lon="-6.935339150950313">
        <ele>611.05517578125</ele>
        <time>2016-10-30T09:18:53Z</time>
      </trkpt>
      <trkpt lat="40.241348817944527" lon="-6.93532289005816">
        <ele>612.0166015625</ele>
        <time>2016-10-30T09:18:58Z</time>
      </trkpt>
      <trkpt lat="40.24141981266439" lon="-6.935303108766675">
        <ele>612.977783203125</ele>
        <time>2016-10-30T09:19:03Z</time>
      </trkpt>
      <trkpt lat="40.241510504856706" lon="-6.935294140130281">
        <ele>615.86181640625</ele>
        <time>2016-10-30T09:19:08Z</time>
      </trkpt>
      <trkpt lat="40.24157328531146" lon="-6.935304533690214">
        <ele>619.226318359375</ele>
        <time>2016-10-30T09:19:13Z</time>
      </trkpt>
      <trkpt lat="40.241659954190254" lon="-6.935306964442134">
        <ele>623.552490234375</ele>
        <time>2016-10-30T09:19:18Z</time>
      </trkpt>
      <trkpt lat="40.2417560108006" lon="-6.935340408235788">
        <ele>624.032958984375</ele>
        <time>2016-10-30T09:19:23Z</time>
      </trkpt>
      <trkpt lat="40.24181954562664" lon="-6.935409307479858">
        <ele>625.95556640625</ele>
        <time>2016-10-30T09:19:28Z</time>
      </trkpt>
      <trkpt lat="40.24187084287405" lon="-6.935485498979688">
        <ele>627.878173828125</ele>
        <time>2016-10-30T09:19:33Z</time>
      </trkpt>
      <trkpt lat="40.241924822330475" lon="-6.935574347153306">
        <ele>628.35888671875</ele>
        <time>2016-10-30T09:19:38Z</time>
      </trkpt>
      <trkpt lat="40.241966815665364" lon="-6.935678953304887">
        <ele>627.397705078125</ele>
        <time>2016-10-30T09:19:43Z</time>
      </trkpt>
      <trkpt lat="40.242008892819285" lon="-6.935774758458138">
        <ele>624.513671875</ele>
        <time>2016-10-30T09:19:48Z</time>
      </trkpt>
      <trkpt lat="40.242034709081054" lon="-6.935895876958966">
        <ele>624.513671875</ele>
        <time>2016-10-30T09:19:53Z</time>
      </trkpt>
      <trkpt lat="40.242064297199249" lon="-6.935989083722234">
        <ele>626.436279296875</ele>
        <time>2016-10-30T09:19:58Z</time>
      </trkpt>
      <trkpt lat="40.242077875882387" lon="-6.936113219708204">
        <ele>625.474853515625</ele>
        <time>2016-10-30T09:20:03Z</time>
      </trkpt>
      <trkpt lat="40.242108386009932" lon="-6.936240708455443">
        <ele>625.95556640625</ele>
        <time>2016-10-30T09:20:08Z</time>
      </trkpt>
      <trkpt lat="40.242109727114439" lon="-6.936377668753266">
        <ele>626.436279296875</ele>
        <time>2016-10-30T09:20:13Z</time>
      </trkpt>
      <trkpt lat="40.242108469828963" lon="-6.9365209992975">
        <ele>625.95556640625</ele>
        <time>2016-10-30T09:20:18Z</time>
      </trkpt>
      <trkpt lat="40.242147194221616" lon="-6.936638010665774">
        <ele>626.436279296875</ele>
        <time>2016-10-30T09:20:23Z</time>
      </trkpt>
      <trkpt lat="40.242220116779208" lon="-6.936659719794989">
        <ele>626.436279296875</ele>
        <time>2016-10-30T09:20:28Z</time>
      </trkpt>
      <trkpt lat="40.242298068478703" lon="-6.936660641804338">
        <ele>625.474853515625</ele>
        <time>2016-10-30T09:20:33Z</time>
      </trkpt>
      <trkpt lat="40.24239270016551" lon="-6.936639435589314">
        <ele>628.35888671875</ele>
        <time>2016-10-30T09:20:38Z</time>
      </trkpt>
      <trkpt lat="40.242481548339128" lon="-6.93662996403873">
        <ele>630.76220703125</ele>
        <time>2016-10-30T09:20:43Z</time>
      </trkpt>
      <trkpt lat="40.242570480331779" lon="-6.936647398397327">
        <ele>632.684814453125</ele>
        <time>2016-10-30T09:20:48Z</time>
      </trkpt>
      <trkpt lat="40.242661088705063" lon="-6.936660474166274">
        <ele>634.126708984375</ele>
        <time>2016-10-30T09:20:53Z</time>
      </trkpt>
      <trkpt lat="40.242761084809899" lon="-6.936695342883468">
        <ele>634.126708984375</ele>
        <time>2016-10-30T09:20:58Z</time>
      </trkpt>
      <trkpt lat="40.242840712890029" lon="-6.936725853011012">
        <ele>637.491455078125</ele>
        <time>2016-10-30T09:21:03Z</time>
      </trkpt>
      <trkpt lat="40.242924196645617" lon="-6.936763068661094">
        <ele>637.97216796875</ele>
        <time>2016-10-30T09:21:08Z</time>
      </trkpt>
      <trkpt lat="40.243017571046948" lon="-6.936801122501493">
        <ele>639.894775390625</ele>
        <time>2016-10-30T09:21:13Z</time>
      </trkpt>
      <trkpt lat="40.243089320138097" lon="-6.936840601265431">
        <ele>642.77880859375</ele>
        <time>2016-10-30T09:21:18Z</time>
      </trkpt>
      <trkpt lat="40.243187053129077" lon="-6.93687186576426">
        <ele>642.298095703125</ele>
        <time>2016-10-30T09:21:23Z</time>
      </trkpt>
      <trkpt lat="40.243267603218555" lon="-6.936931125819683">
        <ele>641.336669921875</ele>
        <time>2016-10-30T09:21:28Z</time>
      </trkpt>
      <trkpt lat="40.243342453613877" lon="-6.937005054205656">
        <ele>642.77880859375</ele>
        <time>2016-10-30T09:21:33Z</time>
      </trkpt>
      <trkpt lat="40.243406239897013" lon="-6.937076803296804">
        <ele>641.8173828125</ele>
        <time>2016-10-30T09:21:38Z</time>
      </trkpt>
      <trkpt lat="40.243486287072301" lon="-6.937181074172258">
        <ele>641.8173828125</ele>
        <time>2016-10-30T09:21:43Z</time>
      </trkpt>
      <trkpt lat="40.243562897667289" lon="-6.937282159924507">
        <ele>641.8173828125</ele>
        <time>2016-10-30T09:21:48Z</time>
      </trkpt>
      <trkpt lat="40.243629617616534" lon="-6.937388190999627">
        <ele>641.336669921875</ele>
        <time>2016-10-30T09:21:53Z</time>
      </trkpt>
      <trkpt lat="40.243697762489319" lon="-6.937514003366232">
        <ele>640.85595703125</ele>
        <time>2016-10-30T09:21:58Z</time>
      </trkpt>
      <trkpt lat="40.243741432204843" lon="-6.937640402466059">
        <ele>642.298095703125</ele>
        <time>2016-10-30T09:22:03Z</time>
      </trkpt>
      <trkpt lat="40.243777139112353" lon="-6.937755485996604">
        <ele>643.25927734375</ele>
        <time>2016-10-30T09:22:08Z</time>
      </trkpt>
      <trkpt lat="40.243791807442904" lon="-6.937888674438">
        <ele>644.220703125</ele>
        <time>2016-10-30T09:22:13Z</time>
      </trkpt>
      <trkpt lat="40.24380873888731" lon="-6.938037034124136">
        <ele>644.701171875</ele>
        <time>2016-10-30T09:22:18Z</time>
      </trkpt>
      <trkpt lat="40.243833297863603" lon="-6.938173742964864">
        <ele>646.143310546875</ele>
        <time>2016-10-30T09:22:23Z</time>
      </trkpt>
      <trkpt lat="40.243812594562769" lon="-6.938338112086058">
        <ele>646.6240234375</ele>
        <time>2016-10-30T09:22:28Z</time>
      </trkpt>
      <trkpt lat="40.243792813271284" lon="-6.938480772078037">
        <ele>647.1044921875</ele>
        <time>2016-10-30T09:22:33Z</time>
      </trkpt>
      <trkpt lat="40.243824077770114" lon="-6.938597867265344">
        <ele>647.1044921875</ele>
        <time>2016-10-30T09:22:38Z</time>
      </trkpt>
      <trkpt lat="40.243897838518023" lon="-6.938682021573186">
        <ele>647.585205078125</ele>
        <time>2016-10-30T09:22:43Z</time>
      </trkpt>
      <trkpt lat="40.24395827203989" lon="-6.938777072355151">
        <ele>648.54638671875</ele>
        <time>2016-10-30T09:22:48Z</time>
      </trkpt>
      <trkpt lat="40.244012251496315" lon="-6.938881678506732">
        <ele>649.027099609375</ele>
        <time>2016-10-30T09:22:53Z</time>
      </trkpt>
      <trkpt lat="40.244052903726697" lon="-6.938994331285358">
        <ele>650.46923828125</ele>
        <time>2016-10-30T09:22:58Z</time>
      </trkpt>
      <trkpt lat="40.244114510715008" lon="-6.939114946871996">
        <ele>650.46923828125</ele>
        <time>2016-10-30T09:23:03Z</time>
      </trkpt>
      <trkpt lat="40.244163293391466" lon="-6.939231622964144">
        <ele>650.46923828125</ele>
        <time>2016-10-30T09:23:08Z</time>
      </trkpt>
      <trkpt lat="40.244216686114669" lon="-6.939360368996859">
        <ele>649.5078125</ele>
        <time>2016-10-30T09:23:13Z</time>
      </trkpt>
      <trkpt lat="40.244257841259241" lon="-6.939502358436585">
        <ele>649.988525390625</ele>
        <time>2016-10-30T09:23:18Z</time>
      </trkpt>
      <trkpt lat="40.244288602843881" lon="-6.939629931002855">
        <ele>649.027099609375</ele>
        <time>2016-10-30T09:23:23Z</time>
      </trkpt>
      <trkpt lat="40.244343252852559" lon="-6.939753396436572">
        <ele>649.988525390625</ele>
        <time>2016-10-30T09:23:28Z</time>
      </trkpt>
      <trkpt lat="40.24443369358778" lon="-6.939795976504684">
        <ele>650.46923828125</ele>
        <time>2016-10-30T09:23:33Z</time>
      </trkpt>
      <trkpt lat="40.244553135707974" lon="-6.939725149422884">
        <ele>653.833984375</ele>
        <time>2016-10-30T09:23:38Z</time>
      </trkpt>
      <trkpt lat="40.244613317772746" lon="-6.939639905467629">
        <ele>654.314697265625</ele>
        <time>2016-10-30T09:23:43Z</time>
      </trkpt>
      <trkpt lat="40.244686072692275" lon="-6.93956564180553">
        <ele>654.314697265625</ele>
        <time>2016-10-30T09:23:48Z</time>
      </trkpt>
      <trkpt lat="40.244744913652539" lon="-6.939508393406868">
        <ele>656.237060546875</ele>
        <time>2016-10-30T09:23:53Z</time>
      </trkpt>
      <trkpt lat="40.244810543954372" lon="-6.939458437263966">
        <ele>656.237060546875</ele>
        <time>2016-10-30T09:23:58Z</time>
      </trkpt>
      <trkpt lat="40.244891094043851" lon="-6.939417785033584">
        <ele>655.756591796875</ele>
        <time>2016-10-30T09:24:03Z</time>
      </trkpt>
      <trkpt lat="40.244953036308289" lon="-6.939381659030914">
        <ele>657.198486328125</ele>
        <time>2016-10-30T09:24:08Z</time>
      </trkpt>
      <trkpt lat="40.245037861168385" lon="-6.939341342076659">
        <ele>658.159912109375</ele>
        <time>2016-10-30T09:24:13Z</time>
      </trkpt>
      <trkpt lat="40.245126457884908" lon="-6.939311837777495">
        <ele>660.082275390625</ele>
        <time>2016-10-30T09:24:18Z</time>
      </trkpt>
      <trkpt lat="40.245199631899595" lon="-6.939288955181837">
        <ele>663.927490234375</ele>
        <time>2016-10-30T09:24:23Z</time>
      </trkpt>
      <trkpt lat="40.245278254151344" lon="-6.939292475581169">
        <ele>666.330810546875</ele>
        <time>2016-10-30T09:24:28Z</time>
      </trkpt>
      <trkpt lat="40.245350757613778" lon="-6.93933111615479">
        <ele>667.772705078125</ele>
        <time>2016-10-30T09:24:33Z</time>
      </trkpt>
      <trkpt lat="40.245431559160352" lon="-6.939369337633252">
        <ele>670.17626953125</ele>
        <time>2016-10-30T09:24:38Z</time>
      </trkpt>
      <trkpt lat="40.245502134785056" lon="-6.939438823610544">
        <ele>672.57958984375</ele>
        <time>2016-10-30T09:24:43Z</time>
      </trkpt>
      <trkpt lat="40.245571285486221" lon="-6.939513171091676">
        <ele>672.57958984375</ele>
        <time>2016-10-30T09:24:48Z</time>
      </trkpt>
      <trkpt lat="40.245636915788054" lon="-6.939614173024893">
        <ele>673.060302734375</ele>
        <time>2016-10-30T09:24:53Z</time>
      </trkpt>
      <trkpt lat="40.245687793940306" lon="-6.939703859388828">
        <ele>674.021484375</ele>
        <time>2016-10-30T09:24:58Z</time>
      </trkpt>
      <trkpt lat="40.245743449777365" lon="-6.93979530595243">
        <ele>674.98291015625</ele>
        <time>2016-10-30T09:25:03Z</time>
      </trkpt>
      <trkpt lat="40.245794495567679" lon="-6.939905108883977">
        <ele>674.502197265625</ele>
        <time>2016-10-30T09:25:08Z</time>
      </trkpt>
      <trkpt lat="40.245850402861834" lon="-6.940006529912353">
        <ele>674.021484375</ele>
        <time>2016-10-30T09:25:13Z</time>
      </trkpt>
      <trkpt lat="40.245902873575687" lon="-6.940114069730043">
        <ele>673.541015625</ele>
        <time>2016-10-30T09:25:18Z</time>
      </trkpt>
      <trkpt lat="40.245953416451812" lon="-6.940210210159421">
        <ele>673.541015625</ele>
        <time>2016-10-30T09:25:23Z</time>
      </trkpt>
      <trkpt lat="40.246006641536951" lon="-6.940303752198815">
        <ele>674.502197265625</ele>
        <time>2016-10-30T09:25:28Z</time>
      </trkpt>
      <trkpt lat="40.246048299595714" lon="-6.940416824072599">
        <ele>675.46337890625</ele>
        <time>2016-10-30T09:25:33Z</time>
      </trkpt>
      <trkpt lat="40.246094651520252" lon="-6.94051313214004">
        <ele>677.38623046875</ele>
        <time>2016-10-30T09:25:38Z</time>
      </trkpt>
      <trkpt lat="40.246158521622419" lon="-6.940569207072258">
        <ele>677.86669921875</ele>
        <time>2016-10-30T09:25:43Z</time>
      </trkpt>
      <trkpt lat="40.246201185509562" lon="-6.940650176256895">
        <ele>678.347412109375</ele>
        <time>2016-10-30T09:25:48Z</time>
      </trkpt>
      <trkpt lat="40.246249213814735" lon="-6.940721673890948">
        <ele>678.828125</ele>
        <time>2016-10-30T09:25:53Z</time>
      </trkpt>
      <trkpt lat="40.246296320110559" lon="-6.940775737166405">
        <ele>679.789306640625</ele>
        <time>2016-10-30T09:25:58Z</time>
      </trkpt>
      <trkpt lat="40.246396148577332" lon="-6.940781520679593">
        <ele>682.67333984375</ele>
        <time>2016-10-30T09:26:03Z</time>
      </trkpt>
      <trkpt lat="40.246474016457796" lon="-6.940747490152717">
        <ele>683.634521484375</ele>
        <time>2016-10-30T09:26:08Z</time>
      </trkpt>
      <trkpt lat="40.246542328968644" lon="-6.940713627263904">
        <ele>680.27001953125</ele>
        <time>2016-10-30T09:26:13Z</time>
      </trkpt>
      <trkpt lat="40.24663008749485" lon="-6.940680434927344">
        <ele>682.67333984375</ele>
        <time>2016-10-30T09:26:18Z</time>
      </trkpt>
      <trkpt lat="40.246726479381323" lon="-6.940692840144038">
        <ele>684.115478515625</ele>
        <time>2016-10-30T09:26:23Z</time>
      </trkpt>
      <trkpt lat="40.246782219037414" lon="-6.940750256180763">
        <ele>685.076904296875</ele>
        <time>2016-10-30T09:26:28Z</time>
      </trkpt>
      <trkpt lat="40.246850112453103" lon="-6.940823011100292">
        <ele>685.557373046875</ele>
        <time>2016-10-30T09:26:33Z</time>
      </trkpt>
      <trkpt lat="40.246905097737908" lon="-6.940940693020821">
        <ele>684.59619140625</ele>
        <time>2016-10-30T09:26:38Z</time>
      </trkpt>
      <trkpt lat="40.246932338923216" lon="-6.941025434061885">
        <ele>684.59619140625</ele>
        <time>2016-10-30T09:26:42Z</time>
      </trkpt>
      <trkpt lat="40.246975421905518" lon="-6.941154012456536">
        <ele>684.59619140625</ele>
        <time>2016-10-30T09:26:48Z</time>
      </trkpt>
      <trkpt lat="40.247025042772293" lon="-6.941290721297264">
        <ele>685.557373046875</ele>
        <time>2016-10-30T09:26:53Z</time>
      </trkpt>
      <trkpt lat="40.247069634497166" lon="-6.94139800965786">
        <ele>685.076904296875</ele>
        <time>2016-10-30T09:26:58Z</time>
      </trkpt>
      <trkpt lat="40.247104251757264" lon="-6.941517535597086">
        <ele>686.0380859375</ele>
        <time>2016-10-30T09:27:03Z</time>
      </trkpt>
      <trkpt lat="40.247133336961269" lon="-6.941628260537982">
        <ele>687.960693359375</ele>
        <time>2016-10-30T09:27:08Z</time>
      </trkpt>
      <trkpt lat="40.247173067182302" lon="-6.941727586090565">
        <ele>688.922119140625</ele>
        <time>2016-10-30T09:27:13Z</time>
      </trkpt>
      <trkpt lat="40.247218580916524" lon="-6.941830096766353">
        <ele>688.44140625</ele>
        <time>2016-10-30T09:27:18Z</time>
      </trkpt>
      <trkpt lat="40.247251186519861" lon="-6.941944509744644">
        <ele>689.402587890625</ele>
        <time>2016-10-30T09:27:23Z</time>
      </trkpt>
      <trkpt lat="40.247291922569275" lon="-6.942037465050817">
        <ele>690.844482421875</ele>
        <time>2016-10-30T09:27:28Z</time>
      </trkpt>
      <trkpt lat="40.247318157926202" lon="-6.942130168899894">
        <ele>692.767333984375</ele>
        <time>2016-10-30T09:27:33Z</time>
      </trkpt>
      <trkpt lat="40.247340872883797" lon="-6.942240139469504">
        <ele>693.728515625</ele>
        <time>2016-10-30T09:27:38Z</time>
      </trkpt>
      <trkpt lat="40.247362582013011" lon="-6.942342231050134">
        <ele>695.17041015625</ele>
        <time>2016-10-30T09:27:43Z</time>
      </trkpt>
      <trkpt lat="40.247394349426031" lon="-6.942456476390362">
        <ele>696.1318359375</ele>
        <time>2016-10-30T09:27:48Z</time>
      </trkpt>
      <trkpt lat="40.24743483401835" lon="-6.942570889368653">
        <ele>695.17041015625</ele>
        <time>2016-10-30T09:27:53Z</time>
      </trkpt>
      <trkpt lat="40.247469954192638" lon="-6.942676333710551">
        <ele>698.534912109375</ele>
        <time>2016-10-30T09:27:58Z</time>
      </trkpt>
      <trkpt lat="40.247491747140884" lon="-6.94278521463275">
        <ele>699.015625</ele>
        <time>2016-10-30T09:28:03Z</time>
      </trkpt>
      <trkpt lat="40.247498452663422" lon="-6.942886635661125">
        <ele>699.015625</ele>
        <time>2016-10-30T09:28:08Z</time>
      </trkpt>
      <trkpt lat="40.247511025518179" lon="-6.942995684221387">
        <ele>700.4580078125</ele>
        <time>2016-10-30T09:28:13Z</time>
      </trkpt>
      <trkpt lat="40.247529465705156" lon="-6.943107331171632">
        <ele>700.9384765625</ele>
        <time>2016-10-30T09:28:18Z</time>
      </trkpt>
      <trkpt lat="40.247545475140214" lon="-6.943210931494832">
        <ele>700.9384765625</ele>
        <time>2016-10-30T09:28:23Z</time>
      </trkpt>
      <trkpt lat="40.247561233118176" lon="-6.943318638950586">
        <ele>701.89990234375</ele>
        <time>2016-10-30T09:28:28Z</time>
      </trkpt>
      <trkpt lat="40.247574979439378" lon="-6.943413270637393">
        <ele>701.89990234375</ele>
        <time>2016-10-30T09:28:33Z</time>
      </trkpt>
      <trkpt lat="40.247601885348558" lon="-6.943532461300492">
        <ele>701.419189453125</ele>
        <time>2016-10-30T09:28:38Z</time>
      </trkpt>
      <trkpt lat="40.247646057978272" lon="-6.943622566759586">
        <ele>704.78369140625</ele>
        <time>2016-10-30T09:28:43Z</time>
      </trkpt>
      <trkpt lat="40.247683944180608" lon="-6.943729436025024">
        <ele>706.2255859375</ele>
        <time>2016-10-30T09:28:48Z</time>
      </trkpt>
      <trkpt lat="40.247702552005649" lon="-6.94383722729981">
        <ele>707.667724609375</ele>
        <time>2016-10-30T09:28:53Z</time>
      </trkpt>
      <trkpt lat="40.247739516198635" lon="-6.943947533145547">
        <ele>707.18701171875</ele>
        <time>2016-10-30T09:28:58Z</time>
      </trkpt>
      <trkpt lat="40.247766003012657" lon="-6.94403512403369">
        <ele>707.667724609375</ele>
        <time>2016-10-30T09:29:03Z</time>
      </trkpt>
      <trkpt lat="40.247808834537864" lon="-6.944120787084103">
        <ele>708.1484375</ele>
        <time>2016-10-30T09:29:08Z</time>
      </trkpt>
      <trkpt lat="40.247847139835358" lon="-6.94420519284904">
        <ele>709.59033203125</ele>
        <time>2016-10-30T09:29:13Z</time>
      </trkpt>
      <trkpt lat="40.24786289781332" lon="-6.944281971082091">
        <ele>711.0322265625</ele>
        <time>2016-10-30T09:29:18Z</time>
      </trkpt>
      <trkpt lat="40.247879661619663" lon="-6.944357072934508">
        <ele>712.954833984375</ele>
        <time>2016-10-30T09:29:23Z</time>
      </trkpt>
      <trkpt lat="40.247902125120163" lon="-6.944445921108127">
        <ele>716.319580078125</ele>
        <time>2016-10-30T09:29:28Z</time>
      </trkpt>
      <trkpt lat="40.247925594449043" lon="-6.944518089294434">
        <ele>717.761474609375</ele>
        <time>2016-10-30T09:29:33Z</time>
      </trkpt>
      <trkpt lat="40.247918805107474" lon="-6.944618672132492">
        <ele>718.722900390625</ele>
        <time>2016-10-30T09:29:38Z</time>
      </trkpt>
      <trkpt lat="40.247907405719161" lon="-6.944701485335827">
        <ele>720.164794921875</ele>
        <time>2016-10-30T09:29:43Z</time>
      </trkpt>
      <trkpt lat="40.247901370748878" lon="-6.944776754826307">
        <ele>722.08740234375</ele>
        <time>2016-10-30T09:29:48Z</time>
      </trkpt>
      <trkpt lat="40.247910423204303" lon="-6.944853533059359">
        <ele>724.49072265625</ele>
        <time>2016-10-30T09:29:53Z</time>
      </trkpt>
      <trkpt lat="40.247903550043702" lon="-6.944942800328136">
        <ele>726.413330078125</ele>
        <time>2016-10-30T09:29:58Z</time>
      </trkpt>
      <trkpt lat="40.247891647741199" lon="-6.945032067596912">
        <ele>726.89404296875</ele>
        <time>2016-10-30T09:30:03Z</time>
      </trkpt>
      <trkpt lat="40.247872034087777" lon="-6.945113791152835">
        <ele>727.855224609375</ele>
        <time>2016-10-30T09:30:08Z</time>
      </trkpt>
      <trkpt lat="40.247867004945874" lon="-6.945205321535468">
        <ele>728.3359375</ele>
        <time>2016-10-30T09:30:13Z</time>
      </trkpt>
      <trkpt lat="40.247851582244039" lon="-6.945290649309754">
        <ele>729.297119140625</ele>
        <time>2016-10-30T09:30:18Z</time>
      </trkpt>
      <trkpt lat="40.247834399342537" lon="-6.945376479998231">
        <ele>730.258544921875</ele>
        <time>2016-10-30T09:30:23Z</time>
      </trkpt>
      <trkpt lat="40.247808247804642" lon="-6.945446971803904">
        <ele>731.219970703125</ele>
        <time>2016-10-30T09:30:28Z</time>
      </trkpt>
      <trkpt lat="40.247765081003308" lon="-6.945527940988541">
        <ele>731.219970703125</ele>
        <time>2016-10-30T09:30:33Z</time>
      </trkpt>
      <trkpt lat="40.247757788747549" lon="-6.945625506341457">
        <ele>733.142578125</ele>
        <time>2016-10-30T09:30:38Z</time>
      </trkpt>
      <trkpt lat="40.247736917808652" lon="-6.945697003975511">
        <ele>734.584716796875</ele>
        <time>2016-10-30T09:30:43Z</time>
      </trkpt>
      <trkpt lat="40.247702216729522" lon="-6.945787528529763">
        <ele>736.50732421875</ele>
        <time>2016-10-30T09:30:48Z</time>
      </trkpt>
      <trkpt lat="40.247725434601307" lon="-6.945855002850294">
        <ele>736.026611328125</ele>
        <time>2016-10-30T09:30:53Z</time>
      </trkpt>
      <trkpt lat="40.247753597795963" lon="-6.945931697264314">
        <ele>735.0654296875</ele>
        <time>2016-10-30T09:30:58Z</time>
      </trkpt>
      <trkpt lat="40.247817719355226" lon="-6.945977797731757">
        <ele>734.10400390625</ele>
        <time>2016-10-30T09:31:03Z</time>
      </trkpt>
      <trkpt lat="40.247884104028344" lon="-6.946005960926414">
        <ele>735.0654296875</ele>
        <time>2016-10-30T09:31:08Z</time>
      </trkpt>
      <trkpt lat="40.24796498939395" lon="-6.945996573194861">
        <ele>737.468505859375</ele>
        <time>2016-10-30T09:31:13Z</time>
      </trkpt>
      <trkpt lat="40.248033972457051" lon="-6.945978635922074">
        <ele>739.871826171875</ele>
        <time>2016-10-30T09:31:18Z</time>
      </trkpt>
      <trkpt lat="40.248099099844694" lon="-6.945963716134429">
        <ele>742.275146484375</ele>
        <time>2016-10-30T09:31:23Z</time>
      </trkpt>
      <trkpt lat="40.24816732853651" lon="-6.94597352296114">
        <ele>744.67822265625</ele>
        <time>2016-10-30T09:31:28Z</time>
      </trkpt>
      <trkpt lat="40.248211165890098" lon="-6.946048038080335">
        <ele>742.755859375</ele>
        <time>2016-10-30T09:31:33Z</time>
      </trkpt>
      <trkpt lat="40.248291715979576" lon="-6.946139149367809">
        <ele>738.91064453125</ele>
        <time>2016-10-30T09:31:38Z</time>
      </trkpt>
      <trkpt lat="40.248356843367219" lon="-6.946227494627237">
        <ele>738.91064453125</ele>
        <time>2016-10-30T09:31:43Z</time>
      </trkpt>
      <trkpt lat="40.248405961319804" lon="-6.946346182376146">
        <ele>737.94921875</ele>
        <time>2016-10-30T09:31:48Z</time>
      </trkpt>
      <trkpt lat="40.248460024595261" lon="-6.946455147117376">
        <ele>737.94921875</ele>
        <time>2016-10-30T09:31:53Z</time>
      </trkpt>
      <trkpt lat="40.248491875827312" lon="-6.946575008332729">
        <ele>739.39111328125</ele>
        <time>2016-10-30T09:31:58Z</time>
      </trkpt>
      <trkpt lat="40.248524565249681" lon="-6.946703419089317">
        <ele>739.871826171875</ele>
        <time>2016-10-30T09:32:03Z</time>
      </trkpt>
      <trkpt lat="40.248559601604939" lon="-6.946824537590146">
        <ele>740.3525390625</ele>
        <time>2016-10-30T09:32:08Z</time>
      </trkpt>
      <trkpt lat="40.248579885810614" lon="-6.946963258087635">
        <ele>741.313720703125</ele>
        <time>2016-10-30T09:32:13Z</time>
      </trkpt>
      <trkpt lat="40.24859044700861" lon="-6.947084711864591">
        <ele>742.275146484375</ele>
        <time>2016-10-30T09:32:18Z</time>
      </trkpt>
      <trkpt lat="40.248601846396923" lon="-6.947229551151395">
        <ele>742.755859375</ele>
        <time>2016-10-30T09:32:23Z</time>
      </trkpt>
      <trkpt lat="40.248730927705765" lon="-6.947251847013831">
        <ele>742.275146484375</ele>
        <time>2016-10-30T09:32:28Z</time>
      </trkpt>
      <trkpt lat="40.248875264078379" lon="-6.947139278054237">
        <ele>742.275146484375</ele>
        <time>2016-10-30T09:32:33Z</time>
      </trkpt>
      <trkpt lat="40.24903510697186" lon="-6.947055039927363">
        <ele>742.275146484375</ele>
        <time>2016-10-30T09:32:38Z</time>
      </trkpt>
      <trkpt lat="40.249159326776862" lon="-6.946981698274612">
        <ele>744.19775390625</ele>
        <time>2016-10-30T09:32:43Z</time>
      </trkpt>
      <trkpt lat="40.24925647303462" lon="-6.94694934412837">
        <ele>744.19775390625</ele>
        <time>2016-10-30T09:32:48Z</time>
      </trkpt>
      <trkpt lat="40.249357726424932" lon="-6.946951607242227">
        <ele>744.67822265625</ele>
        <time>2016-10-30T09:32:53Z</time>
      </trkpt>
      <trkpt lat="40.249416818842292" lon="-6.946990918368101">
        <ele>745.158935546875</ele>
        <time>2016-10-30T09:32:58Z</time>
      </trkpt>
      <trkpt lat="40.249468954280019" lon="-6.947042215615511">
        <ele>746.60107421875</ele>
        <time>2016-10-30T09:33:03Z</time>
      </trkpt>
      <trkpt lat="40.249533746391535" lon="-6.947098793461919">
        <ele>748.043212890625</ele>
        <time>2016-10-30T09:33:08Z</time>
      </trkpt>
      <trkpt lat="40.249592671170831" lon="-6.947155119851232">
        <ele>748.523681640625</ele>
        <time>2016-10-30T09:33:13Z</time>
      </trkpt>
      <trkpt lat="40.249631479382515" lon="-6.94722100161016">
        <ele>749.00439453125</ele>
        <time>2016-10-30T09:33:18Z</time>
      </trkpt>
      <trkpt lat="40.249695768579841" lon="-6.947297109290958">
        <ele>748.523681640625</ele>
        <time>2016-10-30T09:33:23Z</time>
      </trkpt>
      <trkpt lat="40.249760057777166" lon="-6.947373133152723">
        <ele>749.00439453125</ele>
        <time>2016-10-30T09:33:28Z</time>
      </trkpt>
      <trkpt lat="40.249832225963473" lon="-6.947445468977094">
        <ele>749.9658203125</ele>
        <time>2016-10-30T09:33:33Z</time>
      </trkpt>
      <trkpt lat="40.249885199591517" lon="-6.947524258866906">
        <ele>749.9658203125</ele>
        <time>2016-10-30T09:33:38Z</time>
      </trkpt>
      <trkpt lat="40.249959966167808" lon="-6.947586368769407">
        <ele>749.485107421875</ele>
        <time>2016-10-30T09:33:43Z</time>
      </trkpt>
      <trkpt lat="40.250064907595515" lon="-6.947679743170738">
        <ele>751.40771484375</ele>
        <time>2016-10-30T09:33:48Z</time>
      </trkpt>
      <trkpt lat="40.250119641423225" lon="-6.947735315188766">
        <ele>750.927001953125</ele>
        <time>2016-10-30T09:33:53Z</time>
      </trkpt>
      <trkpt lat="40.250184517353773" lon="-6.947813602164388">
        <ele>750.927001953125</ele>
        <time>2016-10-30T09:33:58Z</time>
      </trkpt>
      <trkpt lat="40.250237574800849" lon="-6.947881914675236">
        <ele>750.927001953125</ele>
        <time>2016-10-30T09:34:03Z</time>
      </trkpt>
      <trkpt lat="40.250277640298009" lon="-6.947974115610123">
        <ele>750.927001953125</ele>
        <time>2016-10-30T09:34:08Z</time>
      </trkpt>
      <trkpt lat="40.250360034406185" lon="-6.948068076744676">
        <ele>750.927001953125</ele>
        <time>2016-10-30T09:34:13Z</time>
      </trkpt>
      <trkpt lat="40.250425999984145" lon="-6.948154494166374">
        <ele>750.927001953125</ele>
        <time>2016-10-30T09:34:18Z</time>
      </trkpt>
      <trkpt lat="40.250538317486644" lon="-6.948146866634488">
        <ele>751.888427734375</ele>
        <time>2016-10-30T09:34:23Z</time>
      </trkpt>
      <trkpt lat="40.250594560056925" lon="-6.948050977662206">
        <ele>751.888427734375</ele>
        <time>2016-10-30T09:34:28Z</time>
      </trkpt>
      <trkpt lat="40.250640325248241" lon="-6.947922566905618">
        <ele>752.849609375</ele>
        <time>2016-10-30T09:34:33Z</time>
      </trkpt>
      <trkpt lat="40.25068667717278" lon="-6.947787199169397">
        <ele>753.330322265625</ele>
        <time>2016-10-30T09:34:38Z</time>
      </trkpt>
      <trkpt lat="40.250742081552744" lon="-6.947708912193775">
        <ele>754.772216796875</ele>
        <time>2016-10-30T09:34:43Z</time>
      </trkpt>
      <trkpt lat="40.250766472890973" lon="-6.947658034041524">
        <ele>756.214111328125</ele>
        <time>2016-10-30T09:34:48Z</time>
      </trkpt>
      <trkpt lat="40.250769658014178" lon="-6.947654765099287">
        <ele>756.69482421875</ele>
        <time>2016-10-30T09:34:53Z</time>
      </trkpt>
      <trkpt lat="40.250771502032876" lon="-6.947651747614145">
        <ele>756.69482421875</ele>
        <time>2016-10-30T09:34:58Z</time>
      </trkpt>
      <trkpt lat="40.250771502032876" lon="-6.947650825604796">
        <ele>756.69482421875</ele>
        <time>2016-10-30T09:35:03Z</time>
      </trkpt>
      <trkpt lat="40.250771753489971" lon="-6.947649316862226">
        <ele>756.69482421875</ele>
        <time>2016-10-30T09:35:08Z</time>
      </trkpt>
      <trkpt lat="40.25077217258513" lon="-6.947648227214813">
        <ele>756.69482421875</ele>
        <time>2016-10-30T09:35:13Z</time>
      </trkpt>
      <trkpt lat="40.250772340223193" lon="-6.947647472843528">
        <ele>756.69482421875</ele>
        <time>2016-10-30T09:35:18Z</time>
      </trkpt>
      <trkpt lat="40.250771753489971" lon="-6.947647891938686">
        <ele>757.175537109375</ele>
        <time>2016-10-30T09:35:23Z</time>
      </trkpt>
      <trkpt lat="40.250771166756749" lon="-6.947646467015147">
        <ele>757.175537109375</ele>
        <time>2016-10-30T09:35:28Z</time>
      </trkpt>
      <trkpt lat="40.250771585851908" lon="-6.947646299377084">
        <ele>757.175537109375</ele>
        <time>2016-10-30T09:35:33Z</time>
      </trkpt>
      <trkpt lat="40.250771334394813" lon="-6.947645796462894">
        <ele>757.65625</ele>
        <time>2016-10-30T09:35:38Z</time>
      </trkpt>
      <trkpt lat="40.250771166756749" lon="-6.947645293548703">
        <ele>757.65625</ele>
        <time>2016-10-30T09:35:43Z</time>
      </trkpt>
      <trkpt lat="40.250770831480622" lon="-6.94764462299645">
        <ele>757.65625</ele>
        <time>2016-10-30T09:35:48Z</time>
      </trkpt>
      <trkpt lat="40.250770412385464" lon="-6.947643952444196">
        <ele>757.65625</ele>
        <time>2016-10-30T09:35:53Z</time>
      </trkpt>
      <trkpt lat="40.250770160928369" lon="-6.947643281891942">
        <ele>757.65625</ele>
        <time>2016-10-30T09:35:58Z</time>
      </trkpt>
      <trkpt lat="40.250769574195147" lon="-6.94764269515872">
        <ele>757.65625</ele>
        <time>2016-10-30T09:36:03Z</time>
      </trkpt>
      <trkpt lat="40.250769071280956" lon="-6.947642108425498">
        <ele>757.65625</ele>
        <time>2016-10-30T09:36:08Z</time>
      </trkpt>
      <trkpt lat="40.250768903642893" lon="-6.947641605511308">
        <ele>757.65625</ele>
        <time>2016-10-30T09:36:13Z</time>
      </trkpt>
      <trkpt lat="40.250768652185798" lon="-6.947641018778086">
        <ele>757.65625</ele>
        <time>2016-10-30T09:36:18Z</time>
      </trkpt>
      <trkpt lat="40.250768400728703" lon="-6.9476402644068">
        <ele>757.65625</ele>
        <time>2016-10-30T09:36:23Z</time>
      </trkpt>
      <trkpt lat="40.250768149271607" lon="-6.947639593854547">
        <ele>757.65625</ele>
        <time>2016-10-30T09:36:28Z</time>
      </trkpt>
      <trkpt lat="40.250768149271607" lon="-6.947639174759388">
        <ele>757.175537109375</ele>
        <time>2016-10-30T09:36:33Z</time>
      </trkpt>
      <trkpt lat="40.250767730176449" lon="-6.947638336569071">
        <ele>757.175537109375</ele>
        <time>2016-10-30T09:36:38Z</time>
      </trkpt>
      <trkpt lat="40.250767478719354" lon="-6.947637917473912">
        <ele>757.175537109375</ele>
        <time>2016-10-30T09:36:43Z</time>
      </trkpt>
      <trkpt lat="40.250767059624195" lon="-6.947637833654881">
        <ele>757.175537109375</ele>
        <time>2016-10-30T09:36:48Z</time>
      </trkpt>
      <trkpt lat="40.250766724348068" lon="-6.947637246921659">
        <ele>757.175537109375</ele>
        <time>2016-10-30T09:36:53Z</time>
      </trkpt>
      <trkpt lat="40.25076630525291" lon="-6.947636995464563">
        <ele>757.175537109375</ele>
        <time>2016-10-30T09:36:58Z</time>
      </trkpt>
      <trkpt lat="40.250765886157751" lon="-6.947636995464563">
        <ele>757.65625</ele>
        <time>2016-10-30T09:37:03Z</time>
      </trkpt>
      <trkpt lat="40.250765467062593" lon="-6.947636660188437">
        <ele>757.65625</ele>
        <time>2016-10-30T09:37:08Z</time>
      </trkpt>
      <trkpt lat="40.250765047967434" lon="-6.947636492550373">
        <ele>757.65625</ele>
        <time>2016-10-30T09:37:12Z</time>
      </trkpt>
      <trkpt lat="40.250764628872275" lon="-6.947636241093278">
        <ele>757.65625</ele>
        <time>2016-10-30T09:37:18Z</time>
      </trkpt>
      <trkpt lat="40.250764209777117" lon="-6.947635821998119">
        <ele>757.65625</ele>
        <time>2016-10-30T09:37:23Z</time>
      </trkpt>
      <trkpt lat="40.25076387450099" lon="-6.947635486721993">
        <ele>757.65625</ele>
        <time>2016-10-30T09:37:28Z</time>
      </trkpt>
      <trkpt lat="40.250763455405831" lon="-6.947634983807802">
        <ele>757.65625</ele>
        <time>2016-10-30T09:37:33Z</time>
      </trkpt>
      <trkpt lat="40.250762868672609" lon="-6.94763439707458">
        <ele>757.65625</ele>
        <time>2016-10-30T09:37:38Z</time>
      </trkpt>
      <trkpt lat="40.250762533396482" lon="-6.947634061798453">
        <ele>757.65625</ele>
        <time>2016-10-30T09:37:43Z</time>
      </trkpt>
      <trkpt lat="40.250762114301324" lon="-6.947633307427168">
        <ele>757.65625</ele>
        <time>2016-10-30T09:37:48Z</time>
      </trkpt>
      <trkpt lat="40.250761779025197" lon="-6.947632888332009">
        <ele>758.136962890625</ele>
        <time>2016-10-30T09:37:53Z</time>
      </trkpt>
      <trkpt lat="40.250761359930038" lon="-6.947632469236851">
        <ele>758.136962890625</ele>
        <time>2016-10-30T09:37:58Z</time>
      </trkpt>
      <trkpt lat="40.25076094083488" lon="-6.947632217779756">
        <ele>758.136962890625</ele>
        <time>2016-10-30T09:38:03Z</time>
      </trkpt>
      <trkpt lat="40.250760521739721" lon="-6.947632133960724">
        <ele>758.136962890625</ele>
        <time>2016-10-30T09:38:08Z</time>
      </trkpt>
      <trkpt lat="40.250760018825531" lon="-6.947632050141692">
        <ele>758.136962890625</ele>
        <time>2016-10-30T09:38:13Z</time>
      </trkpt>
      <trkpt lat="40.250759767368436" lon="-6.947632133960724">
        <ele>758.136962890625</ele>
        <time>2016-10-30T09:38:18Z</time>
      </trkpt>
      <trkpt lat="40.250759515911341" lon="-6.947632133960724">
        <ele>758.136962890625</ele>
        <time>2016-10-30T09:38:23Z</time>
      </trkpt>
      <trkpt lat="40.250759432092309" lon="-6.947632217779756">
        <ele>758.136962890625</ele>
        <time>2016-10-30T09:38:28Z</time>
      </trkpt>
      <trkpt lat="40.250759180635214" lon="-6.947632050141692">
        <ele>758.136962890625</ele>
        <time>2016-10-30T09:38:33Z</time>
      </trkpt>
      <trkpt lat="40.250758845359087" lon="-6.94763196632266">
        <ele>758.136962890625</ele>
        <time>2016-10-30T09:38:38Z</time>
      </trkpt>
      <trkpt lat="40.250758845359087" lon="-6.947632301598787">
        <ele>758.136962890625</ele>
        <time>2016-10-30T09:38:43Z</time>
      </trkpt>
      <trkpt lat="40.250758593901992" lon="-6.947632385417819">
        <ele>758.136962890625</ele>
        <time>2016-10-30T09:38:48Z</time>
      </trkpt>
      <trkpt lat="40.250758342444897" lon="-6.947632133960724">
        <ele>758.136962890625</ele>
        <time>2016-10-30T09:38:53Z</time>
      </trkpt>
      <trkpt lat="40.25075800716877" lon="-6.947631882503629">
        <ele>758.136962890625</ele>
        <time>2016-10-30T09:38:58Z</time>
      </trkpt>
      <trkpt lat="40.250757755711675" lon="-6.947631798684597">
        <ele>758.136962890625</ele>
        <time>2016-10-30T09:39:03Z</time>
      </trkpt>
      <trkpt lat="40.25075800716877" lon="-6.947631714865565">
        <ele>758.136962890625</ele>
        <time>2016-10-30T09:39:08Z</time>
      </trkpt>
      <trkpt lat="40.250762030482292" lon="-6.94763146340847">
        <ele>758.136962890625</ele>
        <time>2016-10-30T09:39:13Z</time>
      </trkpt>
      <trkpt lat="40.250814165920019" lon="-6.947615370154381">
        <ele>758.136962890625</ele>
        <time>2016-10-30T09:39:18Z</time>
      </trkpt>
      <trkpt lat="40.250931428745389" lon="-6.947574634104967">
        <ele>757.65625</ele>
        <time>2016-10-30T09:39:23Z</time>
      </trkpt>
      <trkpt lat="40.251070316880941" lon="-6.947549991309643">
        <ele>757.65625</ele>
        <time>2016-10-30T09:39:28Z</time>
      </trkpt>
      <trkpt lat="40.251211216673255" lon="-6.947562145069242">
        <ele>757.65625</ele>
        <time>2016-10-30T09:39:33Z</time>
      </trkpt>
      <trkpt lat="40.251380447298288" lon="-6.947545716539025">
        <ele>757.65625</ele>
        <time>2016-10-30T09:39:38Z</time>
      </trkpt>
      <trkpt lat="40.251551605761051" lon="-6.947528533637524">
        <ele>758.136962890625</ele>
        <time>2016-10-30T09:39:43Z</time>
      </trkpt>
      <trkpt lat="40.251587983220816" lon="-6.947338096797466">
        <ele>758.136962890625</ele>
        <time>2016-10-30T09:39:48Z</time>
      </trkpt>
      <trkpt lat="40.251446329057217" lon="-6.9470842089504">
        <ele>757.65625</ele>
        <time>2016-10-30T09:39:53Z</time>
      </trkpt>
      <trkpt lat="40.251302244141698" lon="-6.946803331375122">
        <ele>754.772216796875</ele>
        <time>2016-10-30T09:39:58Z</time>
      </trkpt>
      <trkpt lat="40.251193195581436" lon="-6.946484902873635">
        <ele>753.81103515625</ele>
        <time>2016-10-30T09:40:03Z</time>
      </trkpt>
      <trkpt lat="40.251029497012496" lon="-6.946162115782499">
        <ele>754.291748046875</ele>
        <time>2016-10-30T09:40:08Z</time>
      </trkpt>
      <trkpt lat="40.250887088477612" lon="-6.945832455530763">
        <ele>755.2529296875</ele>
        <time>2016-10-30T09:40:13Z</time>
      </trkpt>
      <trkpt lat="40.250728586688638" lon="-6.945506650954485">
        <ele>757.175537109375</ele>
        <time>2016-10-30T09:40:18Z</time>
      </trkpt>
      <trkpt lat="40.250621382147074" lon="-6.945150000974536">
        <ele>757.65625</ele>
        <time>2016-10-30T09:40:23Z</time>
      </trkpt>
      <trkpt lat="40.250606462359428" lon="-6.944796033203602">
        <ele>760.5400390625</ele>
        <time>2016-10-30T09:40:28Z</time>
      </trkpt>
      <trkpt lat="40.250713583081961" lon="-6.944485986605287">
        <ele>757.175537109375</ele>
        <time>2016-10-30T09:40:33Z</time>
      </trkpt>
      <trkpt lat="40.250841323286295" lon="-6.944245174527168">
        <ele>756.69482421875</ele>
        <time>2016-10-30T09:40:38Z</time>
      </trkpt>
      <trkpt lat="40.250945342704654" lon="-6.944014169275761">
        <ele>759.09814453125</ele>
        <time>2016-10-30T09:40:43Z</time>
      </trkpt>
      <trkpt lat="40.250994544476271" lon="-6.943822894245386">
        <ele>761.020751953125</ele>
        <time>2016-10-30T09:40:48Z</time>
      </trkpt>
      <trkpt lat="40.250874767079949" lon="-6.94366866722703">
        <ele>762.943359375</ele>
        <time>2016-10-30T09:40:53Z</time>
      </trkpt>
      <trkpt lat="40.25066957809031" lon="-6.943614520132542">
        <ele>764.8662109375</ele>
        <time>2016-10-30T09:40:58Z</time>
      </trkpt>
      <trkpt lat="40.250416025519371" lon="-6.943470351397991">
        <ele>766.788818359375</ele>
        <time>2016-10-30T09:41:03Z</time>
      </trkpt>
      <trkpt lat="40.250253835693002" lon="-6.943097440525889">
        <ele>765.82763671875</ele>
        <time>2016-10-30T09:41:08Z</time>
      </trkpt>
      <trkpt lat="40.250163981691003" lon="-6.942781778052449">
        <ele>765.346923828125</ele>
        <time>2016-10-30T09:41:13Z</time>
      </trkpt>
      <trkpt lat="40.250129029154778" lon="-6.942442813888192">
        <ele>766.30810546875</ele>
        <time>2016-10-30T09:41:18Z</time>
      </trkpt>
      <trkpt lat="40.250192061066628" lon="-6.942080715671182">
        <ele>767.26953125</ele>
        <time>2016-10-30T09:41:23Z</time>
      </trkpt>
      <trkpt lat="40.250276299193501" lon="-6.941711073741317">
        <ele>766.788818359375</ele>
        <time>2016-10-30T09:41:28Z</time>
      </trkpt>
      <trkpt lat="40.250217625871301" lon="-6.94127144291997">
        <ele>766.788818359375</ele>
        <time>2016-10-30T09:41:33Z</time>
      </trkpt>
      <trkpt lat="40.250190049409866" lon="-6.940839691087604">
        <ele>769.192138671875</ele>
        <time>2016-10-30T09:41:38Z</time>
      </trkpt>
      <trkpt lat="40.250101704150438" lon="-6.940452111884952">
        <ele>771.59521484375</ele>
        <time>2016-10-30T09:41:43Z</time>
      </trkpt>
      <trkpt lat="40.249877404421568" lon="-6.940104430541396">
        <ele>765.346923828125</ele>
        <time>2016-10-30T09:41:48Z</time>
      </trkpt>
      <trkpt lat="40.249760309234262" lon="-6.939743421971798">
        <ele>761.020751953125</ele>
        <time>2016-10-30T09:41:53Z</time>
      </trkpt>
      <trkpt lat="40.249860221520066" lon="-6.939373444765806">
        <ele>751.888427734375</ele>
        <time>2016-10-30T09:41:58Z</time>
      </trkpt>
      <trkpt lat="40.250076893717051" lon="-6.939114024862647">
        <ele>750.927001953125</ele>
        <time>2016-10-30T09:42:03Z</time>
      </trkpt>
      <trkpt lat="40.250278813764453" lon="-6.938943285495043">
        <ele>751.40771484375</ele>
        <time>2016-10-30T09:42:08Z</time>
      </trkpt>
      <trkpt lat="40.2504887804389" lon="-6.93878092803061">
        <ele>751.40771484375</ele>
        <time>2016-10-30T09:42:13Z</time>
      </trkpt>
      <trkpt lat="40.25070721283555" lon="-6.938693085685372">
        <ele>749.9658203125</ele>
        <time>2016-10-30T09:42:18Z</time>
      </trkpt>
      <trkpt lat="40.250926567241549" lon="-6.938654026016593">
        <ele>749.9658203125</ele>
        <time>2016-10-30T09:42:23Z</time>
      </trkpt>
      <trkpt lat="40.251136031001806" lon="-6.938634915277362">
        <ele>750.927001953125</ele>
        <time>2016-10-30T09:42:28Z</time>
      </trkpt>
      <trkpt lat="40.251352367922664" lon="-6.938592838123441">
        <ele>750.446533203125</ele>
        <time>2016-10-30T09:42:33Z</time>
      </trkpt>
      <trkpt lat="40.251577338203788" lon="-6.938435174524784">
        <ele>748.043212890625</ele>
        <time>2016-10-30T09:42:38Z</time>
      </trkpt>
      <trkpt lat="40.251724775880575" lon="-6.938248928636313">
        <ele>748.043212890625</ele>
        <time>2016-10-30T09:42:43Z</time>
      </trkpt>
      <trkpt lat="40.251593263819814" lon="-6.937921112403274">
        <ele>749.00439453125</ele>
        <time>2016-10-30T09:42:48Z</time>
      </trkpt>
      <trkpt lat="40.251421183347702" lon="-6.937504783272743">
        <ele>750.446533203125</ele>
        <time>2016-10-30T09:42:53Z</time>
      </trkpt>
      <trkpt lat="40.251309704035521" lon="-6.937053669244051">
        <ele>749.00439453125</ele>
        <time>2016-10-30T09:42:58Z</time>
      </trkpt>
      <trkpt lat="40.251272572204471" lon="-6.936683440580964">
        <ele>750.927001953125</ele>
        <time>2016-10-30T09:43:03Z</time>
      </trkpt>
      <trkpt lat="40.25131456553936" lon="-6.93628404289484">
        <ele>749.9658203125</ele>
        <time>2016-10-30T09:43:08Z</time>
      </trkpt>
      <trkpt lat="40.251459907740355" lon="-6.935983216390014">
        <ele>749.00439453125</ele>
        <time>2016-10-30T09:43:13Z</time>
      </trkpt>
      <trkpt lat="40.251629306003451" lon="-6.935904510319233">
        <ele>749.485107421875</ele>
        <time>2016-10-30T09:43:18Z</time>
      </trkpt>
      <trkpt lat="40.251803565770388" lon="-6.93585011176765">
        <ele>749.9658203125</ele>
        <time>2016-10-30T09:43:23Z</time>
      </trkpt>
      <trkpt lat="40.251921582967043" lon="-6.935730502009392">
        <ele>749.00439453125</ele>
        <time>2016-10-30T09:43:28Z</time>
      </trkpt>
      <trkpt lat="40.251840110868216" lon="-6.935556828975678">
        <ele>749.485107421875</ele>
        <time>2016-10-30T09:43:33Z</time>
      </trkpt>
      <trkpt lat="40.251658977940679" lon="-6.935377540066838">
        <ele>749.9658203125</ele>
        <time>2016-10-30T09:43:38Z</time>
      </trkpt>
      <trkpt lat="40.251453956589103" lon="-6.935171177610755">
        <ele>750.446533203125</ele>
        <time>2016-10-30T09:43:43Z</time>
      </trkpt>
      <trkpt lat="40.25135806761682" lon="-6.934864232316613">
        <ele>749.9658203125</ele>
        <time>2016-10-30T09:43:48Z</time>
      </trkpt>
      <trkpt lat="40.251442976295948" lon="-6.934494255110622">
        <ele>748.043212890625</ele>
        <time>2016-10-30T09:43:53Z</time>
      </trkpt>
      <trkpt lat="40.251630563288927" lon="-6.934207929298282">
        <ele>745.6396484375</ele>
        <time>2016-10-30T09:43:58Z</time>
      </trkpt>
      <trkpt lat="40.251785041764379" lon="-6.934038363397121">
        <ele>745.6396484375</ele>
        <time>2016-10-30T09:44:03Z</time>
      </trkpt>
      <trkpt lat="40.251904064789414" lon="-6.933869468048215">
        <ele>744.67822265625</ele>
        <time>2016-10-30T09:44:08Z</time>
      </trkpt>
      <trkpt lat="40.251956535503268" lon="-6.93360636010766">
        <ele>746.120361328125</ele>
        <time>2016-10-30T09:44:13Z</time>
      </trkpt>
      <trkpt lat="40.252020740881562" lon="-6.93329949863255">
        <ele>745.6396484375</ele>
        <time>2016-10-30T09:44:18Z</time>
      </trkpt>
      <trkpt lat="40.252055274322629" lon="-6.933029349893332">
        <ele>746.120361328125</ele>
        <time>2016-10-30T09:44:23Z</time>
      </trkpt>
      <trkpt lat="40.251968270167708" lon="-6.932813012972474">
        <ele>747.08154296875</ele>
        <time>2016-10-30T09:44:28Z</time>
      </trkpt>
      <trkpt lat="40.251794848591089" lon="-6.932804379612207">
        <ele>744.19775390625</ele>
        <time>2016-10-30T09:44:33Z</time>
      </trkpt>
      <trkpt lat="40.251637771725655" lon="-6.932819802314043">
        <ele>743.236328125</ele>
        <time>2016-10-30T09:44:38Z</time>
      </trkpt>
      <trkpt lat="40.251472564414144" lon="-6.932841679081321">
        <ele>744.19775390625</ele>
        <time>2016-10-30T09:44:43Z</time>
      </trkpt>
      <trkpt lat="40.251285983249545" lon="-6.932844277471304">
        <ele>744.19775390625</ele>
        <time>2016-10-30T09:44:48Z</time>
      </trkpt>
      <trkpt lat="40.251088086515665" lon="-6.932821143418551">
        <ele>744.19775390625</ele>
        <time>2016-10-30T09:44:53Z</time>
      </trkpt>
      <trkpt lat="40.250882394611835" lon="-6.932777892798185">
        <ele>745.158935546875</ele>
        <time>2016-10-30T09:44:58Z</time>
      </trkpt>
      <trkpt lat="40.250679384917021" lon="-6.932738078758121">
        <ele>746.120361328125</ele>
        <time>2016-10-30T09:45:03Z</time>
      </trkpt>
      <trkpt lat="40.250458186492324" lon="-6.932682590559125">
        <ele>747.08154296875</ele>
        <time>2016-10-30T09:45:08Z</time>
      </trkpt>
      <trkpt lat="40.250250482931733" lon="-6.93255334161222">
        <ele>746.120361328125</ele>
        <time>2016-10-30T09:45:13Z</time>
      </trkpt>
      <trkpt lat="40.250043785199523" lon="-6.932370364665985">
        <ele>746.120361328125</ele>
        <time>2016-10-30T09:45:18Z</time>
      </trkpt>
      <trkpt lat="40.249845972284675" lon="-6.932132318615913">
        <ele>746.120361328125</ele>
        <time>2016-10-30T09:45:23Z</time>
      </trkpt>
      <trkpt lat="40.249668946489692" lon="-6.931860074400902">
        <ele>746.120361328125</ele>
        <time>2016-10-30T09:45:28Z</time>
      </trkpt>
      <trkpt lat="40.249464008957148" lon="-6.93161859177053">
        <ele>748.043212890625</ele>
        <time>2016-10-30T09:45:33Z</time>
      </trkpt>
      <trkpt lat="40.249332077801228" lon="-6.931366547942162">
        <ele>747.08154296875</ele>
        <time>2016-10-30T09:45:38Z</time>
      </trkpt>
      <trkpt lat="40.249243564903736" lon="-6.931070499122143">
        <ele>744.19775390625</ele>
        <time>2016-10-30T09:45:43Z</time>
      </trkpt>
      <trkpt lat="40.249306680634618" lon="-6.930790208280087">
        <ele>745.158935546875</ele>
        <time>2016-10-30T09:45:48Z</time>
      </trkpt>
      <trkpt lat="40.24945629760623" lon="-6.93060765042901">
        <ele>742.275146484375</ele>
        <time>2016-10-30T09:45:53Z</time>
      </trkpt>
      <trkpt lat="40.249592503532767" lon="-6.930491896346211">
        <ele>742.275146484375</ele>
        <time>2016-10-30T09:45:58Z</time>
      </trkpt>
      <trkpt lat="40.249745724722743" lon="-6.930371867492795">
        <ele>742.275146484375</ele>
        <time>2016-10-30T09:46:03Z</time>
      </trkpt>
      <trkpt lat="40.250005144625902" lon="-6.930201463401318">
        <ele>740.8330078125</ele>
        <time>2016-10-30T09:46:08Z</time>
      </trkpt>
      <trkpt lat="40.250202789902687" lon="-6.93003105930984">
        <ele>740.8330078125</ele>
        <time>2016-10-30T09:46:13Z</time>
      </trkpt>
      <trkpt lat="40.250387778505683" lon="-6.929887058213353">
        <ele>740.8330078125</ele>
        <time>2016-10-30T09:46:18Z</time>
      </trkpt>
      <trkpt lat="40.250513087958097" lon="-6.929775159806013">
        <ele>740.3525390625</ele>
        <time>2016-10-30T09:46:23Z</time>
      </trkpt>
      <trkpt lat="40.250645019114017" lon="-6.929666781798005">
        <ele>739.871826171875</ele>
        <time>2016-10-30T09:46:28Z</time>
      </trkpt>
      <trkpt lat="40.250780303031206" lon="-6.929555386304855">
        <ele>740.8330078125</ele>
        <time>2016-10-30T09:46:33Z</time>
      </trkpt>
      <trkpt lat="40.25091047398746" lon="-6.929434183984995">
        <ele>740.8330078125</ele>
        <time>2016-10-30T09:46:38Z</time>
      </trkpt>
      <trkpt lat="40.251048104837537" lon="-6.929277023300529">
        <ele>739.39111328125</ele>
        <time>2016-10-30T09:46:43Z</time>
      </trkpt>
      <trkpt lat="40.251141395419836" lon="-6.929081305861473">
        <ele>739.39111328125</ele>
        <time>2016-10-30T09:46:48Z</time>
      </trkpt>
      <trkpt lat="40.251227729022503" lon="-6.928936466574669">
        <ele>737.468505859375</ele>
        <time>2016-10-30T09:46:53Z</time>
      </trkpt>
      <trkpt lat="40.251336023211479" lon="-6.928794560953975">
        <ele>735.0654296875</ele>
        <time>2016-10-30T09:46:58Z</time>
      </trkpt>
      <trkpt lat="40.251437611877918" lon="-6.928581325337291">
        <ele>732.662109375</ele>
        <time>2016-10-30T09:47:03Z</time>
      </trkpt>
      <trkpt lat="40.251541463658214" lon="-6.928425254300237">
        <ele>735.0654296875</ele>
        <time>2016-10-30T09:47:08Z</time>
      </trkpt>
      <trkpt lat="40.251656295731664" lon="-6.928292652592063">
        <ele>736.026611328125</ele>
        <time>2016-10-30T09:47:13Z</time>
      </trkpt>
      <trkpt lat="40.251813037320971" lon="-6.928174216300249">
        <ele>741.313720703125</ele>
        <time>2016-10-30T09:47:18Z</time>
      </trkpt>
      <trkpt lat="40.251999283209443" lon="-6.928155273199081">
        <ele>742.755859375</ele>
        <time>2016-10-30T09:47:23Z</time>
      </trkpt>
      <trkpt lat="40.252172369509935" lon="-6.928158374503255">
        <ele>743.236328125</ele>
        <time>2016-10-30T09:47:28Z</time>
      </trkpt>
      <trkpt lat="40.2522346470505" lon="-6.927953772246838">
        <ele>746.120361328125</ele>
        <time>2016-10-30T09:47:33Z</time>
      </trkpt>
      <trkpt lat="40.252275550737977" lon="-6.927655544131994">
        <ele>745.6396484375</ele>
        <time>2016-10-30T09:47:38Z</time>
      </trkpt>
      <trkpt lat="40.252266665920615" lon="-6.927371816709638">
        <ele>746.60107421875</ele>
        <time>2016-10-30T09:47:43Z</time>
      </trkpt>
      <trkpt lat="40.252276472747326" lon="-6.92713787779212">
        <ele>750.927001953125</ele>
        <time>2016-10-30T09:47:48Z</time>
      </trkpt>
      <trkpt lat="40.252347299829125" lon="-6.926937298849225">
        <ele>750.446533203125</ele>
        <time>2016-10-30T09:47:53Z</time>
      </trkpt>
      <trkpt lat="40.252440003678203" lon="-6.926754070445895">
        <ele>750.927001953125</ele>
        <time>2016-10-30T09:47:57Z</time>
      </trkpt>
      <trkpt lat="40.25260797701776" lon="-6.926606129854918">
        <ele>749.485107421875</ele>
        <time>2016-10-30T09:48:03Z</time>
      </trkpt>
      <trkpt lat="40.252783494070172" lon="-6.926485178992152">
        <ele>750.446533203125</ele>
        <time>2016-10-30T09:48:08Z</time>
      </trkpt>
      <trkpt lat="40.252935625612736" lon="-6.926413178443909">
        <ele>751.888427734375</ele>
        <time>2016-10-30T09:48:13Z</time>
      </trkpt>
      <trkpt lat="40.253099659457803" lon="-6.92633212544024">
        <ele>750.446533203125</ele>
        <time>2016-10-30T09:48:18Z</time>
      </trkpt>
      <trkpt lat="40.253233686089516" lon="-6.926252916455269">
        <ele>751.40771484375</ele>
        <time>2016-10-30T09:48:23Z</time>
      </trkpt>
      <trkpt lat="40.253275260329247" lon="-6.926114447414875">
        <ele>751.888427734375</ele>
        <time>2016-10-30T09:48:28Z</time>
      </trkpt>
      <trkpt lat="40.25315280072391" lon="-6.926010679453611">
        <ele>753.81103515625</ele>
        <time>2016-10-30T09:48:33Z</time>
      </trkpt>
      <trkpt lat="40.253039058297873" lon="-6.925872461870313">
        <ele>755.733642578125</ele>
        <time>2016-10-30T09:48:38Z</time>
      </trkpt>
      <trkpt lat="40.252936044707894" lon="-6.925752265378833">
        <ele>756.69482421875</ele>
        <time>2016-10-30T09:48:43Z</time>
      </trkpt>
      <trkpt lat="40.252828001976013" lon="-6.925604911521077">
        <ele>757.175537109375</ele>
        <time>2016-10-30T09:48:48Z</time>
      </trkpt>
      <trkpt lat="40.252774273976684" lon="-6.925496701151133">
        <ele>758.617431640625</ele>
        <time>2016-10-30T09:48:53Z</time>
      </trkpt>
      <trkpt lat="40.252706045284867" lon="-6.925360662862659">
        <ele>759.578857421875</ele>
        <time>2016-10-30T09:48:58Z</time>
      </trkpt>
      <trkpt lat="40.252566821873188" lon="-6.925176344811916">
        <ele>760.059326171875</ele>
        <time>2016-10-30T09:49:03Z</time>
      </trkpt>
      <trkpt lat="40.252391304820776" lon="-6.92493905313313">
        <ele>761.50146484375</ele>
        <time>2016-10-30T09:49:08Z</time>
      </trkpt>
      <trkpt lat="40.25233187712729" lon="-6.924616349861026">
        <ele>764.8662109375</ele>
        <time>2016-10-30T09:49:13Z</time>
      </trkpt>
      <trkpt lat="40.252212770283222" lon="-6.924405796453357">
        <ele>763.424072265625</ele>
        <time>2016-10-30T09:49:18Z</time>
      </trkpt>
      <trkpt lat="40.251946393400431" lon="-6.92420169711113">
        <ele>764.385498046875</ele>
        <time>2016-10-30T09:49:23Z</time>
      </trkpt>
      <trkpt lat="40.251702563837171" lon="-6.924094408750534">
        <ele>764.385498046875</ele>
        <time>2016-10-30T09:49:28Z</time>
      </trkpt>
      <trkpt lat="40.251410203054547" lon="-6.924019558355212">
        <ele>763.904541015625</ele>
        <time>2016-10-30T09:49:33Z</time>
      </trkpt>
      <trkpt lat="40.251156985759735" lon="-6.923650922253728">
        <ele>763.424072265625</ele>
        <time>2016-10-30T09:49:38Z</time>
      </trkpt>
      <trkpt lat="40.250820117071271" lon="-6.923385886475444">
        <ele>762.462646484375</ele>
        <time>2016-10-30T09:49:43Z</time>
      </trkpt>
      <trkpt lat="40.25048584677279" lon="-6.92325915209949">
        <ele>761.982177734375</ele>
        <time>2016-10-30T09:49:48Z</time>
      </trkpt>
      <trkpt lat="40.250272778794169" lon="-6.923233168199658">
        <ele>761.50146484375</ele>
        <time>2016-10-30T09:49:53Z</time>
      </trkpt>
      <trkpt lat="40.250307898968458" lon="-6.923558386042714">
        <ele>757.65625</ele>
        <time>2016-10-30T09:49:58Z</time>
      </trkpt>
      <trkpt lat="40.250074882060289" lon="-6.923759216442704">
        <ele>752.849609375</ele>
        <time>2016-10-30T09:50:03Z</time>
      </trkpt>
      <trkpt lat="40.249791322275996" lon="-6.923862565308809">
        <ele>749.00439453125</ele>
        <time>2016-10-30T09:50:08Z</time>
      </trkpt>
      <trkpt lat="40.249570878222585" lon="-6.923878407105804">
        <ele>744.67822265625</ele>
        <time>2016-10-30T09:50:13Z</time>
      </trkpt>
      <trkpt lat="40.249176258221269" lon="-6.923964153975248">
        <ele>742.755859375</ele>
        <time>2016-10-30T09:50:18Z</time>
      </trkpt>
      <trkpt lat="40.24896377697587" lon="-6.924280067905784">
        <ele>739.871826171875</ele>
        <time>2016-10-30T09:50:23Z</time>
      </trkpt>
      <trkpt lat="40.248595392331481" lon="-6.924458602443337">
        <ele>737.468505859375</ele>
        <time>2016-10-30T09:50:28Z</time>
      </trkpt>
      <trkpt lat="40.248279646039009" lon="-6.924175377935171">
        <ele>735.0654296875</ele>
        <time>2016-10-30T09:50:33Z</time>
      </trkpt>
      <trkpt lat="40.247997092083097" lon="-6.923877820372582">
        <ele>732.181396484375</ele>
        <time>2016-10-30T09:50:38Z</time>
      </trkpt>
      <trkpt lat="40.247617056593299" lon="-6.923761311918497">
        <ele>733.623291015625</ele>
        <time>2016-10-30T09:50:43Z</time>
      </trkpt>
      <trkpt lat="40.247318996116519" lon="-6.923444643616676">
        <ele>736.50732421875</ele>
        <time>2016-10-30T09:50:48Z</time>
      </trkpt>
      <trkpt lat="40.247017666697502" lon="-6.923254961147904">
        <ele>735.5458984375</ele>
        <time>2016-10-30T09:50:53Z</time>
      </trkpt>
      <trkpt lat="40.246602511033416" lon="-6.923357807099819">
        <ele>732.662109375</ele>
        <time>2016-10-30T09:50:58Z</time>
      </trkpt>
      <trkpt lat="40.246194060891867" lon="-6.923298044130206">
        <ele>729.77783203125</ele>
        <time>2016-10-30T09:51:03Z</time>
      </trkpt>
      <trkpt lat="40.245827855542302" lon="-6.922969054430723">
        <ele>728.816650390625</ele>
        <time>2016-10-30T09:51:08Z</time>
      </trkpt>
      <trkpt lat="40.245593413710594" lon="-6.922513833269477">
        <ele>727.855224609375</ele>
        <time>2016-10-30T09:51:13Z</time>
      </trkpt>
      <trkpt lat="40.245478246361017" lon="-6.922010583803058">
        <ele>726.413330078125</ele>
        <time>2016-10-30T09:51:18Z</time>
      </trkpt>
      <trkpt lat="40.245596431195736" lon="-6.921523259952664">
        <ele>727.855224609375</ele>
        <time>2016-10-30T09:51:23Z</time>
      </trkpt>
      <trkpt lat="40.245822742581367" lon="-6.92128705792129">
        <ele>729.77783203125</ele>
        <time>2016-10-30T09:51:28Z</time>
      </trkpt>
      <trkpt lat="40.246052909642458" lon="-6.921163257211447">
        <ele>731.219970703125</ele>
        <time>2016-10-30T09:51:33Z</time>
      </trkpt>
      <trkpt lat="40.246250638738275" lon="-6.921051610261202">
        <ele>732.181396484375</ele>
        <time>2016-10-30T09:51:38Z</time>
      </trkpt>
      <trkpt lat="40.246451636776328" lon="-6.920917918905616">
        <ele>732.662109375</ele>
        <time>2016-10-30T09:51:43Z</time>
      </trkpt>
      <trkpt lat="40.246605360880494" lon="-6.920776348561049">
        <ele>733.142578125</ele>
        <time>2016-10-30T09:51:48Z</time>
      </trkpt>
      <trkpt lat="40.246761180460453" lon="-6.920648859813809">
        <ele>733.623291015625</ele>
        <time>2016-10-30T09:51:53Z</time>
      </trkpt>
      <trkpt lat="40.246881209313869" lon="-6.920515755191445">
        <ele>732.181396484375</ele>
        <time>2016-10-30T09:51:58Z</time>
      </trkpt>
      <trkpt lat="40.246992185711861" lon="-6.920361611992121">
        <ele>731.219970703125</ele>
        <time>2016-10-30T09:52:03Z</time>
      </trkpt>
      <trkpt lat="40.247073154896498" lon="-6.920163379982114">
        <ele>733.142578125</ele>
        <time>2016-10-30T09:52:08Z</time>
      </trkpt>
      <trkpt lat="40.247158650308847" lon="-6.919972524046898">
        <ele>733.142578125</ele>
        <time>2016-10-30T09:52:13Z</time>
      </trkpt>
      <trkpt lat="40.247280523180962" lon="-6.919825505465269">
        <ele>731.700439453125</ele>
        <time>2016-10-30T09:52:18Z</time>
      </trkpt>
      <trkpt lat="40.247440617531538" lon="-6.919720731675625">
        <ele>729.297119140625</ele>
        <time>2016-10-30T09:52:23Z</time>
      </trkpt>
      <trkpt lat="40.24758143350482" lon="-6.919643366709352">
        <ele>731.700439453125</ele>
        <time>2016-10-30T09:52:28Z</time>
      </trkpt>
      <trkpt lat="40.247741863131523" lon="-6.919640265405178">
        <ele>733.142578125</ele>
        <time>2016-10-30T09:52:33Z</time>
      </trkpt>
      <trkpt lat="40.247906986624002" lon="-6.919696005061269">
        <ele>733.623291015625</ele>
        <time>2016-10-30T09:52:38Z</time>
      </trkpt>
      <trkpt lat="40.248105470091105" lon="-6.919706230983138">
        <ele>734.10400390625</ele>
        <time>2016-10-30T09:52:43Z</time>
      </trkpt>
      <trkpt lat="40.248149642720819" lon="-6.919451924040914">
        <ele>733.623291015625</ele>
        <time>2016-10-30T09:52:48Z</time>
      </trkpt>
      <trkpt lat="40.248232036828995" lon="-6.91919619217515">
        <ele>731.219970703125</ele>
        <time>2016-10-30T09:52:53Z</time>
      </trkpt>
      <trkpt lat="40.248383162543178" lon="-6.919013634324074">
        <ele>731.219970703125</ele>
        <time>2016-10-30T09:52:58Z</time>
      </trkpt>
      <trkpt lat="40.248497743159533" lon="-6.918800147250295">
        <ele>733.142578125</ele>
        <time>2016-10-30T09:53:03Z</time>
      </trkpt>
      <trkpt lat="40.248551554977894" lon="-6.91854483447969">
        <ele>733.623291015625</ele>
        <time>2016-10-30T09:53:08Z</time>
      </trkpt>
      <trkpt lat="40.248638140037656" lon="-6.918314751237631">
        <ele>733.142578125</ele>
        <time>2016-10-30T09:53:13Z</time>
      </trkpt>
      <trkpt lat="40.248794546350837" lon="-6.918199835345149">
        <ele>732.181396484375</ele>
        <time>2016-10-30T09:53:18Z</time>
      </trkpt>
      <trkpt lat="40.24895153939724" lon="-6.918076034635305">
        <ele>730.7392578125</ele>
        <time>2016-10-30T09:53:23Z</time>
      </trkpt>
      <trkpt lat="40.249046087265015" lon="-6.917905546724796">
        <ele>732.662109375</ele>
        <time>2016-10-30T09:53:28Z</time>
      </trkpt>
      <trkpt lat="40.24904097430408" lon="-6.917688539251685">
        <ele>732.181396484375</ele>
        <time>2016-10-30T09:53:33Z</time>
      </trkpt>
      <trkpt lat="40.248968470841646" lon="-6.917478321120143">
        <ele>731.700439453125</ele>
        <time>2016-10-30T09:53:38Z</time>
      </trkpt>
      <trkpt lat="40.248907785862684" lon="-6.917230971157551">
        <ele>732.662109375</ele>
        <time>2016-10-30T09:53:43Z</time>
      </trkpt>
      <trkpt lat="40.248854141682386" lon="-6.917012874037027">
        <ele>731.700439453125</ele>
        <time>2016-10-30T09:53:48Z</time>
      </trkpt>
      <trkpt lat="40.248793372884393" lon="-6.916736355051398">
        <ele>731.700439453125</ele>
        <time>2016-10-30T09:53:53Z</time>
      </trkpt>
      <trkpt lat="40.248754480853677" lon="-6.916405521333218">
        <ele>737.468505859375</ele>
        <time>2016-10-30T09:53:58Z</time>
      </trkpt>
      <trkpt lat="40.248834528028965" lon="-6.916172923520207">
        <ele>735.5458984375</ele>
        <time>2016-10-30T09:54:03Z</time>
      </trkpt>
      <trkpt lat="40.248950365930796" lon="-6.915957257151604">
        <ele>735.5458984375</ele>
        <time>2016-10-30T09:54:08Z</time>
      </trkpt>
      <trkpt lat="40.249120015650988" lon="-6.915766904130578">
        <ele>735.0654296875</ele>
        <time>2016-10-30T09:54:13Z</time>
      </trkpt>
      <trkpt lat="40.249296622350812" lon="-6.915633799508214">
        <ele>735.5458984375</ele>
        <time>2016-10-30T09:54:18Z</time>
      </trkpt>
      <trkpt lat="40.249440707266331" lon="-6.91554419696331">
        <ele>736.50732421875</ele>
        <time>2016-10-30T09:54:23Z</time>
      </trkpt>
      <trkpt lat="40.249607171863317" lon="-6.915485188364983">
        <ele>737.94921875</ele>
        <time>2016-10-30T09:54:28Z</time>
      </trkpt>
      <trkpt lat="40.24976072832942" lon="-6.915438752621412">
        <ele>738.429931640625</ele>
        <time>2016-10-30T09:54:33Z</time>
      </trkpt>
      <trkpt lat="40.249865250661969" lon="-6.915333727374673">
        <ele>739.39111328125</ele>
        <time>2016-10-30T09:54:38Z</time>
      </trkpt>
      <trkpt lat="40.249881679192185" lon="-6.915196850895882">
        <ele>741.79443359375</ele>
        <time>2016-10-30T09:54:43Z</time>
      </trkpt>
      <trkpt lat="40.249830298125744" lon="-6.915070619434118">
        <ele>745.6396484375</ele>
        <time>2016-10-30T09:54:48Z</time>
      </trkpt>
      <trkpt lat="40.249733906239271" lon="-6.914989314973354">
        <ele>747.562255859375</ele>
        <time>2016-10-30T09:54:53Z</time>
      </trkpt>
      <trkpt lat="40.249645980075002" lon="-6.914914045482874">
        <ele>746.120361328125</ele>
        <time>2016-10-30T09:54:58Z</time>
      </trkpt>
      <trkpt lat="40.249513043090701" lon="-6.914832573384047">
        <ele>748.523681640625</ele>
        <time>2016-10-30T09:55:03Z</time>
      </trkpt>
      <trkpt lat="40.24937616661191" lon="-6.914729978889227">
        <ele>748.043212890625</ele>
        <time>2016-10-30T09:55:08Z</time>
      </trkpt>
      <trkpt lat="40.249227974563837" lon="-6.914623780176044">
        <ele>747.562255859375</ele>
        <time>2016-10-30T09:55:13Z</time>
      </trkpt>
      <trkpt lat="40.249061258509755" lon="-6.914535267278552">
        <ele>748.043212890625</ele>
        <time>2016-10-30T09:55:18Z</time>
      </trkpt>
      <trkpt lat="40.248895296826959" lon="-6.914475504308939">
        <ele>746.120361328125</ele>
        <time>2016-10-30T09:55:23Z</time>
      </trkpt>
      <trkpt lat="40.248737717047334" lon="-6.914412640035152">
        <ele>745.6396484375</ele>
        <time>2016-10-30T09:55:28Z</time>
      </trkpt>
      <trkpt lat="40.24858801625669" lon="-6.914325719699264">
        <ele>748.043212890625</ele>
        <time>2016-10-30T09:55:33Z</time>
      </trkpt>
      <trkpt lat="40.248483661562204" lon="-6.914180796593428">
        <ele>749.485107421875</ele>
        <time>2016-10-30T09:55:38Z</time>
      </trkpt>
      <trkpt lat="40.248405542224646" lon="-6.914014918729663">
        <ele>749.00439453125</ele>
        <time>2016-10-30T09:55:43Z</time>
      </trkpt>
      <trkpt lat="40.248349634930491" lon="-6.913779303431511">
        <ele>750.446533203125</ele>
        <time>2016-10-30T09:55:48Z</time>
      </trkpt>
      <trkpt lat="40.248356591910124" lon="-6.913536228239536">
        <ele>751.40771484375</ele>
        <time>2016-10-30T09:55:53Z</time>
      </trkpt>
      <trkpt lat="40.248396405950189" lon="-6.913299942389131">
        <ele>750.927001953125</ele>
        <time>2016-10-30T09:55:58Z</time>
      </trkpt>
      <trkpt lat="40.248427838087082" lon="-6.913079917430878">
        <ele>750.927001953125</ele>
        <time>2016-10-30T09:56:03Z</time>
      </trkpt>
      <trkpt lat="40.248484080657363" lon="-6.912861401215196">
        <ele>749.00439453125</ele>
        <time>2016-10-30T09:56:08Z</time>
      </trkpt>
      <trkpt lat="40.248508220538497" lon="-6.912638861685991">
        <ele>750.927001953125</ele>
        <time>2016-10-30T09:56:13Z</time>
      </trkpt>
      <trkpt lat="40.248540826141834" lon="-6.91248144954443">
        <ele>750.927001953125</ele>
        <time>2016-10-30T09:56:18Z</time>
      </trkpt>
      <trkpt lat="40.248583992943168" lon="-6.912337532266974">
        <ele>752.368896484375</ele>
        <time>2016-10-30T09:56:23Z</time>
      </trkpt>
      <trkpt lat="40.248641325160861" lon="-6.912209624424577">
        <ele>752.849609375</ele>
        <time>2016-10-30T09:56:28Z</time>
      </trkpt>
      <trkpt lat="40.248738555237651" lon="-6.912118513137102">
        <ele>750.927001953125</ele>
        <time>2016-10-30T09:56:33Z</time>
      </trkpt>
      <trkpt lat="40.24880787357688" lon="-6.911984235048294">
        <ele>749.9658203125</ele>
        <time>2016-10-30T09:56:38Z</time>
      </trkpt>
      <trkpt lat="40.248792786151171" lon="-6.911847945302725">
        <ele>752.368896484375</ele>
        <time>2016-10-30T09:56:43Z</time>
      </trkpt>
      <trkpt lat="40.248661106452346" lon="-6.911762533709407">
        <ele>754.772216796875</ele>
        <time>2016-10-30T09:56:48Z</time>
      </trkpt>
      <trkpt lat="40.248485840857029" lon="-6.91173629835248">
        <ele>756.69482421875</ele>
        <time>2016-10-30T09:56:53Z</time>
      </trkpt>
      <trkpt lat="40.248295236378908" lon="-6.911770077422261">
        <ele>752.849609375</ele>
        <time>2016-10-30T09:56:58Z</time>
      </trkpt>
      <trkpt lat="40.248089460656047" lon="-6.911818608641625">
        <ele>750.927001953125</ele>
        <time>2016-10-30T09:57:03Z</time>
      </trkpt>
      <trkpt lat="40.247897766530514" lon="-6.911865882575512">
        <ele>754.291748046875</ele>
        <time>2016-10-30T09:57:08Z</time>
      </trkpt>
      <trkpt lat="40.247737336903811" lon="-6.911888178437948">
        <ele>755.733642578125</ele>
        <time>2016-10-30T09:57:13Z</time>
      </trkpt>
      <trkpt lat="40.247583612799644" lon="-6.911873510107398">
        <ele>753.81103515625</ele>
        <time>2016-10-30T09:57:18Z</time>
      </trkpt>
      <trkpt lat="40.247402228415012" lon="-6.911883568391204">
        <ele>755.2529296875</ele>
        <time>2016-10-30T09:57:23Z</time>
      </trkpt>
      <trkpt lat="40.247219670563936" lon="-6.911879209801555">
        <ele>756.69482421875</ele>
        <time>2016-10-30T09:57:28Z</time>
      </trkpt>
      <trkpt lat="40.247054547071457" lon="-6.911867642775178">
        <ele>755.733642578125</ele>
        <time>2016-10-30T09:57:33Z</time>
      </trkpt>
      <trkpt lat="40.246910965070128" lon="-6.91182472743094">
        <ele>753.81103515625</ele>
        <time>2016-10-30T09:57:38Z</time>
      </trkpt>
      <trkpt lat="40.246771154925227" lon="-6.911767814308405">
        <ele>757.65625</ele>
        <time>2016-10-30T09:57:43Z</time>
      </trkpt>
      <trkpt lat="40.24667551741004" lon="-6.911641415208578">
        <ele>760.5400390625</ele>
        <time>2016-10-30T09:57:48Z</time>
      </trkpt>
      <trkpt lat="40.246608294546604" lon="-6.911478135734797">
        <ele>760.5400390625</ele>
        <time>2016-10-30T09:57:53Z</time>
      </trkpt>
      <trkpt lat="40.246554315090179" lon="-6.911300104111433">
        <ele>761.020751953125</ele>
        <time>2016-10-30T09:57:58Z</time>
      </trkpt>
      <trkpt lat="40.246530929580331" lon="-6.91113137640059">
        <ele>761.982177734375</ele>
        <time>2016-10-30T09:58:03Z</time>
      </trkpt>
      <trkpt lat="40.246516596525908" lon="-6.910884864628315">
        <ele>761.982177734375</ele>
        <time>2016-10-30T09:58:08Z</time>
      </trkpt>
      <trkpt lat="40.246536796912551" lon="-6.910645226016641">
        <ele>761.982177734375</ele>
        <time>2016-10-30T09:58:13Z</time>
      </trkpt>
      <trkpt lat="40.246534952893853" lon="-6.910427883267403">
        <ele>763.904541015625</ele>
        <time>2016-10-30T09:58:18Z</time>
      </trkpt>
      <trkpt lat="40.246552722528577" lon="-6.910198973491788">
        <ele>764.385498046875</ele>
        <time>2016-10-30T09:58:23Z</time>
      </trkpt>
      <trkpt lat="40.246603013947606" lon="-6.910002082586289">
        <ele>764.8662109375</ele>
        <time>2016-10-30T09:58:28Z</time>
      </trkpt>
      <trkpt lat="40.246657580137253" lon="-6.909804353490472">
        <ele>764.385498046875</ele>
        <time>2016-10-30T09:58:33Z</time>
      </trkpt>
      <trkpt lat="40.246716253459454" lon="-6.909613665193319">
        <ele>762.943359375</ele>
        <time>2016-10-30T09:58:38Z</time>
      </trkpt>
      <trkpt lat="40.24676101282239" lon="-6.90943974070251">
        <ele>762.462646484375</ele>
        <time>2016-10-30T09:58:42Z</time>
      </trkpt>
      <trkpt lat="40.246809711679816" lon="-6.909198174253106">
        <ele>763.904541015625</ele>
        <time>2016-10-30T09:58:48Z</time>
      </trkpt>
      <trkpt lat="40.246859919279814" lon="-6.908929534256458">
        <ele>766.788818359375</ele>
        <time>2016-10-30T09:58:53Z</time>
      </trkpt>
      <trkpt lat="40.246743997558951" lon="-6.908809505403042">
        <ele>765.346923828125</ele>
        <time>2016-10-30T09:58:58Z</time>
      </trkpt>
      <trkpt lat="40.246529337018728" lon="-6.908972952514887">
        <ele>763.424072265625</ele>
        <time>2016-10-30T09:59:03Z</time>
      </trkpt>
      <trkpt lat="40.246221218258142" lon="-6.909258607774973">
        <ele>761.020751953125</ele>
        <time>2016-10-30T09:59:08Z</time>
      </trkpt>
      <trkpt lat="40.245903292670846" lon="-6.909557254984975">
        <ele>756.214111328125</ele>
        <time>2016-10-30T09:59:13Z</time>
      </trkpt>
      <trkpt lat="40.245647057890892" lon="-6.909841485321522">
        <ele>753.81103515625</ele>
        <time>2016-10-30T09:59:18Z</time>
      </trkpt>
      <trkpt lat="40.24540800601244" lon="-6.910061342641711">
        <ele>753.81103515625</ele>
        <time>2016-10-30T09:59:23Z</time>
      </trkpt>
      <trkpt lat="40.24525361135602" lon="-6.910206768661737">
        <ele>753.330322265625</ele>
        <time>2016-10-30T09:59:28Z</time>
      </trkpt>
      <trkpt lat="40.245059654116631" lon="-6.910345572978258">
        <ele>753.81103515625</ele>
        <time>2016-10-30T09:59:33Z</time>
      </trkpt>
      <trkpt lat="40.244902577251196" lon="-6.910518910735846">
        <ele>755.733642578125</ele>
        <time>2016-10-30T09:59:38Z</time>
      </trkpt>
      <trkpt lat="40.244706943631172" lon="-6.910664420574904">
        <ele>757.65625</ele>
        <time>2016-10-30T09:59:43Z</time>
      </trkpt>
      <trkpt lat="40.244472753256559" lon="-6.910725776106119">
        <ele>756.214111328125</ele>
        <time>2016-10-30T09:59:48Z</time>
      </trkpt>
      <trkpt lat="40.24418106302619" lon="-6.910828119143844">
        <ele>754.291748046875</ele>
        <time>2016-10-30T09:59:53Z</time>
      </trkpt>
      <trkpt lat="40.243865819647908" lon="-6.910926271229982">
        <ele>753.81103515625</ele>
        <time>2016-10-30T09:59:58Z</time>
      </trkpt>
      <trkpt lat="40.243504727259278" lon="-6.911023249849677">
        <ele>752.849609375</ele>
        <time>2016-10-30T10:00:03Z</time>
      </trkpt>
      <trkpt lat="40.243100887164474" lon="-6.911142021417618">
        <ele>751.40771484375</ele>
        <time>2016-10-30T10:00:08Z</time>
      </trkpt>
      <trkpt lat="40.242730742320418" lon="-6.911330278962851">
        <ele>749.9658203125</ele>
        <time>2016-10-30T10:00:13Z</time>
      </trkpt>
      <trkpt lat="40.242317514494061" lon="-6.911554327234626">
        <ele>750.446533203125</ele>
        <time>2016-10-30T10:00:18Z</time>
      </trkpt>
      <trkpt lat="40.241977293044329" lon="-6.911658011376858">
        <ele>749.00439453125</ele>
        <time>2016-10-30T10:00:23Z</time>
      </trkpt>
      <trkpt lat="40.241667246446013" lon="-6.91170453093946">
        <ele>752.849609375</ele>
        <time>2016-10-30T10:00:28Z</time>
      </trkpt>
      <trkpt lat="40.241448981687427" lon="-6.91151493228972">
        <ele>751.888427734375</ele>
        <time>2016-10-30T10:00:33Z</time>
      </trkpt>
      <trkpt lat="40.241455854848027" lon="-6.911194743588567">
        <ele>752.849609375</ele>
        <time>2016-10-30T10:00:38Z</time>
      </trkpt>
      <trkpt lat="40.2415488101542" lon="-6.910911854356527">
        <ele>752.368896484375</ele>
        <time>2016-10-30T10:00:43Z</time>
      </trkpt>
      <trkpt lat="40.241756094619632" lon="-6.910183886066079">
        <ele>751.888427734375</ele>
        <time>2016-10-30T10:00:48Z</time>
      </trkpt>
      <trkpt lat="40.241993889212608" lon="-6.910200314596295">
        <ele>751.40771484375</ele>
        <time>2016-10-30T10:00:53Z</time>
      </trkpt>
      <trkpt lat="40.242206370458007" lon="-6.910214982926846">
        <ele>749.9658203125</ele>
        <time>2016-10-30T10:00:58Z</time>
      </trkpt>
      <trkpt lat="40.242247274145484" lon="-6.910298550501466">
        <ele>749.9658203125</ele>
        <time>2016-10-30T10:01:03Z</time>
      </trkpt>
      <trkpt lat="40.242020040750504" lon="-6.910202158614993">
        <ele>748.523681640625</ele>
        <time>2016-10-30T10:01:08Z</time>
      </trkpt>
      <trkpt lat="40.241663893684745" lon="-6.910177515819669">
        <ele>746.60107421875</ele>
        <time>2016-10-30T10:01:13Z</time>
      </trkpt>
      <trkpt lat="40.241253767162561" lon="-6.910149184986949">
        <ele>743.236328125</ele>
        <time>2016-10-30T10:01:18Z</time>
      </trkpt>
      <trkpt lat="40.240956880152225" lon="-6.910233674570918">
        <ele>740.8330078125</ele>
        <time>2016-10-30T10:01:23Z</time>
      </trkpt>
      <trkpt lat="40.240872474387288" lon="-6.910664085298777">
        <ele>737.94921875</ele>
        <time>2016-10-30T10:01:28Z</time>
      </trkpt>
      <trkpt lat="40.2408217638731" lon="-6.911247633397579">
        <ele>734.10400390625</ele>
        <time>2016-10-30T10:01:33Z</time>
      </trkpt>
      <trkpt lat="40.240679439157248" lon="-6.911838725209236">
        <ele>730.258544921875</ele>
        <time>2016-10-30T10:01:38Z</time>
      </trkpt>
      <trkpt lat="40.240588160231709" lon="-6.912507768720388">
        <ele>728.816650390625</ele>
        <time>2016-10-30T10:01:43Z</time>
      </trkpt>
      <trkpt lat="40.240291943773627" lon="-6.91287531517446">
        <ele>725.451904296875</ele>
        <time>2016-10-30T10:01:48Z</time>
      </trkpt>
      <trkpt lat="40.239883745089173" lon="-6.913115540519357">
        <ele>720.6455078125</ele>
        <time>2016-10-30T10:01:53Z</time>
      </trkpt>
      <trkpt lat="40.239564059302211" lon="-6.913481326773763">
        <ele>716.80029296875</ele>
        <time>2016-10-30T10:01:58Z</time>
      </trkpt>
      <trkpt lat="40.239450987428427" lon="-6.914028329774737">
        <ele>715.358154296875</ele>
        <time>2016-10-30T10:02:03Z</time>
      </trkpt>
      <trkpt lat="40.239361803978682" lon="-6.91462310962379">
        <ele>711.512939453125</ele>
        <time>2016-10-30T10:02:08Z</time>
      </trkpt>
      <trkpt lat="40.239090733230114" lon="-6.91513080149889">
        <ele>708.1484375</ele>
        <time>2016-10-30T10:02:13Z</time>
      </trkpt>
      <trkpt lat="40.238688234239817" lon="-6.915533300489187">
        <ele>707.667724609375</ele>
        <time>2016-10-30T10:02:18Z</time>
      </trkpt>
      <trkpt lat="40.238312724977732" lon="-6.915908893570304">
        <ele>705.264404296875</ele>
        <time>2016-10-30T10:02:23Z</time>
      </trkpt>
      <trkpt lat="40.237932354211807" lon="-6.916239056736231">
        <ele>705.264404296875</ele>
        <time>2016-10-30T10:02:28Z</time>
      </trkpt>
      <trkpt lat="40.237527005374432" lon="-6.916456064209342">
        <ele>702.38037109375</ele>
        <time>2016-10-30T10:02:33Z</time>
      </trkpt>
      <trkpt lat="40.237096510827541" lon="-6.916482970118523">
        <ele>699.015625</ele>
        <time>2016-10-30T10:02:38Z</time>
      </trkpt>
      <trkpt lat="40.236728210002184" lon="-6.916453549638391">
        <ele>696.612548828125</ele>
        <time>2016-10-30T10:02:43Z</time>
      </trkpt>
      <trkpt lat="40.236293021589518" lon="-6.91629228182137">
        <ele>694.689697265625</ele>
        <time>2016-10-30T10:02:48Z</time>
      </trkpt>
      <trkpt lat="40.235916087403893" lon="-6.916365707293153">
        <ele>692.767333984375</ele>
        <time>2016-10-30T10:02:53Z</time>
      </trkpt>
      <trkpt lat="40.235672174021602" lon="-6.916772145777941">
        <ele>688.922119140625</ele>
        <time>2016-10-30T10:02:58Z</time>
      </trkpt>
      <trkpt lat="40.235412837937474" lon="-6.917187971994281">
        <ele>685.557373046875</ele>
        <time>2016-10-30T10:03:03Z</time>
      </trkpt>
      <trkpt lat="40.235153920948505" lon="-6.917511513456702">
        <ele>684.115478515625</ele>
        <time>2016-10-30T10:03:08Z</time>
      </trkpt>
      <trkpt lat="40.235088206827641" lon="-6.917634643614292">
        <ele>685.076904296875</ele>
        <time>2016-10-30T10:03:13Z</time>
      </trkpt>
      <trkpt lat="40.234967842698097" lon="-6.917539089918137">
        <ele>685.076904296875</ele>
        <time>2016-10-30T10:03:18Z</time>
      </trkpt>
      <trkpt lat="40.234904559329152" lon="-6.917460886761546">
        <ele>683.634521484375</ele>
        <time>2016-10-30T10:03:23Z</time>
      </trkpt>
      <trkpt lat="40.23476273752749" lon="-6.917392490431666">
        <ele>681.7119140625</ele>
        <time>2016-10-30T10:03:28Z</time>
      </trkpt>
      <trkpt lat="40.234614796936512" lon="-6.917306911200285">
        <ele>677.86669921875</ele>
        <time>2016-10-30T10:03:33Z</time>
      </trkpt>
      <trkpt lat="40.234485799446702" lon="-6.917175147682428">
        <ele>674.98291015625</ele>
        <time>2016-10-30T10:03:38Z</time>
      </trkpt>
      <trkpt lat="40.234274743124843" lon="-6.91701103001833">
        <ele>674.021484375</ele>
        <time>2016-10-30T10:03:43Z</time>
      </trkpt>
      <trkpt lat="40.234105177223682" lon="-6.916999043896794">
        <ele>669.215087890625</ele>
        <time>2016-10-30T10:03:48Z</time>
      </trkpt>
      <trkpt lat="40.233962601050735" lon="-6.916955290362239">
        <ele>664.888916015625</ele>
        <time>2016-10-30T10:03:53Z</time>
      </trkpt>
      <trkpt lat="40.233575357124209" lon="-6.916838027536869">
        <ele>660.56298828125</ele>
        <time>2016-10-30T10:03:58Z</time>
      </trkpt>
      <trkpt lat="40.233366228640079" lon="-6.916836183518171">
        <ele>656.237060546875</ele>
        <time>2016-10-30T10:04:03Z</time>
      </trkpt>
      <trkpt lat="40.233232202008367" lon="-6.916897455230355">
        <ele>652.87255859375</ele>
        <time>2016-10-30T10:04:08Z</time>
      </trkpt>
      <trkpt lat="40.233081998303533" lon="-6.916921846568584">
        <ele>650.94970703125</ele>
        <time>2016-10-30T10:04:13Z</time>
      </trkpt>
      <trkpt lat="40.233008489012718" lon="-6.91672177053988">
        <ele>652.87255859375</ele>
        <time>2016-10-30T10:04:18Z</time>
      </trkpt>
      <trkpt lat="40.232960125431418" lon="-6.916452627629042">
        <ele>656.7177734375</ele>
        <time>2016-10-30T10:04:23Z</time>
      </trkpt>
      <trkpt lat="40.232961550354958" lon="-6.916065886616707">
        <ele>657.67919921875</ele>
        <time>2016-10-30T10:04:28Z</time>
      </trkpt>
      <trkpt lat="40.233021145686507" lon="-6.91561602987349">
        <ele>657.198486328125</ele>
        <time>2016-10-30T10:04:33Z</time>
      </trkpt>
      <trkpt lat="40.233118878677487" lon="-6.915224343538284">
        <ele>657.198486328125</ele>
        <time>2016-10-30T10:04:38Z</time>
      </trkpt>
      <trkpt lat="40.233405875042081" lon="-6.915029631927609">
        <ele>657.198486328125</ele>
        <time>2016-10-30T10:04:43Z</time>
      </trkpt>
      <trkpt lat="40.233758082613349" lon="-6.91495344042778">
        <ele>656.7177734375</ele>
        <time>2016-10-30T10:04:48Z</time>
      </trkpt>
      <trkpt lat="40.234038373455405" lon="-6.914745988324285">
        <ele>655.756591796875</ele>
        <time>2016-10-30T10:04:53Z</time>
      </trkpt>
      <trkpt lat="40.234246160835028" lon="-6.914445329457521">
        <ele>654.795166015625</ele>
        <time>2016-10-30T10:04:58Z</time>
      </trkpt>
      <trkpt lat="40.234485464170575" lon="-6.91425908356905">
        <ele>656.7177734375</ele>
        <time>2016-10-30T10:05:03Z</time>
      </trkpt>
      <trkpt lat="40.234597362577915" lon="-6.914089182391763">
        <ele>657.198486328125</ele>
        <time>2016-10-30T10:05:08Z</time>
      </trkpt>
      <trkpt lat="40.234637511894107" lon="-6.913847951218486">
        <ele>657.67919921875</ele>
        <time>2016-10-30T10:05:13Z</time>
      </trkpt>
      <trkpt lat="40.234778160229325" lon="-6.913422234356403">
        <ele>656.237060546875</ele>
        <time>2016-10-30T10:05:18Z</time>
      </trkpt>
      <trkpt lat="40.234837252646685" lon="-6.913168514147401">
        <ele>654.795166015625</ele>
        <time>2016-10-30T10:05:23Z</time>
      </trkpt>
      <trkpt lat="40.234694425016642" lon="-6.9129060767591">
        <ele>648.54638671875</ele>
        <time>2016-10-30T10:05:28Z</time>
      </trkpt>
      <trkpt lat="40.23447984829545" lon="-6.912606423720717">
        <ele>641.336669921875</ele>
        <time>2016-10-30T10:05:33Z</time>
      </trkpt>
      <trkpt lat="40.234279101714492" lon="-6.912342058494687">
        <ele>636.5302734375</ele>
        <time>2016-10-30T10:05:38Z</time>
      </trkpt>
      <trkpt lat="40.234121102839708" lon="-6.912128571420908">
        <ele>630.281494140625</ele>
        <time>2016-10-30T10:05:43Z</time>
      </trkpt>
      <trkpt lat="40.23389982059598" lon="-6.911861607804894">
        <ele>625.95556640625</ele>
        <time>2016-10-30T10:05:48Z</time>
      </trkpt>
      <trkpt lat="40.233658254146576" lon="-6.911530941724777">
        <ele>619.226318359375</ele>
        <time>2016-10-30T10:05:53Z</time>
      </trkpt>
      <trkpt lat="40.233440827578306" lon="-6.911258362233639">
        <ele>620.66845703125</ele>
        <time>2016-10-30T10:05:58Z</time>
      </trkpt>
      <trkpt lat="40.233288947492838" lon="-6.911076223477721">
        <ele>617.7841796875</ele>
        <time>2016-10-30T10:06:03Z</time>
      </trkpt>
      <trkpt lat="40.233115442097187" lon="-6.910874303430319">
        <ele>613.93896484375</ele>
        <time>2016-10-30T10:06:08Z</time>
      </trkpt>
      <trkpt lat="40.232951156795025" lon="-6.910731140524149">
        <ele>610.574462890625</ele>
        <time>2016-10-30T10:06:13Z</time>
      </trkpt>
      <trkpt lat="40.232895836234093" lon="-6.910862484946847">
        <ele>606.24853515625</ele>
        <time>2016-10-30T10:06:18Z</time>
      </trkpt>
      <trkpt lat="40.232855435460806" lon="-6.911041187122464">
        <ele>601.922607421875</ele>
        <time>2016-10-30T10:06:23Z</time>
      </trkpt>
      <trkpt lat="40.23282827809453" lon="-6.911218296736479">
        <ele>597.115966796875</ele>
        <time>2016-10-30T10:06:28Z</time>
      </trkpt>
      <trkpt lat="40.232742112129927" lon="-6.911558099091053">
        <ele>594.712646484375</ele>
        <time>2016-10-30T10:06:33Z</time>
      </trkpt>
      <trkpt lat="40.23254924453795" lon="-6.911803605034947">
        <ele>593.270751953125</ele>
        <time>2016-10-30T10:06:38Z</time>
      </trkpt>
      <trkpt lat="40.232407925650477" lon="-6.911651808768511">
        <ele>592.790283203125</ele>
        <time>2016-10-30T10:06:43Z</time>
      </trkpt>
      <trkpt lat="40.232301810756326" lon="-6.911425665020943">
        <ele>592.790283203125</ele>
        <time>2016-10-30T10:06:48Z</time>
      </trkpt>
      <trkpt lat="40.232213465496898" lon="-6.911204466596246">
        <ele>594.232177734375</ele>
        <time>2016-10-30T10:06:53Z</time>
      </trkpt>
      <trkpt lat="40.232156552374363" lon="-6.910987794399262">
        <ele>595.674072265625</ele>
        <time>2016-10-30T10:06:58Z</time>
      </trkpt>
      <trkpt lat="40.232100980356336" lon="-6.910664504393935">
        <ele>595.193359375</ele>
        <time>2016-10-30T10:07:03Z</time>
      </trkpt>
      <trkpt lat="40.232065860182047" lon="-6.910310285165906">
        <ele>593.75146484375</ele>
        <time>2016-10-30T10:07:08Z</time>
      </trkpt>
      <trkpt lat="40.232034176588058" lon="-6.909999484196305">
        <ele>592.790283203125</ele>
        <time>2016-10-30T10:07:13Z</time>
      </trkpt>
      <trkpt lat="40.232118833810091" lon="-6.909804353490472">
        <ele>597.115966796875</ele>
        <time>2016-10-30T10:07:18Z</time>
      </trkpt>
      <trkpt lat="40.232099974527955" lon="-6.909653563052416">
        <ele>599.519287109375</ele>
        <time>2016-10-30T10:07:23Z</time>
      </trkpt>
      <trkpt lat="40.232117408886552" lon="-6.909547364339232">
        <ele>601.44189453125</ele>
        <time>2016-10-30T10:07:28Z</time>
      </trkpt>
      <trkpt lat="40.232118749991059" lon="-6.909394059330225">
        <ele>604.326171875</ele>
        <time>2016-10-30T10:07:33Z</time>
      </trkpt>
      <trkpt lat="40.2321373578161" lon="-6.909246537834406">
        <ele>608.17138671875</ele>
        <time>2016-10-30T10:07:38Z</time>
      </trkpt>
      <trkpt lat="40.232086814939976" lon="-6.909142602235079">
        <ele>608.17138671875</ele>
        <time>2016-10-30T10:07:43Z</time>
      </trkpt>
      <trkpt lat="40.232013892382383" lon="-6.909062219783664">
        <ele>607.690673828125</ele>
        <time>2016-10-30T10:07:48Z</time>
      </trkpt>
      <trkpt lat="40.231885062530637" lon="-6.908915201202035">
        <ele>608.65185546875</ele>
        <time>2016-10-30T10:07:53Z</time>
      </trkpt>
      <trkpt lat="40.23177525959909" lon="-6.908729206770659">
        <ele>610.09375</ele>
        <time>2016-10-30T10:07:58Z</time>
      </trkpt>
      <trkpt lat="40.231519024819136" lon="-6.908761477097869">
        <ele>609.132568359375</ele>
        <time>2016-10-30T10:08:03Z</time>
      </trkpt>
      <trkpt lat="40.231308387592435" lon="-6.908966079354286">
        <ele>600.480712890625</ele>
        <time>2016-10-30T10:08:08Z</time>
      </trkpt>
      <trkpt lat="40.231027510017157" lon="-6.908818557858467">
        <ele>596.15478515625</ele>
        <time>2016-10-30T10:08:13Z</time>
      </trkpt>
      <trkpt lat="40.230896500870585" lon="-6.908482778817415">
        <ele>593.75146484375</ele>
        <time>2016-10-30T10:08:18Z</time>
      </trkpt>
      <trkpt lat="40.230734730139375" lon="-6.908187484368682">
        <ele>591.34814453125</ele>
        <time>2016-10-30T10:08:23Z</time>
      </trkpt>
      <trkpt lat="40.230461061000824" lon="-6.907793786376715">
        <ele>588.46435546875</ele>
        <time>2016-10-30T10:08:28Z</time>
      </trkpt>
      <trkpt lat="40.23023022338748" lon="-6.907208142802119">
        <ele>584.618896484375</ele>
        <time>2016-10-30T10:08:33Z</time>
      </trkpt>
      <trkpt lat="40.229967031627893" lon="-6.9067307934165">
        <ele>581.73486328125</ele>
        <time>2016-10-30T10:08:38Z</time>
      </trkpt>
      <trkpt lat="40.229616165161133" lon="-6.905765533447266">
        <ele>578.85107421875</ele>
        <time>2016-10-30T10:08:43Z</time>
      </trkpt>
      <trkpt lat="40.229608537629247" lon="-6.905637206509709">
        <ele>575.967041015625</ele>
        <time>2016-10-30T10:08:48Z</time>
      </trkpt>
      <trkpt lat="40.229579284787178" lon="-6.905138567090035">
        <ele>573.083251953125</ele>
        <time>2016-10-30T10:08:53Z</time>
      </trkpt>
      <trkpt lat="40.229527233168483" lon="-6.904934719204903">
        <ele>572.121826171875</ele>
        <time>2016-10-30T10:08:58Z</time>
      </trkpt>
      <trkpt lat="40.229513570666313" lon="-6.904904711991549">
        <ele>571.640869140625</ele>
        <time>2016-10-30T10:09:03Z</time>
      </trkpt>
      <trkpt lat="40.229801321402192" lon="-6.90471813082695">
        <ele>571.160400390625</ele>
        <time>2016-10-30T10:09:08Z</time>
      </trkpt>
      <trkpt lat="40.229944232851267" lon="-6.904569184407592">
        <ele>571.640869140625</ele>
        <time>2016-10-30T10:09:13Z</time>
      </trkpt>
      <trkpt lat="40.230031488463283" lon="-6.904506403952837">
        <ele>571.640869140625</ele>
        <time>2016-10-30T10:09:17Z</time>
      </trkpt>
      <trkpt lat="40.230144392699003" lon="-6.904415963217616">
        <ele>571.160400390625</ele>
        <time>2016-10-30T10:09:23Z</time>
      </trkpt>
      <trkpt lat="40.230334913358092" lon="-6.904257545247674">
        <ele>570.198974609375</ele>
        <time>2016-10-30T10:09:28Z</time>
      </trkpt>
      <trkpt lat="40.230531888082623" lon="-6.904187807813287">
        <ele>570.198974609375</ele>
        <time>2016-10-30T10:09:33Z</time>
      </trkpt>
      <trkpt lat="40.230728946626186" lon="-6.903997790068388">
        <ele>571.160400390625</ele>
        <time>2016-10-30T10:09:38Z</time>
      </trkpt>
      <trkpt lat="40.231012674048543" lon="-6.903842389583588">
        <ele>572.121826171875</ele>
        <time>2016-10-30T10:09:43Z</time>
      </trkpt>
      <trkpt lat="40.231174863874912" lon="-6.903693107888103">
        <ele>573.56396484375</ele>
        <time>2016-10-30T10:09:48Z</time>
      </trkpt>
      <trkpt lat="40.231275530532002" lon="-6.903665196150541">
        <ele>572.6025390625</ele>
        <time>2016-10-30T10:09:53Z</time>
      </trkpt>
      <trkpt lat="40.231385584920645" lon="-6.903636194765568">
        <ele>570.198974609375</ele>
        <time>2016-10-30T10:09:58Z</time>
      </trkpt>
      <trkpt lat="40.231529418379068" lon="-6.903523961082101">
        <ele>568.757080078125</ele>
        <time>2016-10-30T10:10:03Z</time>
      </trkpt>
      <trkpt lat="40.231709629297256" lon="-6.903374763205648">
        <ele>565.392578125</ele>
        <time>2016-10-30T10:10:08Z</time>
      </trkpt>
      <trkpt lat="40.231889840215445" lon="-6.903169741854072">
        <ele>563.950439453125</ele>
        <time>2016-10-30T10:10:13Z</time>
      </trkpt>
      <trkpt lat="40.231991931796074" lon="-6.902932953089476">
        <ele>561.066650390625</ele>
        <time>2016-10-30T10:10:18Z</time>
      </trkpt>
      <trkpt lat="40.232033589854836" lon="-6.902704043313861">
        <ele>557.7021484375</ele>
        <time>2016-10-30T10:10:23Z</time>
      </trkpt>
      <trkpt lat="40.231929989531636" lon="-6.902461890131235">
        <ele>555.779296875</ele>
        <time>2016-10-30T10:10:28Z</time>
      </trkpt>
      <trkpt lat="40.231820102781057" lon="-6.902081100270152">
        <ele>554.33740234375</ele>
        <time>2016-10-30T10:10:33Z</time>
      </trkpt>
      <trkpt lat="40.231844075024128" lon="-6.901685055345297">
        <ele>552.41455078125</ele>
        <time>2016-10-30T10:10:38Z</time>
      </trkpt>
      <trkpt lat="40.231874082237482" lon="-6.90143158659339">
        <ele>550.011474609375</ele>
        <time>2016-10-30T10:10:43Z</time>
      </trkpt>
      <trkpt lat="40.232070973142982" lon="-6.901126652956009">
        <ele>549.050048828125</ele>
        <time>2016-10-30T10:10:48Z</time>
      </trkpt>
      <trkpt lat="40.232082288712263" lon="-6.900934623554349">
        <ele>549.050048828125</ele>
        <time>2016-10-30T10:10:53Z</time>
      </trkpt>
      <trkpt lat="40.232062004506588" lon="-6.900808978825808">
        <ele>550.011474609375</ele>
        <time>2016-10-30T10:10:58Z</time>
      </trkpt>
      <trkpt lat="40.232060328125954" lon="-6.900698589161038">
        <ele>550.4921875</ele>
        <time>2016-10-30T10:11:03Z</time>
      </trkpt>
      <trkpt lat="40.23204549215734" lon="-6.900599179789424">
        <ele>551.93408203125</ele>
        <time>2016-10-30T10:11:08Z</time>
      </trkpt>
      <trkpt lat="40.232064099982381" lon="-6.90043967217207">
        <ele>552.41455078125</ele>
        <time>2016-10-30T10:11:13Z</time>
      </trkpt>
      <trkpt lat="40.232109110802412" lon="-6.900119483470917">
        <ele>551.453369140625</ele>
        <time>2016-10-30T10:11:18Z</time>
      </trkpt>
      <trkpt lat="40.232190666720271" lon="-6.8998992908746">
        <ele>550.011474609375</ele>
        <time>2016-10-30T10:11:23Z</time>
      </trkpt>
      <trkpt lat="40.232249004766345" lon="-6.899697119370103">
        <ele>548.0888671875</ele>
        <time>2016-10-30T10:11:28Z</time>
      </trkpt>
      <trkpt lat="40.232394598424435" lon="-6.899589076638222">
        <ele>545.204833984375</ele>
        <time>2016-10-30T10:11:33Z</time>
      </trkpt>
      <trkpt lat="40.232493421062827" lon="-6.899506347253919">
        <ele>539.9176025390625</ele>
        <time>2016-10-30T10:11:38Z</time>
      </trkpt>
      <trkpt lat="40.232644965872169" lon="-6.899441555142403">
        <ele>537.03369140625</ele>
        <time>2016-10-30T10:11:43Z</time>
      </trkpt>
      <trkpt lat="40.232709757983685" lon="-6.899364190176129">
        <ele>533.6689453125</ele>
        <time>2016-10-30T10:11:48Z</time>
      </trkpt>
      <trkpt lat="40.232619317248464" lon="-6.899191690608859">
        <ele>531.746337890625</ele>
        <time>2016-10-30T10:11:53Z</time>
      </trkpt>
      <trkpt lat="40.232494762167335" lon="-6.899019191041589">
        <ele>529.82373046875</ele>
        <time>2016-10-30T10:11:58Z</time>
      </trkpt>
      <trkpt lat="40.232362663373351" lon="-6.89886580221355">
        <ele>527.9010009765625</ele>
        <time>2016-10-30T10:12:03Z</time>
      </trkpt>
      <trkpt lat="40.232211872935295" lon="-6.898608980700374">
        <ele>525.497802734375</ele>
        <time>2016-10-30T10:12:08Z</time>
      </trkpt>
      <trkpt lat="40.232023950666189" lon="-6.898352662101388">
        <ele>528.3818359375</ele>
        <time>2016-10-30T10:12:13Z</time>
      </trkpt>
      <trkpt lat="40.231822030618787" lon="-6.898204386234283">
        <ele>526.9398193359375</ele>
        <time>2016-10-30T10:12:18Z</time>
      </trkpt>
      <trkpt lat="40.231693368405104" lon="-6.898061893880367">
        <ele>526.4591064453125</ele>
        <time>2016-10-30T10:12:23Z</time>
      </trkpt>
      <trkpt lat="40.231559090316296" lon="-6.897878246381879">
        <ele>528.3818359375</ele>
        <time>2016-10-30T10:12:28Z</time>
      </trkpt>
      <trkpt lat="40.231413161382079" lon="-6.897725695744157">
        <ele>531.2657470703125</ele>
        <time>2016-10-30T10:12:33Z</time>
      </trkpt>
      <trkpt lat="40.231274105608463" lon="-6.897601811215282">
        <ele>533.6689453125</ele>
        <time>2016-10-30T10:12:38Z</time>
      </trkpt>
      <trkpt lat="40.231213504448533" lon="-6.897471975535154">
        <ele>535.1109619140625</ele>
        <time>2016-10-30T10:12:43Z</time>
      </trkpt>
      <trkpt lat="40.231139492243528" lon="-6.897303834557533">
        <ele>536.5531005859375</ele>
        <time>2016-10-30T10:12:48Z</time>
      </trkpt>
      <trkpt lat="40.231020050123334" lon="-6.897110044956207">
        <ele>537.03369140625</ele>
        <time>2016-10-30T10:12:53Z</time>
      </trkpt>
      <trkpt lat="40.230891723185778" lon="-6.89683704636991">
        <ele>537.03369140625</ele>
        <time>2016-10-30T10:12:58Z</time>
      </trkpt>
      <trkpt lat="40.230727689340711" lon="-6.896492801606655">
        <ele>537.03369140625</ele>
        <time>2016-10-30T10:13:03Z</time>
      </trkpt>
      <trkpt lat="40.23049995303154" lon="-6.895923838019371">
        <ele>530.78515625</ele>
        <time>2016-10-30T10:13:08Z</time>
      </trkpt>
      <trkpt lat="40.230291076004505" lon="-6.895493678748608">
        <ele>525.9783935546875</ele>
        <time>2016-10-30T10:13:13Z</time>
      </trkpt>
      <trkpt lat="40.230036601424217" lon="-6.895252950489521">
        <ele>525.497802734375</ele>
        <time>2016-10-30T10:13:18Z</time>
      </trkpt>
      <trkpt lat="40.229830658063293" lon="-6.895094616338611">
        <ele>524.0557861328125</ele>
        <time>2016-10-30T10:13:23Z</time>
      </trkpt>
      <trkpt lat="40.229602754116058" lon="-6.895048432052136">
        <ele>524.5364990234375</ele>
        <time>2016-10-30T10:13:28Z</time>
      </trkpt>
      <trkpt lat="40.229370826855302" lon="-6.895141219720244">
        <ele>522.1331787109375</ele>
        <time>2016-10-30T10:13:33Z</time>
      </trkpt>
      <trkpt lat="40.229033203795552" lon="-6.895249681547284">
        <ele>518.287841796875</ele>
        <time>2016-10-30T10:13:38Z</time>
      </trkpt>
      <trkpt lat="40.228664986789227" lon="-6.895285807549954">
        <ele>516.365234375</ele>
        <time>2016-10-30T10:13:43Z</time>
      </trkpt>
      <trkpt lat="40.228306660428643" lon="-6.895157732069492">
        <ele>513.000732421875</ele>
        <time>2016-10-30T10:13:48Z</time>
      </trkpt>
      <trkpt lat="40.228025950491428" lon="-6.894858246669173">
        <ele>513.000732421875</ele>
        <time>2016-10-30T10:13:53Z</time>
      </trkpt>
      <trkpt lat="40.227774661034346" lon="-6.894516935572028">
        <ele>510.5972900390625</ele>
        <time>2016-10-30T10:13:58Z</time>
      </trkpt>
      <trkpt lat="40.227570058777928" lon="-6.894095242023468">
        <ele>510.5972900390625</ele>
        <time>2016-10-30T10:14:03Z</time>
      </trkpt>
      <trkpt lat="40.227436702698469" lon="-6.8936428707093">
        <ele>510.11669921875</ele>
        <time>2016-10-30T10:14:08Z</time>
      </trkpt>
      <trkpt lat="40.227402169257402" lon="-6.893275659531355">
        <ele>510.11669921875</ele>
        <time>2016-10-30T10:14:13Z</time>
      </trkpt>
      <trkpt lat="40.22736445069313" lon="-6.892864694818854">
        <ele>509.1553955078125</ele>
        <time>2016-10-30T10:14:18Z</time>
      </trkpt>
      <trkpt lat="40.227224389091134" lon="-6.892494382336736">
        <ele>509.6361083984375</ele>
        <time>2016-10-30T10:14:23Z</time>
      </trkpt>
      <trkpt lat="40.227053230628371" lon="-6.892258515581489">
        <ele>510.5972900390625</ele>
        <time>2016-10-30T10:14:28Z</time>
      </trkpt>
      <trkpt lat="40.226924484595656" lon="-6.891982164233923">
        <ele>510.5972900390625</ele>
        <time>2016-10-30T10:14:33Z</time>
      </trkpt>
      <trkpt lat="40.226845610886812" lon="-6.891663400456309">
        <ele>506.271484375</ele>
        <time>2016-10-30T10:14:38Z</time>
      </trkpt>
      <trkpt lat="40.226764054968953" lon="-6.89128965139389">
        <ele>506.7520751953125</ele>
        <time>2016-10-30T10:14:43Z</time>
      </trkpt>
      <trkpt lat="40.226752907037735" lon="-6.890911376103759">
        <ele>507.2327880859375</ele>
        <time>2016-10-30T10:14:48Z</time>
      </trkpt>
      <trkpt lat="40.226798253133893" lon="-6.890550870448351">
        <ele>505.3101806640625</ele>
        <time>2016-10-30T10:14:53Z</time>
      </trkpt>
      <trkpt lat="40.226850053295493" lon="-6.89027619548142">
        <ele>504.8294677734375</ele>
        <time>2016-10-30T10:14:58Z</time>
      </trkpt>
      <trkpt lat="40.226655006408691" lon="-6.889543533325195">
        <ele>501.945556640625</ele>
        <time>2016-10-30T10:15:03Z</time>
      </trkpt>
      <trkpt lat="40.226575545966625" lon="-6.889530206099153">
        <ele>506.271484375</ele>
        <time>2016-10-30T10:15:08Z</time>
      </trkpt>
      <trkpt lat="40.226433137431741" lon="-6.889506485313177">
        <ele>508.6746826171875</ele>
        <time>2016-10-30T10:15:13Z</time>
      </trkpt>
      <trkpt lat="40.226343534886837" lon="-6.889446638524532">
        <ele>509.6361083984375</ele>
        <time>2016-10-30T10:15:18Z</time>
      </trkpt>
      <trkpt lat="40.226278658956289" lon="-6.889381762593985">
        <ele>509.6361083984375</ele>
        <time>2016-10-30T10:15:23Z</time>
      </trkpt>
      <trkpt lat="40.226222164928913" lon="-6.889325184747577">
        <ele>509.1553955078125</ele>
        <time>2016-10-30T10:15:28Z</time>
      </trkpt>
      <trkpt lat="40.226171119138598" lon="-6.889274222776294">
        <ele>507.7135009765625</ele>
        <time>2016-10-30T10:15:33Z</time>
      </trkpt>
      <trkpt lat="40.22612870670855" lon="-6.889213537797332">
        <ele>507.7135009765625</ele>
        <time>2016-10-30T10:15:38Z</time>
      </trkpt>
      <trkpt lat="40.226107919588685" lon="-6.889159055426717">
        <ele>508.194091796875</ele>
        <time>2016-10-30T10:15:43Z</time>
      </trkpt>
      <trkpt lat="40.226077074185014" lon="-6.889077918604016">
        <ele>509.1553955078125</ele>
        <time>2016-10-30T10:15:48Z</time>
      </trkpt>
      <trkpt lat="40.226048575714231" lon="-6.889003068208695">
        <ele>510.11669921875</ele>
        <time>2016-10-30T10:15:53Z</time>
      </trkpt>
      <trkpt lat="40.225909017026424" lon="-6.889074901118875">
        <ele>511.0780029296875</ele>
        <time>2016-10-30T10:15:58Z</time>
      </trkpt>
      <trkpt lat="40.225850427523255" lon="-6.88914162106812">
        <ele>512.52001953125</ele>
        <time>2016-10-30T10:16:03Z</time>
      </trkpt>
      <trkpt lat="40.225828383117914" lon="-6.889196271076798">
        <ele>513.000732421875</ele>
        <time>2016-10-30T10:16:08Z</time>
      </trkpt>
      <trkpt lat="40.225818492472172" lon="-6.889252262189984">
        <ele>513.4814453125</ele>
        <time>2016-10-30T10:16:13Z</time>
      </trkpt>
      <trkpt lat="40.225782198831439" lon="-6.889314958825707">
        <ele>514.92333984375</ele>
        <time>2016-10-30T10:16:18Z</time>
      </trkpt>
      <trkpt lat="40.225726291537285" lon="-6.889401376247406">
        <ele>515.404052734375</ele>
        <time>2016-10-30T10:16:23Z</time>
      </trkpt>
      <trkpt lat="40.225659990683198" lon="-6.889475807547569">
        <ele>516.365234375</ele>
        <time>2016-10-30T10:16:28Z</time>
      </trkpt>
      <trkpt lat="40.225593186914921" lon="-6.88951201736927">
        <ele>517.8072509765625</ele>
        <time>2016-10-30T10:16:33Z</time>
      </trkpt>
      <trkpt lat="40.225547673180699" lon="-6.88955694437027">
        <ele>519.7298583984375</ele>
        <time>2016-10-30T10:16:38Z</time>
      </trkpt>
      <trkpt lat="40.225499225780368" lon="-6.889550825580955">
        <ele>521.652587890625</ele>
        <time>2016-10-30T10:16:43Z</time>
      </trkpt>
      <trkpt lat="40.225429320707917" lon="-6.889599272981286">
        <ele>521.652587890625</ele>
        <time>2016-10-30T10:16:48Z</time>
      </trkpt>
      <trkpt lat="40.225323121994734" lon="-6.889758445322514">
        <ele>521.1719970703125</ele>
        <time>2016-10-30T10:16:53Z</time>
      </trkpt>
      <trkpt lat="40.225234106183052" lon="-6.890069162473083">
        <ele>519.249267578125</ele>
        <time>2016-10-30T10:16:58Z</time>
      </trkpt>
      <trkpt lat="40.225060265511274" lon="-6.890395637601614">
        <ele>516.845947265625</ele>
        <time>2016-10-30T10:17:03Z</time>
      </trkpt>
      <trkpt lat="40.224871588870883" lon="-6.890820432454348">
        <ele>513.000732421875</ele>
        <time>2016-10-30T10:17:08Z</time>
      </trkpt>
      <trkpt lat="40.224682157859206" lon="-6.891241874545813">
        <ele>510.5972900390625</ele>
        <time>2016-10-30T10:17:13Z</time>
      </trkpt>
      <trkpt lat="40.22476295940578" lon="-6.891502467915416">
        <ele>513.4814453125</ele>
        <time>2016-10-30T10:17:18Z</time>
      </trkpt>
      <trkpt lat="40.224724989384413" lon="-6.891597015783191">
        <ele>516.845947265625</ele>
        <time>2016-10-30T10:17:23Z</time>
      </trkpt>
      <trkpt lat="40.224751476198435" lon="-6.891545634716749">
        <ele>516.365234375</ele>
        <time>2016-10-30T10:17:28Z</time>
      </trkpt>
      <trkpt lat="40.224663130939007" lon="-6.891669519245625">
        <ele>518.287841796875</ele>
        <time>2016-10-30T10:17:33Z</time>
      </trkpt>
      <trkpt lat="40.224634213373065" lon="-6.891847550868988">
        <ele>517.32666015625</ele>
        <time>2016-10-30T10:17:38Z</time>
      </trkpt>
      <trkpt lat="40.224693305790424" lon="-6.891980236396194">
        <ele>515.8846435546875</ele>
        <time>2016-10-30T10:17:43Z</time>
      </trkpt>
      <trkpt lat="40.224765222519636" lon="-6.892070593312383">
        <ele>514.92333984375</ele>
        <time>2016-10-30T10:17:48Z</time>
      </trkpt>
      <trkpt lat="40.224831691011786" lon="-6.892177127301693">
        <ele>513.9620361328125</ele>
        <time>2016-10-30T10:17:53Z</time>
      </trkpt>
      <trkpt lat="40.224905870854855" lon="-6.892315931618214">
        <ele>511.5587158203125</ele>
        <time>2016-10-30T10:17:58Z</time>
      </trkpt>
      <trkpt lat="40.224979799240828" lon="-6.892443001270294">
        <ele>510.11669921875</ele>
        <time>2016-10-30T10:18:03Z</time>
      </trkpt>
      <trkpt lat="40.225044339895248" lon="-6.892581302672625">
        <ele>508.194091796875</ele>
        <time>2016-10-30T10:18:08Z</time>
      </trkpt>
      <trkpt lat="40.225131260231137" lon="-6.892700158059597">
        <ele>506.7520751953125</ele>
        <time>2016-10-30T10:18:13Z</time>
      </trkpt>
      <trkpt lat="40.225228071212769" lon="-6.892824545502663">
        <ele>506.271484375</ele>
        <time>2016-10-30T10:18:18Z</time>
      </trkpt>
      <trkpt lat="40.225317925214767" lon="-6.892967540770769">
        <ele>503.387451171875</ele>
        <time>2016-10-30T10:18:23Z</time>
      </trkpt>
      <trkpt lat="40.225369725376368" lon="-6.893078936263919">
        <ele>500.984130859375</ele>
        <time>2016-10-30T10:18:28Z</time>
      </trkpt>
      <trkpt lat="40.225446335971355" lon="-6.893213465809822">
        <ele>499.0615234375</ele>
        <time>2016-10-30T10:18:33Z</time>
      </trkpt>
      <trkpt lat="40.225480366498232" lon="-6.893350426107645">
        <ele>500.02294921875</ele>
        <time>2016-10-30T10:18:38Z</time>
      </trkpt>
      <trkpt lat="40.22548321634531" lon="-6.893433909863234">
        <ele>500.984130859375</ele>
        <time>2016-10-30T10:18:43Z</time>
      </trkpt>
      <trkpt lat="40.225470392033458" lon="-6.893528373911977">
        <ele>502.4261474609375</ele>
        <time>2016-10-30T10:18:48Z</time>
      </trkpt>
      <trkpt lat="40.225478354841471" lon="-6.893619652837515">
        <ele>503.387451171875</ele>
        <time>2016-10-30T10:18:53Z</time>
      </trkpt>
      <trkpt lat="40.225489586591721" lon="-6.893757870420814">
        <ele>504.8294677734375</ele>
        <time>2016-10-30T10:18:58Z</time>
      </trkpt>
      <trkpt lat="40.225469637662172" lon="-6.893916036933661">
        <ele>506.7520751953125</ele>
        <time>2016-10-30T10:19:03Z</time>
      </trkpt>
      <trkpt lat="40.225500483065844" lon="-6.894046040251851">
        <ele>508.6746826171875</ele>
        <time>2016-10-30T10:19:08Z</time>
      </trkpt>
      <trkpt lat="40.225515738129616" lon="-6.894163470715284">
        <ele>510.5972900390625</ele>
        <time>2016-10-30T10:19:13Z</time>
      </trkpt>
      <trkpt lat="40.22550811059773" lon="-6.894254079088569">
        <ele>512.0394287109375</ele>
        <time>2016-10-30T10:19:18Z</time>
      </trkpt>
      <trkpt lat="40.225470140576363" lon="-6.894369246438146">
        <ele>513.4814453125</ele>
        <time>2016-10-30T10:19:23Z</time>
      </trkpt>
      <trkpt lat="40.225472152233124" lon="-6.894509308040142">
        <ele>514.442626953125</ele>
        <time>2016-10-30T10:19:28Z</time>
      </trkpt>
      <trkpt lat="40.225449437275529" lon="-6.894668731838465">
        <ele>513.000732421875</ele>
        <time>2016-10-30T10:19:33Z</time>
      </trkpt>
      <trkpt lat="40.225287415087223" lon="-6.89480971544981">
        <ele>514.442626953125</ele>
        <time>2016-10-30T10:19:38Z</time>
      </trkpt>
      <trkpt lat="40.225319936871529" lon="-6.895016245543957">
        <ele>512.52001953125</ele>
        <time>2016-10-30T10:19:43Z</time>
      </trkpt>
      <trkpt lat="40.22532194852829" lon="-6.895223697647452">
        <ele>510.5972900390625</ele>
        <time>2016-10-30T10:19:48Z</time>
      </trkpt>
      <trkpt lat="40.225265538319945" lon="-6.895399047061801">
        <ele>508.194091796875</ele>
        <time>2016-10-30T10:19:53Z</time>
      </trkpt>
      <trkpt lat="40.225187251344323" lon="-6.895607924088836">
        <ele>505.3101806640625</ele>
        <time>2016-10-30T10:19:58Z</time>
      </trkpt>
      <trkpt lat="40.224803360179067" lon="-6.895961472764611">
        <ele>500.02294921875</ele>
        <time>2016-10-30T10:20:07Z</time>
      </trkpt>
      <trkpt lat="40.224529439583421" lon="-6.896080579608679">
        <ele>496.6583251953125</ele>
        <time>2016-10-30T10:20:12Z</time>
      </trkpt>
      <trkpt lat="40.224238000810146" lon="-6.896346537396312">
        <ele>493.7742919921875</ele>
        <time>2016-10-30T10:20:17Z</time>
      </trkpt>
      <trkpt lat="40.223906496539712" lon="-6.896482324227691">
        <ele>490.4097900390625</ele>
        <time>2016-10-30T10:20:22Z</time>
      </trkpt>
      <trkpt lat="40.223881769925356" lon="-6.896659769117832">
        <ele>488.9677734375</ele>
        <time>2016-10-30T10:20:27Z</time>
      </trkpt>
      <trkpt lat="40.223885709419847" lon="-6.896875938400626">
        <ele>488.0064697265625</ele>
        <time>2016-10-30T10:20:32Z</time>
      </trkpt>
      <trkpt lat="40.223873388022184" lon="-6.897052545100451">
        <ele>488.0064697265625</ele>
        <time>2016-10-30T10:20:37Z</time>
      </trkpt>
      <trkpt lat="40.223965421319008" lon="-6.897282041609287">
        <ele>488.4871826171875</ele>
        <time>2016-10-30T10:20:42Z</time>
      </trkpt>
      <trkpt lat="40.223970701918006" lon="-6.897546490654349">
        <ele>487.525634765625</ele>
        <time>2016-10-30T10:20:47Z</time>
      </trkpt>
      <trkpt lat="40.223976736888289" lon="-6.897875228896737">
        <ele>486.083740234375</ele>
        <time>2016-10-30T10:20:52Z</time>
      </trkpt>
      <trkpt lat="40.223947903141379" lon="-6.898328438401222">
        <ele>484.1611328125</ele>
        <time>2016-10-30T10:20:57Z</time>
      </trkpt>
      <trkpt lat="40.223706839606166" lon="-6.898759687319398">
        <ele>479.8350830078125</ele>
        <time>2016-10-30T10:21:02Z</time>
      </trkpt>
      <trkpt lat="40.223431410267949" lon="-6.899284729734063">
        <ele>475.0286865234375</ele>
        <time>2016-10-30T10:21:07Z</time>
      </trkpt>
      <trkpt lat="40.223094625398517" lon="-6.899666022509337">
        <ele>472.6253662109375</ele>
        <time>2016-10-30T10:21:12Z</time>
      </trkpt>
      <trkpt lat="40.222826236858964" lon="-6.899852436035872">
        <ele>471.6639404296875</ele>
        <time>2016-10-30T10:21:17Z</time>
      </trkpt>
      <trkpt lat="40.222541587427258" lon="-6.899899626150727">
        <ele>470.70263671875</ele>
        <time>2016-10-30T10:21:22Z</time>
      </trkpt>
      <trkpt lat="40.222302200272679" lon="-6.900063408538699">
        <ele>472.1446533203125</ele>
        <time>2016-10-30T10:21:27Z</time>
      </trkpt>
      <trkpt lat="40.222184099256992" lon="-6.900219060480595">
        <ele>474.5479736328125</ele>
        <time>2016-10-30T10:21:32Z</time>
      </trkpt>
      <trkpt lat="40.222129197791219" lon="-6.900359876453877">
        <ele>475.9898681640625</ele>
        <time>2016-10-30T10:21:37Z</time>
      </trkpt>
      <trkpt lat="40.222111763432622" lon="-6.900506308302283">
        <ele>475.9898681640625</ele>
        <time>2016-10-30T10:21:42Z</time>
      </trkpt>
      <trkpt lat="40.222090808674693" lon="-6.900661457329989">
        <ele>477.9124755859375</ele>
        <time>2016-10-30T10:21:47Z</time>
      </trkpt>
      <trkpt lat="40.222110422328115" lon="-6.900799255818129">
        <ele>478.3931884765625</ele>
        <time>2016-10-30T10:21:52Z</time>
      </trkpt>
      <trkpt lat="40.222155516967177" lon="-6.900935126468539">
        <ele>476.4705810546875</ele>
        <time>2016-10-30T10:21:57Z</time>
      </trkpt>
      <trkpt lat="40.222181836143136" lon="-6.901082312688232">
        <ele>476.9512939453125</ele>
        <time>2016-10-30T10:22:02Z</time>
      </trkpt>
      <trkpt lat="40.222216453403234" lon="-6.901204437017441">
        <ele>478.3931884765625</ele>
        <time>2016-10-30T10:22:07Z</time>
      </trkpt>
      <trkpt lat="40.222174040973186" lon="-6.901331339031458">
        <ele>480.796630859375</ele>
        <time>2016-10-30T10:22:12Z</time>
      </trkpt>
      <trkpt lat="40.222114948555827" lon="-6.901517165824771">
        <ele>478.8739013671875</ele>
        <time>2016-10-30T10:22:17Z</time>
      </trkpt>
      <trkpt lat="40.222099190577865" lon="-6.901735682040453">
        <ele>475.9898681640625</ele>
        <time>2016-10-30T10:22:22Z</time>
      </trkpt>
      <trkpt lat="40.221974300220609" lon="-6.901846490800381">
        <ele>475.0286865234375</ele>
        <time>2016-10-30T10:22:27Z</time>
      </trkpt>
      <trkpt lat="40.221864497289062" lon="-6.901861410588026">
        <ele>473.1060791015625</ele>
        <time>2016-10-30T10:22:32Z</time>
      </trkpt>
      <trkpt lat="40.22179844789207" lon="-6.901934668421745">
        <ele>471.183349609375</ele>
        <time>2016-10-30T10:22:37Z</time>
      </trkpt>
      <trkpt lat="40.22164748981595" lon="-6.902033742517233">
        <ele>471.6639404296875</ele>
        <time>2016-10-30T10:22:42Z</time>
      </trkpt>
      <trkpt lat="40.221717394888401" lon="-6.902342196553946">
        <ele>468.29931640625</ele>
        <time>2016-10-30T10:22:47Z</time>
      </trkpt>
      <trkpt lat="40.22187128663063" lon="-6.902740588411689">
        <ele>468.29931640625</ele>
        <time>2016-10-30T10:22:52Z</time>
      </trkpt>
      <trkpt lat="40.221922248601913" lon="-6.903002941980958">
        <ele>467.8187255859375</ele>
        <time>2016-10-30T10:22:57Z</time>
      </trkpt>
      <trkpt lat="40.221940269693732" lon="-6.903253141790628">
        <ele>467.8187255859375</ele>
        <time>2016-10-30T10:23:02Z</time>
      </trkpt>
      <trkpt lat="40.221856450662017" lon="-6.903483476489782">
        <ele>469.7413330078125</ele>
        <time>2016-10-30T10:23:07Z</time>
      </trkpt>
      <trkpt lat="40.221780007705092" lon="-6.903616497293115">
        <ele>472.6253662109375</ele>
        <time>2016-10-30T10:23:12Z</time>
      </trkpt>
      <trkpt lat="40.221765339374542" lon="-6.903728479519486">
        <ele>474.5479736328125</ele>
        <time>2016-10-30T10:23:17Z</time>
      </trkpt>
      <trkpt lat="40.221764165908098" lon="-6.90383174456656">
        <ele>475.50927734375</ele>
        <time>2016-10-30T10:23:22Z</time>
      </trkpt>
      <trkpt lat="40.221773134544492" lon="-6.903948504477739">
        <ele>476.4705810546875</ele>
        <time>2016-10-30T10:23:27Z</time>
      </trkpt>
      <trkpt lat="40.221774308010936" lon="-6.904038190841675">
        <ele>476.4705810546875</ele>
        <time>2016-10-30T10:23:32Z</time>
      </trkpt>
      <trkpt lat="40.221753772348166" lon="-6.904132654890418">
        <ele>477.431884765625</ele>
        <time>2016-10-30T10:23:37Z</time>
      </trkpt>
      <trkpt lat="40.221778750419617" lon="-6.904260311275721">
        <ele>477.9124755859375</ele>
        <time>2016-10-30T10:23:42Z</time>
      </trkpt>
      <trkpt lat="40.221818061545491" lon="-6.904344046488404">
        <ele>479.3544921875</ele>
        <time>2016-10-30T10:23:47Z</time>
      </trkpt>
      <trkpt lat="40.221836669370532" lon="-6.904440354555845">
        <ele>480.31591796875</ele>
        <time>2016-10-30T10:23:52Z</time>
      </trkpt>
      <trkpt lat="40.221835747361183" lon="-6.90452509559691">
        <ele>481.2772216796875</ele>
        <time>2016-10-30T10:23:57Z</time>
      </trkpt>
      <trkpt lat="40.221839100122452" lon="-6.904602628201246">
        <ele>482.238525390625</ele>
        <time>2016-10-30T10:24:02Z</time>
      </trkpt>
      <trkpt lat="40.221830969676375" lon="-6.904693823307753">
        <ele>483.1998291015625</ele>
        <time>2016-10-30T10:24:07Z</time>
      </trkpt>
      <trkpt lat="40.22181948646903" lon="-6.904802620410919">
        <ele>484.1611328125</ele>
        <time>2016-10-30T10:24:12Z</time>
      </trkpt>
      <trkpt lat="40.221807919442654" lon="-6.904874369502068">
        <ele>486.564453125</ele>
        <time>2016-10-30T10:24:17Z</time>
      </trkpt>
      <trkpt lat="40.221805237233639" lon="-6.904960367828608">
        <ele>488.0064697265625</ele>
        <time>2016-10-30T10:24:22Z</time>
      </trkpt>
      <trkpt lat="40.2218038123101" lon="-6.905037481337786">
        <ele>489.9290771484375</ele>
        <time>2016-10-30T10:24:27Z</time>
      </trkpt>
      <trkpt lat="40.22177598439157" lon="-6.905130352824926">
        <ele>489.9290771484375</ele>
        <time>2016-10-30T10:24:32Z</time>
      </trkpt>
      <trkpt lat="40.221768021583557" lon="-6.905218027532101">
        <ele>491.3709716796875</ele>
        <time>2016-10-30T10:24:37Z</time>
      </trkpt>
      <trkpt lat="40.221760394051671" lon="-6.905292961746454">
        <ele>492.81298828125</ele>
        <time>2016-10-30T10:24:42Z</time>
      </trkpt>
      <trkpt lat="40.221745641902089" lon="-6.905358340591192">
        <ele>493.2935791015625</ele>
        <time>2016-10-30T10:24:47Z</time>
      </trkpt>
      <trkpt lat="40.221745306625962" lon="-6.905447272583842">
        <ele>493.7742919921875</ele>
        <time>2016-10-30T10:24:52Z</time>
      </trkpt>
      <trkpt lat="40.221722759306431" lon="-6.905567636713386">
        <ele>494.2550048828125</ele>
        <time>2016-10-30T10:24:57Z</time>
      </trkpt>
      <trkpt lat="40.221694512292743" lon="-6.905705183744431">
        <ele>495.6968994140625</ele>
        <time>2016-10-30T10:25:02Z</time>
      </trkpt>
      <trkpt lat="40.221645897254348" lon="-6.905833259224892">
        <ele>495.6968994140625</ele>
        <time>2016-10-30T10:25:07Z</time>
      </trkpt>
      <trkpt lat="40.221564006060362" lon="-6.905882963910699">
        <ele>496.6583251953125</ele>
        <time>2016-10-30T10:25:12Z</time>
      </trkpt>
      <trkpt lat="40.221504662185907" lon="-6.905826302245259">
        <ele>498.100341796875</ele>
        <time>2016-10-30T10:25:17Z</time>
      </trkpt>
      <trkpt lat="40.221449509263039" lon="-6.905728150159121">
        <ele>499.542236328125</ele>
        <time>2016-10-30T10:25:22Z</time>
      </trkpt>
      <trkpt lat="40.221404833719134" lon="-6.905633350834251">
        <ele>501.945556640625</ele>
        <time>2016-10-30T10:25:27Z</time>
      </trkpt>
      <trkpt lat="40.221332833170891" lon="-6.905469233170152">
        <ele>505.7908935546875</ele>
        <time>2016-10-30T10:25:32Z</time>
      </trkpt>
      <trkpt lat="40.221278853714466" lon="-6.905305869877338">
        <ele>507.2327880859375</ele>
        <time>2016-10-30T10:25:37Z</time>
      </trkpt>
      <trkpt lat="40.221210205927491" lon="-6.905077043920755">
        <ele>508.194091796875</ele>
        <time>2016-10-30T10:25:42Z</time>
      </trkpt>
      <trkpt lat="40.221149353310466" lon="-6.904884176328778">
        <ele>509.1553955078125</ele>
        <time>2016-10-30T10:25:47Z</time>
      </trkpt>
      <trkpt lat="40.221075592562556" lon="-6.90468686632812">
        <ele>509.6361083984375</ele>
        <time>2016-10-30T10:25:52Z</time>
      </trkpt>
      <trkpt lat="40.220948522910476" lon="-6.904490562155843">
        <ele>510.5972900390625</ele>
        <time>2016-10-30T10:25:57Z</time>
      </trkpt>
      <trkpt lat="40.220807958394289" lon="-6.904257796704769">
        <ele>511.0780029296875</ele>
        <time>2016-10-30T10:26:02Z</time>
      </trkpt>
      <trkpt lat="40.220621963962913" lon="-6.904148831963539">
        <ele>511.0780029296875</ele>
        <time>2016-10-30T10:26:07Z</time>
      </trkpt>
      <trkpt lat="40.220432700589299" lon="-6.904088985174894">
        <ele>509.1553955078125</ele>
        <time>2016-10-30T10:26:12Z</time>
      </trkpt>
      <trkpt lat="40.220223655924201" lon="-6.9040472432971">
        <ele>507.2327880859375</ele>
        <time>2016-10-30T10:26:17Z</time>
      </trkpt>
      <trkpt lat="40.219998015090823" lon="-6.904184706509113">
        <ele>502.4261474609375</ele>
        <time>2016-10-30T10:26:22Z</time>
      </trkpt>
      <trkpt lat="40.219856863841414" lon="-6.904210522770882">
        <ele>496.6583251953125</ele>
        <time>2016-10-30T10:26:27Z</time>
      </trkpt>
      <trkpt lat="40.219716383144259" lon="-6.904305405914784">
        <ele>490.890380859375</ele>
        <time>2016-10-30T10:26:32Z</time>
      </trkpt>
      <trkpt lat="40.21952728740871" lon="-6.904395343735814">
        <ele>484.1611328125</ele>
        <time>2016-10-30T10:26:37Z</time>
      </trkpt>
      <trkpt lat="40.219364175572991" lon="-6.90451093018055">
        <ele>483.680419921875</ele>
        <time>2016-10-30T10:26:42Z</time>
      </trkpt>
      <trkpt lat="40.21916669793427" lon="-6.904607238247991">
        <ele>480.796630859375</ele>
        <time>2016-10-30T10:26:47Z</time>
      </trkpt>
      <trkpt lat="40.219055637717247" lon="-6.904667168855667">
        <ele>475.0286865234375</ele>
        <time>2016-10-30T10:26:52Z</time>
      </trkpt>
      <trkpt lat="40.219000987708569" lon="-6.904795411974192">
        <ele>470.221923828125</ele>
        <time>2016-10-30T10:26:57Z</time>
      </trkpt>
      <trkpt lat="40.218880288302898" lon="-6.905102524906397">
        <ele>468.29931640625</ele>
        <time>2016-10-30T10:27:02Z</time>
      </trkpt>
      <trkpt lat="40.218616761267185" lon="-6.905281646177173">
        <ele>470.221923828125</ele>
        <time>2016-10-30T10:27:07Z</time>
      </trkpt>
      <trkpt lat="40.218517770990729" lon="-6.905192630365491">
        <ele>466.376708984375</ele>
        <time>2016-10-30T10:27:12Z</time>
      </trkpt>
      <trkpt lat="40.218444345518947" lon="-6.905169999226928">
        <ele>465.8961181640625</ele>
        <time>2016-10-30T10:27:17Z</time>
      </trkpt>
      <trkpt lat="40.218376200646162" lon="-6.905162120237947">
        <ele>465.8961181640625</ele>
        <time>2016-10-30T10:27:22Z</time>
      </trkpt>
      <trkpt lat="40.218289196491241" lon="-6.905154827982187">
        <ele>465.41552734375</ele>
        <time>2016-10-30T10:27:27Z</time>
      </trkpt>
      <trkpt lat="40.218202024698257" lon="-6.905127754434943">
        <ele>464.934814453125</ele>
        <time>2016-10-30T10:27:32Z</time>
      </trkpt>
      <trkpt lat="40.218150475993752" lon="-6.90511048771441">
        <ele>466.376708984375</ele>
        <time>2016-10-30T10:27:37Z</time>
      </trkpt>
      <trkpt lat="40.218101190403104" lon="-6.905090874060988">
        <ele>467.8187255859375</ele>
        <time>2016-10-30T10:27:42Z</time>
      </trkpt>
      <trkpt lat="40.218032877892256" lon="-6.905068326741457">
        <ele>468.780029296875</ele>
        <time>2016-10-30T10:27:47Z</time>
      </trkpt>
      <trkpt lat="40.217966241762042" lon="-6.905067572370172">
        <ele>468.29931640625</ele>
        <time>2016-10-30T10:27:52Z</time>
      </trkpt>
      <trkpt lat="40.217873118817806" lon="-6.905036307871342">
        <ele>468.29931640625</ele>
        <time>2016-10-30T10:27:57Z</time>
      </trkpt>
      <trkpt lat="40.21780539304018" lon="-6.905043348670006">
        <ele>468.780029296875</ele>
        <time>2016-10-30T10:28:02Z</time>
      </trkpt>
      <trkpt lat="40.217741020023823" lon="-6.905033206567168">
        <ele>470.221923828125</ele>
        <time>2016-10-30T10:28:07Z</time>
      </trkpt>
      <trkpt lat="40.217676311731339" lon="-6.90505625680089">
        <ele>471.183349609375</ele>
        <time>2016-10-30T10:28:12Z</time>
      </trkpt>
      <trkpt lat="40.217601377516985" lon="-6.90509389154613">
        <ele>474.5479736328125</ele>
        <time>2016-10-30T10:28:17Z</time>
      </trkpt>
      <trkpt lat="40.217516720294952" lon="-6.905132699757814">
        <ele>475.9898681640625</ele>
        <time>2016-10-30T10:28:22Z</time>
      </trkpt>
      <trkpt lat="40.217473050579429" lon="-6.905194809660316">
        <ele>476.9512939453125</ele>
        <time>2016-10-30T10:28:27Z</time>
      </trkpt>
      <trkpt lat="40.217430219054222" lon="-6.905253482982516">
        <ele>478.8739013671875</ele>
        <time>2016-10-30T10:28:32Z</time>
      </trkpt>
      <trkpt lat="40.217440277338028" lon="-6.905327327549458">
        <ele>480.796630859375</ele>
        <time>2016-10-30T10:28:37Z</time>
      </trkpt>
      <trkpt lat="40.217452347278595" lon="-6.905408715829253">
        <ele>483.680419921875</ele>
        <time>2016-10-30T10:28:42Z</time>
      </trkpt>
      <trkpt lat="40.217467183247209" lon="-6.905496809631586">
        <ele>486.083740234375</ele>
        <time>2016-10-30T10:28:47Z</time>
      </trkpt>
      <trkpt lat="40.217497358098626" lon="-6.905583143234253">
        <ele>488.0064697265625</ele>
        <time>2016-10-30T10:28:52Z</time>
      </trkpt>
      <trkpt lat="40.217511188238859" lon="-6.905654892325401">
        <ele>491.3709716796875</ele>
        <time>2016-10-30T10:28:57Z</time>
      </trkpt>
      <trkpt lat="40.217559803277254" lon="-6.905738962814212">
        <ele>492.81298828125</ele>
        <time>2016-10-30T10:29:02Z</time>
      </trkpt>
      <trkpt lat="40.217588050290942" lon="-6.905802916735411">
        <ele>494.2550048828125</ele>
        <time>2016-10-30T10:29:07Z</time>
      </trkpt>
      <trkpt lat="40.217612944543362" lon="-6.90586200915277">
        <ele>494.735595703125</ele>
        <time>2016-10-30T10:29:12Z</time>
      </trkpt>
      <trkpt lat="40.217655105516315" lon="-6.905933758243918">
        <ele>494.2550048828125</ele>
        <time>2016-10-30T10:29:17Z</time>
      </trkpt>
      <trkpt lat="40.21770958788693" lon="-6.905982624739409">
        <ele>496.177734375</ele>
        <time>2016-10-30T10:29:22Z</time>
      </trkpt>
      <trkpt lat="40.217743199318647" lon="-6.906027467921376">
        <ele>496.6583251953125</ele>
        <time>2016-10-30T10:29:27Z</time>
      </trkpt>
      <trkpt lat="40.2177819237113" lon="-6.906061246991158">
        <ele>497.138916015625</ele>
        <time>2016-10-30T10:29:32Z</time>
      </trkpt>
      <trkpt lat="40.217833137139678" lon="-6.90614003688097">
        <ele>498.5809326171875</ele>
        <time>2016-10-30T10:29:37Z</time>
      </trkpt>
      <trkpt lat="40.217853169888258" lon="-6.906215976923704">
        <ele>498.100341796875</ele>
        <time>2016-10-30T10:29:42Z</time>
      </trkpt>
      <trkpt lat="40.21785375662148" lon="-6.906292755156755">
        <ele>498.100341796875</ele>
        <time>2016-10-30T10:29:47Z</time>
      </trkpt>
      <trkpt lat="40.217828946188092" lon="-6.906384620815516">
        <ele>498.100341796875</ele>
        <time>2016-10-30T10:29:52Z</time>
      </trkpt>
      <trkpt lat="40.21783129312098" lon="-6.906475648283958">
        <ele>497.61962890625</ele>
        <time>2016-10-30T10:29:57Z</time>
      </trkpt>
      <trkpt lat="40.217818804085255" lon="-6.906560892239213">
        <ele>497.61962890625</ele>
        <time>2016-10-30T10:30:02Z</time>
      </trkpt>
      <trkpt lat="40.217786366119981" lon="-6.906674886122346">
        <ele>497.61962890625</ele>
        <time>2016-10-30T10:30:07Z</time>
      </trkpt>
      <trkpt lat="40.217779325321317" lon="-6.906745713204145">
        <ele>497.138916015625</ele>
        <time>2016-10-30T10:30:12Z</time>
      </trkpt>
      <trkpt lat="40.217772535979748" lon="-6.906828945502639">
        <ele>496.177734375</ele>
        <time>2016-10-30T10:30:17Z</time>
      </trkpt>
      <trkpt lat="40.217753509059548" lon="-6.906937742605805">
        <ele>496.177734375</ele>
        <time>2016-10-30T10:30:22Z</time>
      </trkpt>
      <trkpt lat="40.217721909284592" lon="-6.907065315172076">
        <ele>496.177734375</ele>
        <time>2016-10-30T10:30:27Z</time>
      </trkpt>
      <trkpt lat="40.217714365571737" lon="-6.907178303226829">
        <ele>495.6968994140625</ele>
        <time>2016-10-30T10:30:32Z</time>
      </trkpt>
      <trkpt lat="40.217704139649868" lon="-6.907259607687593">
        <ele>495.2161865234375</ele>
        <time>2016-10-30T10:30:36Z</time>
      </trkpt>
      <trkpt lat="40.217714114114642" lon="-6.907400172203779">
        <ele>493.7742919921875</ele>
        <time>2016-10-30T10:30:42Z</time>
      </trkpt>
      <trkpt lat="40.217694332823157" lon="-6.907611060887575">
        <ele>493.2935791015625</ele>
        <time>2016-10-30T10:30:47Z</time>
      </trkpt>
      <trkpt lat="40.217715622857213" lon="-6.907726982608438">
        <ele>491.8516845703125</ele>
        <time>2016-10-30T10:30:52Z</time>
      </trkpt>
      <trkpt lat="40.217746384441853" lon="-6.907908953726292">
        <ele>491.3709716796875</ele>
        <time>2016-10-30T10:30:57Z</time>
      </trkpt>
      <trkpt lat="40.21763532422483" lon="-6.908109616488218">
        <ele>489.9290771484375</ele>
        <time>2016-10-30T10:31:02Z</time>
      </trkpt>
      <trkpt lat="40.217482438310981" lon="-6.908280691131949">
        <ele>488.9677734375</ele>
        <time>2016-10-30T10:31:07Z</time>
      </trkpt>
      <trkpt lat="40.217376574873924" lon="-6.90838722512126">
        <ele>488.0064697265625</ele>
        <time>2016-10-30T10:31:12Z</time>
      </trkpt>
      <trkpt lat="40.217338940128684" lon="-6.908449837937951">
        <ele>486.564453125</ele>
        <time>2016-10-30T10:31:17Z</time>
      </trkpt>
      <trkpt lat="40.217239782214165" lon="-6.90854899585247">
        <ele>485.1224365234375</ele>
        <time>2016-10-30T10:31:22Z</time>
      </trkpt>
      <trkpt lat="40.217168787494302" lon="-6.908652763813734">
        <ele>483.1998291015625</ele>
        <time>2016-10-30T10:31:27Z</time>
      </trkpt>
      <trkpt lat="40.217204326763749" lon="-6.908852253109217">
        <ele>481.2772216796875</ele>
        <time>2016-10-30T10:31:32Z</time>
      </trkpt>
      <trkpt lat="40.217248415574431" lon="-6.90908694639802">
        <ele>480.796630859375</ele>
        <time>2016-10-30T10:31:37Z</time>
      </trkpt>
      <trkpt lat="40.217202650383115" lon="-6.909318789839745">
        <ele>481.2772216796875</ele>
        <time>2016-10-30T10:31:42Z</time>
      </trkpt>
      <trkpt lat="40.216894363984466" lon="-6.909303786233068">
        <ele>481.7578125</ele>
        <time>2016-10-30T10:31:47Z</time>
      </trkpt>
      <trkpt lat="40.216528745368123" lon="-6.909341420978308">
        <ele>481.7578125</ele>
        <time>2016-10-30T10:31:52Z</time>
      </trkpt>
      <trkpt lat="40.216272762045264" lon="-6.909382995218039">
        <ele>486.564453125</ele>
        <time>2016-10-30T10:31:57Z</time>
      </trkpt>
      <trkpt lat="40.216054329648614" lon="-6.909255255013704">
        <ele>488.4871826171875</ele>
        <time>2016-10-30T10:32:02Z</time>
      </trkpt>
      <trkpt lat="40.21590362302959" lon="-6.9090068154037">
        <ele>491.3709716796875</ele>
        <time>2016-10-30T10:32:07Z</time>
      </trkpt>
      <trkpt lat="40.215739589184523" lon="-6.908844038844109">
        <ele>493.7742919921875</ele>
        <time>2016-10-30T10:32:12Z</time>
      </trkpt>
      <trkpt lat="40.215503806248307" lon="-6.908672209829092">
        <ele>493.2935791015625</ele>
        <time>2016-10-30T10:32:17Z</time>
      </trkpt>
      <trkpt lat="40.215239524841309" lon="-6.908486047759652">
        <ele>494.735595703125</ele>
        <time>2016-10-30T10:32:22Z</time>
      </trkpt>
      <trkpt lat="40.214994605630636" lon="-6.908285720273852">
        <ele>495.2161865234375</ele>
        <time>2016-10-30T10:32:27Z</time>
      </trkpt>
      <trkpt lat="40.214714566245675" lon="-6.908017750829458">
        <ele>493.7742919921875</ele>
        <time>2016-10-30T10:32:32Z</time>
      </trkpt>
      <trkpt lat="40.214444249868393" lon="-6.907792864367366">
        <ele>488.4871826171875</ele>
        <time>2016-10-30T10:32:37Z</time>
      </trkpt>
      <trkpt lat="40.214099753648043" lon="-6.907599493861198">
        <ele>486.083740234375</ele>
        <time>2016-10-30T10:32:42Z</time>
      </trkpt>
      <trkpt lat="40.213668420910835" lon="-6.907461863011122">
        <ele>483.1998291015625</ele>
        <time>2016-10-30T10:32:47Z</time>
      </trkpt>
      <trkpt lat="40.213391985744238" lon="-6.907254159450531">
        <ele>480.796630859375</ele>
        <time>2016-10-30T10:32:52Z</time>
      </trkpt>
      <trkpt lat="40.213187551125884" lon="-6.907102111726999">
        <ele>480.796630859375</ele>
        <time>2016-10-30T10:32:57Z</time>
      </trkpt>
      <trkpt lat="40.213024355471134" lon="-6.907126167789102">
        <ele>480.31591796875</ele>
        <time>2016-10-30T10:33:02Z</time>
      </trkpt>
      <trkpt lat="40.212867865338922" lon="-6.907149720937014">
        <ele>480.31591796875</ele>
        <time>2016-10-30T10:33:07Z</time>
      </trkpt>
      <trkpt lat="40.212754542008042" lon="-6.907139578834176">
        <ele>480.31591796875</ele>
        <time>2016-10-30T10:33:12Z</time>
      </trkpt>
      <trkpt lat="40.212648846209049" lon="-6.907102698460221">
        <ele>480.796630859375</ele>
        <time>2016-10-30T10:33:17Z</time>
      </trkpt>
      <trkpt lat="40.212520603090525" lon="-6.907200179994106">
        <ele>479.3544921875</ele>
        <time>2016-10-30T10:33:22Z</time>
      </trkpt>
      <trkpt lat="40.212359251454473" lon="-6.907105296850205">
        <ele>478.8739013671875</ele>
        <time>2016-10-30T10:33:27Z</time>
      </trkpt>
      <trkpt lat="40.2121626958251" lon="-6.906901532784104">
        <ele>479.3544921875</ele>
        <time>2016-10-30T10:33:32Z</time>
      </trkpt>
      <trkpt lat="40.211954573169351" lon="-6.906786197796464">
        <ele>478.3931884765625</ele>
        <time>2016-10-30T10:33:37Z</time>
      </trkpt>
      <trkpt lat="40.211788024753332" lon="-6.906644040718675">
        <ele>475.9898681640625</ele>
        <time>2016-10-30T10:33:42Z</time>
      </trkpt>
      <trkpt lat="40.211706720292568" lon="-6.906445557251573">
        <ele>476.4705810546875</ele>
        <time>2016-10-30T10:33:47Z</time>
      </trkpt>
      <trkpt lat="40.211671097204089" lon="-6.906293593347073">
        <ele>475.50927734375</ele>
        <time>2016-10-30T10:33:52Z</time>
      </trkpt>
      <trkpt lat="40.211595324799418" lon="-6.906136181205511">
        <ele>475.50927734375</ele>
        <time>2016-10-30T10:33:57Z</time>
      </trkpt>
      <trkpt lat="40.2115289401263" lon="-6.905983630567789">
        <ele>475.50927734375</ele>
        <time>2016-10-30T10:34:02Z</time>
      </trkpt>
      <trkpt lat="40.211444115266204" lon="-6.905846670269966">
        <ele>475.9898681640625</ele>
        <time>2016-10-30T10:34:07Z</time>
      </trkpt>
      <trkpt lat="40.211370103061199" lon="-6.905674757435918">
        <ele>475.50927734375</ele>
        <time>2016-10-30T10:34:12Z</time>
      </trkpt>
      <trkpt lat="40.211325259879231" lon="-6.905482476577163">
        <ele>475.50927734375</ele>
        <time>2016-10-30T10:34:17Z</time>
      </trkpt>
      <trkpt lat="40.211210930719972" lon="-6.905462946742773">
        <ele>474.0672607421875</ele>
        <time>2016-10-30T10:34:22Z</time>
      </trkpt>
      <trkpt lat="40.211075730621815" lon="-6.905620945617557">
        <ele>474.0672607421875</ele>
        <time>2016-10-30T10:34:27Z</time>
      </trkpt>
      <trkpt lat="40.210938770323992" lon="-6.905785314738751">
        <ele>475.50927734375</ele>
        <time>2016-10-30T10:34:32Z</time>
      </trkpt>
      <trkpt lat="40.210832739248872" lon="-6.906018164008856">
        <ele>474.5479736328125</ele>
        <time>2016-10-30T10:34:37Z</time>
      </trkpt>
      <trkpt lat="40.210631908848882" lon="-6.906295185908675">
        <ele>470.221923828125</ele>
        <time>2016-10-30T10:34:42Z</time>
      </trkpt>
      <trkpt lat="40.210317084565759" lon="-6.906566508114338">
        <ele>466.857421875</ele>
        <time>2016-10-30T10:34:47Z</time>
      </trkpt>
      <trkpt lat="40.209956662729383" lon="-6.906735235825181">
        <ele>463.4927978515625</ele>
        <time>2016-10-30T10:34:52Z</time>
      </trkpt>
      <trkpt lat="40.209592385217547" lon="-6.906771780923009">
        <ele>462.05078125</ele>
        <time>2016-10-30T10:34:57Z</time>
      </trkpt>
      <trkpt lat="40.209256438538432" lon="-6.906875967979431">
        <ele>460.128173828125</ele>
        <time>2016-10-30T10:35:02Z</time>
      </trkpt>
      <trkpt lat="40.209005819633603" lon="-6.906640101224184">
        <ele>458.20556640625</ele>
        <time>2016-10-30T10:35:07Z</time>
      </trkpt>
      <trkpt lat="40.208711698651314" lon="-6.906303483992815">
        <ele>456.282958984375</ele>
        <time>2016-10-30T10:35:12Z</time>
      </trkpt>
      <trkpt lat="40.208377009257674" lon="-6.906195776537061">
        <ele>451.95703125</ele>
        <time>2016-10-30T10:35:17Z</time>
      </trkpt>
      <trkpt lat="40.208164947107434" lon="-6.905934847891331">
        <ele>448.11181640625</ele>
        <time>2016-10-30T10:35:22Z</time>
      </trkpt>
      <trkpt lat="40.207933690398932" lon="-6.905624968931079">
        <ele>447.6309814453125</ele>
        <time>2016-10-30T10:35:27Z</time>
      </trkpt>
      <trkpt lat="40.207684077322483" lon="-6.905482895672321">
        <ele>448.11181640625</ele>
        <time>2016-10-30T10:35:32Z</time>
      </trkpt>
      <trkpt lat="40.207530856132507" lon="-6.905348533764482">
        <ele>450.034423828125</ele>
        <time>2016-10-30T10:35:37Z</time>
      </trkpt>
      <trkpt lat="40.207428932189941" lon="-6.905167149379849">
        <ele>451.476318359375</ele>
        <time>2016-10-30T10:35:42Z</time>
      </trkpt>
      <trkpt lat="40.207349387928843" lon="-6.904949052259326">
        <ele>453.879638671875</ele>
        <time>2016-10-30T10:35:47Z</time>
      </trkpt>
      <trkpt lat="40.207202201709151" lon="-6.904685189947486">
        <ele>454.3602294921875</ele>
        <time>2016-10-30T10:35:52Z</time>
      </trkpt>
      <trkpt lat="40.206924676895142" lon="-6.904589217156172">
        <ele>450.99560546875</ele>
        <time>2016-10-30T10:35:57Z</time>
      </trkpt>
      <trkpt lat="40.206752847880125" lon="-6.904730200767517">
        <ele>449.072998046875</ele>
        <time>2016-10-30T10:36:02Z</time>
      </trkpt>
      <trkpt lat="40.206506922841072" lon="-6.904826844111085">
        <ele>444.2664794921875</ele>
        <time>2016-10-30T10:36:07Z</time>
      </trkpt>
      <trkpt lat="40.206286143511534" lon="-6.904887948185206">
        <ele>441.3824462890625</ele>
        <time>2016-10-30T10:36:12Z</time>
      </trkpt>
      <trkpt lat="40.206054802983999" lon="-6.905000265687704">
        <ele>439.9404296875</ele>
        <time>2016-10-30T10:36:17Z</time>
      </trkpt>
      <trkpt lat="40.205923458561301" lon="-6.905055250972509">
        <ele>438.49853515625</ele>
        <time>2016-10-30T10:36:22Z</time>
      </trkpt>
      <trkpt lat="40.205878280103207" lon="-6.905181398615241">
        <ele>438.017822265625</ele>
        <time>2016-10-30T10:36:27Z</time>
      </trkpt>
      <trkpt lat="40.205863192677498" lon="-6.905290447175503">
        <ele>440.4212646484375</ele>
        <time>2016-10-30T10:36:32Z</time>
      </trkpt>
      <trkpt lat="40.205804351717234" lon="-6.905430173501372">
        <ele>439.9404296875</ele>
        <time>2016-10-30T10:36:37Z</time>
      </trkpt>
      <trkpt lat="40.205700164660811" lon="-6.905554980039597">
        <ele>438.49853515625</ele>
        <time>2016-10-30T10:36:42Z</time>
      </trkpt>
      <trkpt lat="40.205621710047126" lon="-6.905776094645262">
        <ele>437.537109375</ele>
        <time>2016-10-30T10:36:47Z</time>
      </trkpt>
      <trkpt lat="40.20553638227284" lon="-6.905969213694334">
        <ele>436.575927734375</ele>
        <time>2016-10-30T10:36:52Z</time>
      </trkpt>
      <trkpt lat="40.205455832183361" lon="-6.906205834820867">
        <ele>436.09521484375</ele>
        <time>2016-10-30T10:36:57Z</time>
      </trkpt>
      <trkpt lat="40.205422304570675" lon="-6.906427787616849">
        <ele>438.017822265625</ele>
        <time>2016-10-30T10:37:02Z</time>
      </trkpt>
      <trkpt lat="40.205344688147306" lon="-6.906578578054905">
        <ele>438.9791259765625</ele>
        <time>2016-10-30T10:37:07Z</time>
      </trkpt>
      <trkpt lat="40.205208146944642" lon="-6.906711347401142">
        <ele>439.459716796875</ele>
        <time>2016-10-30T10:37:12Z</time>
      </trkpt>
      <trkpt lat="40.205060876905918" lon="-6.906864484772086">
        <ele>438.9791259765625</ele>
        <time>2016-10-30T10:37:17Z</time>
      </trkpt>
      <trkpt lat="40.2048269379884" lon="-6.907030697911978">
        <ele>435.1339111328125</ele>
        <time>2016-10-30T10:37:22Z</time>
      </trkpt>
      <trkpt lat="40.204590149223804" lon="-6.907192720100284">
        <ele>434.172607421875</ele>
        <time>2016-10-30T10:37:27Z</time>
      </trkpt>
      <trkpt lat="40.204346487298608" lon="-6.907429341226816">
        <ele>433.2113037109375</ele>
        <time>2016-10-30T10:37:32Z</time>
      </trkpt>
      <trkpt lat="40.204138364642859" lon="-6.907574264332652">
        <ele>431.28857421875</ele>
        <time>2016-10-30T10:37:37Z</time>
      </trkpt>
      <trkpt lat="40.203981287777424" lon="-6.907598320394754">
        <ele>428.4046630859375</ele>
        <time>2016-10-30T10:37:42Z</time>
      </trkpt>
      <trkpt lat="40.203840304166079" lon="-6.907644588500261">
        <ele>426.0013427734375</ele>
        <time>2016-10-30T10:37:47Z</time>
      </trkpt>
      <trkpt lat="40.203678701072931" lon="-6.90778817050159">
        <ele>424.5594482421875</ele>
        <time>2016-10-30T10:37:52Z</time>
      </trkpt>
      <trkpt lat="40.203574178740382" lon="-6.907942816615105">
        <ele>422.63671875</ele>
        <time>2016-10-30T10:37:57Z</time>
      </trkpt>
      <trkpt lat="40.20350662060082" lon="-6.908091763034463">
        <ele>419.7528076171875</ele>
        <time>2016-10-30T10:38:02Z</time>
      </trkpt>
      <trkpt lat="40.203448282554746" lon="-6.908175246790052">
        <ele>417.349609375</ele>
        <time>2016-10-30T10:38:07Z</time>
      </trkpt>
      <trkpt lat="40.203300509601831" lon="-6.908388147130609">
        <ele>413.5042724609375</ele>
        <time>2016-10-30T10:38:12Z</time>
      </trkpt>
      <trkpt lat="40.203120382502675" lon="-6.908621666952968">
        <ele>412.5428466796875</ele>
        <time>2016-10-30T10:38:17Z</time>
      </trkpt>
      <trkpt lat="40.203027008101344" lon="-6.908807326108217">
        <ele>412.5428466796875</ele>
        <time>2016-10-30T10:38:22Z</time>
      </trkpt>
      <trkpt lat="40.202930448576808" lon="-6.908974964171648">
        <ele>413.5042724609375</ele>
        <time>2016-10-30T10:38:27Z</time>
      </trkpt>
      <trkpt lat="40.202848808839917" lon="-6.909122820943594">
        <ele>414.9461669921875</ele>
        <time>2016-10-30T10:38:32Z</time>
      </trkpt>
      <trkpt lat="40.202764822170138" lon="-6.909262128174305">
        <ele>416.38818359375</ele>
        <time>2016-10-30T10:38:37Z</time>
      </trkpt>
      <trkpt lat="40.202671783044934" lon="-6.909440495073795">
        <ele>416.868896484375</ele>
        <time>2016-10-30T10:38:42Z</time>
      </trkpt>
      <trkpt lat="40.20253281109035" lon="-6.909602768719196">
        <ele>416.38818359375</ele>
        <time>2016-10-30T10:38:47Z</time>
      </trkpt>
      <trkpt lat="40.202409764751792" lon="-6.909730173647404">
        <ele>416.868896484375</ele>
        <time>2016-10-30T10:38:52Z</time>
      </trkpt>
      <trkpt lat="40.202262494713068" lon="-6.909866966307163">
        <ele>416.38818359375</ele>
        <time>2016-10-30T10:38:57Z</time>
      </trkpt>
      <trkpt lat="40.202110530808568" lon="-6.910017337650061">
        <ele>415.907470703125</ele>
        <time>2016-10-30T10:39:02Z</time>
      </trkpt>
      <trkpt lat="40.202006176114082" lon="-6.910139881074429">
        <ele>418.79150390625</ele>
        <time>2016-10-30T10:39:07Z</time>
      </trkpt>
      <trkpt lat="40.202005757018924" lon="-6.910313218832016">
        <ele>419.272216796875</ele>
        <time>2016-10-30T10:39:12Z</time>
      </trkpt>
      <trkpt lat="40.20199335180223" lon="-6.910504242405295">
        <ele>419.7528076171875</ele>
        <time>2016-10-30T10:39:17Z</time>
      </trkpt>
      <trkpt lat="40.201936773955822" lon="-6.910634832456708">
        <ele>422.63671875</ele>
        <time>2016-10-30T10:39:22Z</time>
      </trkpt>
      <trkpt lat="40.201890924945474" lon="-6.910718819126487">
        <ele>422.63671875</ele>
        <time>2016-10-30T10:39:27Z</time>
      </trkpt>
      <trkpt lat="40.201833760365844" lon="-6.910789478570223">
        <ele>422.156005859375</ele>
        <time>2016-10-30T10:39:32Z</time>
      </trkpt>
      <trkpt lat="40.201792186126113" lon="-6.910865250974894">
        <ele>423.5980224609375</ele>
        <time>2016-10-30T10:39:37Z</time>
      </trkpt>
      <trkpt lat="40.201745079830289" lon="-6.91094571724534">
        <ele>424.5594482421875</ele>
        <time>2016-10-30T10:39:42Z</time>
      </trkpt>
      <trkpt lat="40.201684478670359" lon="-6.91102878190577">
        <ele>424.5594482421875</ele>
        <time>2016-10-30T10:39:47Z</time>
      </trkpt>
      <trkpt lat="40.201622117310762" lon="-6.911115786060691">
        <ele>425.520751953125</ele>
        <time>2016-10-30T10:39:52Z</time>
      </trkpt>
      <trkpt lat="40.201561180874705" lon="-6.911190887913108">
        <ele>426.0013427734375</ele>
        <time>2016-10-30T10:39:57Z</time>
      </trkpt>
      <trkpt lat="40.201480630785227" lon="-6.91127747297287">
        <ele>425.520751953125</ele>
        <time>2016-10-30T10:40:02Z</time>
      </trkpt>
      <trkpt lat="40.201399074867368" lon="-6.911359783262014">
        <ele>426.4820556640625</ele>
        <time>2016-10-30T10:40:07Z</time>
      </trkpt>
      <trkpt lat="40.201337886974216" lon="-6.91144309937954">
        <ele>427.443359375</ele>
        <time>2016-10-30T10:40:12Z</time>
      </trkpt>
      <trkpt lat="40.201256331056356" lon="-6.911534210667014">
        <ele>427.9239501953125</ele>
        <time>2016-10-30T10:40:17Z</time>
      </trkpt>
      <trkpt lat="40.201163711026311" lon="-6.91161367110908">
        <ele>428.8853759765625</ele>
        <time>2016-10-30T10:40:22Z</time>
      </trkpt>
      <trkpt lat="40.201065139845014" lon="-6.911700675264001">
        <ele>428.8853759765625</ele>
        <time>2016-10-30T10:40:27Z</time>
      </trkpt>
      <trkpt lat="40.20095793530345" lon="-6.911789691075683">
        <ele>427.9239501953125</ele>
        <time>2016-10-30T10:40:32Z</time>
      </trkpt>
      <trkpt lat="40.200865482911468" lon="-6.911904606968164">
        <ele>427.9239501953125</ele>
        <time>2016-10-30T10:40:37Z</time>
      </trkpt>
      <trkpt lat="40.200784932821989" lon="-6.912014409899712">
        <ele>427.9239501953125</ele>
        <time>2016-10-30T10:40:42Z</time>
      </trkpt>
      <trkpt lat="40.200707567855716" lon="-6.91213846206665">
        <ele>427.443359375</ele>
        <time>2016-10-30T10:40:47Z</time>
      </trkpt>
      <trkpt lat="40.200632382184267" lon="-6.912265531718731">
        <ele>428.8853759765625</ele>
        <time>2016-10-30T10:40:52Z</time>
      </trkpt>
      <trkpt lat="40.200550239533186" lon="-6.912389164790511">
        <ele>430.3272705078125</ele>
        <time>2016-10-30T10:40:57Z</time>
      </trkpt>
      <trkpt lat="40.200458457693458" lon="-6.912493100389838">
        <ele>433.2113037109375</ele>
        <time>2016-10-30T10:41:02Z</time>
      </trkpt>
      <trkpt lat="40.200369358062744" lon="-6.912560407072306">
        <ele>434.6533203125</ele>
        <time>2016-10-30T10:41:07Z</time>
      </trkpt>
      <trkpt lat="40.200261482968926" lon="-6.912642633542419">
        <ele>435.614501953125</ele>
        <time>2016-10-30T10:41:12Z</time>
      </trkpt>
      <trkpt lat="40.200151009485126" lon="-6.912748077884316">
        <ele>435.1339111328125</ele>
        <time>2016-10-30T10:41:18Z</time>
      </trkpt>
      <trkpt lat="40.200041960924864" lon="-6.912853270769119">
        <ele>436.09521484375</ele>
        <time>2016-10-30T10:41:24Z</time>
      </trkpt>
      <trkpt lat="40.199938025325537" lon="-6.912945806980133">
        <ele>437.0565185546875</ele>
        <time>2016-10-30T10:41:29Z</time>
      </trkpt>
      <trkpt lat="40.199867533519864" lon="-6.913055777549744">
        <ele>438.9791259765625</ele>
        <time>2016-10-30T10:41:34Z</time>
      </trkpt>
      <trkpt lat="40.199767453595996" lon="-6.91316700540483">
        <ele>438.9791259765625</ele>
        <time>2016-10-30T10:41:39Z</time>
      </trkpt>
      <trkpt lat="40.199595373123884" lon="-6.913338415324688">
        <ele>438.017822265625</ele>
        <time>2016-10-30T10:41:44Z</time>
      </trkpt>
      <trkpt lat="40.199431423097849" lon="-6.91350756213069">
        <ele>437.537109375</ele>
        <time>2016-10-30T10:41:49Z</time>
      </trkpt>
      <trkpt lat="40.199250290170312" lon="-6.913672098889947">
        <ele>437.0565185546875</ele>
        <time>2016-10-30T10:41:54Z</time>
      </trkpt>
      <trkpt lat="40.199072174727917" lon="-6.913808640092611">
        <ele>438.49853515625</ele>
        <time>2016-10-30T10:41:59Z</time>
      </trkpt>
      <trkpt lat="40.198917025700212" lon="-6.91397468559444">
        <ele>438.9791259765625</ele>
        <time>2016-10-30T10:42:04Z</time>
      </trkpt>
      <trkpt lat="40.198778305202723" lon="-6.914141988381743">
        <ele>439.459716796875</ele>
        <time>2016-10-30T10:42:09Z</time>
      </trkpt>
      <trkpt lat="40.198664395138621" lon="-6.914297137409449">
        <ele>439.9404296875</ele>
        <time>2016-10-30T10:42:14Z</time>
      </trkpt>
      <trkpt lat="40.198578145354986" lon="-6.914406521245837">
        <ele>441.3824462890625</ele>
        <time>2016-10-30T10:42:19Z</time>
      </trkpt>
      <trkpt lat="40.198493236675858" lon="-6.914484556764364">
        <ele>441.8631591796875</ele>
        <time>2016-10-30T10:42:24Z</time>
      </trkpt>
      <trkpt lat="40.198389384895563" lon="-6.914587486535311">
        <ele>442.824462890625</ele>
        <time>2016-10-30T10:42:29Z</time>
      </trkpt>
      <trkpt lat="40.198302883654833" lon="-6.914675664156675">
        <ele>444.7470703125</ele>
        <time>2016-10-30T10:42:34Z</time>
      </trkpt>
      <trkpt lat="40.198199283331633" lon="-6.91473450511694">
        <ele>444.7470703125</ele>
        <time>2016-10-30T10:42:39Z</time>
      </trkpt>
      <trkpt lat="40.198041787371039" lon="-6.91475453786552">
        <ele>443.3050537109375</ele>
        <time>2016-10-30T10:42:44Z</time>
      </trkpt>
      <trkpt lat="40.197828970849514" lon="-6.91483567468822">
        <ele>439.9404296875</ele>
        <time>2016-10-30T10:42:49Z</time>
      </trkpt>
      <trkpt lat="40.197619423270226" lon="-6.914941873401403">
        <ele>440.90185546875</ele>
        <time>2016-10-30T10:42:54Z</time>
      </trkpt>
      <trkpt lat="40.197442816570401" lon="-6.914978250861168">
        <ele>443.3050537109375</ele>
        <time>2016-10-30T10:42:59Z</time>
      </trkpt>
      <trkpt lat="40.197280207648873" lon="-6.915014963597059">
        <ele>443.7857666015625</ele>
        <time>2016-10-30T10:43:04Z</time>
      </trkpt>
      <trkpt lat="40.19710024818778" lon="-6.915125353261828">
        <ele>444.2664794921875</ele>
        <time>2016-10-30T10:43:09Z</time>
      </trkpt>
      <trkpt lat="40.19693118520081" lon="-6.915253093466163">
        <ele>443.7857666015625</ele>
        <time>2016-10-30T10:43:14Z</time>
      </trkpt>
      <trkpt lat="40.196779556572437" lon="-6.915386784821749">
        <ele>444.2664794921875</ele>
        <time>2016-10-30T10:43:19Z</time>
      </trkpt>
      <trkpt lat="40.19665215164423" lon="-6.915419809520245">
        <ele>444.2664794921875</ele>
        <time>2016-10-30T10:43:24Z</time>
      </trkpt>
      <trkpt lat="40.196562549099326" lon="-6.915416792035103">
        <ele>446.1890869140625</ele>
        <time>2016-10-30T10:43:29Z</time>
      </trkpt>
      <trkpt lat="40.196487950161099" lon="-6.915428610518575">
        <ele>446.669677734375</ele>
        <time>2016-10-30T10:43:34Z</time>
      </trkpt>
      <trkpt lat="40.196427097544074" lon="-6.915443781763315">
        <ele>447.1502685546875</ele>
        <time>2016-10-30T10:43:39Z</time>
      </trkpt>
      <trkpt lat="40.196371022611856" lon="-6.915451241657138">
        <ele>449.5537109375</ele>
        <time>2016-10-30T10:43:44Z</time>
      </trkpt>
      <trkpt lat="40.196300866082311" lon="-6.915483009070158">
        <ele>449.5537109375</ele>
        <time>2016-10-30T10:43:49Z</time>
      </trkpt>
      <trkpt lat="40.196222411468625" lon="-6.915506478399038">
        <ele>450.034423828125</ele>
        <time>2016-10-30T10:43:54Z</time>
      </trkpt>
      <trkpt lat="40.196145381778479" lon="-6.915533887222409">
        <ele>450.5150146484375</ele>
        <time>2016-10-30T10:43:59Z</time>
      </trkpt>
      <trkpt lat="40.196079164743423" lon="-6.915560625493527">
        <ele>451.95703125</ele>
        <time>2016-10-30T10:44:04Z</time>
      </trkpt>
      <trkpt lat="40.195995764806867" lon="-6.915579317137599">
        <ele>452.4376220703125</ele>
        <time>2016-10-30T10:44:09Z</time>
      </trkpt>
      <trkpt lat="40.195910939946771" lon="-6.91559448838234">
        <ele>454.3602294921875</ele>
        <time>2016-10-30T10:44:14Z</time>
      </trkpt>
      <trkpt lat="40.195794431492686" lon="-6.915650479495525">
        <ele>454.8408203125</ele>
        <time>2016-10-30T10:44:19Z</time>
      </trkpt>
      <trkpt lat="40.195647915825248" lon="-6.915748463943601">
        <ele>453.39892578125</ele>
        <time>2016-10-30T10:44:24Z</time>
      </trkpt>
      <trkpt lat="40.19550634548068" lon="-6.915876623243094">
        <ele>450.99560546875</ele>
        <time>2016-10-30T10:44:29Z</time>
      </trkpt>
      <trkpt lat="40.195374162867665" lon="-6.916093295440078">
        <ele>449.5537109375</ele>
        <time>2016-10-30T10:44:34Z</time>
      </trkpt>
      <trkpt lat="40.195175176486373" lon="-6.916346931830049">
        <ele>446.1890869140625</ele>
        <time>2016-10-30T10:44:39Z</time>
      </trkpt>
      <trkpt lat="40.194943165406585" lon="-6.916641471907497">
        <ele>442.824462890625</ele>
        <time>2016-10-30T10:44:44Z</time>
      </trkpt>
      <trkpt lat="40.194625994190574" lon="-6.916941208764911">
        <ele>438.9791259765625</ele>
        <time>2016-10-30T10:44:49Z</time>
      </trkpt>
      <trkpt lat="40.19425199367106" lon="-6.917218146845698">
        <ele>437.0565185546875</ele>
        <time>2016-10-30T10:44:54Z</time>
      </trkpt>
      <trkpt lat="40.193935744464397" lon="-6.917535569518805">
        <ele>436.575927734375</ele>
        <time>2016-10-30T10:44:59Z</time>
      </trkpt>
      <trkpt lat="40.193720329552889" lon="-6.91788274794817">
        <ele>432.730712890625</ele>
        <time>2016-10-30T10:45:04Z</time>
      </trkpt>
      <trkpt lat="40.193626200780272" lon="-6.918296059593558">
        <ele>431.28857421875</ele>
        <time>2016-10-30T10:45:09Z</time>
      </trkpt>
      <trkpt lat="40.193617986515164" lon="-6.918729655444622">
        <ele>428.8853759765625</ele>
        <time>2016-10-30T10:45:14Z</time>
      </trkpt>
      <trkpt lat="40.193472476676106" lon="-6.918984716758132">
        <ele>429.365966796875</ele>
        <time>2016-10-30T10:45:19Z</time>
      </trkpt>
      <trkpt lat="40.193353956565261" lon="-6.919136345386505">
        <ele>428.4046630859375</ele>
        <time>2016-10-30T10:45:24Z</time>
      </trkpt>
      <trkpt lat="40.193282794207335" lon="-6.919272802770138">
        <ele>428.4046630859375</ele>
        <time>2016-10-30T10:45:29Z</time>
      </trkpt>
      <trkpt lat="40.193256977945566" lon="-6.919366931542754">
        <ele>429.8465576171875</ele>
        <time>2016-10-30T10:45:34Z</time>
      </trkpt>
      <trkpt lat="40.193221606314182" lon="-6.919459467753768">
        <ele>430.3272705078125</ele>
        <time>2016-10-30T10:45:39Z</time>
      </trkpt>
      <trkpt lat="40.193183301016688" lon="-6.919573629274964">
        <ele>431.7691650390625</ele>
        <time>2016-10-30T10:45:44Z</time>
      </trkpt>
      <trkpt lat="40.193150863051414" lon="-6.919670188799501">
        <ele>431.7691650390625</ele>
        <time>2016-10-30T10:45:49Z</time>
      </trkpt>
      <trkpt lat="40.193095458671451" lon="-6.919788122177124">
        <ele>431.7691650390625</ele>
        <time>2016-10-30T10:45:54Z</time>
      </trkpt>
      <trkpt lat="40.193022703751922" lon="-6.919937068596482">
        <ele>431.28857421875</ele>
        <time>2016-10-30T10:45:59Z</time>
      </trkpt>
      <trkpt lat="40.192931424826384" lon="-6.920046368613839">
        <ele>431.7691650390625</ele>
        <time>2016-10-30T10:46:04Z</time>
      </trkpt>
      <trkpt lat="40.192841487005353" lon="-6.920143095776439">
        <ele>431.28857421875</ele>
        <time>2016-10-30T10:46:09Z</time>
      </trkpt>
      <trkpt lat="40.192755740135908" lon="-6.920262621715665">
        <ele>433.2113037109375</ele>
        <time>2016-10-30T10:46:14Z</time>
      </trkpt>
      <trkpt lat="40.192659599706531" lon="-6.920382818207145">
        <ele>434.6533203125</ele>
        <time>2016-10-30T10:46:19Z</time>
      </trkpt>
      <trkpt lat="40.192559016868472" lon="-6.920504523441196">
        <ele>434.6533203125</ele>
        <time>2016-10-30T10:46:24Z</time>
      </trkpt>
      <trkpt lat="40.192441083490849" lon="-6.920624133199453">
        <ele>435.1339111328125</ele>
        <time>2016-10-30T10:46:29Z</time>
      </trkpt>
      <trkpt lat="40.192306386306882" lon="-6.920625139027834">
        <ele>434.6533203125</ele>
        <time>2016-10-30T10:46:34Z</time>
      </trkpt>
      <trkpt lat="40.192181244492531" lon="-6.920621870085597">
        <ele>433.2113037109375</ele>
        <time>2016-10-30T10:46:39Z</time>
      </trkpt>
      <trkpt lat="40.192087953910232" lon="-6.920727901160717">
        <ele>433.69189453125</ele>
        <time>2016-10-30T10:46:44Z</time>
      </trkpt>
      <trkpt lat="40.192042775452137" lon="-6.920862263068557">
        <ele>433.69189453125</ele>
        <time>2016-10-30T10:46:49Z</time>
      </trkpt>
      <trkpt lat="40.191980330273509" lon="-6.920995954424143">
        <ele>435.614501953125</ele>
        <time>2016-10-30T10:46:54Z</time>
      </trkpt>
      <trkpt lat="40.191919477656484" lon="-6.921102069318295">
        <ele>436.09521484375</ele>
        <time>2016-10-30T10:46:59Z</time>
      </trkpt>
      <trkpt lat="40.191861055791378" lon="-6.92121664993465">
        <ele>438.017822265625</ele>
        <time>2016-10-30T10:47:04Z</time>
      </trkpt>
      <trkpt lat="40.191792659461498" lon="-6.921337097883225">
        <ele>438.49853515625</ele>
        <time>2016-10-30T10:47:09Z</time>
      </trkpt>
      <trkpt lat="40.191714791581035" lon="-6.921450840309262">
        <ele>438.017822265625</ele>
        <time>2016-10-30T10:47:14Z</time>
      </trkpt>
      <trkpt lat="40.191627535969019" lon="-6.921547818928957">
        <ele>438.9791259765625</ele>
        <time>2016-10-30T10:47:19Z</time>
      </trkpt>
      <trkpt lat="40.19153818488121" lon="-6.921650832518935">
        <ele>440.4212646484375</ele>
        <time>2016-10-30T10:47:24Z</time>
      </trkpt>
      <trkpt lat="40.191450426355004" lon="-6.921755271032453">
        <ele>441.3824462890625</ele>
        <time>2016-10-30T10:47:29Z</time>
      </trkpt>
      <trkpt lat="40.191356716677547" lon="-6.921869181096554">
        <ele>441.3824462890625</ele>
        <time>2016-10-30T10:47:34Z</time>
      </trkpt>
      <trkpt lat="40.191264180466533" lon="-6.921969847753644">
        <ele>441.3824462890625</ele>
        <time>2016-10-30T10:47:39Z</time>
      </trkpt>
      <trkpt lat="40.191199472174048" lon="-6.922077303752303">
        <ele>443.3050537109375</ele>
        <time>2016-10-30T10:47:44Z</time>
      </trkpt>
      <trkpt lat="40.191156808286905" lon="-6.922193057835102">
        <ele>443.7857666015625</ele>
        <time>2016-10-30T10:47:49Z</time>
      </trkpt>
      <trkpt lat="40.191103247925639" lon="-6.922305626794696">
        <ele>445.2276611328125</ele>
        <time>2016-10-30T10:47:54Z</time>
      </trkpt>
      <trkpt lat="40.191025296226144" lon="-6.922428673133254">
        <ele>447.6309814453125</ele>
        <time>2016-10-30T10:47:59Z</time>
      </trkpt>
      <trkpt lat="40.190917253494263" lon="-6.922531602904201">
        <ele>448.11181640625</ele>
        <time>2016-10-30T10:48:04Z</time>
      </trkpt>
      <trkpt lat="40.190819688141346" lon="-6.922591449692845">
        <ele>449.072998046875</ele>
        <time>2016-10-30T10:48:09Z</time>
      </trkpt>
      <trkpt lat="40.190743915736675" lon="-6.922678872942925">
        <ele>450.5150146484375</ele>
        <time>2016-10-30T10:48:14Z</time>
      </trkpt>
      <trkpt lat="40.190652469173074" lon="-6.922797644510865">
        <ele>450.034423828125</ele>
        <time>2016-10-30T10:48:19Z</time>
      </trkpt>
      <trkpt lat="40.190550126135349" lon="-6.92291222512722">
        <ele>450.034423828125</ele>
        <time>2016-10-30T10:48:24Z</time>
      </trkpt>
      <trkpt lat="40.190437054261565" lon="-6.923000989481807">
        <ele>450.5150146484375</ele>
        <time>2016-10-30T10:48:29Z</time>
      </trkpt>
      <trkpt lat="40.190334878861904" lon="-6.923069721087813">
        <ele>451.476318359375</ele>
        <time>2016-10-30T10:48:34Z</time>
      </trkpt>
      <trkpt lat="40.190240917727351" lon="-6.923119341954589">
        <ele>452.4376220703125</ele>
        <time>2016-10-30T10:48:39Z</time>
      </trkpt>
      <trkpt lat="40.190195236355066" lon="-6.923023201525211">
        <ele>452.918212890625</ele>
        <time>2016-10-30T10:48:44Z</time>
      </trkpt>
      <trkpt lat="40.190197248011827" lon="-6.92284818738699">
        <ele>455.321533203125</ele>
        <time>2016-10-30T10:48:49Z</time>
      </trkpt>
      <trkpt lat="40.190200265496969" lon="-6.922660768032074">
        <ele>457.2442626953125</ele>
        <time>2016-10-30T10:48:54Z</time>
      </trkpt>
      <trkpt lat="40.190226836130023" lon="-6.922442670911551">
        <ele>456.7635498046875</ele>
        <time>2016-10-30T10:48:59Z</time>
      </trkpt>
      <trkpt lat="40.190225662663579" lon="-6.922221891582012">
        <ele>456.282958984375</ele>
        <time>2016-10-30T10:49:04Z</time>
      </trkpt>
      <trkpt lat="40.190168414264917" lon="-6.92195744253695">
        <ele>454.8408203125</ele>
        <time>2016-10-30T10:49:09Z</time>
      </trkpt>
      <trkpt lat="40.190077554434538" lon="-6.921547567471862">
        <ele>452.4376220703125</ele>
        <time>2016-10-30T10:49:14Z</time>
      </trkpt>
      <trkpt lat="40.18987731076777" lon="-6.921235676854849">
        <ele>450.5150146484375</ele>
        <time>2016-10-30T10:49:19Z</time>
      </trkpt>
      <trkpt lat="40.189576735720038" lon="-6.921350592747331">
        <ele>448.11181640625</ele>
        <time>2016-10-30T10:49:24Z</time>
      </trkpt>
      <trkpt lat="40.189251517876983" lon="-6.921613868325949">
        <ele>445.2276611328125</ele>
        <time>2016-10-30T10:49:29Z</time>
      </trkpt>
      <trkpt lat="40.189281944185495" lon="-6.921884939074516">
        <ele>447.6309814453125</ele>
        <time>2016-10-30T10:49:34Z</time>
      </trkpt>
      <trkpt lat="40.18930172547698" lon="-6.921993233263493">
        <ele>447.6309814453125</ele>
        <time>2016-10-30T10:49:39Z</time>
      </trkpt>
      <trkpt lat="40.189297199249268" lon="-6.922095911577344">
        <ele>447.6309814453125</ele>
        <time>2016-10-30T10:49:44Z</time>
      </trkpt>
      <trkpt lat="40.189285632222891" lon="-6.922186687588692">
        <ele>447.1502685546875</ele>
        <time>2016-10-30T10:49:49Z</time>
      </trkpt>
      <trkpt lat="40.189269287511706" lon="-6.922287857159972">
        <ele>447.1502685546875</ele>
        <time>2016-10-30T10:49:54Z</time>
      </trkpt>
      <trkpt lat="40.189232742413878" lon="-6.922400258481503">
        <ele>448.11181640625</ele>
        <time>2016-10-30T10:49:59Z</time>
      </trkpt>
      <trkpt lat="40.189194185659289" lon="-6.922489609569311">
        <ele>450.034423828125</ele>
        <time>2016-10-30T10:50:04Z</time>
      </trkpt>
      <trkpt lat="40.189141966402531" lon="-6.922575440257788">
        <ele>450.5150146484375</ele>
        <time>2016-10-30T10:50:09Z</time>
      </trkpt>
      <trkpt lat="40.189067786559463" lon="-6.92267426289618">
        <ele>451.476318359375</ele>
        <time>2016-10-30T10:50:14Z</time>
      </trkpt>
      <trkpt lat="40.189008191227913" lon="-6.922758081927896">
        <ele>452.918212890625</ele>
        <time>2016-10-30T10:50:19Z</time>
      </trkpt>
      <trkpt lat="40.188946332782507" lon="-6.922845421358943">
        <ele>453.879638671875</ele>
        <time>2016-10-30T10:50:24Z</time>
      </trkpt>
      <trkpt lat="40.188886318355799" lon="-6.92294642329216">
        <ele>455.321533203125</ele>
        <time>2016-10-30T10:50:29Z</time>
      </trkpt>
      <trkpt lat="40.188839631155133" lon="-6.923025045543909">
        <ele>455.321533203125</ele>
        <time>2016-10-30T10:50:34Z</time>
      </trkpt>
      <trkpt lat="40.18879160284996" lon="-6.92309201695025">
        <ele>455.80224609375</ele>
        <time>2016-10-30T10:50:39Z</time>
      </trkpt>
      <trkpt lat="40.188752375543118" lon="-6.923157898709178">
        <ele>457.7249755859375</ele>
        <time>2016-10-30T10:50:44Z</time>
      </trkpt>
      <trkpt lat="40.188689678907394" lon="-6.923247585073113">
        <ele>459.1668701171875</ele>
        <time>2016-10-30T10:50:49Z</time>
      </trkpt>
      <trkpt lat="40.188622204586864" lon="-6.923334840685129">
        <ele>458.6861572265625</ele>
        <time>2016-10-30T10:50:54Z</time>
      </trkpt>
      <trkpt lat="40.188548611477017" lon="-6.923410529270768">
        <ele>458.20556640625</ele>
        <time>2016-10-30T10:50:59Z</time>
      </trkpt>
      <trkpt lat="40.188435539603233" lon="-6.923495857045054">
        <ele>457.2442626953125</ele>
        <time>2016-10-30T10:51:04Z</time>
      </trkpt>
      <trkpt lat="40.188334370031953" lon="-6.92354304715991">
        <ele>457.7249755859375</ele>
        <time>2016-10-30T10:51:09Z</time>
      </trkpt>
      <trkpt lat="40.188188692554832" lon="-6.923572216182947">
        <ele>457.7249755859375</ele>
        <time>2016-10-30T10:51:14Z</time>
      </trkpt>
      <trkpt lat="40.187926338985562" lon="-6.923514381051064">
        <ele>456.282958984375</ele>
        <time>2016-10-30T10:51:19Z</time>
      </trkpt>
      <trkpt lat="40.187601624056697" lon="-6.923590740188956">
        <ele>454.8408203125</ele>
        <time>2016-10-30T10:51:24Z</time>
      </trkpt>
      <trkpt lat="40.187275232747197" lon="-6.923658717423677">
        <ele>452.4376220703125</ele>
        <time>2016-10-30T10:51:29Z</time>
      </trkpt>
      <trkpt lat="40.186927216127515" lon="-6.923625525087118">
        <ele>450.5150146484375</ele>
        <time>2016-10-30T10:51:34Z</time>
      </trkpt>
      <trkpt lat="40.186531422659755" lon="-6.923587722703815">
        <ele>449.5537109375</ele>
        <time>2016-10-30T10:51:39Z</time>
      </trkpt>
      <trkpt lat="40.186160104349256" lon="-6.923438021913171">
        <ele>448.5924072265625</ele>
        <time>2016-10-30T10:51:44Z</time>
      </trkpt>
      <trkpt lat="40.185772776603699" lon="-6.923355208709836">
        <ele>447.1502685546875</ele>
        <time>2016-10-30T10:51:49Z</time>
      </trkpt>
      <trkpt lat="40.185403972864151" lon="-6.923300642520189">
        <ele>446.1890869140625</ele>
        <time>2016-10-30T10:51:54Z</time>
      </trkpt>
      <trkpt lat="40.185061655938625" lon="-6.92324984818697">
        <ele>443.7857666015625</ele>
        <time>2016-10-30T10:51:59Z</time>
      </trkpt>
      <trkpt lat="40.184941291809082" lon="-6.923232078552246">
        <ele>442.824462890625</ele>
        <time>2016-10-30T10:52:02Z</time>
      </trkpt>
      <trkpt lat="40.184491099789739" lon="-6.923455288633704">
        <ele>439.9404296875</ele>
        <time>2016-10-30T10:52:08Z</time>
      </trkpt>
      <trkpt lat="40.184260429814458" lon="-6.923446655273438">
        <ele>441.8631591796875</ele>
        <time>2016-10-30T10:52:14Z</time>
      </trkpt>
      <trkpt lat="40.184072926640511" lon="-6.923439614474773">
        <ele>444.2664794921875</ele>
        <time>2016-10-30T10:52:19Z</time>
      </trkpt>
      <trkpt lat="40.183913754299283" lon="-6.923328218981624">
        <ele>445.2276611328125</ele>
        <time>2016-10-30T10:52:24Z</time>
      </trkpt>
      <trkpt lat="40.183740919455886" lon="-6.923207184299827">
        <ele>445.7083740234375</ele>
        <time>2016-10-30T10:52:29Z</time>
      </trkpt>
      <trkpt lat="40.183536736294627" lon="-6.923175668343902">
        <ele>444.2664794921875</ele>
        <time>2016-10-30T10:52:34Z</time>
      </trkpt>
      <trkpt lat="40.183304054662585" lon="-6.92323375493288">
        <ele>444.2664794921875</ele>
        <time>2016-10-30T10:52:39Z</time>
      </trkpt>
      <trkpt lat="40.183096518740058" lon="-6.923274993896484">
        <ele>445.7083740234375</ele>
        <time>2016-10-30T10:52:44Z</time>
      </trkpt>
      <trkpt lat="40.182914799079299" lon="-6.923274993896484">
        <ele>448.5924072265625</ele>
        <time>2016-10-30T10:52:49Z</time>
      </trkpt>
      <trkpt lat="40.182766020298004" lon="-6.923274993896484">
        <ele>449.5537109375</ele>
        <time>2016-10-30T10:52:54Z</time>
      </trkpt>
      <trkpt lat="40.182627802714705" lon="-6.923247668892145">
        <ele>449.5537109375</ele>
        <time>2016-10-30T10:52:59Z</time>
      </trkpt>
      <trkpt lat="40.182414734736085" lon="-6.923176590353251">
        <ele>447.1502685546875</ele>
        <time>2016-10-30T10:53:04Z</time>
      </trkpt>
      <trkpt lat="40.182152045890689" lon="-6.92308908328414">
        <ele>447.6309814453125</ele>
        <time>2016-10-30T10:53:09Z</time>
      </trkpt>
      <trkpt lat="40.181901175528765" lon="-6.923005431890488">
        <ele>446.669677734375</ele>
        <time>2016-10-30T10:53:14Z</time>
      </trkpt>
      <trkpt lat="40.181686514988542" lon="-6.922933850437403">
        <ele>448.11181640625</ele>
        <time>2016-10-30T10:53:19Z</time>
      </trkpt>
      <trkpt lat="40.181507728993893" lon="-6.922783143818378">
        <ele>448.5924072265625</ele>
        <time>2016-10-30T10:53:24Z</time>
      </trkpt>
      <trkpt lat="40.181327182799578" lon="-6.922627156600356">
        <ele>448.11181640625</ele>
        <time>2016-10-30T10:53:29Z</time>
      </trkpt>
      <trkpt lat="40.18113817088306" lon="-6.922463877126575">
        <ele>447.6309814453125</ele>
        <time>2016-10-30T10:53:34Z</time>
      </trkpt>
      <trkpt lat="40.180954607203603" lon="-6.922305375337601">
        <ele>448.11181640625</ele>
        <time>2016-10-30T10:53:39Z</time>
      </trkpt>
      <trkpt lat="40.180773893371224" lon="-6.922149220481515">
        <ele>449.072998046875</ele>
        <time>2016-10-30T10:53:44Z</time>
      </trkpt>
      <trkpt lat="40.180593514814973" lon="-6.921974206343293">
        <ele>449.072998046875</ele>
        <time>2016-10-30T10:53:49Z</time>
      </trkpt>
      <trkpt lat="40.18041162751615" lon="-6.921792235225439">
        <ele>448.5924072265625</ele>
        <time>2016-10-30T10:53:54Z</time>
      </trkpt>
      <trkpt lat="40.180243235081434" lon="-6.921593500301242">
        <ele>448.5924072265625</ele>
        <time>2016-10-30T10:53:59Z</time>
      </trkpt>
      <trkpt lat="40.180126139894128" lon="-6.921300888061523">
        <ele>450.034423828125</ele>
        <time>2016-10-30T10:54:04Z</time>
      </trkpt>
      <trkpt lat="40.179976774379611" lon="-6.921073403209448">
        <ele>451.476318359375</ele>
        <time>2016-10-30T10:54:09Z</time>
      </trkpt>
      <trkpt lat="40.179807376116514" lon="-6.920864945277572">
        <ele>451.476318359375</ele>
        <time>2016-10-30T10:54:14Z</time>
      </trkpt>
      <trkpt lat="40.179628590121865" lon="-6.920644752681255">
        <ele>449.5537109375</ele>
        <time>2016-10-30T10:54:19Z</time>
      </trkpt>
      <trkpt lat="40.179438907653093" lon="-6.920474097132683">
        <ele>449.072998046875</ele>
        <time>2016-10-30T10:54:24Z</time>
      </trkpt>
      <trkpt lat="40.179193150252104" lon="-6.920349961146712">
        <ele>449.072998046875</ele>
        <time>2016-10-30T10:54:29Z</time>
      </trkpt>
      <trkpt lat="40.178941693156958" lon="-6.920308051630855">
        <ele>449.072998046875</ele>
        <time>2016-10-30T10:54:34Z</time>
      </trkpt>
      <trkpt lat="40.178705742582679" lon="-6.920268656685948">
        <ele>448.5924072265625</ele>
        <time>2016-10-30T10:54:39Z</time>
      </trkpt>
      <trkpt lat="40.178492004051805" lon="-6.920233117416501">
        <ele>448.5924072265625</ele>
        <time>2016-10-30T10:54:44Z</time>
      </trkpt>
      <trkpt lat="40.178356720134616" lon="-6.920078890398145">
        <ele>449.5537109375</ele>
        <time>2016-10-30T10:54:49Z</time>
      </trkpt>
      <trkpt lat="40.178255634382367" lon="-6.919934554025531">
        <ele>450.5150146484375</ele>
        <time>2016-10-30T10:54:54Z</time>
      </trkpt>
      <trkpt lat="40.178153961896896" lon="-6.919794827699661">
        <ele>450.99560546875</ele>
        <time>2016-10-30T10:54:59Z</time>
      </trkpt>
      <trkpt lat="40.177938044071198" lon="-6.919665243476629">
        <ele>449.5537109375</ele>
        <time>2016-10-30T10:55:04Z</time>
      </trkpt>
      <trkpt lat="40.177658088505268" lon="-6.919449577108026">
        <ele>449.072998046875</ele>
        <time>2016-10-30T10:55:09Z</time>
      </trkpt>
      <trkpt lat="40.177425155416131" lon="-6.919158389791846">
        <ele>446.669677734375</ele>
        <time>2016-10-30T10:55:14Z</time>
      </trkpt>
      <trkpt lat="40.177186354994774" lon="-6.919031320139766">
        <ele>444.7470703125</ele>
        <time>2016-10-30T10:55:19Z</time>
      </trkpt>
      <trkpt lat="40.17703858204186" lon="-6.918972311541438">
        <ele>446.669677734375</ele>
        <time>2016-10-30T10:55:24Z</time>
      </trkpt>
      <trkpt lat="40.17695845104754" lon="-6.918940041214228">
        <ele>447.6309814453125</ele>
        <time>2016-10-30T10:55:29Z</time>
      </trkpt>
      <trkpt lat="40.176877398043871" lon="-6.918877093121409">
        <ele>447.6309814453125</ele>
        <time>2016-10-30T10:55:34Z</time>
      </trkpt>
      <trkpt lat="40.176798105239868" lon="-6.918815402314067">
        <ele>449.072998046875</ele>
        <time>2016-10-30T10:55:39Z</time>
      </trkpt>
      <trkpt lat="40.176715794950724" lon="-6.918751364573836">
        <ele>450.99560546875</ele>
        <time>2016-10-30T10:55:44Z</time>
      </trkpt>
      <trkpt lat="40.176632646471262" lon="-6.91868657246232">
        <ele>451.476318359375</ele>
        <time>2016-10-30T10:55:49Z</time>
      </trkpt>
      <trkpt lat="40.176550000905991" lon="-6.918632760643959">
        <ele>450.99560546875</ele>
        <time>2016-10-30T10:55:54Z</time>
      </trkpt>
      <trkpt lat="40.17646643333137" lon="-6.918606022372842">
        <ele>450.99560546875</ele>
        <time>2016-10-30T10:55:59Z</time>
      </trkpt>
      <trkpt lat="40.176367778331041" lon="-6.918574422597885">
        <ele>450.99560546875</ele>
        <time>2016-10-30T10:56:04Z</time>
      </trkpt>
      <trkpt lat="40.176231907680631" lon="-6.918531004339457">
        <ele>450.99560546875</ele>
        <time>2016-10-30T10:56:09Z</time>
      </trkpt>
      <trkpt lat="40.176079021766782" lon="-6.918482054024935">
        <ele>449.5537109375</ele>
        <time>2016-10-30T10:56:14Z</time>
      </trkpt>
      <trkpt lat="40.175909958779812" lon="-6.918427990749478">
        <ele>448.5924072265625</ele>
        <time>2016-10-30T10:56:19Z</time>
      </trkpt>
      <trkpt lat="40.175707116723061" lon="-6.918363030999899">
        <ele>447.6309814453125</ele>
        <time>2016-10-30T10:56:24Z</time>
      </trkpt>
      <trkpt lat="40.175424227491021" lon="-6.918289437890053">
        <ele>447.1502685546875</ele>
        <time>2016-10-30T10:56:29Z</time>
      </trkpt>
      <trkpt lat="40.175122478976846" lon="-6.918260185047984">
        <ele>446.669677734375</ele>
        <time>2016-10-30T10:56:34Z</time>
      </trkpt>
      <trkpt lat="40.174815617501736" lon="-6.918230513110757">
        <ele>445.7083740234375</ele>
        <time>2016-10-30T10:56:39Z</time>
      </trkpt>
      <trkpt lat="40.174501044675708" lon="-6.918200086802244">
        <ele>443.7857666015625</ele>
        <time>2016-10-30T10:56:44Z</time>
      </trkpt>
      <trkpt lat="40.174106676131487" lon="-6.9181471131742">
        <ele>441.3824462890625</ele>
        <time>2016-10-30T10:56:49Z</time>
      </trkpt>
      <trkpt lat="40.173661597073078" lon="-6.918146945536137">
        <ele>438.017822265625</ele>
        <time>2016-10-30T10:56:54Z</time>
      </trkpt>
      <trkpt lat="40.173255661502481" lon="-6.918251719325781">
        <ele>437.0565185546875</ele>
        <time>2016-10-30T10:56:59Z</time>
      </trkpt>
      <trkpt lat="40.172868249937892" lon="-6.918351631611586">
        <ele>435.614501953125</ele>
        <time>2016-10-30T10:57:04Z</time>
      </trkpt>
      <trkpt lat="40.172469355165958" lon="-6.918493788689375">
        <ele>434.172607421875</ele>
        <time>2016-10-30T10:57:09Z</time>
      </trkpt>
      <trkpt lat="40.172143634408712" lon="-6.918691098690033">
        <ele>432.25</ele>
        <time>2016-10-30T10:57:14Z</time>
      </trkpt>
      <trkpt lat="40.171864684671164" lon="-6.918860161677003">
        <ele>433.69189453125</ele>
        <time>2016-10-30T10:57:19Z</time>
      </trkpt>
      <trkpt lat="40.171609790995717" lon="-6.919014723971486">
        <ele>435.1339111328125</ele>
        <time>2016-10-30T10:57:24Z</time>
      </trkpt>
      <trkpt lat="40.171380881220102" lon="-6.919153360649943">
        <ele>434.6533203125</ele>
        <time>2016-10-30T10:57:29Z</time>
      </trkpt>
      <trkpt lat="40.17111592926085" lon="-6.919333571568131">
        <ele>434.172607421875</ele>
        <time>2016-10-30T10:57:34Z</time>
      </trkpt>
      <trkpt lat="40.17084083519876" lon="-6.91960858181119">
        <ele>432.25</ele>
        <time>2016-10-30T10:57:39Z</time>
      </trkpt>
      <trkpt lat="40.170626761391759" lon="-6.919834557920694">
        <ele>432.25</ele>
        <time>2016-10-30T10:57:44Z</time>
      </trkpt>
      <trkpt lat="40.170449316501617" lon="-6.920100767165422">
        <ele>430.8079833984375</ele>
        <time>2016-10-30T10:57:49Z</time>
      </trkpt>
      <trkpt lat="40.169810615479946" lon="-6.919820895418525">
        <ele>431.7691650390625</ele>
        <time>2016-10-30T10:57:54Z</time>
      </trkpt>
      <trkpt lat="40.169505681842566" lon="-6.919832294806838">
        <ele>430.8079833984375</ele>
        <time>2016-10-30T10:57:59Z</time>
      </trkpt>
      <trkpt lat="40.169204184785485" lon="-6.919861296191812">
        <ele>430.3272705078125</ele>
        <time>2016-10-30T10:58:04Z</time>
      </trkpt>
      <trkpt lat="40.168913919478655" lon="-6.919855093583465">
        <ele>429.365966796875</ele>
        <time>2016-10-30T10:58:09Z</time>
      </trkpt>
      <trkpt lat="40.16864150762558" lon="-6.919876048341394">
        <ele>427.9239501953125</ele>
        <time>2016-10-30T10:58:14Z</time>
      </trkpt>
      <trkpt lat="40.168367251753807" lon="-6.919856518507004">
        <ele>427.9239501953125</ele>
        <time>2016-10-30T10:58:19Z</time>
      </trkpt>
      <trkpt lat="40.168111268430948" lon="-6.91981041803956">
        <ele>427.9239501953125</ele>
        <time>2016-10-30T10:58:24Z</time>
      </trkpt>
      <trkpt lat="40.167895685881376" lon="-6.919771526008844">
        <ele>429.365966796875</ele>
        <time>2016-10-30T10:58:29Z</time>
      </trkpt>
      <trkpt lat="40.167702985927463" lon="-6.91980161704123">
        <ele>428.8853759765625</ele>
        <time>2016-10-30T10:58:34Z</time>
      </trkpt>
      <trkpt lat="40.167473824694753" lon="-6.919769179075956">
        <ele>428.4046630859375</ele>
        <time>2016-10-30T10:58:39Z</time>
      </trkpt>
      <trkpt lat="40.167258745059371" lon="-6.919665243476629">
        <ele>429.365966796875</ele>
        <time>2016-10-30T10:58:44Z</time>
      </trkpt>
      <trkpt lat="40.167028494179249" lon="-6.919643953442574">
        <ele>428.8853759765625</ele>
        <time>2016-10-30T10:58:49Z</time>
      </trkpt>
      <trkpt lat="40.166791453957558" lon="-6.919657783582807">
        <ele>428.8853759765625</ele>
        <time>2016-10-30T10:58:54Z</time>
      </trkpt>
      <trkpt lat="40.166545864194632" lon="-6.919668260961771">
        <ele>428.4046630859375</ele>
        <time>2016-10-30T10:58:59Z</time>
      </trkpt>
      <trkpt lat="40.166333299130201" lon="-6.919794492423534">
        <ele>426.4820556640625</ele>
        <time>2016-10-30T10:59:04Z</time>
      </trkpt>
      <trkpt lat="40.166139593347907" lon="-6.919927764683962">
        <ele>427.443359375</ele>
        <time>2016-10-30T10:59:09Z</time>
      </trkpt>
      <trkpt lat="40.165928704664111" lon="-6.920132702216506">
        <ele>425.0401611328125</ele>
        <time>2016-10-30T10:59:14Z</time>
      </trkpt>
      <trkpt lat="40.165718402713537" lon="-6.920470241457224">
        <ele>422.156005859375</ele>
        <time>2016-10-30T10:59:19Z</time>
      </trkpt>
      <trkpt lat="40.165458982810378" lon="-6.920825047418475">
        <ele>419.272216796875</ele>
        <time>2016-10-30T10:59:24Z</time>
      </trkpt>
      <trkpt lat="40.165160587057471" lon="-6.921094944700599">
        <ele>418.79150390625</ele>
        <time>2016-10-30T10:59:29Z</time>
      </trkpt>
      <trkpt lat="40.164940059185028" lon="-6.921407673507929">
        <ele>418.79150390625</ele>
        <time>2016-10-30T10:59:34Z</time>
      </trkpt>
      <trkpt lat="40.164738893508911" lon="-6.921794163063169">
        <ele>417.8302001953125</ele>
        <time>2016-10-30T10:59:39Z</time>
      </trkpt>
      <trkpt lat="40.164497913792729" lon="-6.922089206054807">
        <ele>417.8302001953125</ele>
        <time>2016-10-30T10:59:44Z</time>
      </trkpt>
      <trkpt lat="40.164247630164027" lon="-6.922282828018069">
        <ele>417.349609375</ele>
        <time>2016-10-30T10:59:49Z</time>
      </trkpt>
      <trkpt lat="40.164009416475892" lon="-6.922411490231752">
        <ele>418.310791015625</ele>
        <time>2016-10-30T10:59:54Z</time>
      </trkpt>
      <trkpt lat="40.163842951878905" lon="-6.922553144395351">
        <ele>417.8302001953125</ele>
        <time>2016-10-30T10:59:59Z</time>
      </trkpt>
      <trkpt lat="40.163688724860549" lon="-6.922660181298852">
        <ele>419.272216796875</ele>
        <time>2016-10-30T11:00:04Z</time>
      </trkpt>
      <trkpt lat="40.16352410428226" lon="-6.922744167968631">
        <ele>421.6754150390625</ele>
        <time>2016-10-30T11:00:09Z</time>
      </trkpt>
      <trkpt lat="40.163339367136359" lon="-6.922781048342586">
        <ele>423.117431640625</ele>
        <time>2016-10-30T11:00:14Z</time>
      </trkpt>
      <trkpt lat="40.163154965266585" lon="-6.922836117446423">
        <ele>424.0787353515625</ele>
        <time>2016-10-30T11:00:19Z</time>
      </trkpt>
      <trkpt lat="40.162975592538714" lon="-6.922925133258104">
        <ele>421.19482421875</ele>
        <time>2016-10-30T11:00:24Z</time>
      </trkpt>
      <trkpt lat="40.16277551651001" lon="-6.923061423003674">
        <ele>421.19482421875</ele>
        <time>2016-10-30T11:00:29Z</time>
      </trkpt>
      <trkpt lat="40.162538979202509" lon="-6.92319318652153">
        <ele>420.714111328125</ele>
        <time>2016-10-30T11:00:34Z</time>
      </trkpt>
      <trkpt lat="40.162326833233237" lon="-6.92334758117795">
        <ele>421.19482421875</ele>
        <time>2016-10-30T11:00:39Z</time>
      </trkpt>
      <trkpt lat="40.162106892094016" lon="-6.923614712432027">
        <ele>418.310791015625</ele>
        <time>2016-10-30T11:00:44Z</time>
      </trkpt>
      <trkpt lat="40.161847304552794" lon="-6.923788972198963">
        <ele>419.7528076171875</ele>
        <time>2016-10-30T11:00:49Z</time>
      </trkpt>
      <trkpt lat="40.161588722839952" lon="-6.923829540610313">
        <ele>421.19482421875</ele>
        <time>2016-10-30T11:00:54Z</time>
      </trkpt>
      <trkpt lat="40.161379929631948" lon="-6.923792911693454">
        <ele>422.156005859375</ele>
        <time>2016-10-30T11:00:59Z</time>
      </trkpt>
      <trkpt lat="40.161214806139469" lon="-6.92374974489212">
        <ele>422.156005859375</ele>
        <time>2016-10-30T11:01:04Z</time>
      </trkpt>
      <trkpt lat="40.161068122833967" lon="-6.923701297491789">
        <ele>422.63671875</ele>
        <time>2016-10-30T11:01:09Z</time>
      </trkpt>
      <trkpt lat="40.160933928564191" lon="-6.923684952780604">
        <ele>422.156005859375</ele>
        <time>2016-10-30T11:01:14Z</time>
      </trkpt>
      <trkpt lat="40.16081272624433" lon="-6.923837754875422">
        <ele>421.6754150390625</ele>
        <time>2016-10-30T11:01:19Z</time>
      </trkpt>
      <trkpt lat="40.160600412636995" lon="-6.923976726830006">
        <ele>418.79150390625</ele>
        <time>2016-10-30T11:01:24Z</time>
      </trkpt>
      <trkpt lat="40.160352392122149" lon="-6.924214186146855">
        <ele>416.38818359375</ele>
        <time>2016-10-30T11:01:29Z</time>
      </trkpt>
      <trkpt lat="40.160069670528173" lon="-6.924556000158191">
        <ele>414.4654541015625</ele>
        <time>2016-10-30T11:01:34Z</time>
      </trkpt>
      <trkpt lat="40.159741351380944" lon="-6.924862191081047">
        <ele>410.6202392578125</ele>
        <time>2016-10-30T11:01:39Z</time>
      </trkpt>
      <trkpt lat="40.159472627565265" lon="-6.925007700920105">
        <ele>408.6976318359375</ele>
        <time>2016-10-30T11:01:44Z</time>
      </trkpt>
      <trkpt lat="40.159112457185984" lon="-6.925294697284699">
        <ele>404.852294921875</ele>
        <time>2016-10-30T11:01:49Z</time>
      </trkpt>
      <trkpt lat="40.158736947923899" lon="-6.925642797723413">
        <ele>401.007080078125</ele>
        <time>2016-10-30T11:01:54Z</time>
      </trkpt>
      <trkpt lat="40.158341825008392" lon="-6.925775986164808">
        <ele>401.48779296875</ele>
        <time>2016-10-30T11:01:59Z</time>
      </trkpt>
      <trkpt lat="40.15800797380507" lon="-6.925731645897031">
        <ele>399.5650634765625</ele>
        <time>2016-10-30T11:02:04Z</time>
      </trkpt>
      <trkpt lat="40.157679654657841" lon="-6.925673391669989">
        <ele>397.6424560546875</ele>
        <time>2016-10-30T11:02:09Z</time>
      </trkpt>
      <trkpt lat="40.157295260578394" lon="-6.925614969804883">
        <ele>394.758544921875</ele>
        <time>2016-10-30T11:02:14Z</time>
      </trkpt>
      <trkpt lat="40.156912626698613" lon="-6.925656460225582">
        <ele>394.2779541015625</ele>
        <time>2016-10-30T11:02:19Z</time>
      </trkpt>
      <trkpt lat="40.156471570953727" lon="-6.925722928717732">
        <ele>389.951904296875</ele>
        <time>2016-10-30T11:02:24Z</time>
      </trkpt>
      <trkpt lat="40.156067479401827" lon="-6.92602040246129">
        <ele>387.548583984375</ele>
        <time>2016-10-30T11:02:29Z</time>
      </trkpt>
      <trkpt lat="40.155714685097337" lon="-6.926281414926052">
        <ele>387.548583984375</ele>
        <time>2016-10-30T11:02:34Z</time>
      </trkpt>
      <trkpt lat="40.155428862199187" lon="-6.926255095750094">
        <ele>389.47119140625</ele>
        <time>2016-10-30T11:02:39Z</time>
      </trkpt>
      <trkpt lat="40.155244041234255" lon="-6.926061138510704">
        <ele>390.4326171875</ele>
        <time>2016-10-30T11:02:45Z</time>
      </trkpt>
      <trkpt lat="40.155125437304378" lon="-6.925989389419556">
        <ele>392.8359375</ele>
        <time>2016-10-30T11:02:51Z</time>
      </trkpt>
      <trkpt lat="40.155029967427254" lon="-6.925947731360793">
        <ele>392.8359375</ele>
        <time>2016-10-30T11:02:56Z</time>
      </trkpt>
      <trkpt lat="40.154931899160147" lon="-6.925902888178825">
        <ele>392.3553466796875</ele>
        <time>2016-10-30T11:03:01Z</time>
      </trkpt>
      <trkpt lat="40.154845146462321" lon="-6.92586843855679">
        <ele>393.3165283203125</ele>
        <time>2016-10-30T11:03:06Z</time>
      </trkpt>
      <trkpt lat="40.15473366715014" lon="-6.925838096067309">
        <ele>393.7972412109375</ele>
        <time>2016-10-30T11:03:11Z</time>
      </trkpt>
      <trkpt lat="40.154646076261997" lon="-6.92581663839519">
        <ele>393.7972412109375</ele>
        <time>2016-10-30T11:03:16Z</time>
      </trkpt>
      <trkpt lat="40.154563263058662" lon="-6.925749415531755">
        <ele>394.758544921875</ele>
        <time>2016-10-30T11:03:21Z</time>
      </trkpt>
      <trkpt lat="40.154511881992221" lon="-6.92566366866231">
        <ele>396.68115234375</ele>
        <time>2016-10-30T11:03:26Z</time>
      </trkpt>
      <trkpt lat="40.154448011890054" lon="-6.925564343109727">
        <ele>398.1231689453125</ele>
        <time>2016-10-30T11:03:31Z</time>
      </trkpt>
      <trkpt lat="40.154380118474364" lon="-6.925497455522418">
        <ele>398.603759765625</ele>
        <time>2016-10-30T11:03:36Z</time>
      </trkpt>
      <trkpt lat="40.154282888397574" lon="-6.925409194082022">
        <ele>399.5650634765625</ele>
        <time>2016-10-30T11:03:41Z</time>
      </trkpt>
      <trkpt lat="40.154173336923122" lon="-6.925356471911073">
        <ele>398.603759765625</ele>
        <time>2016-10-30T11:03:46Z</time>
      </trkpt>
      <trkpt lat="40.154031347483397" lon="-6.925325961783528">
        <ele>397.6424560546875</ele>
        <time>2016-10-30T11:03:51Z</time>
      </trkpt>
      <trkpt lat="40.153884831815958" lon="-6.925280448049307">
        <ele>397.6424560546875</ele>
        <time>2016-10-30T11:03:56Z</time>
      </trkpt>
      <trkpt lat="40.153756085783243" lon="-6.925176177173853">
        <ele>399.0843505859375</ele>
        <time>2016-10-30T11:04:01Z</time>
      </trkpt>
      <trkpt lat="40.153589872643352" lon="-6.925038043409586">
        <ele>398.1231689453125</ele>
        <time>2016-10-30T11:04:06Z</time>
      </trkpt>
      <trkpt lat="40.153377894312143" lon="-6.924860011786223">
        <ele>398.1231689453125</ele>
        <time>2016-10-30T11:04:11Z</time>
      </trkpt>
      <trkpt lat="40.153255769982934" lon="-6.924636801704764">
        <ele>401.48779296875</ele>
        <time>2016-10-30T11:04:16Z</time>
      </trkpt>
      <trkpt lat="40.15316373668611" lon="-6.924469918012619">
        <ele>403.89111328125</ele>
        <time>2016-10-30T11:04:21Z</time>
      </trkpt>
      <trkpt lat="40.153076900169253" lon="-6.92429943010211">
        <ele>403.89111328125</ele>
        <time>2016-10-30T11:04:26Z</time>
      </trkpt>
      <trkpt lat="40.152973551303148" lon="-6.924119051545858">
        <ele>403.89111328125</ele>
        <time>2016-10-30T11:04:31Z</time>
      </trkpt>
      <trkpt lat="40.152792753651738" lon="-6.92391294054687">
        <ele>403.410400390625</ele>
        <time>2016-10-30T11:04:36Z</time>
      </trkpt>
      <trkpt lat="40.152577590197325" lon="-6.92369400523603">
        <ele>402.4490966796875</ele>
        <time>2016-10-30T11:04:41Z</time>
      </trkpt>
      <trkpt lat="40.152406934648752" lon="-6.923477835953236">
        <ele>401.48779296875</ele>
        <time>2016-10-30T11:04:46Z</time>
      </trkpt>
      <trkpt lat="40.152182634919882" lon="-6.923278933390975">
        <ele>399.0843505859375</ele>
        <time>2016-10-30T11:04:51Z</time>
      </trkpt>
      <trkpt lat="40.151906199753284" lon="-6.923089921474457">
        <ele>397.6424560546875</ele>
        <time>2016-10-30T11:04:56Z</time>
      </trkpt>
      <trkpt lat="40.151612916961312" lon="-6.922967713326216">
        <ele>394.758544921875</ele>
        <time>2016-10-30T11:05:01Z</time>
      </trkpt>
      <trkpt lat="40.151446284726262" lon="-6.92276319488883">
        <ele>393.7972412109375</ele>
        <time>2016-10-30T11:05:06Z</time>
      </trkpt>
      <trkpt lat="40.151232965290546" lon="-6.922678789123893">
        <ele>391.87451171875</ele>
        <time>2016-10-30T11:05:11Z</time>
      </trkpt>
      <trkpt lat="40.151026267558336" lon="-6.922682309523225">
        <ele>386.106689453125</ele>
        <time>2016-10-30T11:05:16Z</time>
      </trkpt>
      <trkpt lat="40.150796268135309" lon="-6.922802589833736">
        <ele>384.18408203125</ele>
        <time>2016-10-30T11:05:21Z</time>
      </trkpt>
      <trkpt lat="40.150588732212782" lon="-6.922870064154267">
        <ele>381.300048828125</ele>
        <time>2016-10-30T11:05:26Z</time>
      </trkpt>
      <trkpt lat="40.150491753593087" lon="-6.922590108588338">
        <ele>378.4161376953125</ele>
        <time>2016-10-30T11:05:31Z</time>
      </trkpt>
      <trkpt lat="40.150508182123303" lon="-6.922252317890525">
        <ele>376.9742431640625</ele>
        <time>2016-10-30T11:05:36Z</time>
      </trkpt>
      <trkpt lat="40.150449005886912" lon="-6.921877395361662">
        <ele>374.57080078125</ele>
        <time>2016-10-30T11:05:41Z</time>
      </trkpt>
      <trkpt lat="40.150444563478231" lon="-6.921477243304253">
        <ele>371.206298828125</ele>
        <time>2016-10-30T11:05:46Z</time>
      </trkpt>
      <trkpt lat="40.150230322033167" lon="-6.921165604144335">
        <ele>370.244873046875</ele>
        <time>2016-10-30T11:05:51Z</time>
      </trkpt>
      <trkpt lat="40.150076514109969" lon="-6.92082529887557">
        <ele>366.3995361328125</ele>
        <time>2016-10-30T11:05:56Z</time>
      </trkpt>
      <trkpt lat="40.149869062006474" lon="-6.920445431023836">
        <ele>364.4769287109375</ele>
        <time>2016-10-30T11:06:01Z</time>
      </trkpt>
      <trkpt lat="40.149642080068588" lon="-6.9201451074332">
        <ele>359.189697265625</ele>
        <time>2016-10-30T11:06:06Z</time>
      </trkpt>
      <trkpt lat="40.149454493075609" lon="-6.91992181353271">
        <ele>356.786376953125</ele>
        <time>2016-10-30T11:06:11Z</time>
      </trkpt>
      <trkpt lat="40.149246202781796" lon="-6.919673290103674">
        <ele>354.3831787109375</ele>
        <time>2016-10-30T11:06:16Z</time>
      </trkpt>
      <trkpt lat="40.148933138698339" lon="-6.919668428599834">
        <ele>352.941162109375</ele>
        <time>2016-10-30T11:06:21Z</time>
      </trkpt>
      <trkpt lat="40.148620661348104" lon="-6.91969751380384">
        <ele>354.3831787109375</ele>
        <time>2016-10-30T11:06:26Z</time>
      </trkpt>
      <trkpt lat="40.148419914767146" lon="-6.919774543493986">
        <ele>354.3831787109375</ele>
        <time>2016-10-30T11:06:31Z</time>
      </trkpt>
      <trkpt lat="40.148328887298703" lon="-6.919793738052249">
        <ele>354.86376953125</ele>
        <time>2016-10-30T11:06:36Z</time>
      </trkpt>
      <trkpt lat="40.14823148958385" lon="-6.919806897640228">
        <ele>355.8251953125</ele>
        <time>2016-10-30T11:06:41Z</time>
      </trkpt>
      <trkpt lat="40.148138450458646" lon="-6.919866744428873">
        <ele>357.26708984375</ele>
        <time>2016-10-30T11:06:46Z</time>
      </trkpt>
      <trkpt lat="40.1480458304286" lon="-6.919916616752744">
        <ele>356.786376953125</ele>
        <time>2016-10-30T11:06:51Z</time>
      </trkpt>
      <trkpt lat="40.147913480177522" lon="-6.919981492683291">
        <ele>355.8251953125</ele>
        <time>2016-10-30T11:06:56Z</time>
      </trkpt>
      <trkpt lat="40.14772136695683" lon="-6.920081237331033">
        <ele>353.421875</ele>
        <time>2016-10-30T11:07:01Z</time>
      </trkpt>
      <trkpt lat="40.147498408332467" lon="-6.920198416337371">
        <ele>348.615234375</ele>
        <time>2016-10-30T11:07:06Z</time>
      </trkpt>
      <trkpt lat="40.147242257371545" lon="-6.920402180403471">
        <ele>345.2506103515625</ele>
        <time>2016-10-30T11:07:11Z</time>
      </trkpt>
      <trkpt lat="40.147031703963876" lon="-6.920639472082257">
        <ele>340.9246826171875</ele>
        <time>2016-10-30T11:07:16Z</time>
      </trkpt>
      <trkpt lat="40.146848140284419" lon="-6.920749861747026">
        <ele>339.96337890625</ele>
        <time>2016-10-30T11:07:21Z</time>
      </trkpt>
      <trkpt lat="40.146816037595272" lon="-6.920548360794783">
        <ele>337.56005859375</ele>
        <time>2016-10-30T11:07:26Z</time>
      </trkpt>
      <trkpt lat="40.146805141121149" lon="-6.920192297548056">
        <ele>333.7147216796875</ele>
        <time>2016-10-30T11:07:31Z</time>
      </trkpt>
      <trkpt lat="40.146860964596272" lon="-6.919785942882299">
        <ele>333.7147216796875</ele>
        <time>2016-10-30T11:07:36Z</time>
      </trkpt>
      <trkpt lat="40.146881248801947" lon="-6.919465670362115">
        <ele>330.8309326171875</ele>
        <time>2016-10-30T11:07:41Z</time>
      </trkpt>
      <trkpt lat="40.146874878555536" lon="-6.919217733666301">
        <ele>328.9083251953125</ele>
        <time>2016-10-30T11:07:46Z</time>
      </trkpt>
      <trkpt lat="40.14681838452816" lon="-6.918922439217567">
        <ele>327.4661865234375</ele>
        <time>2016-10-30T11:07:51Z</time>
      </trkpt>
      <trkpt lat="40.14665761962533" lon="-6.918793022632599">
        <ele>327.94677734375</ele>
        <time>2016-10-30T11:07:56Z</time>
      </trkpt>
      <trkpt lat="40.146426279097795" lon="-6.918790591880679">
        <ele>329.388916015625</ele>
        <time>2016-10-30T11:08:01Z</time>
      </trkpt>
      <trkpt lat="40.146165769547224" lon="-6.918853791430593">
        <ele>329.8695068359375</ele>
        <time>2016-10-30T11:08:06Z</time>
      </trkpt>
      <trkpt lat="40.145893190056086" lon="-6.918863765895367">
        <ele>329.388916015625</ele>
        <time>2016-10-30T11:08:11Z</time>
      </trkpt>
      <trkpt lat="40.145658245310187" lon="-6.918808445334435">
        <ele>327.4661865234375</ele>
        <time>2016-10-30T11:08:16Z</time>
      </trkpt>
      <trkpt lat="40.145523799583316" lon="-6.918656313791871">
        <ele>326.5048828125</ele>
        <time>2016-10-30T11:08:21Z</time>
      </trkpt>
      <trkpt lat="40.145435202866793" lon="-6.918542152270675">
        <ele>327.94677734375</ele>
        <time>2016-10-30T11:08:26Z</time>
      </trkpt>
      <trkpt lat="40.145356999710202" lon="-6.918453723192215">
        <ele>330.8309326171875</ele>
        <time>2016-10-30T11:08:31Z</time>
      </trkpt>
      <trkpt lat="40.145306959748268" lon="-6.918390775099397">
        <ele>332.2728271484375</ele>
        <time>2016-10-30T11:08:36Z</time>
      </trkpt>
      <trkpt lat="40.145260775461793" lon="-6.918333610519767">
        <ele>334.1954345703125</ele>
        <time>2016-10-30T11:08:41Z</time>
      </trkpt>
      <trkpt lat="40.14522741548717" lon="-6.918262531980872">
        <ele>335.15673828125</ele>
        <time>2016-10-30T11:08:46Z</time>
      </trkpt>
      <trkpt lat="40.145195899531245" lon="-6.918178042396903">
        <ele>336.1181640625</ele>
        <time>2016-10-30T11:08:51Z</time>
      </trkpt>
      <trkpt lat="40.145170921459794" lon="-6.91809288226068">
        <ele>338.521484375</ele>
        <time>2016-10-30T11:08:56Z</time>
      </trkpt>
      <trkpt lat="40.145142758265138" lon="-6.918010236695409">
        <ele>339.96337890625</ele>
        <time>2016-10-30T11:09:01Z</time>
      </trkpt>
      <trkpt lat="40.145126832649112" lon="-6.917924573644996">
        <ele>340.9246826171875</ele>
        <time>2016-10-30T11:09:06Z</time>
      </trkpt>
      <trkpt lat="40.145110907033086" lon="-6.917847124859691">
        <ele>341.885986328125</ele>
        <time>2016-10-30T11:09:11Z</time>
      </trkpt>
      <trkpt lat="40.145106548443437" lon="-6.917760455980897">
        <ele>341.885986328125</ele>
        <time>2016-10-30T11:09:16Z</time>
      </trkpt>
      <trkpt lat="40.145065980032086" lon="-6.917688958346844">
        <ele>341.885986328125</ele>
        <time>2016-10-30T11:09:21Z</time>
      </trkpt>
      <trkpt lat="40.145059609785676" lon="-6.917601535096765">
        <ele>342.8472900390625</ele>
        <time>2016-10-30T11:09:26Z</time>
      </trkpt>
      <trkpt lat="40.145044354721904" lon="-6.917523248121142">
        <ele>343.80859375</ele>
        <time>2016-10-30T11:09:31Z</time>
      </trkpt>
      <trkpt lat="40.145018538460135" lon="-6.91744395531714">
        <ele>344.77001953125</ele>
        <time>2016-10-30T11:09:36Z</time>
      </trkpt>
      <trkpt lat="40.144977048039436" lon="-6.917383521795273">
        <ele>346.2120361328125</ele>
        <time>2016-10-30T11:09:41Z</time>
      </trkpt>
      <trkpt lat="40.144956093281507" lon="-6.917305402457714">
        <ele>348.1346435546875</ele>
        <time>2016-10-30T11:09:46Z</time>
      </trkpt>
      <trkpt lat="40.144921559840441" lon="-6.917214039713144">
        <ele>349.5765380859375</ele>
        <time>2016-10-30T11:09:51Z</time>
      </trkpt>
      <trkpt lat="40.144905718043447" lon="-6.917143799364567">
        <ele>349.5765380859375</ele>
        <time>2016-10-30T11:09:56Z</time>
      </trkpt>
      <trkpt lat="40.144883170723915" lon="-6.917074481025338">
        <ele>350.0572509765625</ele>
        <time>2016-10-30T11:10:01Z</time>
      </trkpt>
      <trkpt lat="40.144872525706887" lon="-6.916994769126177">
        <ele>350.0572509765625</ele>
        <time>2016-10-30T11:10:06Z</time>
      </trkpt>
      <trkpt lat="40.144871938973665" lon="-6.916930396109819">
        <ele>351.0184326171875</ele>
        <time>2016-10-30T11:10:11Z</time>
      </trkpt>
      <trkpt lat="40.144871352240443" lon="-6.916855797171593">
        <ele>351.9798583984375</ele>
        <time>2016-10-30T11:10:16Z</time>
      </trkpt>
      <trkpt lat="40.144872274249792" lon="-6.916789077222347">
        <ele>353.421875</ele>
        <time>2016-10-30T11:10:21Z</time>
      </trkpt>
      <trkpt lat="40.144852995872498" lon="-6.916741887107492">
        <ele>354.3831787109375</ele>
        <time>2016-10-30T11:10:26Z</time>
      </trkpt>
      <trkpt lat="40.144831286743283" lon="-6.916680028662086">
        <ele>355.8251953125</ele>
        <time>2016-10-30T11:10:31Z</time>
      </trkpt>
      <trkpt lat="40.144815109670162" lon="-6.916623534634709">
        <ele>355.8251953125</ele>
        <time>2016-10-30T11:10:36Z</time>
      </trkpt>
      <trkpt lat="40.144827011972666" lon="-6.916548851877451">
        <ele>356.786376953125</ele>
        <time>2016-10-30T11:10:41Z</time>
      </trkpt>
      <trkpt lat="40.144845033064485" lon="-6.916486658155918">
        <ele>358.708984375</ele>
        <time>2016-10-30T11:10:46Z</time>
      </trkpt>
      <trkpt lat="40.144858779385686" lon="-6.916416501626372">
        <ele>361.1124267578125</ele>
        <time>2016-10-30T11:10:51Z</time>
      </trkpt>
      <trkpt lat="40.144883003085852" lon="-6.916352966800332">
        <ele>361.5931396484375</ele>
        <time>2016-10-30T11:10:56Z</time>
      </trkpt>
      <trkpt lat="40.144894905388355" lon="-6.916288593783975">
        <ele>363.0350341796875</ele>
        <time>2016-10-30T11:11:01Z</time>
      </trkpt>
      <trkpt lat="40.144921727478504" lon="-6.916203098371625">
        <ele>363.0350341796875</ele>
        <time>2016-10-30T11:11:06Z</time>
      </trkpt>
      <trkpt lat="40.144933545961976" lon="-6.916107628494501">
        <ele>363.996337890625</ele>
        <time>2016-10-30T11:11:11Z</time>
      </trkpt>
      <trkpt lat="40.144960787147284" lon="-6.915983660146594">
        <ele>364.4769287109375</ele>
        <time>2016-10-30T11:11:16Z</time>
      </trkpt>
      <trkpt lat="40.145013760775328" lon="-6.915841419249773">
        <ele>363.996337890625</ele>
        <time>2016-10-30T11:11:21Z</time>
      </trkpt>
      <trkpt lat="40.145055837929249" lon="-6.915647042915225">
        <ele>364.9576416015625</ele>
        <time>2016-10-30T11:11:26Z</time>
      </trkpt>
      <trkpt lat="40.145074194297194" lon="-6.915479907765985">
        <ele>364.9576416015625</ele>
        <time>2016-10-30T11:11:31Z</time>
      </trkpt>
      <trkpt lat="40.14506028033793" lon="-6.915376391261816">
        <ele>365.9189453125</ele>
        <time>2016-10-30T11:11:36Z</time>
      </trkpt>
      <trkpt lat="40.14505198225379" lon="-6.915304306894541">
        <ele>365.9189453125</ele>
        <time>2016-10-30T11:11:41Z</time>
      </trkpt>
      <trkpt lat="40.145075703039765" lon="-6.915235826745629">
        <ele>366.3995361328125</ele>
        <time>2016-10-30T11:11:46Z</time>
      </trkpt>
      <trkpt lat="40.145088443532586" lon="-6.915156450122595">
        <ele>367.841552734375</ele>
        <time>2016-10-30T11:11:51Z</time>
      </trkpt>
      <trkpt lat="40.145080983638763" lon="-6.915087467059493">
        <ele>368.802978515625</ele>
        <time>2016-10-30T11:11:56Z</time>
      </trkpt>
      <trkpt lat="40.145079307258129" lon="-6.915018735453486">
        <ele>369.7642822265625</ele>
        <time>2016-10-30T11:12:01Z</time>
      </trkpt>
      <trkpt lat="40.145070506259799" lon="-6.914942460134625">
        <ele>370.7255859375</ele>
        <time>2016-10-30T11:12:06Z</time>
      </trkpt>
      <trkpt lat="40.145065477117896" lon="-6.91486936993897">
        <ele>371.206298828125</ele>
        <time>2016-10-30T11:12:11Z</time>
      </trkpt>
      <trkpt lat="40.145069835707545" lon="-6.914802901446819">
        <ele>373.12890625</ele>
        <time>2016-10-30T11:12:16Z</time>
      </trkpt>
      <trkpt lat="40.145086096599698" lon="-6.914731236174703">
        <ele>375.051513671875</ele>
        <time>2016-10-30T11:12:21Z</time>
      </trkpt>
      <trkpt lat="40.145102692767978" lon="-6.914663594216108">
        <ele>376.0128173828125</ele>
        <time>2016-10-30T11:12:26Z</time>
      </trkpt>
      <trkpt lat="40.14512381516397" lon="-6.914606848731637">
        <ele>376.9742431640625</ele>
        <time>2016-10-30T11:12:31Z</time>
      </trkpt>
      <trkpt lat="40.145129095762968" lon="-6.914539374411106">
        <ele>377.9354248046875</ele>
        <time>2016-10-30T11:12:36Z</time>
      </trkpt>
      <trkpt lat="40.145131023600698" lon="-6.914479192346335">
        <ele>380.3387451171875</ele>
        <time>2016-10-30T11:12:41Z</time>
      </trkpt>
      <trkpt lat="40.145136639475822" lon="-6.9143998157233">
        <ele>380.8194580078125</ele>
        <time>2016-10-30T11:12:46Z</time>
      </trkpt>
      <trkpt lat="40.145135633647442" lon="-6.914334855973721">
        <ele>380.3387451171875</ele>
        <time>2016-10-30T11:12:51Z</time>
      </trkpt>
      <trkpt lat="40.145118031650782" lon="-6.914266711100936">
        <ele>381.300048828125</ele>
        <time>2016-10-30T11:12:56Z</time>
      </trkpt>
      <trkpt lat="40.145129933953285" lon="-6.914172833785415">
        <ele>381.7806396484375</ele>
        <time>2016-10-30T11:13:01Z</time>
      </trkpt>
      <trkpt lat="40.145153990015388" lon="-6.914073927327991">
        <ele>382.7420654296875</ele>
        <time>2016-10-30T11:13:06Z</time>
      </trkpt>
      <trkpt lat="40.145173603668809" lon="-6.914000166580081">
        <ele>384.18408203125</ele>
        <time>2016-10-30T11:13:11Z</time>
      </trkpt>
      <trkpt lat="40.145197743549943" lon="-6.913924645632505">
        <ele>385.1453857421875</ele>
        <time>2016-10-30T11:13:16Z</time>
      </trkpt>
      <trkpt lat="40.145213166251779" lon="-6.91384568810463">
        <ele>385.6259765625</ele>
        <time>2016-10-30T11:13:21Z</time>
      </trkpt>
      <trkpt lat="40.145212160423398" lon="-6.913782823830843">
        <ele>385.6259765625</ele>
        <time>2016-10-30T11:13:25Z</time>
      </trkpt>
      <trkpt lat="40.145215848460793" lon="-6.913680313155055">
        <ele>386.106689453125</ele>
        <time>2016-10-30T11:13:31Z</time>
      </trkpt>
      <trkpt lat="40.1452362164855" lon="-6.913590459153056">
        <ele>387.0679931640625</ele>
        <time>2016-10-30T11:13:36Z</time>
      </trkpt>
      <trkpt lat="40.145218279212713" lon="-6.913530863821507">
        <ele>388.029296875</ele>
        <time>2016-10-30T11:13:41Z</time>
      </trkpt>
      <trkpt lat="40.145207718014717" lon="-6.913444111123681">
        <ele>387.548583984375</ele>
        <time>2016-10-30T11:13:46Z</time>
      </trkpt>
      <trkpt lat="40.14520495198667" lon="-6.91337026655674">
        <ele>388.9906005859375</ele>
        <time>2016-10-30T11:13:51Z</time>
      </trkpt>
      <trkpt lat="40.145220458507538" lon="-6.913295080885291">
        <ele>389.47119140625</ele>
        <time>2016-10-30T11:13:56Z</time>
      </trkpt>
      <trkpt lat="40.145215261727571" lon="-6.913216961547732">
        <ele>390.4326171875</ele>
        <time>2016-10-30T11:14:01Z</time>
      </trkpt>
      <trkpt lat="40.145233031362295" lon="-6.913139093667269">
        <ele>391.393798828125</ele>
        <time>2016-10-30T11:14:06Z</time>
      </trkpt>
      <trkpt lat="40.145253902301192" lon="-6.913057034835219">
        <ele>391.87451171875</ele>
        <time>2016-10-30T11:14:11Z</time>
      </trkpt>
      <trkpt lat="40.145260440185666" lon="-6.912988889962435">
        <ele>391.393798828125</ele>
        <time>2016-10-30T11:14:16Z</time>
      </trkpt>
      <trkpt lat="40.145263206213713" lon="-6.91291144117713">
        <ele>393.3165283203125</ele>
        <time>2016-10-30T11:14:21Z</time>
      </trkpt>
      <trkpt lat="40.14524107798934" lon="-6.91284254193306">
        <ele>394.758544921875</ele>
        <time>2016-10-30T11:14:26Z</time>
      </trkpt>
      <trkpt lat="40.145246107131243" lon="-6.912774229422212">
        <ele>395.2391357421875</ele>
        <time>2016-10-30T11:14:31Z</time>
      </trkpt>
      <trkpt lat="40.145257757976651" lon="-6.912704408168793">
        <ele>396.2005615234375</ele>
        <time>2016-10-30T11:14:36Z</time>
      </trkpt>
      <trkpt lat="40.145300673320889" lon="-6.912642298266292">
        <ele>397.1617431640625</ele>
        <time>2016-10-30T11:14:41Z</time>
      </trkpt>
      <trkpt lat="40.145340152084827" lon="-6.912572560831904">
        <ele>397.1617431640625</ele>
        <time>2016-10-30T11:14:46Z</time>
      </trkpt>
      <trkpt lat="40.145361525937915" lon="-6.91250148229301">
        <ele>397.6424560546875</ele>
        <time>2016-10-30T11:14:51Z</time>
      </trkpt>
      <trkpt lat="40.145386252552271" lon="-6.91241498105228">
        <ele>397.1617431640625</ele>
        <time>2016-10-30T11:14:56Z</time>
      </trkpt>
      <trkpt lat="40.145379882305861" lon="-6.9123206846416">
        <ele>399.0843505859375</ele>
        <time>2016-10-30T11:15:01Z</time>
      </trkpt>
      <trkpt lat="40.145352305844426" lon="-6.912219934165478">
        <ele>401.007080078125</ele>
        <time>2016-10-30T11:15:06Z</time>
      </trkpt>
      <trkpt lat="40.145303942263126" lon="-6.912117004394531">
        <ele>401.968505859375</ele>
        <time>2016-10-30T11:15:11Z</time>
      </trkpt>
      <trkpt lat="40.14522397890687" lon="-6.911985073238611">
        <ele>403.410400390625</ele>
        <time>2016-10-30T11:15:16Z</time>
      </trkpt>
      <trkpt lat="40.145194809883833" lon="-6.911798743531108">
        <ele>403.89111328125</ele>
        <time>2016-10-30T11:15:21Z</time>
      </trkpt>
      <trkpt lat="40.145147619768977" lon="-6.911588944494724">
        <ele>403.410400390625</ele>
        <time>2016-10-30T11:15:26Z</time>
      </trkpt>
      <trkpt lat="40.145077547058463" lon="-6.911415522918105">
        <ele>402.9296875</ele>
        <time>2016-10-30T11:15:31Z</time>
      </trkpt>
      <trkpt lat="40.145027255639434" lon="-6.911240089684725">
        <ele>403.410400390625</ele>
        <time>2016-10-30T11:15:36Z</time>
      </trkpt>
      <trkpt lat="40.144981322810054" lon="-6.911117965355516">
        <ele>404.852294921875</ele>
        <time>2016-10-30T11:15:41Z</time>
      </trkpt>
      <trkpt lat="40.14495424926281" lon="-6.911013023927808">
        <ele>405.813720703125</ele>
        <time>2016-10-30T11:15:46Z</time>
      </trkpt>
      <trkpt lat="40.144931618124247" lon="-6.910918392241001">
        <ele>405.813720703125</ele>
        <time>2016-10-30T11:15:51Z</time>
      </trkpt>
      <trkpt lat="40.144957853481174" lon="-6.91083817742765">
        <ele>406.2943115234375</ele>
        <time>2016-10-30T11:15:56Z</time>
      </trkpt>
      <trkpt lat="40.144972018897533" lon="-6.910781431943178">
        <ele>405.813720703125</ele>
        <time>2016-10-30T11:16:01Z</time>
      </trkpt>
      <trkpt lat="40.144966822117567" lon="-6.910708509385586">
        <ele>406.77490234375</ele>
        <time>2016-10-30T11:16:06Z</time>
      </trkpt>
      <trkpt lat="40.144931869581342" lon="-6.910624271258712">
        <ele>408.217041015625</ele>
        <time>2016-10-30T11:16:11Z</time>
      </trkpt>
      <trkpt lat="40.144893145188689" lon="-6.910540200769901">
        <ele>408.6976318359375</ele>
        <time>2016-10-30T11:16:16Z</time>
      </trkpt>
      <trkpt lat="40.144872441887856" lon="-6.910470463335514">
        <ele>406.77490234375</ele>
        <time>2016-10-30T11:16:21Z</time>
      </trkpt>
      <trkpt lat="40.144847128540277" lon="-6.910391170531511">
        <ele>407.736328125</ele>
        <time>2016-10-30T11:16:26Z</time>
      </trkpt>
      <trkpt lat="40.144822066649795" lon="-6.910304166376591">
        <ele>408.217041015625</ele>
        <time>2016-10-30T11:16:31Z</time>
      </trkpt>
      <trkpt lat="40.144811673089862" lon="-6.910229232162237">
        <ele>407.736328125</ele>
        <time>2016-10-30T11:16:36Z</time>
      </trkpt>
      <trkpt lat="40.144818043336272" lon="-6.910143150016666">
        <ele>410.6202392578125</ele>
        <time>2016-10-30T11:16:41Z</time>
      </trkpt>
      <trkpt lat="40.144804213196039" lon="-6.910049859434366">
        <ele>410.1396484375</ele>
        <time>2016-10-30T11:16:46Z</time>
      </trkpt>
      <trkpt lat="40.144805135205388" lon="-6.909971740096808">
        <ele>411.1009521484375</ele>
        <time>2016-10-30T11:16:51Z</time>
      </trkpt>
      <trkpt lat="40.14483648352325" lon="-6.909884065389633">
        <ele>409.6590576171875</ele>
        <time>2016-10-30T11:16:56Z</time>
      </trkpt>
      <trkpt lat="40.144858444109559" lon="-6.909807370975614">
        <ele>411.1009521484375</ele>
        <time>2016-10-30T11:17:01Z</time>
      </trkpt>
      <trkpt lat="40.144878812134266" lon="-6.909732185304165">
        <ele>412.5428466796875</ele>
        <time>2016-10-30T11:17:06Z</time>
      </trkpt>
      <trkpt lat="40.144902365282178" lon="-6.909669153392315">
        <ele>413.98486328125</ele>
        <time>2016-10-30T11:17:11Z</time>
      </trkpt>
      <trkpt lat="40.144924158230424" lon="-6.909589441493154">
        <ele>414.9461669921875</ele>
        <time>2016-10-30T11:17:16Z</time>
      </trkpt>
      <trkpt lat="40.144949136301875" lon="-6.909501766785979">
        <ele>417.349609375</ele>
        <time>2016-10-30T11:17:21Z</time>
      </trkpt>
      <trkpt lat="40.144942430779338" lon="-6.90943144261837">
        <ele>418.79150390625</ele>
        <time>2016-10-30T11:17:26Z</time>
      </trkpt>
      <trkpt lat="40.14490831643343" lon="-6.909355083480477">
        <ele>418.79150390625</ele>
        <time>2016-10-30T11:17:31Z</time>
      </trkpt>
      <trkpt lat="40.144876632839441" lon="-6.909268749877811">
        <ele>420.2333984375</ele>
        <time>2016-10-30T11:17:36Z</time>
      </trkpt>
      <trkpt lat="40.144849140197039" lon="-6.90919104963541">
        <ele>421.6754150390625</ele>
        <time>2016-10-30T11:17:41Z</time>
      </trkpt>
      <trkpt lat="40.144812008365989" lon="-6.909113684669137">
        <ele>422.63671875</ele>
        <time>2016-10-30T11:17:46Z</time>
      </trkpt>
      <trkpt lat="40.144766243174672" lon="-6.9090327154845">
        <ele>423.5980224609375</ele>
        <time>2016-10-30T11:17:51Z</time>
      </trkpt>
      <trkpt lat="40.144738582894206" lon="-6.908970437943935">
        <ele>424.0787353515625</ele>
        <time>2016-10-30T11:17:56Z</time>
      </trkpt>
      <trkpt lat="40.144714526832104" lon="-6.908925175666809">
        <ele>425.520751953125</ele>
        <time>2016-10-30T11:18:01Z</time>
      </trkpt>
      <trkpt lat="40.144675299525261" lon="-6.908858036622405">
        <ele>425.520751953125</ele>
        <time>2016-10-30T11:18:06Z</time>
      </trkpt>
      <trkpt lat="40.144636491313577" lon="-6.908792909234762">
        <ele>425.520751953125</ele>
        <time>2016-10-30T11:18:11Z</time>
      </trkpt>
      <trkpt lat="40.144608831033111" lon="-6.90872585400939">
        <ele>425.520751953125</ele>
        <time>2016-10-30T11:18:16Z</time>
      </trkpt>
      <trkpt lat="40.144599610939622" lon="-6.908638179302216">
        <ele>426.0013427734375</ele>
        <time>2016-10-30T11:18:21Z</time>
      </trkpt>
      <trkpt lat="40.14459122903645" lon="-6.908539356663823">
        <ele>427.443359375</ele>
        <time>2016-10-30T11:18:26Z</time>
      </trkpt>
      <trkpt lat="40.144560551270843" lon="-6.90841312520206">
        <ele>427.443359375</ele>
        <time>2016-10-30T11:18:31Z</time>
      </trkpt>
      <trkpt lat="40.144511181861162" lon="-6.908306339755654">
        <ele>428.8853759765625</ele>
        <time>2016-10-30T11:18:36Z</time>
      </trkpt>
      <trkpt lat="40.144454855471849" lon="-6.908181365579367">
        <ele>428.8853759765625</ele>
        <time>2016-10-30T11:18:41Z</time>
      </trkpt>
      <trkpt lat="40.144399954006076" lon="-6.908057732507587">
        <ele>430.3272705078125</ele>
        <time>2016-10-30T11:18:46Z</time>
      </trkpt>
      <trkpt lat="40.14435226097703" lon="-6.907955976203084">
        <ele>430.8079833984375</ele>
        <time>2016-10-30T11:18:51Z</time>
      </trkpt>
      <trkpt lat="40.144315380603075" lon="-6.907876431941986">
        <ele>430.8079833984375</ele>
        <time>2016-10-30T11:18:56Z</time>
      </trkpt>
      <trkpt lat="40.14428093098104" lon="-6.907802000641823">
        <ele>431.7691650390625</ele>
        <time>2016-10-30T11:19:01Z</time>
      </trkpt>
      <trkpt lat="40.144239021465182" lon="-6.907741399481893">
        <ele>433.2113037109375</ele>
        <time>2016-10-30T11:19:06Z</time>
      </trkpt>
      <trkpt lat="40.144193843007088" lon="-6.907652970403433">
        <ele>432.730712890625</ele>
        <time>2016-10-30T11:19:11Z</time>
      </trkpt>
      <trkpt lat="40.144146485254169" lon="-6.907588178291917">
        <ele>434.6533203125</ele>
        <time>2016-10-30T11:19:16Z</time>
      </trkpt>
      <trkpt lat="40.1440913323313" lon="-6.907512154430151">
        <ele>435.1339111328125</ele>
        <time>2016-10-30T11:19:21Z</time>
      </trkpt>
      <trkpt lat="40.144045650959015" lon="-6.907431185245514">
        <ele>435.614501953125</ele>
        <time>2016-10-30T11:19:26Z</time>
      </trkpt>
      <trkpt lat="40.144006926566362" lon="-6.907356418669224">
        <ele>437.537109375</ele>
        <time>2016-10-30T11:19:31Z</time>
      </trkpt>
      <trkpt lat="40.143951773643494" lon="-6.907271426171064">
        <ele>438.49853515625</ele>
        <time>2016-10-30T11:19:36Z</time>
      </trkpt>
      <trkpt lat="40.14388614334166" lon="-6.907192301005125">
        <ele>436.09521484375</ele>
        <time>2016-10-30T11:19:41Z</time>
      </trkpt>
      <trkpt lat="40.143809532746673" lon="-6.907065734267235">
        <ele>437.0565185546875</ele>
        <time>2016-10-30T11:19:46Z</time>
      </trkpt>
      <trkpt lat="40.143719092011452" lon="-6.906929528340697">
        <ele>435.614501953125</ele>
        <time>2016-10-30T11:19:51Z</time>
      </trkpt>
      <trkpt lat="40.143630243837833" lon="-6.906821569427848">
        <ele>437.0565185546875</ele>
        <time>2016-10-30T11:19:56Z</time>
      </trkpt>
      <trkpt lat="40.143559584394097" lon="-6.906740097329021">
        <ele>437.0565185546875</ele>
        <time>2016-10-30T11:20:01Z</time>
      </trkpt>
      <trkpt lat="40.143515579402447" lon="-6.906630881130695">
        <ele>438.49853515625</ele>
        <time>2016-10-30T11:20:06Z</time>
      </trkpt>
      <trkpt lat="40.143463276326656" lon="-6.906519401818514">
        <ele>439.459716796875</ele>
        <time>2016-10-30T11:20:11Z</time>
      </trkpt>
      <trkpt lat="40.143393874168396" lon="-6.906448742374778">
        <ele>438.9791259765625</ele>
        <time>2016-10-30T11:20:16Z</time>
      </trkpt>
      <trkpt lat="40.143330674618483" lon="-6.906359810382128">
        <ele>439.459716796875</ele>
        <time>2016-10-30T11:20:21Z</time>
      </trkpt>
      <trkpt lat="40.143287004902959" lon="-6.906266268342733">
        <ele>440.4212646484375</ele>
        <time>2016-10-30T11:20:26Z</time>
      </trkpt>
      <trkpt lat="40.14325238764286" lon="-6.906182784587145">
        <ele>442.3438720703125</ele>
        <time>2016-10-30T11:20:31Z</time>
      </trkpt>
      <trkpt lat="40.143216429278255" lon="-6.906118998304009">
        <ele>444.2664794921875</ele>
        <time>2016-10-30T11:20:36Z</time>
      </trkpt>
      <trkpt lat="40.14318885281682" lon="-6.906049847602844">
        <ele>444.2664794921875</ele>
        <time>2016-10-30T11:20:41Z</time>
      </trkpt>
      <trkpt lat="40.143151972442865" lon="-6.905981870368123">
        <ele>444.2664794921875</ele>
        <time>2016-10-30T11:20:46Z</time>
      </trkpt>
      <trkpt lat="40.143112828955054" lon="-6.905919341370463">
        <ele>445.7083740234375</ele>
        <time>2016-10-30T11:20:51Z</time>
      </trkpt>
      <trkpt lat="40.143075529485941" lon="-6.905862679705024">
        <ele>446.1890869140625</ele>
        <time>2016-10-30T11:20:56Z</time>
      </trkpt>
      <trkpt lat="40.143050132319331" lon="-6.905793445184827">
        <ele>447.6309814453125</ele>
        <time>2016-10-30T11:21:01Z</time>
      </trkpt>
      <trkpt lat="40.143019203096628" lon="-6.90573007799685">
        <ele>449.5537109375</ele>
        <time>2016-10-30T11:21:06Z</time>
      </trkpt>
      <trkpt lat="40.142981819808483" lon="-6.905659502372146">
        <ele>450.034423828125</ele>
        <time>2016-10-30T11:21:11Z</time>
      </trkpt>
      <trkpt lat="40.142916860058904" lon="-6.905628154054284">
        <ele>450.5150146484375</ele>
        <time>2016-10-30T11:21:16Z</time>
      </trkpt>
      <trkpt lat="40.142864137887955" lon="-6.905573336407542">
        <ele>450.5150146484375</ele>
        <time>2016-10-30T11:21:21Z</time>
      </trkpt>
      <trkpt lat="40.142825832590461" lon="-6.905518770217896">
        <ele>451.95703125</ele>
        <time>2016-10-30T11:21:26Z</time>
      </trkpt>
      <trkpt lat="40.142787275835872" lon="-6.905450206249952">
        <ele>453.39892578125</ele>
        <time>2016-10-30T11:21:31Z</time>
      </trkpt>
      <trkpt lat="40.142756598070264" lon="-6.90537141636014">
        <ele>455.321533203125</ele>
        <time>2016-10-30T11:21:36Z</time>
      </trkpt>
      <trkpt lat="40.142729775980115" lon="-6.905309222638607">
        <ele>456.7635498046875</ele>
        <time>2016-10-30T11:21:41Z</time>
      </trkpt>
      <trkpt lat="40.142696918919683" lon="-6.905241496860981">
        <ele>457.7249755859375</ele>
        <time>2016-10-30T11:21:46Z</time>
      </trkpt>
      <trkpt lat="40.142663223668933" lon="-6.905160611495376">
        <ele>459.1668701171875</ele>
        <time>2016-10-30T11:21:51Z</time>
      </trkpt>
      <trkpt lat="40.142626762390137" lon="-6.905094478279352">
        <ele>460.128173828125</ele>
        <time>2016-10-30T11:21:56Z</time>
      </trkpt>
      <trkpt lat="40.142595581710339" lon="-6.905021890997887">
        <ele>461.0894775390625</ele>
        <time>2016-10-30T11:22:01Z</time>
      </trkpt>
      <trkpt lat="40.142569681629539" lon="-6.904958439990878">
        <ele>462.05078125</ele>
        <time>2016-10-30T11:22:06Z</time>
      </trkpt>
      <trkpt lat="40.14252869412303" lon="-6.904876632615924">
        <ele>461.5701904296875</ele>
        <time>2016-10-30T11:22:11Z</time>
      </trkpt>
      <trkpt lat="40.14247102662921" lon="-6.904814019799233">
        <ele>462.5313720703125</ele>
        <time>2016-10-30T11:22:16Z</time>
      </trkpt>
      <trkpt lat="40.142397182062268" lon="-6.904772948473692">
        <ele>463.0120849609375</ele>
        <time>2016-10-30T11:22:21Z</time>
      </trkpt>
      <trkpt lat="40.142334820702672" lon="-6.904659289866686">
        <ele>464.4541015625</ele>
        <time>2016-10-30T11:22:26Z</time>
      </trkpt>
      <trkpt lat="40.142274387180805" lon="-6.904487460851669">
        <ele>462.5313720703125</ele>
        <time>2016-10-30T11:22:31Z</time>
      </trkpt>
      <trkpt lat="40.142224347218871" lon="-6.904319068416953">
        <ele>460.128173828125</ele>
        <time>2016-10-30T11:22:36Z</time>
      </trkpt>
      <trkpt lat="40.142146730795503" lon="-6.904130894690752">
        <ele>460.128173828125</ele>
        <time>2016-10-30T11:22:41Z</time>
      </trkpt>
      <trkpt lat="40.142023600637913" lon="-6.903930818662047">
        <ele>459.6475830078125</ele>
        <time>2016-10-30T11:22:46Z</time>
      </trkpt>
      <trkpt lat="40.141876917332411" lon="-6.903745159506798">
        <ele>461.0894775390625</ele>
        <time>2016-10-30T11:22:51Z</time>
      </trkpt>
      <trkpt lat="40.141753954812884" lon="-6.903552627190948">
        <ele>460.6087646484375</ele>
        <time>2016-10-30T11:22:56Z</time>
      </trkpt>
      <trkpt lat="40.141663262620568" lon="-6.903307875618339">
        <ele>458.20556640625</ele>
        <time>2016-10-30T11:23:01Z</time>
      </trkpt>
      <trkpt lat="40.141584388911724" lon="-6.902874615043402">
        <ele>456.282958984375</ele>
        <time>2016-10-30T11:23:06Z</time>
      </trkpt>
      <trkpt lat="40.141527643427253" lon="-6.902426350861788">
        <ele>456.282958984375</ele>
        <time>2016-10-30T11:23:11Z</time>
      </trkpt>
      <trkpt lat="40.141460923478007" lon="-6.902056038379669">
        <ele>455.321533203125</ele>
        <time>2016-10-30T11:23:16Z</time>
      </trkpt>
      <trkpt lat="40.141360927373171" lon="-6.901727132499218">
        <ele>455.80224609375</ele>
        <time>2016-10-30T11:23:21Z</time>
      </trkpt>
      <trkpt lat="40.141336787492037" lon="-6.901485985144973">
        <ele>456.282958984375</ele>
        <time>2016-10-30T11:23:26Z</time>
      </trkpt>
      <trkpt lat="40.141352545469999" lon="-6.901304265484214">
        <ele>455.80224609375</ele>
        <time>2016-10-30T11:23:31Z</time>
      </trkpt>
      <trkpt lat="40.141369141638279" lon="-6.901117935776711">
        <ele>456.282958984375</ele>
        <time>2016-10-30T11:23:36Z</time>
      </trkpt>
      <trkpt lat="40.141363022848964" lon="-6.900943927466869">
        <ele>456.7635498046875</ele>
        <time>2016-10-30T11:23:41Z</time>
      </trkpt>
      <trkpt lat="40.141336703673005" lon="-6.900766985490918">
        <ele>457.7249755859375</ele>
        <time>2016-10-30T11:23:46Z</time>
      </trkpt>
      <trkpt lat="40.141300912946463" lon="-6.900581745430827">
        <ele>459.6475830078125</ele>
        <time>2016-10-30T11:23:51Z</time>
      </trkpt>
      <trkpt lat="40.141240982338786" lon="-6.900400947779417">
        <ele>460.6087646484375</ele>
        <time>2016-10-30T11:23:56Z</time>
      </trkpt>
      <trkpt lat="40.141189182177186" lon="-6.900238171219826">
        <ele>462.5313720703125</ele>
        <time>2016-10-30T11:24:01Z</time>
      </trkpt>
      <trkpt lat="40.141122713685036" lon="-6.900060391053557">
        <ele>463.973388671875</ele>
        <time>2016-10-30T11:24:08Z</time>
      </trkpt>
      <trkpt lat="40.141071164980531" lon="-6.899958215653896">
        <ele>464.4541015625</ele>
        <time>2016-10-30T11:24:14Z</time>
      </trkpt>
      <trkpt lat="40.141032859683037" lon="-6.899861991405487">
        <ele>464.934814453125</ele>
        <time>2016-10-30T11:24:19Z</time>
      </trkpt>
      <trkpt lat="40.140996146947145" lon="-6.899762079119682">
        <ele>465.8961181640625</ele>
        <time>2016-10-30T11:24:24Z</time>
      </trkpt>
      <trkpt lat="40.140950381755829" lon="-6.899679014459252">
        <ele>465.8961181640625</ele>
        <time>2016-10-30T11:24:29Z</time>
      </trkpt>
      <trkpt lat="40.140911657363176" lon="-6.899593099951744">
        <ele>466.376708984375</ele>
        <time>2016-10-30T11:24:34Z</time>
      </trkpt>
      <trkpt lat="40.140869664028287" lon="-6.89951372332871">
        <ele>466.376708984375</ele>
        <time>2016-10-30T11:24:39Z</time>
      </trkpt>
      <trkpt lat="40.14083705842495" lon="-6.899441219866276">
        <ele>467.338134765625</ele>
        <time>2016-10-30T11:24:44Z</time>
      </trkpt>
      <trkpt lat="40.140796322375536" lon="-6.899350024759769">
        <ele>468.29931640625</ele>
        <time>2016-10-30T11:24:49Z</time>
      </trkpt>
      <trkpt lat="40.140755670145154" lon="-6.899266624823213">
        <ele>468.780029296875</ele>
        <time>2016-10-30T11:24:54Z</time>
      </trkpt>
      <trkpt lat="40.140703786164522" lon="-6.899166041985154">
        <ele>469.2607421875</ele>
        <time>2016-10-30T11:24:59Z</time>
      </trkpt>
      <trkpt lat="40.1406479626894" lon="-6.899072583764792">
        <ele>468.780029296875</ele>
        <time>2016-10-30T11:25:04Z</time>
      </trkpt>
      <trkpt lat="40.140595240518451" lon="-6.898976359516382">
        <ele>469.2607421875</ele>
        <time>2016-10-30T11:25:09Z</time>
      </trkpt>
      <trkpt lat="40.140543188899755" lon="-6.898740492761135">
        <ele>468.780029296875</ele>
        <time>2016-10-30T11:25:14Z</time>
      </trkpt>
      <trkpt lat="40.140453753992915" lon="-6.898430194705725">
        <ele>466.857421875</ele>
        <time>2016-10-30T11:25:19Z</time>
      </trkpt>
      <trkpt lat="40.140518462285399" lon="-6.89742092974484">
        <ele>463.4927978515625</ele>
        <time>2016-10-30T11:25:24Z</time>
      </trkpt>
      <trkpt lat="40.140368426218629" lon="-6.897351695224643">
        <ele>459.1668701171875</ele>
        <time>2016-10-30T11:25:29Z</time>
      </trkpt>
      <trkpt lat="40.140279326587915" lon="-6.897521009668708">
        <ele>458.20556640625</ele>
        <time>2016-10-30T11:25:34Z</time>
      </trkpt>
      <trkpt lat="40.140289971604943" lon="-6.897487984970212">
        <ele>457.7249755859375</ele>
        <time>2016-10-30T11:25:39Z</time>
      </trkpt>
      <trkpt lat="40.140288127586246" lon="-6.897472646087408">
        <ele>457.7249755859375</ele>
        <time>2016-10-30T11:25:44Z</time>
      </trkpt>
      <trkpt lat="40.140285696834326" lon="-6.897448673844338">
        <ele>457.2442626953125</ele>
        <time>2016-10-30T11:25:49Z</time>
      </trkpt>
      <trkpt lat="40.14028494246304" lon="-6.897446326911449">
        <ele>457.2442626953125</ele>
        <time>2016-10-30T11:25:54Z</time>
      </trkpt>
      <trkpt lat="40.14028443954885" lon="-6.897438280284405">
        <ele>457.7249755859375</ele>
        <time>2016-10-30T11:25:59Z</time>
      </trkpt>
      <trkpt lat="40.14028443954885" lon="-6.897439286112785">
        <ele>457.7249755859375</ele>
        <time>2016-10-30T11:26:04Z</time>
      </trkpt>
      <trkpt lat="40.14028443954885" lon="-6.897439202293754">
        <ele>457.7249755859375</ele>
        <time>2016-10-30T11:26:09Z</time>
      </trkpt>
      <trkpt lat="40.14028443954885" lon="-6.897439705207944">
        <ele>457.7249755859375</ele>
        <time>2016-10-30T11:26:14Z</time>
      </trkpt>
      <trkpt lat="40.14028443954885" lon="-6.897439956665039">
        <ele>457.7249755859375</ele>
        <time>2016-10-30T11:26:19Z</time>
      </trkpt>
      <trkpt lat="40.140284523367882" lon="-6.897440124303103">
        <ele>457.7249755859375</ele>
        <time>2016-10-30T11:26:24Z</time>
      </trkpt>
      <trkpt lat="40.140284607186913" lon="-6.897440375760198">
        <ele>457.7249755859375</ele>
        <time>2016-10-30T11:26:29Z</time>
      </trkpt>
      <trkpt lat="40.140284858644009" lon="-6.897440711036325">
        <ele>457.7249755859375</ele>
        <time>2016-10-30T11:26:34Z</time>
      </trkpt>
      <trkpt lat="40.14028494246304" lon="-6.897441130131483">
        <ele>457.7249755859375</ele>
        <time>2016-10-30T11:26:39Z</time>
      </trkpt>
      <trkpt lat="40.140285110101104" lon="-6.897441800683737">
        <ele>457.7249755859375</ele>
        <time>2016-10-30T11:26:44Z</time>
      </trkpt>
      <trkpt lat="40.140285613015294" lon="-6.897442219778895">
        <ele>457.7249755859375</ele>
        <time>2016-10-30T11:26:49Z</time>
      </trkpt>
      <trkpt lat="40.140286032110453" lon="-6.897442722693086">
        <ele>457.7249755859375</ele>
        <time>2016-10-30T11:26:54Z</time>
      </trkpt>
      <trkpt lat="40.14028636738658" lon="-6.897443393245339">
        <ele>457.7249755859375</ele>
        <time>2016-10-30T11:26:59Z</time>
      </trkpt>
      <trkpt lat="40.140286702662706" lon="-6.89744389615953">
        <ele>457.7249755859375</ele>
        <time>2016-10-30T11:27:04Z</time>
      </trkpt>
      <trkpt lat="40.140286954119802" lon="-6.89744439907372">
        <ele>457.7249755859375</ele>
        <time>2016-10-30T11:27:09Z</time>
      </trkpt>
      <trkpt lat="40.140287121757865" lon="-6.897444818168879">
        <ele>457.7249755859375</ele>
        <time>2016-10-30T11:27:14Z</time>
      </trkpt>
      <trkpt lat="40.140287289395928" lon="-6.897445153445005">
        <ele>457.7249755859375</ele>
        <time>2016-10-30T11:27:19Z</time>
      </trkpt>
      <trkpt lat="40.14028737321496" lon="-6.897445321083069">
        <ele>458.20556640625</ele>
        <time>2016-10-30T11:27:24Z</time>
      </trkpt>
      <trkpt lat="40.140287624672055" lon="-6.897445572540164">
        <ele>458.20556640625</ele>
        <time>2016-10-30T11:27:29Z</time>
      </trkpt>
      <trkpt lat="40.140288043767214" lon="-6.897445991635323">
        <ele>458.20556640625</ele>
        <time>2016-10-30T11:27:34Z</time>
      </trkpt>
      <trkpt lat="40.140288546681404" lon="-6.897446243092418">
        <ele>458.20556640625</ele>
        <time>2016-10-30T11:27:39Z</time>
      </trkpt>
      <trkpt lat="40.140288965776563" lon="-6.897445991635323">
        <ele>458.20556640625</ele>
        <time>2016-10-30T11:27:44Z</time>
      </trkpt>
      <trkpt lat="40.140289384871721" lon="-6.897445656359196">
        <ele>458.20556640625</ele>
        <time>2016-10-30T11:27:49Z</time>
      </trkpt>
      <trkpt lat="40.140289636328816" lon="-6.897445321083069">
        <ele>458.20556640625</ele>
        <time>2016-10-30T11:27:54Z</time>
      </trkpt>
      <trkpt lat="40.140289971604943" lon="-6.897445069625974">
        <ele>458.20556640625</ele>
        <time>2016-10-30T11:27:59Z</time>
      </trkpt>
      <trkpt lat="40.14029030688107" lon="-6.897444985806942">
        <ele>458.20556640625</ele>
        <time>2016-10-30T11:28:04Z</time>
      </trkpt>
      <trkpt lat="40.14029080979526" lon="-6.897444985806942">
        <ele>458.20556640625</ele>
        <time>2016-10-30T11:28:09Z</time>
      </trkpt>
      <trkpt lat="40.140290893614292" lon="-6.897445069625974">
        <ele>458.20556640625</ele>
        <time>2016-10-30T11:28:14Z</time>
      </trkpt>
      <trkpt lat="40.140291145071387" lon="-6.897445153445005">
        <ele>458.20556640625</ele>
        <time>2016-10-30T11:28:19Z</time>
      </trkpt>
      <trkpt lat="40.140291480347514" lon="-6.897444985806942">
        <ele>458.20556640625</ele>
        <time>2016-10-30T11:28:24Z</time>
      </trkpt>
      <trkpt lat="40.140291899442673" lon="-6.897444985806942">
        <ele>458.20556640625</ele>
        <time>2016-10-30T11:28:29Z</time>
      </trkpt>
      <trkpt lat="40.140292067080736" lon="-6.897444985806942">
        <ele>458.20556640625</ele>
        <time>2016-10-30T11:28:34Z</time>
      </trkpt>
      <trkpt lat="40.140292318537831" lon="-6.897445488721132">
        <ele>458.20556640625</ele>
        <time>2016-10-30T11:28:39Z</time>
      </trkpt>
      <trkpt lat="40.140292821452022" lon="-6.897445740178227">
        <ele>458.20556640625</ele>
        <time>2016-10-30T11:28:44Z</time>
      </trkpt>
      <trkpt lat="40.140292989090085" lon="-6.897445237264037">
        <ele>458.20556640625</ele>
        <time>2016-10-30T11:28:49Z</time>
      </trkpt>
      <trkpt lat="40.140293156728148" lon="-6.897444566711783">
        <ele>458.20556640625</ele>
        <time>2016-10-30T11:28:54Z</time>
      </trkpt>
      <trkpt lat="40.14029324054718" lon="-6.897443812340498">
        <ele>458.20556640625</ele>
        <time>2016-10-30T11:28:59Z</time>
      </trkpt>
      <trkpt lat="40.140293659642339" lon="-6.897444063797593">
        <ele>458.20556640625</ele>
        <time>2016-10-30T11:29:04Z</time>
      </trkpt>
      <trkpt lat="40.140293575823307" lon="-6.897444147616625">
        <ele>458.20556640625</ele>
        <time>2016-10-30T11:29:09Z</time>
      </trkpt>
      <trkpt lat="40.140293324366212" lon="-6.897444315254688">
        <ele>458.20556640625</ele>
        <time>2016-10-30T11:29:14Z</time>
      </trkpt>
      <trkpt lat="40.140293324366212" lon="-6.897444315254688">
        <ele>458.20556640625</ele>
        <time>2016-10-30T11:29:19Z</time>
      </trkpt>
      <trkpt lat="40.140293324366212" lon="-6.897444482892752">
        <ele>458.20556640625</ele>
        <time>2016-10-30T11:29:24Z</time>
      </trkpt>
      <trkpt lat="40.140293072909117" lon="-6.897444734349847">
        <ele>458.20556640625</ele>
        <time>2016-10-30T11:29:29Z</time>
      </trkpt>
      <trkpt lat="40.14029273763299" lon="-6.897445404902101">
        <ele>458.20556640625</ele>
        <time>2016-10-30T11:29:34Z</time>
      </trkpt>
      <trkpt lat="40.140292569994926" lon="-6.897445656359196">
        <ele>458.20556640625</ele>
        <time>2016-10-30T11:29:39Z</time>
      </trkpt>
      <trkpt lat="40.140292067080736" lon="-6.897445572540164">
        <ele>458.20556640625</ele>
        <time>2016-10-30T11:29:44Z</time>
      </trkpt>
      <trkpt lat="40.140291899442673" lon="-6.897445237264037">
        <ele>458.20556640625</ele>
        <time>2016-10-30T11:29:49Z</time>
      </trkpt>
      <trkpt lat="40.140291480347514" lon="-6.897445237264037">
        <ele>458.20556640625</ele>
        <time>2016-10-30T11:29:54Z</time>
      </trkpt>
      <trkpt lat="40.140291145071387" lon="-6.897445069625974">
        <ele>458.20556640625</ele>
        <time>2016-10-30T11:29:59Z</time>
      </trkpt>
      <trkpt lat="40.140288965776563" lon="-6.897442555055022">
        <ele>458.20556640625</ele>
        <time>2016-10-30T11:30:04Z</time>
      </trkpt>
      <trkpt lat="40.140290474519134" lon="-6.897449009120464">
        <ele>458.6861572265625</ele>
        <time>2016-10-30T11:30:09Z</time>
      </trkpt>
      <trkpt lat="40.140289468690753" lon="-6.897445907816291">
        <ele>458.6861572265625</ele>
        <time>2016-10-30T11:30:14Z</time>
      </trkpt>
      <trkpt lat="40.140220066532493" lon="-6.89734716899693">
        <ele>457.7249755859375</ele>
        <time>2016-10-30T11:30:19Z</time>
      </trkpt>
      <trkpt lat="40.140129374340177" lon="-6.897263769060373">
        <ele>457.7249755859375</ele>
        <time>2016-10-30T11:30:24Z</time>
      </trkpt>
      <trkpt lat="40.139980427920818" lon="-6.897184476256371">
        <ele>456.7635498046875</ele>
        <time>2016-10-30T11:30:29Z</time>
      </trkpt>
      <trkpt lat="40.139777418226004" lon="-6.897078864276409">
        <ele>457.2442626953125</ele>
        <time>2016-10-30T11:30:34Z</time>
      </trkpt>
      <trkpt lat="40.13951045460999" lon="-6.896955650299788">
        <ele>454.8408203125</ele>
        <time>2016-10-30T11:30:39Z</time>
      </trkpt>
      <trkpt lat="40.139191774651408" lon="-6.896808631718159">
        <ele>453.879638671875</ele>
        <time>2016-10-30T11:30:44Z</time>
      </trkpt>
      <trkpt lat="40.138881141319871" lon="-6.896694051101804">
        <ele>452.918212890625</ele>
        <time>2016-10-30T11:30:49Z</time>
      </trkpt>
      <trkpt lat="40.138588445261121" lon="-6.896694218739867">
        <ele>451.95703125</ele>
        <time>2016-10-30T11:30:54Z</time>
      </trkpt>
      <trkpt lat="40.138369426131248" lon="-6.896870825439692">
        <ele>452.4376220703125</ele>
        <time>2016-10-30T11:30:59Z</time>
      </trkpt>
      <trkpt lat="40.138205727562308" lon="-6.897110547870398">
        <ele>451.476318359375</ele>
        <time>2016-10-30T11:31:04Z</time>
      </trkpt>
      <trkpt lat="40.138092990964651" lon="-6.897368375211954">
        <ele>451.476318359375</ele>
        <time>2016-10-30T11:31:09Z</time>
      </trkpt>
      <trkpt lat="40.137989809736609" lon="-6.897604074329138">
        <ele>452.4376220703125</ele>
        <time>2016-10-30T11:31:14Z</time>
      </trkpt>
      <trkpt lat="40.137882689014077" lon="-6.897629555314779">
        <ele>453.879638671875</ele>
        <time>2016-10-30T11:31:19Z</time>
      </trkpt>
      <trkpt lat="40.137742375954986" lon="-6.897544311359525">
        <ele>453.39892578125</ele>
        <time>2016-10-30T11:31:24Z</time>
      </trkpt>
      <trkpt lat="40.137565769255161" lon="-6.897373571991921">
        <ele>452.4376220703125</ele>
        <time>2016-10-30T11:31:29Z</time>
      </trkpt>
      <trkpt lat="40.137307858094573" lon="-6.897140722721815">
        <ele>447.6309814453125</ele>
        <time>2016-10-30T11:31:34Z</time>
      </trkpt>
      <trkpt lat="40.136893959715962" lon="-6.896799243986607">
        <ele>446.1890869140625</ele>
        <time>2016-10-30T11:31:39Z</time>
      </trkpt>
      <trkpt lat="40.136567233130336" lon="-6.896553570404649">
        <ele>445.2276611328125</ele>
        <time>2016-10-30T11:31:44Z</time>
      </trkpt>
      <trkpt lat="40.136279314756393" lon="-6.896253246814013">
        <ele>441.3824462890625</ele>
        <time>2016-10-30T11:31:49Z</time>
      </trkpt>
      <trkpt lat="40.135945547372103" lon="-6.895993575453758">
        <ele>438.9791259765625</ele>
        <time>2016-10-30T11:31:54Z</time>
      </trkpt>
      <trkpt lat="40.135666765272617" lon="-6.895853262394667">
        <ele>438.49853515625</ele>
        <time>2016-10-30T11:31:59Z</time>
      </trkpt>
      <trkpt lat="40.135639356449246" lon="-6.895705405622721">
        <ele>438.9791259765625</ele>
        <time>2016-10-30T11:32:04Z</time>
      </trkpt>
      <trkpt lat="40.135643295943737" lon="-6.895608343183994">
        <ele>440.4212646484375</ele>
        <time>2016-10-30T11:32:09Z</time>
      </trkpt>
      <trkpt lat="40.135639104992151" lon="-6.895503820851445">
        <ele>441.8631591796875</ele>
        <time>2016-10-30T11:32:14Z</time>
      </trkpt>
      <trkpt lat="40.135662909597158" lon="-6.895416062325239">
        <ele>442.824462890625</ele>
        <time>2016-10-30T11:32:19Z</time>
      </trkpt>
      <trkpt lat="40.135659808292985" lon="-6.895343139767647">
        <ele>444.2664794921875</ele>
        <time>2016-10-30T11:32:24Z</time>
      </trkpt>
      <trkpt lat="40.135643882676959" lon="-6.895241718739271">
        <ele>445.7083740234375</ele>
        <time>2016-10-30T11:32:29Z</time>
      </trkpt>
      <trkpt lat="40.135610438883305" lon="-6.895147087052465">
        <ele>446.1890869140625</ele>
        <time>2016-10-30T11:32:34Z</time>
      </trkpt>
      <trkpt lat="40.135520920157433" lon="-6.894978024065495">
        <ele>445.7083740234375</ele>
        <time>2016-10-30T11:32:39Z</time>
      </trkpt>
      <trkpt lat="40.135428132489324" lon="-6.894725225865841">
        <ele>445.2276611328125</ele>
        <time>2016-10-30T11:32:44Z</time>
      </trkpt>
      <trkpt lat="40.135356299579144" lon="-6.894519031047821">
        <ele>444.2664794921875</ele>
        <time>2016-10-30T11:32:49Z</time>
      </trkpt>
      <trkpt lat="40.135279269888997" lon="-6.894311578944325">
        <ele>442.824462890625</ele>
        <time>2016-10-30T11:32:54Z</time>
      </trkpt>
      <trkpt lat="40.135048096999526" lon="-6.894255420193076">
        <ele>441.8631591796875</ele>
        <time>2016-10-30T11:32:59Z</time>
      </trkpt>
      <trkpt lat="40.134819941595197" lon="-6.894032377749682">
        <ele>439.459716796875</ele>
        <time>2016-10-30T11:33:04Z</time>
      </trkpt>
      <trkpt lat="40.134548284113407" lon="-6.893744543194771">
        <ele>437.537109375</ele>
        <time>2016-10-30T11:33:09Z</time>
      </trkpt>
      <trkpt lat="40.134270088747144" lon="-6.893470287322998">
        <ele>434.172607421875</ele>
        <time>2016-10-30T11:33:14Z</time>
      </trkpt>
      <trkpt lat="40.133955683559179" lon="-6.893550585955381">
        <ele>432.730712890625</ele>
        <time>2016-10-30T11:33:19Z</time>
      </trkpt>
      <trkpt lat="40.133686540648341" lon="-6.893623173236847">
        <ele>432.25</ele>
        <time>2016-10-30T11:33:24Z</time>
      </trkpt>
      <trkpt lat="40.133459474891424" lon="-6.893736245110631">
        <ele>430.8079833984375</ele>
        <time>2016-10-30T11:33:29Z</time>
      </trkpt>
      <trkpt lat="40.133162755519152" lon="-6.893739849328995">
        <ele>428.4046630859375</ele>
        <time>2016-10-30T11:33:34Z</time>
      </trkpt>
      <trkpt lat="40.132867880165577" lon="-6.893520327284932">
        <ele>426.0013427734375</ele>
        <time>2016-10-30T11:33:39Z</time>
      </trkpt>
      <trkpt lat="40.132521204650402" lon="-6.893618814647198">
        <ele>425.0401611328125</ele>
        <time>2016-10-30T11:33:44Z</time>
      </trkpt>
      <trkpt lat="40.132158603519201" lon="-6.89371126703918">
        <ele>423.117431640625</ele>
        <time>2016-10-30T11:33:49Z</time>
      </trkpt>
      <trkpt lat="40.131791979074478" lon="-6.893843784928322">
        <ele>419.7528076171875</ele>
        <time>2016-10-30T11:33:54Z</time>
      </trkpt>
      <trkpt lat="40.131404986605048" lon="-6.893955348059535">
        <ele>417.349609375</ele>
        <time>2016-10-30T11:33:59Z</time>
      </trkpt>
      <trkpt lat="40.13105328194797" lon="-6.894119214266539">
        <ele>416.38818359375</ele>
        <time>2016-10-30T11:34:04Z</time>
      </trkpt>
      <trkpt lat="40.130689339712262" lon="-6.893894579261541">
        <ele>412.5428466796875</ele>
        <time>2016-10-30T11:34:09Z</time>
      </trkpt>
      <trkpt lat="40.130361691117287" lon="-6.893607247620821">
        <ele>411.5816650390625</ele>
        <time>2016-10-30T11:34:14Z</time>
      </trkpt>
      <trkpt lat="40.130033036693931" lon="-6.893581179901958">
        <ele>410.6202392578125</ele>
        <time>2016-10-30T11:34:19Z</time>
      </trkpt>
      <trkpt lat="40.129771856591105" lon="-6.893545892089605">
        <ele>413.0235595703125</ele>
        <time>2016-10-30T11:34:24Z</time>
      </trkpt>
      <trkpt lat="40.129678482189775" lon="-6.893479088321328">
        <ele>414.4654541015625</ele>
        <time>2016-10-30T11:34:29Z</time>
      </trkpt>
      <trkpt lat="40.129611846059561" lon="-6.893383618444204">
        <ele>414.9461669921875</ele>
        <time>2016-10-30T11:34:34Z</time>
      </trkpt>
      <trkpt lat="40.129542611539364" lon="-6.893284795805812">
        <ele>413.98486328125</ele>
        <time>2016-10-30T11:34:39Z</time>
      </trkpt>
      <trkpt lat="40.129504976794124" lon="-6.893186643719673">
        <ele>414.4654541015625</ele>
        <time>2016-10-30T11:34:43Z</time>
      </trkpt>
      <trkpt lat="40.129438927397132" lon="-6.89305555075407">
        <ele>414.9461669921875</ele>
        <time>2016-10-30T11:34:49Z</time>
      </trkpt>
      <trkpt lat="40.129380170255899" lon="-6.892921272665262">
        <ele>415.4268798828125</ele>
        <time>2016-10-30T11:34:54Z</time>
      </trkpt>
      <trkpt lat="40.129308085888624" lon="-6.892819683998823">
        <ele>415.4268798828125</ele>
        <time>2016-10-30T11:34:59Z</time>
      </trkpt>
      <trkpt lat="40.129259806126356" lon="-6.892685238271952">
        <ele>415.907470703125</ele>
        <time>2016-10-30T11:35:04Z</time>
      </trkpt>
      <trkpt lat="40.129204485565424" lon="-6.892549367621541">
        <ele>417.8302001953125</ele>
        <time>2016-10-30T11:35:09Z</time>
      </trkpt>
      <trkpt lat="40.129147907719016" lon="-6.892322553321719">
        <ele>416.868896484375</ele>
        <time>2016-10-30T11:35:14Z</time>
      </trkpt>
      <trkpt lat="40.129054449498653" lon="-6.892056260257959">
        <ele>415.907470703125</ele>
        <time>2016-10-30T11:35:19Z</time>
      </trkpt>
      <trkpt lat="40.128913801163435" lon="-6.891783345490694">
        <ele>415.907470703125</ele>
        <time>2016-10-30T11:35:24Z</time>
      </trkpt>
      <trkpt lat="40.128838028758764" lon="-6.891497271135449">
        <ele>414.9461669921875</ele>
        <time>2016-10-30T11:35:29Z</time>
      </trkpt>
      <trkpt lat="40.128725040704012" lon="-6.891236510127783">
        <ele>414.9461669921875</ele>
        <time>2016-10-30T11:35:34Z</time>
      </trkpt>
      <trkpt lat="40.128640802577138" lon="-6.891019167378545">
        <ele>414.9461669921875</ele>
        <time>2016-10-30T11:35:39Z</time>
      </trkpt>
      <trkpt lat="40.128539046272635" lon="-6.890817582607269">
        <ele>415.907470703125</ele>
        <time>2016-10-30T11:35:44Z</time>
      </trkpt>
      <trkpt lat="40.128466626629233" lon="-6.890643239021301">
        <ele>415.907470703125</ele>
        <time>2016-10-30T11:35:49Z</time>
      </trkpt>
      <trkpt lat="40.128404432907701" lon="-6.890483228489757">
        <ele>417.349609375</ele>
        <time>2016-10-30T11:35:54Z</time>
      </trkpt>
      <trkpt lat="40.128340478986502" lon="-6.890344927087426">
        <ele>417.349609375</ele>
        <time>2016-10-30T11:35:59Z</time>
      </trkpt>
      <trkpt lat="40.128268478438258" lon="-6.890166057273746">
        <ele>417.8302001953125</ele>
        <time>2016-10-30T11:36:04Z</time>
      </trkpt>
      <trkpt lat="40.128165716305375" lon="-6.889942428097129">
        <ele>415.4268798828125</ele>
        <time>2016-10-30T11:36:09Z</time>
      </trkpt>
      <trkpt lat="40.127986762672663" lon="-6.889592483639717">
        <ele>410.1396484375</ele>
        <time>2016-10-30T11:36:14Z</time>
      </trkpt>
      <trkpt lat="40.127676632255316" lon="-6.889059310778976">
        <ele>404.852294921875</ele>
        <time>2016-10-30T11:36:19Z</time>
      </trkpt>
      <trkpt lat="40.127363065257668" lon="-6.888548517599702">
        <ele>403.410400390625</ele>
        <time>2016-10-30T11:36:24Z</time>
      </trkpt>
      <trkpt lat="40.127015970647335" lon="-6.888321535661817">
        <ele>403.410400390625</ele>
        <time>2016-10-30T11:36:29Z</time>
      </trkpt>
      <trkpt lat="40.126673150807619" lon="-6.888092625886202">
        <ele>402.9296875</ele>
        <time>2016-10-30T11:36:34Z</time>
      </trkpt>
      <trkpt lat="40.126313986256719" lon="-6.887857597321272">
        <ele>401.968505859375</ele>
        <time>2016-10-30T11:36:39Z</time>
      </trkpt>
      <trkpt lat="40.126054482534528" lon="-6.88763665035367">
        <ele>399.5650634765625</ele>
        <time>2016-10-30T11:36:44Z</time>
      </trkpt>
      <trkpt lat="40.125937890261412" lon="-6.887406399473548">
        <ele>397.1617431640625</ele>
        <time>2016-10-30T11:36:49Z</time>
      </trkpt>
      <trkpt lat="40.126079125329852" lon="-6.887237085029483">
        <ele>397.1617431640625</ele>
        <time>2016-10-30T11:36:54Z</time>
      </trkpt>
      <trkpt lat="40.126268221065402" lon="-6.887090569362044">
        <ele>396.68115234375</ele>
        <time>2016-10-30T11:36:59Z</time>
      </trkpt>
      <trkpt lat="40.126434937119484" lon="-6.886977832764387">
        <ele>397.6424560546875</ele>
        <time>2016-10-30T11:37:04Z</time>
      </trkpt>
      <trkpt lat="40.12661749497056" lon="-6.88691589049995">
        <ele>397.6424560546875</ele>
        <time>2016-10-30T11:37:09Z</time>
      </trkpt>
      <trkpt lat="40.12682075612247" lon="-6.886832071468234">
        <ele>396.68115234375</ele>
        <time>2016-10-30T11:37:14Z</time>
      </trkpt>
      <trkpt lat="40.127072716131806" lon="-6.886590840294957">
        <ele>393.7972412109375</ele>
        <time>2016-10-30T11:37:19Z</time>
      </trkpt>
      <trkpt lat="40.127298273146152" lon="-6.886199405416846">
        <ele>391.87451171875</ele>
        <time>2016-10-30T11:37:24Z</time>
      </trkpt>
      <trkpt lat="40.127526680007577" lon="-6.885817190632224">
        <ele>390.9132080078125</ele>
        <time>2016-10-30T11:37:29Z</time>
      </trkpt>
      <trkpt lat="40.127676213160157" lon="-6.885774778202176">
        <ele>392.8359375</ele>
        <time>2016-10-30T11:37:34Z</time>
      </trkpt>
      <trkpt lat="40.127763468772173" lon="-6.885820543393493">
        <ele>393.3165283203125</ele>
        <time>2016-10-30T11:37:39Z</time>
      </trkpt>
      <trkpt lat="40.127846701070666" lon="-6.885888604447246">
        <ele>393.7972412109375</ele>
        <time>2016-10-30T11:37:44Z</time>
      </trkpt>
      <trkpt lat="40.127927837893367" lon="-6.885936465114355">
        <ele>394.758544921875</ele>
        <time>2016-10-30T11:37:49Z</time>
      </trkpt>
      <trkpt lat="40.128021212294698" lon="-6.885964460670948">
        <ele>395.2391357421875</ele>
        <time>2016-10-30T11:37:54Z</time>
      </trkpt>
      <trkpt lat="40.128120621666312" lon="-6.885977787896991">
        <ele>396.2005615234375</ele>
        <time>2016-10-30T11:37:59Z</time>
      </trkpt>
      <trkpt lat="40.1282265689224" lon="-6.885974435135722">
        <ele>397.1617431640625</ele>
        <time>2016-10-30T11:38:04Z</time>
      </trkpt>
      <trkpt lat="40.128318602219224" lon="-6.885961778461933">
        <ele>399.0843505859375</ele>
        <time>2016-10-30T11:38:09Z</time>
      </trkpt>
      <trkpt lat="40.128400241956115" lon="-6.885915258899331">
        <ele>399.5650634765625</ele>
        <time>2016-10-30T11:38:14Z</time>
      </trkpt>
      <trkpt lat="40.128478277474642" lon="-6.885871421545744">
        <ele>399.5650634765625</ele>
        <time>2016-10-30T11:38:19Z</time>
      </trkpt>
      <trkpt lat="40.128557067364454" lon="-6.885815262794495">
        <ele>401.007080078125</ele>
        <time>2016-10-30T11:38:24Z</time>
      </trkpt>
      <trkpt lat="40.12864482589066" lon="-6.885760948061943">
        <ele>401.968505859375</ele>
        <time>2016-10-30T11:38:29Z</time>
      </trkpt>
      <trkpt lat="40.128728225827217" lon="-6.88570411875844">
        <ele>402.4490966796875</ele>
        <time>2016-10-30T11:38:34Z</time>
      </trkpt>
      <trkpt lat="40.128826294094324" lon="-6.88565768301487">
        <ele>403.89111328125</ele>
        <time>2016-10-30T11:38:39Z</time>
      </trkpt>
      <trkpt lat="40.128905335441232" lon="-6.885593812912703">
        <ele>404.852294921875</ele>
        <time>2016-10-30T11:38:44Z</time>
      </trkpt>
      <trkpt lat="40.128991333767772" lon="-6.885539833456278">
        <ele>405.3330078125</ele>
        <time>2016-10-30T11:38:49Z</time>
      </trkpt>
      <trkpt lat="40.129081355407834" lon="-6.885487781837583">
        <ele>405.3330078125</ele>
        <time>2016-10-30T11:38:54Z</time>
      </trkpt>
      <trkpt lat="40.129200043156743" lon="-6.885434724390507">
        <ele>404.3717041015625</ele>
        <time>2016-10-30T11:38:59Z</time>
      </trkpt>
      <trkpt lat="40.129432557150722" lon="-6.885392647236586">
        <ele>401.007080078125</ele>
        <time>2016-10-30T11:39:04Z</time>
      </trkpt>
      <trkpt lat="40.129679907113314" lon="-6.885281419381499">
        <ele>401.48779296875</ele>
        <time>2016-10-30T11:39:09Z</time>
      </trkpt>
      <trkpt lat="40.129835810512304" lon="-6.88520866446197">
        <ele>402.4490966796875</ele>
        <time>2016-10-30T11:39:14Z</time>
      </trkpt>
      <trkpt lat="40.129941171035171" lon="-6.885192655026913">
        <ele>403.410400390625</ele>
        <time>2016-10-30T11:39:19Z</time>
      </trkpt>
      <trkpt lat="40.130033958703279" lon="-6.885193828493357">
        <ele>403.410400390625</ele>
        <time>2016-10-30T11:39:24Z</time>
      </trkpt>
      <trkpt lat="40.130124567076564" lon="-6.885179076343775">
        <ele>404.852294921875</ele>
        <time>2016-10-30T11:39:29Z</time>
      </trkpt>
      <trkpt lat="40.130217773839831" lon="-6.885164575651288">
        <ele>405.3330078125</ele>
        <time>2016-10-30T11:39:34Z</time>
      </trkpt>
      <trkpt lat="40.130304442718625" lon="-6.885147308930755">
        <ele>406.77490234375</ele>
        <time>2016-10-30T11:39:39Z</time>
      </trkpt>
      <trkpt lat="40.130403013899922" lon="-6.885109171271324">
        <ele>407.736328125</ele>
        <time>2016-10-30T11:39:44Z</time>
      </trkpt>
      <trkpt lat="40.130512313917279" lon="-6.885076481848955">
        <ele>408.217041015625</ele>
        <time>2016-10-30T11:39:49Z</time>
      </trkpt>
      <trkpt lat="40.130617925897241" lon="-6.88505913130939">
        <ele>406.77490234375</ele>
        <time>2016-10-30T11:39:54Z</time>
      </trkpt>
      <trkpt lat="40.130740720778704" lon="-6.885046726092696">
        <ele>407.736328125</ele>
        <time>2016-10-30T11:39:59Z</time>
      </trkpt>
      <trkpt lat="40.130855133756995" lon="-6.885005990043283">
        <ele>408.217041015625</ele>
        <time>2016-10-30T11:40:04Z</time>
      </trkpt>
      <trkpt lat="40.130976252257824" lon="-6.884966846555471">
        <ele>409.6590576171875</ele>
        <time>2016-10-30T11:40:09Z</time>
      </trkpt>
      <trkpt lat="40.131093012169003" lon="-6.884945556521416">
        <ele>410.6202392578125</ele>
        <time>2016-10-30T11:40:14Z</time>
      </trkpt>
      <trkpt lat="40.131216812878847" lon="-6.884922673925757">
        <ele>411.5816650390625</ele>
        <time>2016-10-30T11:40:19Z</time>
      </trkpt>
      <trkpt lat="40.131332650780678" lon="-6.884909849613905">
        <ele>412.5428466796875</ele>
        <time>2016-10-30T11:40:24Z</time>
      </trkpt>
      <trkpt lat="40.13144220225513" lon="-6.884885374456644">
        <ele>413.98486328125</ele>
        <time>2016-10-30T11:40:29Z</time>
      </trkpt>
      <trkpt lat="40.131575390696526" lon="-6.88486659899354">
        <ele>413.0235595703125</ele>
        <time>2016-10-30T11:40:34Z</time>
      </trkpt>
      <trkpt lat="40.131692318245769" lon="-6.884871209040284">
        <ele>413.5042724609375</ele>
        <time>2016-10-30T11:40:39Z</time>
      </trkpt>
      <trkpt lat="40.131797008216381" lon="-6.884898953139782">
        <ele>413.0235595703125</ele>
        <time>2016-10-30T11:40:44Z</time>
      </trkpt>
      <trkpt lat="40.131915947422385" lon="-6.88492720015347">
        <ele>413.5042724609375</ele>
        <time>2016-10-30T11:40:49Z</time>
      </trkpt>
      <trkpt lat="40.132036143913865" lon="-6.884924350306392">
        <ele>414.9461669921875</ele>
        <time>2016-10-30T11:40:54Z</time>
      </trkpt>
      <trkpt lat="40.132157346233726" lon="-6.884874729439616">
        <ele>416.38818359375</ele>
        <time>2016-10-30T11:40:59Z</time>
      </trkpt>
      <trkpt lat="40.132286511361599" lon="-6.884818151593208">
        <ele>416.868896484375</ele>
        <time>2016-10-30T11:41:04Z</time>
      </trkpt>
      <trkpt lat="40.132410731166601" lon="-6.884768949821591">
        <ele>418.310791015625</ele>
        <time>2016-10-30T11:41:09Z</time>
      </trkpt>
      <trkpt lat="40.132532101124525" lon="-6.884743301197887">
        <ele>418.310791015625</ele>
        <time>2016-10-30T11:41:14Z</time>
      </trkpt>
      <trkpt lat="40.132656153291464" lon="-6.884737685322762">
        <ele>419.272216796875</ele>
        <time>2016-10-30T11:41:19Z</time>
      </trkpt>
      <trkpt lat="40.132781965658069" lon="-6.884711282327771">
        <ele>420.714111328125</ele>
        <time>2016-10-30T11:41:24Z</time>
      </trkpt>
      <trkpt lat="40.132908700034022" lon="-6.884680017828941">
        <ele>420.714111328125</ele>
        <time>2016-10-30T11:41:29Z</time>
      </trkpt>
      <trkpt lat="40.13301900587976" lon="-6.884639784693718">
        <ele>420.714111328125</ele>
        <time>2016-10-30T11:41:34Z</time>
      </trkpt>
      <trkpt lat="40.1331274677068" lon="-6.884607430547476">
        <ele>421.6754150390625</ele>
        <time>2016-10-30T11:41:39Z</time>
      </trkpt>
      <trkpt lat="40.133222350850701" lon="-6.884569209069014">
        <ele>421.6754150390625</ele>
        <time>2016-10-30T11:41:44Z</time>
      </trkpt>
      <trkpt lat="40.133333075791597" lon="-6.884556049481034">
        <ele>423.117431640625</ele>
        <time>2016-10-30T11:41:49Z</time>
      </trkpt>
      <trkpt lat="40.133459139615297" lon="-6.884551187977195">
        <ele>422.63671875</ele>
        <time>2016-10-30T11:41:54Z</time>
      </trkpt>
      <trkpt lat="40.133586376905441" lon="-6.88454850576818">
        <ele>422.63671875</ele>
        <time>2016-10-30T11:41:59Z</time>
      </trkpt>
      <trkpt lat="40.133701544255018" lon="-6.884535010904074">
        <ele>422.156005859375</ele>
        <time>2016-10-30T11:42:04Z</time>
      </trkpt>
      <trkpt lat="40.133822746574879" lon="-6.884532244876027">
        <ele>422.63671875</ele>
        <time>2016-10-30T11:42:09Z</time>
      </trkpt>
      <trkpt lat="40.133948056027293" lon="-6.884565269574523">
        <ele>423.117431640625</ele>
        <time>2016-10-30T11:42:14Z</time>
      </trkpt>
      <trkpt lat="40.134042100980878" lon="-6.884591672569513">
        <ele>423.5980224609375</ele>
        <time>2016-10-30T11:42:19Z</time>
      </trkpt>
      <trkpt lat="40.134125165641308" lon="-6.884618243202567">
        <ele>424.5594482421875</ele>
        <time>2016-10-30T11:42:24Z</time>
      </trkpt>
      <trkpt lat="40.134219713509083" lon="-6.884620003402233">
        <ele>425.0401611328125</ele>
        <time>2016-10-30T11:42:29Z</time>
      </trkpt>
      <trkpt lat="40.134311662986875" lon="-6.884610196575522">
        <ele>425.520751953125</ele>
        <time>2016-10-30T11:42:34Z</time>
      </trkpt>
      <trkpt lat="40.134403528645635" lon="-6.884591924026609">
        <ele>426.4820556640625</ele>
        <time>2016-10-30T11:42:39Z</time>
      </trkpt>
      <trkpt lat="40.134503189474344" lon="-6.884589325636625">
        <ele>428.8853759765625</ele>
        <time>2016-10-30T11:42:44Z</time>
      </trkpt>
      <trkpt lat="40.134594887495041" lon="-6.884586894884706">
        <ele>430.3272705078125</ele>
        <time>2016-10-30T11:42:49Z</time>
      </trkpt>
      <trkpt lat="40.13469111174345" lon="-6.884580524638295">
        <ele>431.7691650390625</ele>
        <time>2016-10-30T11:42:54Z</time>
      </trkpt>
      <trkpt lat="40.13478247448802" lon="-6.88455923460424">
        <ele>432.25</ele>
        <time>2016-10-30T11:42:59Z</time>
      </trkpt>
      <trkpt lat="40.134877106174827" lon="-6.884520510211587">
        <ele>432.730712890625</ele>
        <time>2016-10-30T11:43:04Z</time>
      </trkpt>
      <trkpt lat="40.134973917156458" lon="-6.884460914880037">
        <ele>433.2113037109375</ele>
        <time>2016-10-30T11:43:09Z</time>
      </trkpt>
      <trkpt lat="40.135067962110043" lon="-6.884423280134797">
        <ele>433.69189453125</ele>
        <time>2016-10-30T11:43:14Z</time>
      </trkpt>
      <trkpt lat="40.13516753911972" lon="-6.88440291211009">
        <ele>434.172607421875</ele>
        <time>2016-10-30T11:43:19Z</time>
      </trkpt>
      <trkpt lat="40.135260913521051" lon="-6.884404923766851">
        <ele>435.1339111328125</ele>
        <time>2016-10-30T11:43:24Z</time>
      </trkpt>
      <trkpt lat="40.135367615148425" lon="-6.88444834202528">
        <ele>434.6533203125</ele>
        <time>2016-10-30T11:43:29Z</time>
      </trkpt>
      <trkpt lat="40.135477837175131" lon="-6.88449083827436">
        <ele>434.172607421875</ele>
        <time>2016-10-30T11:43:34Z</time>
      </trkpt>
      <trkpt lat="40.135608343407512" lon="-6.884529143571854">
        <ele>434.6533203125</ele>
        <time>2016-10-30T11:43:39Z</time>
      </trkpt>
      <trkpt lat="40.135742956772447" lon="-6.884536938741803">
        <ele>434.172607421875</ele>
        <time>2016-10-30T11:43:44Z</time>
      </trkpt>
      <trkpt lat="40.135870780795813" lon="-6.884530400857329">
        <ele>435.1339111328125</ele>
        <time>2016-10-30T11:43:49Z</time>
      </trkpt>
      <trkpt lat="40.136015452444553" lon="-6.884512463584542">
        <ele>435.614501953125</ele>
        <time>2016-10-30T11:43:54Z</time>
      </trkpt>
      <trkpt lat="40.136163225397468" lon="-6.884490586817265">
        <ele>435.614501953125</ele>
        <time>2016-10-30T11:43:59Z</time>
      </trkpt>
      <trkpt lat="40.1362928096205" lon="-6.884488323703408">
        <ele>436.575927734375</ele>
        <time>2016-10-30T11:44:04Z</time>
      </trkpt>
      <trkpt lat="40.136422896757722" lon="-6.884478349238634">
        <ele>436.575927734375</ele>
        <time>2016-10-30T11:44:09Z</time>
      </trkpt>
      <trkpt lat="40.136543093249202" lon="-6.884476672858">
        <ele>436.575927734375</ele>
        <time>2016-10-30T11:44:14Z</time>
      </trkpt>
      <trkpt lat="40.13665976934135" lon="-6.884469548240304">
        <ele>438.49853515625</ele>
        <time>2016-10-30T11:44:19Z</time>
      </trkpt>
      <trkpt lat="40.136766638606787" lon="-6.884470889344811">
        <ele>439.459716796875</ele>
        <time>2016-10-30T11:44:24Z</time>
      </trkpt>
      <trkpt lat="40.1368557382375" lon="-6.884470637887716">
        <ele>439.459716796875</ele>
        <time>2016-10-30T11:44:29Z</time>
      </trkpt>
      <trkpt lat="40.136966379359365" lon="-6.884463848546147">
        <ele>439.9404296875</ele>
        <time>2016-10-30T11:44:34Z</time>
      </trkpt>
      <trkpt lat="40.137084731832147" lon="-6.884431662037969">
        <ele>441.3824462890625</ele>
        <time>2016-10-30T11:44:39Z</time>
      </trkpt>
      <trkpt lat="40.137210628017783" lon="-6.884352117776871">
        <ele>439.9404296875</ele>
        <time>2016-10-30T11:44:44Z</time>
      </trkpt>
      <trkpt lat="40.137356389313936" lon="-6.884224377572537">
        <ele>438.49853515625</ele>
        <time>2016-10-30T11:44:49Z</time>
      </trkpt>
      <trkpt lat="40.137508017942309" lon="-6.884022708982229">
        <ele>436.09521484375</ele>
        <time>2016-10-30T11:44:54Z</time>
      </trkpt>
      <trkpt lat="40.13767171651125" lon="-6.883787345141172">
        <ele>434.172607421875</ele>
        <time>2016-10-30T11:44:59Z</time>
      </trkpt>
      <trkpt lat="40.13787891715765" lon="-6.883557345718145">
        <ele>433.2113037109375</ele>
        <time>2016-10-30T11:45:04Z</time>
      </trkpt>
      <trkpt lat="40.138140181079507" lon="-6.883388115093112">
        <ele>433.69189453125</ele>
        <time>2016-10-30T11:45:09Z</time>
      </trkpt>
      <trkpt lat="40.138402367010713" lon="-6.88327512703836">
        <ele>432.25</ele>
        <time>2016-10-30T11:45:14Z</time>
      </trkpt>
      <trkpt lat="40.138657512143254" lon="-6.883260207250714">
        <ele>433.69189453125</ele>
        <time>2016-10-30T11:45:19Z</time>
      </trkpt>
      <trkpt lat="40.138840321451426" lon="-6.883269511163235">
        <ele>435.1339111328125</ele>
        <time>2016-10-30T11:45:23Z</time>
      </trkpt>
      <trkpt lat="40.1390281599015" lon="-6.883260793983936">
        <ele>437.0565185546875</ele>
        <time>2016-10-30T11:45:29Z</time>
      </trkpt>
      <trkpt lat="40.139157408848405" lon="-6.883222740143538">
        <ele>438.017822265625</ele>
        <time>2016-10-30T11:45:34Z</time>
      </trkpt>
      <trkpt lat="40.139302164316177" lon="-6.8831573612988">
        <ele>438.9791259765625</ele>
        <time>2016-10-30T11:45:39Z</time>
      </trkpt>
      <trkpt lat="40.139445578679442" lon="-6.883041691035032">
        <ele>438.9791259765625</ele>
        <time>2016-10-30T11:45:44Z</time>
      </trkpt>
      <trkpt lat="40.139583544805646" lon="-6.8829380068928">
        <ele>439.459716796875</ele>
        <time>2016-10-30T11:45:49Z</time>
      </trkpt>
      <trkpt lat="40.139711871743202" lon="-6.882869275286794">
        <ele>439.459716796875</ele>
        <time>2016-10-30T11:45:54Z</time>
      </trkpt>
      <trkpt lat="40.139843635261059" lon="-6.882799118757248">
        <ele>439.9404296875</ele>
        <time>2016-10-30T11:45:59Z</time>
      </trkpt>
      <trkpt lat="40.140004483982921" lon="-6.882734661921859">
        <ele>439.459716796875</ele>
        <time>2016-10-30T11:46:04Z</time>
      </trkpt>
      <trkpt lat="40.140184611082077" lon="-6.882685460150242">
        <ele>440.4212646484375</ele>
        <time>2016-10-30T11:46:09Z</time>
      </trkpt>
      <trkpt lat="40.140386866405606" lon="-6.882632235065103">
        <ele>439.9404296875</ele>
        <time>2016-10-30T11:46:14Z</time>
      </trkpt>
      <trkpt lat="40.140563556924462" lon="-6.882505752146244">
        <ele>439.9404296875</ele>
        <time>2016-10-30T11:46:19Z</time>
      </trkpt>
      <trkpt lat="40.140722058713436" lon="-6.882420759648085">
        <ele>440.4212646484375</ele>
        <time>2016-10-30T11:46:24Z</time>
      </trkpt>
      <trkpt lat="40.140894558280706" lon="-6.882353704422712">
        <ele>441.3824462890625</ele>
        <time>2016-10-30T11:46:29Z</time>
      </trkpt>
      <trkpt lat="40.141068818047643" lon="-6.882285559549928">
        <ele>442.3438720703125</ele>
        <time>2016-10-30T11:46:34Z</time>
      </trkpt>
      <trkpt lat="40.141237545758486" lon="-6.882222862914205">
        <ele>442.824462890625</ele>
        <time>2016-10-30T11:46:39Z</time>
      </trkpt>
      <trkpt lat="40.141429491341114" lon="-6.8821488507092">
        <ele>442.3438720703125</ele>
        <time>2016-10-30T11:46:44Z</time>
      </trkpt>
      <trkpt lat="40.141613306477666" lon="-6.882135355845094">
        <ele>442.3438720703125</ele>
        <time>2016-10-30T11:46:49Z</time>
      </trkpt>
      <trkpt lat="40.141792008653283" lon="-6.882132086902857">
        <ele>442.3438720703125</ele>
        <time>2016-10-30T11:46:54Z</time>
      </trkpt>
      <trkpt lat="40.141967441886663" lon="-6.882127057760954">
        <ele>443.3050537109375</ele>
        <time>2016-10-30T11:46:59Z</time>
      </trkpt>
      <trkpt lat="40.142115885391831" lon="-6.882072743028402">
        <ele>443.7857666015625</ele>
        <time>2016-10-30T11:47:04Z</time>
      </trkpt>
      <trkpt lat="40.142281176522374" lon="-6.881997138261795">
        <ele>445.7083740234375</ele>
        <time>2016-10-30T11:47:09Z</time>
      </trkpt>
      <trkpt lat="40.142441438511014" lon="-6.88190602697432">
        <ele>444.7470703125</ele>
        <time>2016-10-30T11:47:14Z</time>
      </trkpt>
      <trkpt lat="40.14261569827795" lon="-6.881801588460803">
        <ele>444.2664794921875</ele>
        <time>2016-10-30T11:47:19Z</time>
      </trkpt>
      <trkpt lat="40.142797837033868" lon="-6.881618946790695">
        <ele>442.3438720703125</ele>
        <time>2016-10-30T11:47:24Z</time>
      </trkpt>
      <trkpt lat="40.143005456775427" lon="-6.881377967074513">
        <ele>440.4212646484375</ele>
        <time>2016-10-30T11:47:29Z</time>
      </trkpt>
      <trkpt lat="40.143198994919658" lon="-6.881170095875859">
        <ele>441.3824462890625</ele>
        <time>2016-10-30T11:47:34Z</time>
      </trkpt>
      <trkpt lat="40.143267558887601" lon="-6.880888296291232">
        <ele>440.4212646484375</ele>
        <time>2016-10-30T11:47:39Z</time>
      </trkpt>
      <trkpt lat="40.14332614839077" lon="-6.880626529455185">
        <ele>439.9404296875</ele>
        <time>2016-10-30T11:47:44Z</time>
      </trkpt>
      <trkpt lat="40.143382558599114" lon="-6.880374737083912">
        <ele>438.9791259765625</ele>
        <time>2016-10-30T11:47:49Z</time>
      </trkpt>
      <trkpt lat="40.143474005162716" lon="-6.880108611658216">
        <ele>438.017822265625</ele>
        <time>2016-10-30T11:47:54Z</time>
      </trkpt>
      <trkpt lat="40.143699562177062" lon="-6.880019679665566">
        <ele>438.9791259765625</ele>
        <time>2016-10-30T11:47:59Z</time>
      </trkpt>
      <trkpt lat="40.143932076171041" lon="-6.879960922524333">
        <ele>440.4212646484375</ele>
        <time>2016-10-30T11:48:04Z</time>
      </trkpt>
      <trkpt lat="40.144110023975372" lon="-6.879944410175085">
        <ele>440.90185546875</ele>
        <time>2016-10-30T11:48:09Z</time>
      </trkpt>
      <trkpt lat="40.144295850768685" lon="-6.87997936271131">
        <ele>440.4212646484375</ele>
        <time>2016-10-30T11:48:14Z</time>
      </trkpt>
      <trkpt lat="40.144488383084536" lon="-6.880022697150707">
        <ele>439.459716796875</ele>
        <time>2016-10-30T11:48:19Z</time>
      </trkpt>
      <trkpt lat="40.144669935107231" lon="-6.88008145429194">
        <ele>438.9791259765625</ele>
        <time>2016-10-30T11:48:24Z</time>
      </trkpt>
      <trkpt lat="40.144865484908223" lon="-6.880217408761382">
        <ele>438.9791259765625</ele>
        <time>2016-10-30T11:48:29Z</time>
      </trkpt>
      <trkpt lat="40.145079307258129" lon="-6.880471967160702">
        <ele>439.459716796875</ele>
        <time>2016-10-30T11:48:34Z</time>
      </trkpt>
      <trkpt lat="40.145264379680157" lon="-6.880606915801764">
        <ele>439.9404296875</ele>
        <time>2016-10-30T11:48:39Z</time>
      </trkpt>
      <trkpt lat="40.145412739366293" lon="-6.880669947713614">
        <ele>441.3824462890625</ele>
        <time>2016-10-30T11:48:44Z</time>
      </trkpt>
      <trkpt lat="40.145503599196672" lon="-6.880681933835149">
        <ele>441.8631591796875</ele>
        <time>2016-10-30T11:48:49Z</time>
      </trkpt>
      <trkpt lat="40.14557970687747" lon="-6.880691321566701">
        <ele>442.3438720703125</ele>
        <time>2016-10-30T11:48:54Z</time>
      </trkpt>
      <trkpt lat="40.145657071843743" lon="-6.880680005997419">
        <ele>442.824462890625</ele>
        <time>2016-10-30T11:48:59Z</time>
      </trkpt>
      <trkpt lat="40.145722953602672" lon="-6.880653770640492">
        <ele>444.2664794921875</ele>
        <time>2016-10-30T11:49:04Z</time>
      </trkpt>
      <trkpt lat="40.145798055455089" lon="-6.88062334433198">
        <ele>445.7083740234375</ele>
        <time>2016-10-30T11:49:09Z</time>
      </trkpt>
      <trkpt lat="40.14588707126677" lon="-6.880593001842499">
        <ele>446.1890869140625</ele>
        <time>2016-10-30T11:49:14Z</time>
      </trkpt>
      <trkpt lat="40.145955048501492" lon="-6.880563329905272">
        <ele>448.11181640625</ele>
        <time>2016-10-30T11:49:19Z</time>
      </trkpt>
      <trkpt lat="40.146025288850069" lon="-6.880542794242501">
        <ele>449.072998046875</ele>
        <time>2016-10-30T11:49:24Z</time>
      </trkpt>
      <trkpt lat="40.146128637716174" lon="-6.880515301600099">
        <ele>450.5150146484375</ele>
        <time>2016-10-30T11:49:29Z</time>
      </trkpt>
      <trkpt lat="40.146285044029355" lon="-6.880532400682569">
        <ele>449.072998046875</ele>
        <time>2016-10-30T11:49:34Z</time>
      </trkpt>
      <trkpt lat="40.146532477810979" lon="-6.880611777305603">
        <ele>447.6309814453125</ele>
        <time>2016-10-30T11:49:39Z</time>
      </trkpt>
      <trkpt lat="40.146768931299448" lon="-6.880687214434147">
        <ele>446.669677734375</ele>
        <time>2016-10-30T11:49:44Z</time>
      </trkpt>
      <trkpt lat="40.147037068381906" lon="-6.880728788673878">
        <ele>446.1890869140625</ele>
        <time>2016-10-30T11:49:49Z</time>
      </trkpt>
      <trkpt lat="40.147238234058022" lon="-6.881013605743647">
        <ele>444.2664794921875</ele>
        <time>2016-10-30T11:49:54Z</time>
      </trkpt>
      <trkpt lat="40.147422049194574" lon="-6.881393808871508">
        <ele>442.3438720703125</ele>
        <time>2016-10-30T11:49:59Z</time>
      </trkpt>
      <trkpt lat="40.147623298689723" lon="-6.881660772487521">
        <ele>441.3824462890625</ele>
        <time>2016-10-30T11:50:04Z</time>
      </trkpt>
      <trkpt lat="40.147821446880698" lon="-6.881822627037764">
        <ele>441.8631591796875</ele>
        <time>2016-10-30T11:50:09Z</time>
      </trkpt>
      <trkpt lat="40.148002915084362" lon="-6.88200568780303">
        <ele>441.3824462890625</ele>
        <time>2016-10-30T11:50:14Z</time>
      </trkpt>
      <trkpt lat="40.148204164579511" lon="-6.882181288674474">
        <ele>441.8631591796875</ele>
        <time>2016-10-30T11:50:19Z</time>
      </trkpt>
      <trkpt lat="40.14841765165329" lon="-6.882348256185651">
        <ele>440.90185546875</ele>
        <time>2016-10-30T11:50:24Z</time>
      </trkpt>
      <trkpt lat="40.148631893098354" lon="-6.882523857057095">
        <ele>441.3824462890625</ele>
        <time>2016-10-30T11:50:29Z</time>
      </trkpt>
      <trkpt lat="40.148838004097342" lon="-6.882684286683798">
        <ele>441.3824462890625</ele>
        <time>2016-10-30T11:50:34Z</time>
      </trkpt>
      <trkpt lat="40.149048306047916" lon="-6.882881764322519">
        <ele>442.824462890625</ele>
        <time>2016-10-30T11:50:39Z</time>
      </trkpt>
      <trkpt lat="40.149248382076621" lon="-6.883154846727848">
        <ele>439.9404296875</ele>
        <time>2016-10-30T11:50:44Z</time>
      </trkpt>
      <trkpt lat="40.149460528045893" lon="-6.883442681282759">
        <ele>438.49853515625</ele>
        <time>2016-10-30T11:50:49Z</time>
      </trkpt>
      <trkpt lat="40.14967342838645" lon="-6.883644685149193">
        <ele>438.49853515625</ele>
        <time>2016-10-30T11:50:54Z</time>
      </trkpt>
      <trkpt lat="40.149885322898626" lon="-6.8837720900774">
        <ele>439.459716796875</ele>
        <time>2016-10-30T11:50:59Z</time>
      </trkpt>
      <trkpt lat="40.150074418634176" lon="-6.88394894823432">
        <ele>438.49853515625</ele>
        <time>2016-10-30T11:51:04Z</time>
      </trkpt>
      <trkpt lat="40.150286983698606" lon="-6.884263604879379">
        <ele>435.1339111328125</ele>
        <time>2016-10-30T11:51:09Z</time>
      </trkpt>
      <trkpt lat="40.150493429973722" lon="-6.884658643975854">
        <ele>432.25</ele>
        <time>2016-10-30T11:51:14Z</time>
      </trkpt>
      <trkpt lat="40.150761315599084" lon="-6.884935749694705">
        <ele>432.25</ele>
        <time>2016-10-30T11:51:19Z</time>
      </trkpt>
      <trkpt lat="40.151008497923613" lon="-6.885176477953792">
        <ele>432.730712890625</ele>
        <time>2016-10-30T11:51:24Z</time>
      </trkpt>
      <trkpt lat="40.151260960847139" lon="-6.885289633646607">
        <ele>432.25</ele>
        <time>2016-10-30T11:51:29Z</time>
      </trkpt>
      <trkpt lat="40.151581736281514" lon="-6.885320227593184">
        <ele>428.4046630859375</ele>
        <time>2016-10-30T11:51:34Z</time>
      </trkpt>
      <trkpt lat="40.15201298519969" lon="-6.885335901752114">
        <ele>422.63671875</ele>
        <time>2016-10-30T11:51:39Z</time>
      </trkpt>
      <trkpt lat="40.1524424739182" lon="-6.885433131828904">
        <ele>420.2333984375</ele>
        <time>2016-10-30T11:51:44Z</time>
      </trkpt>
      <trkpt lat="40.152817144989967" lon="-6.885501947253943">
        <ele>415.907470703125</ele>
        <time>2016-10-30T11:51:49Z</time>
      </trkpt>
      <trkpt lat="40.153242275118828" lon="-6.885558189824224">
        <ele>413.5042724609375</ele>
        <time>2016-10-30T11:51:54Z</time>
      </trkpt>
      <trkpt lat="40.153641002252698" lon="-6.885638320818543">
        <ele>411.1009521484375</ele>
        <time>2016-10-30T11:51:59Z</time>
      </trkpt>
      <trkpt lat="40.153998993337154" lon="-6.885743765160441">
        <ele>411.1009521484375</ele>
        <time>2016-10-30T11:52:04Z</time>
      </trkpt>
      <trkpt lat="40.154341645538807" lon="-6.885846275836229">
        <ele>410.6202392578125</ele>
        <time>2016-10-30T11:52:09Z</time>
      </trkpt>
      <trkpt lat="40.154654961079359" lon="-6.885936800390482">
        <ele>410.6202392578125</ele>
        <time>2016-10-30T11:52:14Z</time>
      </trkpt>
      <trkpt lat="40.154914213344455" lon="-6.88607694581151">
        <ele>411.5816650390625</ele>
        <time>2016-10-30T11:52:19Z</time>
      </trkpt>
      <trkpt lat="40.155088389292359" lon="-6.886374168097973">
        <ele>412.062255859375</ele>
        <time>2016-10-30T11:52:24Z</time>
      </trkpt>
      <trkpt lat="40.155211687088013" lon="-6.886620093137026">
        <ele>412.5428466796875</ele>
        <time>2016-10-30T11:52:29Z</time>
      </trkpt>
      <trkpt lat="40.155318640172482" lon="-6.886809188872576">
        <ele>412.5428466796875</ele>
        <time>2016-10-30T11:52:34Z</time>
      </trkpt>
      <trkpt lat="40.155430370941758" lon="-6.886926870793104">
        <ele>414.4654541015625</ele>
        <time>2016-10-30T11:52:39Z</time>
      </trkpt>
      <trkpt lat="40.155532881617546" lon="-6.886952435597777">
        <ele>416.868896484375</ele>
        <time>2016-10-30T11:52:44Z</time>
      </trkpt>
      <trkpt lat="40.155667159706354" lon="-6.886953609064221">
        <ele>416.38818359375</ele>
        <time>2016-10-30T11:52:49Z</time>
      </trkpt>
      <trkpt lat="40.155848963186145" lon="-6.88699166290462">
        <ele>414.9461669921875</ele>
        <time>2016-10-30T11:52:54Z</time>
      </trkpt>
      <trkpt lat="40.156031856313348" lon="-6.887027285993099">
        <ele>415.907470703125</ele>
        <time>2016-10-30T11:52:59Z</time>
      </trkpt>
      <trkpt lat="40.1562156714499" lon="-6.887081516906619">
        <ele>414.4654541015625</ele>
        <time>2016-10-30T11:53:04Z</time>
      </trkpt>
      <trkpt lat="40.156393032521009" lon="-6.887122420594096">
        <ele>413.5042724609375</ele>
        <time>2016-10-30T11:53:09Z</time>
      </trkpt>
      <trkpt lat="40.156672149896622" lon="-6.887200539931655">
        <ele>412.5428466796875</ele>
        <time>2016-10-30T11:53:14Z</time>
      </trkpt>
      <trkpt lat="40.156950261443853" lon="-6.887338170781732">
        <ele>410.6202392578125</ele>
        <time>2016-10-30T11:53:19Z</time>
      </trkpt>
      <trkpt lat="40.157116139307618" lon="-6.887600105255842">
        <ele>411.5816650390625</ele>
        <time>2016-10-30T11:53:24Z</time>
      </trkpt>
      <trkpt lat="40.157218398526311" lon="-6.887821890413761">
        <ele>411.5816650390625</ele>
        <time>2016-10-30T11:53:29Z</time>
      </trkpt>
      <trkpt lat="40.157328201457858" lon="-6.888029761612415">
        <ele>411.5816650390625</ele>
        <time>2016-10-30T11:53:34Z</time>
      </trkpt>
      <trkpt lat="40.157444877550006" lon="-6.888250457122922">
        <ele>410.1396484375</ele>
        <time>2016-10-30T11:53:39Z</time>
      </trkpt>
      <trkpt lat="40.157495755702257" lon="-6.888492610305548">
        <ele>409.6590576171875</ele>
        <time>2016-10-30T11:53:44Z</time>
      </trkpt>
      <trkpt lat="40.15752081759274" lon="-6.888744067400694">
        <ele>410.6202392578125</ele>
        <time>2016-10-30T11:53:49Z</time>
      </trkpt>
      <trkpt lat="40.157559039071202" lon="-6.888964762911201">
        <ele>411.5816650390625</ele>
        <time>2016-10-30T11:53:54Z</time>
      </trkpt>
      <trkpt lat="40.157631793990731" lon="-6.889184704050422">
        <ele>412.062255859375</ele>
        <time>2016-10-30T11:53:59Z</time>
      </trkpt>
      <trkpt lat="40.15773824416101" lon="-6.889340607449412">
        <ele>412.5428466796875</ele>
        <time>2016-10-30T11:54:04Z</time>
      </trkpt>
      <trkpt lat="40.157830864191055" lon="-6.889429539442062">
        <ele>413.0235595703125</ele>
        <time>2016-10-30T11:54:09Z</time>
      </trkpt>
      <trkpt lat="40.15793857164681" lon="-6.889554345980287">
        <ele>413.5042724609375</ele>
        <time>2016-10-30T11:54:14Z</time>
      </trkpt>
      <trkpt lat="40.158109981566668" lon="-6.889713769778609">
        <ele>413.0235595703125</ele>
        <time>2016-10-30T11:54:19Z</time>
      </trkpt>
      <trkpt lat="40.158274685963988" lon="-6.889932118356228">
        <ele>413.5042724609375</ele>
        <time>2016-10-30T11:54:24Z</time>
      </trkpt>
      <trkpt lat="40.158323803916574" lon="-6.890210146084428">
        <ele>413.98486328125</ele>
        <time>2016-10-30T11:54:29Z</time>
      </trkpt>
      <trkpt lat="40.158277954906225" lon="-6.890489598736167">
        <ele>413.98486328125</ele>
        <time>2016-10-30T11:54:34Z</time>
      </trkpt>
      <trkpt lat="40.158250294625759" lon="-6.890743654221296">
        <ele>415.4268798828125</ele>
        <time>2016-10-30T11:54:39Z</time>
      </trkpt>
      <trkpt lat="40.158229507505894" lon="-6.890971474349499">
        <ele>414.4654541015625</ele>
        <time>2016-10-30T11:54:44Z</time>
      </trkpt>
      <trkpt lat="40.158202350139618" lon="-6.891189655289054">
        <ele>414.4654541015625</ele>
        <time>2016-10-30T11:54:49Z</time>
      </trkpt>
      <trkpt lat="40.158163793385029" lon="-6.891419989988208">
        <ele>413.98486328125</ele>
        <time>2016-10-30T11:54:54Z</time>
      </trkpt>
      <trkpt lat="40.158148286864161" lon="-6.891645966097713">
        <ele>413.5042724609375</ele>
        <time>2016-10-30T11:54:59Z</time>
      </trkpt>
      <trkpt lat="40.158153902739286" lon="-6.891892226412892">
        <ele>413.98486328125</ele>
        <time>2016-10-30T11:55:04Z</time>
      </trkpt>
      <trkpt lat="40.158227244392037" lon="-6.892230855301023">
        <ele>411.1009521484375</ele>
        <time>2016-10-30T11:55:09Z</time>
      </trkpt>
      <trkpt lat="40.158399408683181" lon="-6.892787413671613">
        <ele>406.77490234375</ele>
        <time>2016-10-30T11:55:14Z</time>
      </trkpt>
      <trkpt lat="40.158598311245441" lon="-6.893330728635192">
        <ele>405.813720703125</ele>
        <time>2016-10-30T11:55:19Z</time>
      </trkpt>
      <trkpt lat="40.158746419474483" lon="-6.893815454095602">
        <ele>405.3330078125</ele>
        <time>2016-10-30T11:55:24Z</time>
      </trkpt>
      <trkpt lat="40.158888325095177" lon="-6.894247289747">
        <ele>404.3717041015625</ele>
        <time>2016-10-30T11:55:29Z</time>
      </trkpt>
      <trkpt lat="40.159164005890489" lon="-6.894846009090543">
        <ele>403.89111328125</ele>
        <time>2016-10-30T11:55:34Z</time>
      </trkpt>
      <trkpt lat="40.159090915694833" lon="-6.894916584715247">
        <ele>403.410400390625</ele>
        <time>2016-10-30T11:55:39Z</time>
      </trkpt>
      <trkpt lat="40.159259224310517" lon="-6.894723633304238">
        <ele>401.968505859375</ele>
        <time>2016-10-30T11:55:44Z</time>
      </trkpt>
      <trkpt lat="40.159497521817684" lon="-6.894454909488559">
        <ele>401.007080078125</ele>
        <time>2016-10-30T11:55:49Z</time>
      </trkpt>
      <trkpt lat="40.159779489040375" lon="-6.894289031624794">
        <ele>399.0843505859375</ele>
        <time>2016-10-30T11:55:54Z</time>
      </trkpt>
      <trkpt lat="40.160076543688774" lon="-6.894093817099929">
        <ele>397.1617431640625</ele>
        <time>2016-10-30T11:55:59Z</time>
      </trkpt>
      <trkpt lat="40.160696636885405" lon="-6.89368637278676">
        <ele>393.3165283203125</ele>
        <time>2016-10-30T11:56:08Z</time>
      </trkpt>
      <trkpt lat="40.161073068156838" lon="-6.893439022824168">
        <ele>393.3165283203125</ele>
        <time>2016-10-30T11:56:14Z</time>
      </trkpt>
      <trkpt lat="40.161359310150146" lon="-6.893320167437196">
        <ele>392.8359375</ele>
        <time>2016-10-30T11:56:19Z</time>
      </trkpt>
      <trkpt lat="40.161589393392205" lon="-6.893236516043544">
        <ele>392.3553466796875</ele>
        <time>2016-10-30T11:56:24Z</time>
      </trkpt>
      <trkpt lat="40.161823416128755" lon="-6.89321338199079">
        <ele>392.3553466796875</ele>
        <time>2016-10-30T11:56:29Z</time>
      </trkpt>
      <trkpt lat="40.162097923457623" lon="-6.893187984824181">
        <ele>389.47119140625</ele>
        <time>2016-10-30T11:56:34Z</time>
      </trkpt>
      <trkpt lat="40.162403108552098" lon="-6.893159821629524">
        <ele>388.510009765625</ele>
        <time>2016-10-30T11:56:39Z</time>
      </trkpt>
      <trkpt lat="40.162685075774789" lon="-6.893133837729693">
        <ele>386.58740234375</ele>
        <time>2016-10-30T11:56:44Z</time>
      </trkpt>
      <trkpt lat="40.162952039390802" lon="-6.893109111115336">
        <ele>388.510009765625</ele>
        <time>2016-10-30T11:56:49Z</time>
      </trkpt>
      <trkpt lat="40.163138117641211" lon="-6.893091928213835">
        <ele>388.9906005859375</ele>
        <time>2016-10-30T11:56:54Z</time>
      </trkpt>
      <trkpt lat="40.16332570463419" lon="-6.893074745312333">
        <ele>389.951904296875</ele>
        <time>2016-10-30T11:56:59Z</time>
      </trkpt>
      <trkpt lat="40.163466101512313" lon="-6.893061669543386">
        <ele>389.951904296875</ele>
        <time>2016-10-30T11:57:04Z</time>
      </trkpt>
      <trkpt lat="40.163617394864559" lon="-6.893047755584121">
        <ele>390.9132080078125</ele>
        <time>2016-10-30T11:57:09Z</time>
      </trkpt>
      <trkpt lat="40.163760390132666" lon="-6.893034595996141">
        <ele>391.393798828125</ele>
        <time>2016-10-30T11:57:14Z</time>
      </trkpt>
      <trkpt lat="40.163902714848518" lon="-6.893021436408162">
        <ele>392.3553466796875</ele>
        <time>2016-10-30T11:57:19Z</time>
      </trkpt>
      <trkpt lat="40.164029952138662" lon="-6.893009701743722">
        <ele>393.3165283203125</ele>
        <time>2016-10-30T11:57:24Z</time>
      </trkpt>
      <trkpt lat="40.164154088124633" lon="-6.892998218536377">
        <ele>392.8359375</ele>
        <time>2016-10-30T11:57:29Z</time>
      </trkpt>
      <trkpt lat="40.164299681782722" lon="-6.892984807491303">
        <ele>394.758544921875</ele>
        <time>2016-10-30T11:57:34Z</time>
      </trkpt>
      <trkpt lat="40.16440068371594" lon="-6.892973491922021">
        <ele>393.7972412109375</ele>
        <time>2016-10-30T11:57:39Z</time>
      </trkpt>
      <trkpt lat="40.164506966248155" lon="-6.892951112240553">
        <ele>397.1617431640625</ele>
        <time>2016-10-30T11:57:44Z</time>
      </trkpt>
      <trkpt lat="40.164594808593392" lon="-6.892932588234544">
        <ele>397.6424560546875</ele>
        <time>2016-10-30T11:57:49Z</time>
      </trkpt>
      <trkpt lat="40.164689272642136" lon="-6.892912723124027">
        <ele>397.6424560546875</ele>
        <time>2016-10-30T11:57:54Z</time>
      </trkpt>
      <trkpt lat="40.164774348959327" lon="-6.892894869670272">
        <ele>398.1231689453125</ele>
        <time>2016-10-30T11:57:59Z</time>
      </trkpt>
      <trkpt lat="40.164875853806734" lon="-6.892873495817184">
        <ele>400.0458984375</ele>
        <time>2016-10-30T11:58:04Z</time>
      </trkpt>
      <trkpt lat="40.164965037256479" lon="-6.89285472035408">
        <ele>402.4490966796875</ele>
        <time>2016-10-30T11:58:09Z</time>
      </trkpt>
      <trkpt lat="40.165045000612736" lon="-6.892837872728705">
        <ele>401.968505859375</ele>
        <time>2016-10-30T11:58:14Z</time>
      </trkpt>
      <trkpt lat="40.16514147631824" lon="-6.892817504703999">
        <ele>403.89111328125</ele>
        <time>2016-10-30T11:58:19Z</time>
      </trkpt>
      <trkpt lat="40.165215991437435" lon="-6.892803590744734">
        <ele>403.89111328125</ele>
        <time>2016-10-30T11:58:24Z</time>
      </trkpt>
      <trkpt lat="40.165326716378331" lon="-6.892792526632547">
        <ele>405.813720703125</ele>
        <time>2016-10-30T11:58:29Z</time>
      </trkpt>
      <trkpt lat="40.165407098829746" lon="-6.892784480005503">
        <ele>404.852294921875</ele>
        <time>2016-10-30T11:58:34Z</time>
      </trkpt>
      <trkpt lat="40.165514890104532" lon="-6.892773751169443">
        <ele>405.3330078125</ele>
        <time>2016-10-30T11:58:39Z</time>
      </trkpt>
      <trkpt lat="40.165647407993674" lon="-6.892756819725037">
        <ele>404.852294921875</ele>
        <time>2016-10-30T11:58:44Z</time>
      </trkpt>
      <trkpt lat="40.165799707174301" lon="-6.892711222171783">
        <ele>404.852294921875</ele>
        <time>2016-10-30T11:58:49Z</time>
      </trkpt>
      <trkpt lat="40.165976313874125" lon="-6.892658248543739">
        <ele>404.852294921875</ele>
        <time>2016-10-30T11:58:54Z</time>
      </trkpt>
      <trkpt lat="40.166138922795653" lon="-6.892637377604842">
        <ele>405.3330078125</ele>
        <time>2016-10-30T11:58:59Z</time>
      </trkpt>
      <trkpt lat="40.166306896135211" lon="-6.892645759508014">
        <ele>406.77490234375</ele>
        <time>2016-10-30T11:59:04Z</time>
      </trkpt>
      <trkpt lat="40.166457938030362" lon="-6.8926533870399">
        <ele>406.2943115234375</ele>
        <time>2016-10-30T11:59:09Z</time>
      </trkpt>
      <trkpt lat="40.166601184755564" lon="-6.892660511657596">
        <ele>406.77490234375</ele>
        <time>2016-10-30T11:59:14Z</time>
      </trkpt>
      <trkpt lat="40.166706126183271" lon="-6.892665792256594">
        <ele>407.255615234375</ele>
        <time>2016-10-30T11:59:19Z</time>
      </trkpt>
      <trkpt lat="40.166811989620328" lon="-6.89267098903656">
        <ele>409.1783447265625</ele>
        <time>2016-10-30T11:59:24Z</time>
      </trkpt>
      <trkpt lat="40.166901675984263" lon="-6.892675515264273">
        <ele>409.6590576171875</ele>
        <time>2016-10-30T11:59:29Z</time>
      </trkpt>
      <trkpt lat="40.166997816413641" lon="-6.892680376768112">
        <ele>410.1396484375</ele>
        <time>2016-10-30T11:59:34Z</time>
      </trkpt>
      <trkpt lat="40.167094459757209" lon="-6.89268515445292">
        <ele>412.062255859375</ele>
        <time>2016-10-30T11:59:39Z</time>
      </trkpt>
      <trkpt lat="40.167208956554532" lon="-6.892690854147077">
        <ele>412.062255859375</ele>
        <time>2016-10-30T11:59:44Z</time>
      </trkpt>
      <trkpt lat="40.167301828041673" lon="-6.892695548012853">
        <ele>412.062255859375</ele>
        <time>2016-10-30T11:59:49Z</time>
      </trkpt>
      <trkpt lat="40.167418336495757" lon="-6.892701415345073">
        <ele>413.98486328125</ele>
        <time>2016-10-30T11:59:54Z</time>
      </trkpt>
      <trkpt lat="40.167500982061028" lon="-6.892705438658595">
        <ele>413.5042724609375</ele>
        <time>2016-10-30T11:59:59Z</time>
      </trkpt>
      <trkpt lat="40.167616568505764" lon="-6.892711305990815">
        <ele>414.4654541015625</ele>
        <time>2016-10-30T12:00:04Z</time>
      </trkpt>
      <trkpt lat="40.167738357558846" lon="-6.89271742478013">
        <ele>414.4654541015625</ele>
        <time>2016-10-30T12:00:09Z</time>
      </trkpt>
      <trkpt lat="40.167859811335802" lon="-6.892685489729047">
        <ele>414.9461669921875</ele>
        <time>2016-10-30T12:00:14Z</time>
      </trkpt>
      <trkpt lat="40.167984701693058" lon="-6.892635533586144">
        <ele>416.38818359375</ele>
        <time>2016-10-30T12:00:19Z</time>
      </trkpt>
      <trkpt lat="40.168111603707075" lon="-6.892584823071957">
        <ele>416.38818359375</ele>
        <time>2016-10-30T12:00:24Z</time>
      </trkpt>
      <trkpt lat="40.168242277577519" lon="-6.892532519996166">
        <ele>417.8302001953125</ele>
        <time>2016-10-30T12:00:29Z</time>
      </trkpt>
      <trkpt lat="40.168352080509067" lon="-6.892488598823547">
        <ele>418.310791015625</ele>
        <time>2016-10-30T12:00:34Z</time>
      </trkpt>
      <trkpt lat="40.168456519022584" lon="-6.892441073432565">
        <ele>419.272216796875</ele>
        <time>2016-10-30T12:00:39Z</time>
      </trkpt>
      <trkpt lat="40.168567914515734" lon="-6.892379885539413">
        <ele>419.272216796875</ele>
        <time>2016-10-30T12:00:44Z</time>
      </trkpt>
      <trkpt lat="40.168676543980837" lon="-6.892320122569799">
        <ele>421.19482421875</ele>
        <time>2016-10-30T12:00:49Z</time>
      </trkpt>
      <trkpt lat="40.168778551742435" lon="-6.892264047637582">
        <ele>422.63671875</ele>
        <time>2016-10-30T12:00:54Z</time>
      </trkpt>
      <trkpt lat="40.168891372159123" lon="-6.892201937735081">
        <ele>423.5980224609375</ele>
        <time>2016-10-30T12:00:59Z</time>
      </trkpt>
      <trkpt lat="40.168989943340421" lon="-6.892147874459624">
        <ele>423.5980224609375</ele>
        <time>2016-10-30T12:01:04Z</time>
      </trkpt>
      <trkpt lat="40.169099159538746" lon="-6.892087776213884">
        <ele>424.0787353515625</ele>
        <time>2016-10-30T12:01:09Z</time>
      </trkpt>
      <trkpt lat="40.169202759861946" lon="-6.89203086309135">
        <ele>424.5594482421875</ele>
        <time>2016-10-30T12:01:14Z</time>
      </trkpt>
      <trkpt lat="40.169314993545413" lon="-6.891978979110718">
        <ele>424.5594482421875</ele>
        <time>2016-10-30T12:01:19Z</time>
      </trkpt>
      <trkpt lat="40.169424628838897" lon="-6.891947714611888">
        <ele>426.0013427734375</ele>
        <time>2016-10-30T12:01:24Z</time>
      </trkpt>
      <trkpt lat="40.169527726247907" lon="-6.891918210312724">
        <ele>426.4820556640625</ele>
        <time>2016-10-30T12:01:29Z</time>
      </trkpt>
      <trkpt lat="40.169647252187133" lon="-6.891903877258301">
        <ele>426.9627685546875</ele>
        <time>2016-10-30T12:01:34Z</time>
      </trkpt>
      <trkpt lat="40.169761329889297" lon="-6.891903877258301">
        <ele>426.4820556640625</ele>
        <time>2016-10-30T12:01:39Z</time>
      </trkpt>
      <trkpt lat="40.169871216639876" lon="-6.891903877258301">
        <ele>427.9239501953125</ele>
        <time>2016-10-30T12:01:44Z</time>
      </trkpt>
      <trkpt lat="40.169948665425181" lon="-6.891924999654293">
        <ele>426.9627685546875</ele>
        <time>2016-10-30T12:01:49Z</time>
      </trkpt>
      <trkpt lat="40.170019492506981" lon="-6.891946289688349">
        <ele>427.443359375</ele>
        <time>2016-10-30T12:01:54Z</time>
      </trkpt>
      <trkpt lat="40.170103227719665" lon="-6.891971435397863">
        <ele>428.4046630859375</ele>
        <time>2016-10-30T12:01:59Z</time>
      </trkpt>
      <trkpt lat="40.170190902426839" lon="-6.891997586935759">
        <ele>429.365966796875</ele>
        <time>2016-10-30T12:02:04Z</time>
      </trkpt>
      <trkpt lat="40.170290563255548" lon="-6.892027594149113">
        <ele>430.3272705078125</ele>
        <time>2016-10-30T12:02:09Z</time>
      </trkpt>
      <trkpt lat="40.170382177457213" lon="-6.892087608575821">
        <ele>430.3272705078125</ele>
        <time>2016-10-30T12:02:14Z</time>
      </trkpt>
      <trkpt lat="40.170307159423828" lon="-6.892032623291016">
        <ele>428.8853759765625</ele>
        <time>2016-10-30T12:02:19Z</time>
      </trkpt>
      <trkpt lat="40.170136839151382" lon="-6.891981493681669">
        <ele>426.9627685546875</ele>
        <time>2016-10-30T12:02:24Z</time>
      </trkpt>
      <trkpt lat="40.16997154802084" lon="-6.891931788995862">
        <ele>427.9239501953125</ele>
        <time>2016-10-30T12:02:29Z</time>
      </trkpt>
      <trkpt lat="40.169878005981445" lon="-6.891903877258301">
        <ele>427.9239501953125</ele>
        <time>2016-10-30T12:02:34Z</time>
      </trkpt>
      <trkpt lat="40.169911785051227" lon="-6.890967702493072">
        <ele>428.8853759765625</ele>
        <time>2016-10-30T12:02:39Z</time>
      </trkpt>
      <trkpt lat="40.169821176677942" lon="-6.890754969790578">
        <ele>429.365966796875</ele>
        <time>2016-10-30T12:02:44Z</time>
      </trkpt>
      <trkpt lat="40.169703159481287" lon="-6.890545506030321">
        <ele>428.4046630859375</ele>
        <time>2016-10-30T12:02:49Z</time>
      </trkpt>
      <trkpt lat="40.169599642977118" lon="-6.890352219343185">
        <ele>427.443359375</ele>
        <time>2016-10-30T12:02:54Z</time>
      </trkpt>
      <trkpt lat="40.16952688805759" lon="-6.890197908505797">
        <ele>427.9239501953125</ele>
        <time>2016-10-30T12:02:59Z</time>
      </trkpt>
      <trkpt lat="40.169425047934055" lon="-6.89003236591816">
        <ele>427.9239501953125</ele>
        <time>2016-10-30T12:03:04Z</time>
      </trkpt>
      <trkpt lat="40.169331673532724" lon="-6.88987503759563">
        <ele>427.443359375</ele>
        <time>2016-10-30T12:03:09Z</time>
      </trkpt>
      <trkpt lat="40.169249698519707" lon="-6.889698849990964">
        <ele>426.9627685546875</ele>
        <time>2016-10-30T12:03:14Z</time>
      </trkpt>
      <trkpt lat="40.16921223141253" lon="-6.889542946591973">
        <ele>427.9239501953125</ele>
        <time>2016-10-30T12:03:19Z</time>
      </trkpt>
      <trkpt lat="40.169149115681648" lon="-6.889379499480128">
        <ele>427.9239501953125</ele>
        <time>2016-10-30T12:03:24Z</time>
      </trkpt>
      <trkpt lat="40.16909739933908" lon="-6.889227200299501">
        <ele>427.443359375</ele>
        <time>2016-10-30T12:03:29Z</time>
      </trkpt>
      <trkpt lat="40.169074684381485" lon="-6.88903265632689">
        <ele>426.4820556640625</ele>
        <time>2016-10-30T12:03:34Z</time>
      </trkpt>
      <trkpt lat="40.169001761823893" lon="-6.888834843412042">
        <ele>426.0013427734375</ele>
        <time>2016-10-30T12:03:39Z</time>
      </trkpt>
      <trkpt lat="40.168943339958787" lon="-6.888605849817395">
        <ele>426.4820556640625</ele>
        <time>2016-10-30T12:03:44Z</time>
      </trkpt>
      <trkpt lat="40.168884331360459" lon="-6.888391692191362">
        <ele>426.0013427734375</ele>
        <time>2016-10-30T12:03:49Z</time>
      </trkpt>
      <trkpt lat="40.168837141245604" lon="-6.888213828206062">
        <ele>426.4820556640625</ele>
        <time>2016-10-30T12:03:54Z</time>
      </trkpt>
      <trkpt lat="40.168796572834253" lon="-6.888031186535955">
        <ele>426.9627685546875</ele>
        <time>2016-10-30T12:03:59Z</time>
      </trkpt>
      <trkpt lat="40.168752400204539" lon="-6.887806383892894">
        <ele>427.9239501953125</ele>
        <time>2016-10-30T12:04:04Z</time>
      </trkpt>
      <trkpt lat="40.168698253110051" lon="-6.887606559321284">
        <ele>427.443359375</ele>
        <time>2016-10-30T12:04:09Z</time>
      </trkpt>
      <trkpt lat="40.168655924499035" lon="-6.887404639273882">
        <ele>427.9239501953125</ele>
        <time>2016-10-30T12:04:14Z</time>
      </trkpt>
      <trkpt lat="40.168614266440272" lon="-6.887209340929985">
        <ele>427.9239501953125</ele>
        <time>2016-10-30T12:04:19Z</time>
      </trkpt>
      <trkpt lat="40.168581074103713" lon="-6.887049581855536">
        <ele>429.365966796875</ele>
        <time>2016-10-30T12:04:24Z</time>
      </trkpt>
      <trkpt lat="40.168545618653297" lon="-6.886898707598448">
        <ele>428.8853759765625</ele>
        <time>2016-10-30T12:04:29Z</time>
      </trkpt>
      <trkpt lat="40.168509492650628" lon="-6.886736014857888">
        <ele>430.3272705078125</ele>
        <time>2016-10-30T12:04:34Z</time>
      </trkpt>
      <trkpt lat="40.168469343334436" lon="-6.886581536382437">
        <ele>430.3272705078125</ele>
        <time>2016-10-30T12:04:39Z</time>
      </trkpt>
      <trkpt lat="40.16843581572175" lon="-6.886405013501644">
        <ele>431.28857421875</ele>
        <time>2016-10-30T12:04:44Z</time>
      </trkpt>
      <trkpt lat="40.16840404830873" lon="-6.886251624673605">
        <ele>432.25</ele>
        <time>2016-10-30T12:04:49Z</time>
      </trkpt>
      <trkpt lat="40.168366665020585" lon="-6.886098235845566">
        <ele>432.730712890625</ele>
        <time>2016-10-30T12:04:54Z</time>
      </trkpt>
      <trkpt lat="40.168339842930436" lon="-6.885935375466943">
        <ele>434.172607421875</ele>
        <time>2016-10-30T12:04:59Z</time>
      </trkpt>
      <trkpt lat="40.16830388456583" lon="-6.885790703818202">
        <ele>435.1339111328125</ele>
        <time>2016-10-30T12:05:04Z</time>
      </trkpt>
      <trkpt lat="40.168272787705064" lon="-6.885680314153433">
        <ele>436.09521484375</ele>
        <time>2016-10-30T12:05:09Z</time>
      </trkpt>
      <trkpt lat="40.16823498532176" lon="-6.885565733537078">
        <ele>437.537109375</ele>
        <time>2016-10-30T12:05:14Z</time>
      </trkpt>
      <trkpt lat="40.168192405253649" lon="-6.88543246127665">
        <ele>438.49853515625</ele>
        <time>2016-10-30T12:05:19Z</time>
      </trkpt>
      <trkpt lat="40.168155943974853" lon="-6.885303212329745">
        <ele>438.49853515625</ele>
        <time>2016-10-30T12:05:24Z</time>
      </trkpt>
      <trkpt lat="40.168145131319761" lon="-6.885158289223909">
        <ele>438.017822265625</ele>
        <time>2016-10-30T12:05:29Z</time>
      </trkpt>
      <trkpt lat="40.168124260380864" lon="-6.885020658373833">
        <ele>438.49853515625</ele>
        <time>2016-10-30T12:05:34Z</time>
      </trkpt>
      <trkpt lat="40.16807472333312" lon="-6.884879171848297">
        <ele>438.49853515625</ele>
        <time>2016-10-30T12:05:39Z</time>
      </trkpt>
      <trkpt lat="40.168015630915761" lon="-6.884733662009239">
        <ele>438.9791259765625</ele>
        <time>2016-10-30T12:05:44Z</time>
      </trkpt>
      <trkpt lat="40.167957460507751" lon="-6.884572897106409">
        <ele>439.459716796875</ele>
        <time>2016-10-30T12:05:49Z</time>
      </trkpt>
      <trkpt lat="40.16789685934782" lon="-6.884436020627618">
        <ele>438.49853515625</ele>
        <time>2016-10-30T12:05:54Z</time>
      </trkpt>
      <trkpt lat="40.167825445532799" lon="-6.884289756417275">
        <ele>441.3824462890625</ele>
        <time>2016-10-30T12:05:59Z</time>
      </trkpt>
      <trkpt lat="40.16777565702796" lon="-6.884168302640319">
        <ele>440.90185546875</ele>
        <time>2016-10-30T12:06:04Z</time>
      </trkpt>
      <trkpt lat="40.167728466913104" lon="-6.8840466812253">
        <ele>440.90185546875</ele>
        <time>2016-10-30T12:06:09Z</time>
      </trkpt>
      <trkpt lat="40.167683456093073" lon="-6.883943499997258">
        <ele>442.824462890625</ele>
        <time>2016-10-30T12:06:14Z</time>
      </trkpt>
      <trkpt lat="40.167627381160855" lon="-6.88383218832314">
        <ele>443.7857666015625</ele>
        <time>2016-10-30T12:06:19Z</time>
      </trkpt>
      <trkpt lat="40.167581615969539" lon="-6.883736299350858">
        <ele>444.7470703125</ele>
        <time>2016-10-30T12:06:24Z</time>
      </trkpt>
      <trkpt lat="40.16752696596086" lon="-6.883635884150863">
        <ele>445.7083740234375</ele>
        <time>2016-10-30T12:06:29Z</time>
      </trkpt>
      <trkpt lat="40.167476925998926" lon="-6.883520716801286">
        <ele>445.7083740234375</ele>
        <time>2016-10-30T12:06:34Z</time>
      </trkpt>
      <trkpt lat="40.167471813037992" lon="-6.883389540016651">
        <ele>446.1890869140625</ele>
        <time>2016-10-30T12:06:39Z</time>
      </trkpt>
      <trkpt lat="40.1674610003829" lon="-6.883205473423004">
        <ele>446.1890869140625</ele>
        <time>2016-10-30T12:06:44Z</time>
      </trkpt>
      <trkpt lat="40.167410960420966" lon="-6.882944712415338">
        <ele>445.2276611328125</ele>
        <time>2016-10-30T12:06:48Z</time>
      </trkpt>
      <trkpt lat="40.167253715917468" lon="-6.882540704682469">
        <ele>444.2664794921875</ele>
        <time>2016-10-30T12:06:54Z</time>
      </trkpt>
      <trkpt lat="40.167115582153201" lon="-6.8822006508708">
        <ele>442.824462890625</ele>
        <time>2016-10-30T12:06:59Z</time>
      </trkpt>
      <trkpt lat="40.166975352913141" lon="-6.88194315880537">
        <ele>443.3050537109375</ele>
        <time>2016-10-30T12:07:04Z</time>
      </trkpt>
      <trkpt lat="40.166863538324833" lon="-6.881716093048453">
        <ele>443.3050537109375</ele>
        <time>2016-10-30T12:07:09Z</time>
      </trkpt>
      <trkpt lat="40.166768655180931" lon="-6.881430856883526">
        <ele>442.3438720703125</ele>
        <time>2016-10-30T12:07:14Z</time>
      </trkpt>
      <trkpt lat="40.166706210002303" lon="-6.880997763946652">
        <ele>441.3824462890625</ele>
        <time>2016-10-30T12:07:19Z</time>
      </trkpt>
      <trkpt lat="40.166720626875758" lon="-6.880569029599428">
        <ele>440.4212646484375</ele>
        <time>2016-10-30T12:07:24Z</time>
      </trkpt>
      <trkpt lat="40.166670335456729" lon="-6.880218833684921">
        <ele>438.49853515625</ele>
        <time>2016-10-30T12:07:29Z</time>
      </trkpt>
      <trkpt lat="40.166651895269752" lon="-6.879943991079927">
        <ele>437.537109375</ele>
        <time>2016-10-30T12:07:34Z</time>
      </trkpt>
      <trkpt lat="40.166615014895797" lon="-6.879734443500638">
        <ele>438.49853515625</ele>
        <time>2016-10-30T12:07:39Z</time>
      </trkpt>
      <trkpt lat="40.16658391803503" lon="-6.879592537879944">
        <ele>439.459716796875</ele>
        <time>2016-10-30T12:07:44Z</time>
      </trkpt>
      <trkpt lat="40.166537147015333" lon="-6.879489859566093">
        <ele>439.459716796875</ele>
        <time>2016-10-30T12:07:49Z</time>
      </trkpt>
      <trkpt lat="40.166474366560578" lon="-6.879378715530038">
        <ele>439.459716796875</ele>
        <time>2016-10-30T12:07:54Z</time>
      </trkpt>
      <trkpt lat="40.166403371840715" lon="-6.879285760223866">
        <ele>439.459716796875</ele>
        <time>2016-10-30T12:07:59Z</time>
      </trkpt>
      <trkpt lat="40.166318463161588" lon="-6.879186518490315">
        <ele>440.90185546875</ele>
        <time>2016-10-30T12:08:04Z</time>
      </trkpt>
      <trkpt lat="40.166237661615014" lon="-6.87906707637012">
        <ele>439.9404296875</ele>
        <time>2016-10-30T12:08:09Z</time>
      </trkpt>
      <trkpt lat="40.166133055463433" lon="-6.878940844908357">
        <ele>439.459716796875</ele>
        <time>2016-10-30T12:08:14Z</time>
      </trkpt>
      <trkpt lat="40.166042195633054" lon="-6.878774715587497">
        <ele>441.3824462890625</ele>
        <time>2016-10-30T12:08:19Z</time>
      </trkpt>
      <trkpt lat="40.165972290560603" lon="-6.878594923764467">
        <ele>441.3824462890625</ele>
        <time>2016-10-30T12:08:24Z</time>
      </trkpt>
      <trkpt lat="40.165849076583982" lon="-6.878470536321402">
        <ele>441.8631591796875</ele>
        <time>2016-10-30T12:08:29Z</time>
      </trkpt>
      <trkpt lat="40.165784871205688" lon="-6.878345897421241">
        <ele>442.824462890625</ele>
        <time>2016-10-30T12:08:34Z</time>
      </trkpt>
      <trkpt lat="40.165768023580313" lon="-6.878197034820914">
        <ele>443.3050537109375</ele>
        <time>2016-10-30T12:08:39Z</time>
      </trkpt>
      <trkpt lat="40.165759222581983" lon="-6.878042723983526">
        <ele>443.3050537109375</ele>
        <time>2016-10-30T12:08:44Z</time>
      </trkpt>
      <trkpt lat="40.165748996660113" lon="-6.877888916060329">
        <ele>443.7857666015625</ele>
        <time>2016-10-30T12:08:49Z</time>
      </trkpt>
      <trkpt lat="40.165747152641416" lon="-6.877761511132121">
        <ele>445.2276611328125</ele>
        <time>2016-10-30T12:08:54Z</time>
      </trkpt>
      <trkpt lat="40.165747571736574" lon="-6.877612732350826">
        <ele>444.7470703125</ele>
        <time>2016-10-30T12:08:59Z</time>
      </trkpt>
      <trkpt lat="40.165745560079813" lon="-6.877487506717444">
        <ele>443.7857666015625</ele>
        <time>2016-10-30T12:09:04Z</time>
      </trkpt>
      <trkpt lat="40.165725778788328" lon="-6.877379547804594">
        <ele>445.2276611328125</ele>
        <time>2016-10-30T12:09:09Z</time>
      </trkpt>
      <trkpt lat="40.165722006931901" lon="-6.87727133743465">
        <ele>447.1502685546875</ele>
        <time>2016-10-30T12:09:14Z</time>
      </trkpt>
      <trkpt lat="40.165699375793338" lon="-6.877154409885407">
        <ele>447.6309814453125</ele>
        <time>2016-10-30T12:09:19Z</time>
      </trkpt>
      <trkpt lat="40.165666602551937" lon="-6.877027088776231">
        <ele>449.5537109375</ele>
        <time>2016-10-30T12:09:24Z</time>
      </trkpt>
      <trkpt lat="40.165638439357281" lon="-6.876924075186253">
        <ele>450.034423828125</ele>
        <time>2016-10-30T12:09:29Z</time>
      </trkpt>
      <trkpt lat="40.165609857067466" lon="-6.876822570338845">
        <ele>450.5150146484375</ele>
        <time>2016-10-30T12:09:34Z</time>
      </trkpt>
      <trkpt lat="40.165623016655445" lon="-6.876699272543192">
        <ele>451.95703125</ele>
        <time>2016-10-30T12:09:39Z</time>
      </trkpt>
      <trkpt lat="40.165641540661454" lon="-6.876549320295453">
        <ele>452.4376220703125</ele>
        <time>2016-10-30T12:09:44Z</time>
      </trkpt>
      <trkpt lat="40.165683450177312" lon="-6.87640305608511">
        <ele>452.4376220703125</ele>
        <time>2016-10-30T12:09:49Z</time>
      </trkpt>
      <trkpt lat="40.165750170126557" lon="-6.876295516267419">
        <ele>453.879638671875</ele>
        <time>2016-10-30T12:09:54Z</time>
      </trkpt>
      <trkpt lat="40.165862655267119" lon="-6.876255702227354">
        <ele>453.879638671875</ele>
        <time>2016-10-30T12:09:59Z</time>
      </trkpt>
      <trkpt lat="40.165940439328551" lon="-6.876151598989964">
        <ele>453.879638671875</ele>
        <time>2016-10-30T12:10:04Z</time>
      </trkpt>
      <trkpt lat="40.165997017174959" lon="-6.876058140769601">
        <ele>453.879638671875</ele>
        <time>2016-10-30T12:10:09Z</time>
      </trkpt>
      <trkpt lat="40.166089218109846" lon="-6.875983458012343">
        <ele>454.3602294921875</ele>
        <time>2016-10-30T12:10:14Z</time>
      </trkpt>
      <trkpt lat="40.16617831774056" lon="-6.875914139673114">
        <ele>455.321533203125</ele>
        <time>2016-10-30T12:10:19Z</time>
      </trkpt>
      <trkpt lat="40.166264399886131" lon="-6.875817328691483">
        <ele>455.80224609375</ele>
        <time>2016-10-30T12:10:24Z</time>
      </trkpt>
      <trkpt lat="40.166358528658748" lon="-6.875697551295161">
        <ele>455.321533203125</ele>
        <time>2016-10-30T12:10:29Z</time>
      </trkpt>
      <trkpt lat="40.166476462036371" lon="-6.875568553805351">
        <ele>455.321533203125</ele>
        <time>2016-10-30T12:10:34Z</time>
      </trkpt>
      <trkpt lat="40.166609650477767" lon="-6.875404436141253">
        <ele>455.80224609375</ele>
        <time>2016-10-30T12:10:39Z</time>
      </trkpt>
      <trkpt lat="40.166735630482435" lon="-6.875249706208706">
        <ele>454.3602294921875</ele>
        <time>2016-10-30T12:10:44Z</time>
      </trkpt>
      <trkpt lat="40.166838895529509" lon="-6.875124648213387">
        <ele>453.879638671875</ele>
        <time>2016-10-30T12:10:49Z</time>
      </trkpt>
      <trkpt lat="40.166922882199287" lon="-6.874994896352291">
        <ele>454.3602294921875</ele>
        <time>2016-10-30T12:10:54Z</time>
      </trkpt>
      <trkpt lat="40.167010556906462" lon="-6.874858774244785">
        <ele>455.321533203125</ele>
        <time>2016-10-30T12:10:59Z</time>
      </trkpt>
      <trkpt lat="40.167100662365556" lon="-6.874736985191703">
        <ele>456.282958984375</ele>
        <time>2016-10-30T12:11:04Z</time>
      </trkpt>
      <trkpt lat="40.167168136686087" lon="-6.874660709872842">
        <ele>457.2442626953125</ele>
        <time>2016-10-30T12:11:09Z</time>
      </trkpt>
      <trkpt lat="40.167231503874063" lon="-6.874545710161328">
        <ele>456.7635498046875</ele>
        <time>2016-10-30T12:11:14Z</time>
      </trkpt>
      <trkpt lat="40.167325716465712" lon="-6.874493909999728">
        <ele>457.2442626953125</ele>
        <time>2016-10-30T12:11:19Z</time>
      </trkpt>
      <trkpt lat="40.167410289868712" lon="-6.874465998262167">
        <ele>458.20556640625</ele>
        <time>2016-10-30T12:11:24Z</time>
      </trkpt>
      <trkpt lat="40.167482206597924" lon="-6.874446971341968">
        <ele>459.6475830078125</ele>
        <time>2016-10-30T12:11:29Z</time>
      </trkpt>
      <trkpt lat="40.167567366734147" lon="-6.874422244727612">
        <ele>460.128173828125</ele>
        <time>2016-10-30T12:11:34Z</time>
      </trkpt>
      <trkpt lat="40.167647078633308" lon="-6.874409252777696">
        <ele>462.05078125</ele>
        <time>2016-10-30T12:11:39Z</time>
      </trkpt>
      <trkpt lat="40.167708769440651" lon="-6.874346053227782">
        <ele>462.5313720703125</ele>
        <time>2016-10-30T12:11:44Z</time>
      </trkpt>
      <trkpt lat="40.167761575430632" lon="-6.874261815100908">
        <ele>462.5313720703125</ele>
        <time>2016-10-30T12:11:49Z</time>
      </trkpt>
      <trkpt lat="40.167770963162184" lon="-6.874165842309594">
        <ele>463.0120849609375</ele>
        <time>2016-10-30T12:11:54Z</time>
      </trkpt>
      <trkpt lat="40.167792420834303" lon="-6.87407867051661">
        <ele>463.4927978515625</ele>
        <time>2016-10-30T12:11:59Z</time>
      </trkpt>
      <trkpt lat="40.167825780808926" lon="-6.873986637219787">
        <ele>463.973388671875</ele>
        <time>2016-10-30T12:12:04Z</time>
      </trkpt>
      <trkpt lat="40.167844807729125" lon="-6.873902482911944">
        <ele>464.4541015625</ele>
        <time>2016-10-30T12:12:09Z</time>
      </trkpt>
      <trkpt lat="40.167881604284048" lon="-6.873822268098593">
        <ele>464.934814453125</ele>
        <time>2016-10-30T12:12:14Z</time>
      </trkpt>
      <trkpt lat="40.167902475222945" lon="-6.873752111569047">
        <ele>466.376708984375</ele>
        <time>2016-10-30T12:12:19Z</time>
      </trkpt>
      <trkpt lat="40.167927537113428" lon="-6.873687487095594">
        <ele>467.8187255859375</ele>
        <time>2016-10-30T12:12:24Z</time>
      </trkpt>
      <trkpt lat="40.167948240414262" lon="-6.873605847358704">
        <ele>468.29931640625</ele>
        <time>2016-10-30T12:12:29Z</time>
      </trkpt>
      <trkpt lat="40.167962657287717" lon="-6.873524626716971">
        <ele>468.780029296875</ele>
        <time>2016-10-30T12:12:34Z</time>
      </trkpt>
      <trkpt lat="40.167971961200237" lon="-6.873429408296943">
        <ele>469.2607421875</ele>
        <time>2016-10-30T12:12:39Z</time>
      </trkpt>
      <trkpt lat="40.167961986735463" lon="-6.87333645299077">
        <ele>469.7413330078125</ele>
        <time>2016-10-30T12:12:44Z</time>
      </trkpt>
      <trkpt lat="40.167943127453327" lon="-6.873246598988771">
        <ele>471.183349609375</ele>
        <time>2016-10-30T12:12:49Z</time>
      </trkpt>
      <trkpt lat="40.167935416102409" lon="-6.873167138546705">
        <ele>471.183349609375</ele>
        <time>2016-10-30T12:12:54Z</time>
      </trkpt>
      <trkpt lat="40.16791932284832" lon="-6.873082565143704">
        <ele>471.6639404296875</ele>
        <time>2016-10-30T12:12:59Z</time>
      </trkpt>
      <trkpt lat="40.167911108583212" lon="-6.872992543503642">
        <ele>473.1060791015625</ele>
        <time>2016-10-30T12:13:04Z</time>
      </trkpt>
      <trkpt lat="40.167903648689389" lon="-6.872905036434531">
        <ele>474.5479736328125</ele>
        <time>2016-10-30T12:13:09Z</time>
      </trkpt>
      <trkpt lat="40.167894512414932" lon="-6.872802190482616">
        <ele>475.50927734375</ele>
        <time>2016-10-30T12:13:14Z</time>
      </trkpt>
      <trkpt lat="40.167888309806585" lon="-6.872701440006495">
        <ele>475.50927734375</ele>
        <time>2016-10-30T12:13:19Z</time>
      </trkpt>
      <trkpt lat="40.167882610112429" lon="-6.872619297355413">
        <ele>474.5479736328125</ele>
        <time>2016-10-30T12:13:24Z</time>
      </trkpt>
      <trkpt lat="40.167861320078373" lon="-6.872531119734049">
        <ele>475.9898681640625</ele>
        <time>2016-10-30T12:13:29Z</time>
      </trkpt>
      <trkpt lat="40.167833911255002" lon="-6.872449647635222">
        <ele>478.8739013671875</ele>
        <time>2016-10-30T12:13:34Z</time>
      </trkpt>
      <trkpt lat="40.167820332571864" lon="-6.872363230213523">
        <ele>480.31591796875</ele>
        <time>2016-10-30T12:13:39Z</time>
      </trkpt>
      <trkpt lat="40.167798874899745" lon="-6.872297516092658">
        <ele>481.2772216796875</ele>
        <time>2016-10-30T12:13:44Z</time>
      </trkpt>
      <trkpt lat="40.167773980647326" lon="-6.872217133641243">
        <ele>482.238525390625</ele>
        <time>2016-10-30T12:13:49Z</time>
      </trkpt>
      <trkpt lat="40.167755289003253" lon="-6.872140103951097">
        <ele>482.71923828125</ele>
        <time>2016-10-30T12:13:54Z</time>
      </trkpt>
      <trkpt lat="40.167731065303087" lon="-6.872037928551436">
        <ele>483.680419921875</ele>
        <time>2016-10-30T12:13:59Z</time>
      </trkpt>
      <trkpt lat="40.167715977877378" lon="-6.871918486431241">
        <ele>483.680419921875</ele>
        <time>2016-10-30T12:14:04Z</time>
      </trkpt>
      <trkpt lat="40.167689742520452" lon="-6.871796445921063">
        <ele>483.680419921875</ele>
        <time>2016-10-30T12:14:09Z</time>
      </trkpt>
      <trkpt lat="40.167665854096413" lon="-6.871668118983507">
        <ele>484.641845703125</ele>
        <time>2016-10-30T12:14:14Z</time>
      </trkpt>
      <trkpt lat="40.167639451101422" lon="-6.871525207534432">
        <ele>484.1611328125</ele>
        <time>2016-10-30T12:14:19Z</time>
      </trkpt>
      <trkpt lat="40.167609443888068" lon="-6.871391097083688">
        <ele>483.680419921875</ele>
        <time>2016-10-30T12:14:24Z</time>
      </trkpt>
      <trkpt lat="40.167585304006934" lon="-6.871254807338119">
        <ele>483.680419921875</ele>
        <time>2016-10-30T12:14:29Z</time>
      </trkpt>
      <trkpt lat="40.167569210752845" lon="-6.871142657473683">
        <ele>485.1224365234375</ele>
        <time>2016-10-30T12:14:34Z</time>
      </trkpt>
      <trkpt lat="40.167552530765533" lon="-6.871055737137795">
        <ele>486.564453125</ele>
        <time>2016-10-30T12:14:39Z</time>
      </trkpt>
      <trkpt lat="40.167547836899757" lon="-6.870963620021939">
        <ele>488.0064697265625</ele>
        <time>2016-10-30T12:14:44Z</time>
      </trkpt>
      <trkpt lat="40.167518584057689" lon="-6.870885919779539">
        <ele>487.0450439453125</ele>
        <time>2016-10-30T12:14:49Z</time>
      </trkpt>
      <trkpt lat="40.167497042566538" lon="-6.870792713016272">
        <ele>488.0064697265625</ele>
        <time>2016-10-30T12:14:54Z</time>
      </trkpt>
      <trkpt lat="40.167477680370212" lon="-6.870716856792569">
        <ele>489.4483642578125</ele>
        <time>2016-10-30T12:14:59Z</time>
      </trkpt>
      <trkpt lat="40.167474327608943" lon="-6.870636474341154">
        <ele>491.3709716796875</ele>
        <time>2016-10-30T12:15:04Z</time>
      </trkpt>
      <trkpt lat="40.167463682591915" lon="-6.870549637824297">
        <ele>491.3709716796875</ele>
        <time>2016-10-30T12:15:09Z</time>
      </trkpt>
      <trkpt lat="40.167450103908777" lon="-6.870465315878391">
        <ele>491.8516845703125</ele>
        <time>2016-10-30T12:15:14Z</time>
      </trkpt>
      <trkpt lat="40.167418923228979" lon="-6.87038074247539">
        <ele>492.81298828125</ele>
        <time>2016-10-30T12:15:19Z</time>
      </trkpt>
      <trkpt lat="40.167403584346175" lon="-6.870273286476731">
        <ele>491.8516845703125</ele>
        <time>2016-10-30T12:15:24Z</time>
      </trkpt>
      <trkpt lat="40.167407188564539" lon="-6.870149737223983">
        <ele>491.3709716796875</ele>
        <time>2016-10-30T12:15:29Z</time>
      </trkpt>
      <trkpt lat="40.167416324838996" lon="-6.870017973706126">
        <ele>490.890380859375</ele>
        <time>2016-10-30T12:15:34Z</time>
      </trkpt>
      <trkpt lat="40.167424539104104" lon="-6.869853269308806">
        <ele>491.3709716796875</ele>
        <time>2016-10-30T12:15:39Z</time>
      </trkpt>
      <trkpt lat="40.167447421699762" lon="-6.869652438908815">
        <ele>491.8516845703125</ele>
        <time>2016-10-30T12:15:44Z</time>
      </trkpt>
      <trkpt lat="40.16747516579926" lon="-6.869483040645719">
        <ele>490.4097900390625</ele>
        <time>2016-10-30T12:15:49Z</time>
      </trkpt>
      <trkpt lat="40.167549513280392" lon="-6.869396455585957">
        <ele>490.4097900390625</ele>
        <time>2016-10-30T12:15:54Z</time>
      </trkpt>
      <trkpt lat="40.167622435837984" lon="-6.869317749515176">
        <ele>488.9677734375</ele>
        <time>2016-10-30T12:15:59Z</time>
      </trkpt>
      <trkpt lat="40.167710278183222" lon="-6.869250191375613">
        <ele>489.9290771484375</ele>
        <time>2016-10-30T12:16:04Z</time>
      </trkpt>
      <trkpt lat="40.167802227661014" lon="-6.869197553023696">
        <ele>490.890380859375</ele>
        <time>2016-10-30T12:16:09Z</time>
      </trkpt>
      <trkpt lat="40.16787095926702" lon="-6.8691645283252">
        <ele>492.81298828125</ele>
        <time>2016-10-30T12:16:14Z</time>
      </trkpt>
      <trkpt lat="40.167947234585881" lon="-6.869131838902831">
        <ele>494.2550048828125</ele>
        <time>2016-10-30T12:16:19Z</time>
      </trkpt>
      <trkpt lat="40.168018396943808" lon="-6.869077021256089">
        <ele>494.735595703125</ele>
        <time>2016-10-30T12:16:24Z</time>
      </trkpt>
      <trkpt lat="40.168106909841299" lon="-6.869022622704506">
        <ele>495.2161865234375</ele>
        <time>2016-10-30T12:16:29Z</time>
      </trkpt>
      <trkpt lat="40.168195674195886" lon="-6.868948778137565">
        <ele>495.6968994140625</ele>
        <time>2016-10-30T12:16:34Z</time>
      </trkpt>
      <trkpt lat="40.168272703886032" lon="-6.868829252198339">
        <ele>496.177734375</ele>
        <time>2016-10-30T12:16:39Z</time>
      </trkpt>
      <trkpt lat="40.168361719697714" lon="-6.868724981322885">
        <ele>497.61962890625</ele>
        <time>2016-10-30T12:16:44Z</time>
      </trkpt>
      <trkpt lat="40.168433384969831" lon="-6.86869740486145">
        <ele>498.5809326171875</ele>
        <time>2016-10-30T12:16:49Z</time>
      </trkpt>
      <trkpt lat="40.168502368032932" lon="-6.86868223361671">
        <ele>499.542236328125</ele>
        <time>2016-10-30T12:16:54Z</time>
      </trkpt>
      <trkpt lat="40.16858484596014" lon="-6.868663709610701">
        <ele>500.02294921875</ele>
        <time>2016-10-30T12:16:59Z</time>
      </trkpt>
      <trkpt lat="40.168655589222908" lon="-6.868638563901186">
        <ele>499.542236328125</ele>
        <time>2016-10-30T12:17:04Z</time>
      </trkpt>
      <trkpt lat="40.168737564235926" lon="-6.868624733760953">
        <ele>500.984130859375</ele>
        <time>2016-10-30T12:17:09Z</time>
      </trkpt>
      <trkpt lat="40.168804116547108" lon="-6.868598163127899">
        <ele>502.4261474609375</ele>
        <time>2016-10-30T12:17:14Z</time>
      </trkpt>
      <trkpt lat="40.168883157894015" lon="-6.868589026853442">
        <ele>503.387451171875</ele>
        <time>2016-10-30T12:17:19Z</time>
      </trkpt>
      <trkpt lat="40.16894887201488" lon="-6.8685601092875">
        <ele>502.90673828125</ele>
        <time>2016-10-30T12:17:24Z</time>
      </trkpt>
      <trkpt lat="40.16901140101254" lon="-6.868515517562628">
        <ele>503.387451171875</ele>
        <time>2016-10-30T12:17:29Z</time>
      </trkpt>
      <trkpt lat="40.169056663289666" lon="-6.86847067438066">
        <ele>503.387451171875</ele>
        <time>2016-10-30T12:17:33Z</time>
      </trkpt>
      <trkpt lat="40.169111648574471" lon="-6.868365732952952">
        <ele>503.387451171875</ele>
        <time>2016-10-30T12:17:39Z</time>
      </trkpt>
      <trkpt lat="40.169142661616206" lon="-6.868234472349286">
        <ele>502.90673828125</ele>
        <time>2016-10-30T12:17:44Z</time>
      </trkpt>
      <trkpt lat="40.169149367138743" lon="-6.868108995258808">
        <ele>503.8681640625</ele>
        <time>2016-10-30T12:17:49Z</time>
      </trkpt>
      <trkpt lat="40.169140482321382" lon="-6.868000030517578">
        <ele>504.348876953125</ele>
        <time>2016-10-30T12:17:54Z</time>
      </trkpt>
      <trkpt lat="40.169147187843919" lon="-6.867881929501891">
        <ele>505.7908935546875</ele>
        <time>2016-10-30T12:17:59Z</time>
      </trkpt>
      <trkpt lat="40.169170321896672" lon="-6.867777658626437">
        <ele>506.271484375</ele>
        <time>2016-10-30T12:18:04Z</time>
      </trkpt>
      <trkpt lat="40.169190187007189" lon="-6.867684787139297">
        <ele>507.7135009765625</ele>
        <time>2016-10-30T12:18:09Z</time>
      </trkpt>
      <trkpt lat="40.169206447899342" lon="-6.867588814347982">
        <ele>509.1553955078125</ele>
        <time>2016-10-30T12:18:14Z</time>
      </trkpt>
      <trkpt lat="40.169210471212864" lon="-6.867496697232127">
        <ele>510.11669921875</ele>
        <time>2016-10-30T12:18:19Z</time>
      </trkpt>
      <trkpt lat="40.169185493141413" lon="-6.867386810481548">
        <ele>510.5972900390625</ele>
        <time>2016-10-30T12:18:24Z</time>
      </trkpt>
      <trkpt lat="40.169145679101348" lon="-6.86728036031127">
        <ele>510.5972900390625</ele>
        <time>2016-10-30T12:18:29Z</time>
      </trkpt>
      <trkpt lat="40.169097483158112" lon="-6.8671889975667">
        <ele>511.0780029296875</ele>
        <time>2016-10-30T12:18:34Z</time>
      </trkpt>
      <trkpt lat="40.169044677168131" lon="-6.867100987583399">
        <ele>512.0394287109375</ele>
        <time>2016-10-30T12:18:39Z</time>
      </trkpt>
      <trkpt lat="40.168984243646264" lon="-6.867002416402102">
        <ele>511.5587158203125</ele>
        <time>2016-10-30T12:18:44Z</time>
      </trkpt>
      <trkpt lat="40.168933616951108" lon="-6.866902252659202">
        <ele>512.52001953125</ele>
        <time>2016-10-30T12:18:49Z</time>
      </trkpt>
      <trkpt lat="40.168917020782828" lon="-6.866805693134666">
        <ele>513.9620361328125</ele>
        <time>2016-10-30T12:18:54Z</time>
      </trkpt>
      <trkpt lat="40.168944764882326" lon="-6.866706451401115">
        <ele>513.4814453125</ele>
        <time>2016-10-30T12:18:59Z</time>
      </trkpt>
      <trkpt lat="40.168998409062624" lon="-6.866615004837513">
        <ele>513.9620361328125</ele>
        <time>2016-10-30T12:19:04Z</time>
      </trkpt>
      <trkpt lat="40.169054148718715" lon="-6.866547781974077">
        <ele>515.404052734375</ele>
        <time>2016-10-30T12:19:09Z</time>
      </trkpt>
      <trkpt lat="40.169105278328061" lon="-6.866477709263563">
        <ele>516.845947265625</ele>
        <time>2016-10-30T12:19:14Z</time>
      </trkpt>
      <trkpt lat="40.169135872274637" lon="-6.866393135860562">
        <ele>517.32666015625</ele>
        <time>2016-10-30T12:19:19Z</time>
      </trkpt>
      <trkpt lat="40.169148026034236" lon="-6.866290960460901">
        <ele>517.32666015625</ele>
        <time>2016-10-30T12:19:24Z</time>
      </trkpt>
      <trkpt lat="40.169166214764118" lon="-6.866185683757067">
        <ele>517.32666015625</ele>
        <time>2016-10-30T12:19:29Z</time>
      </trkpt>
      <trkpt lat="40.16917266882956" lon="-6.866080239415169">
        <ele>517.8072509765625</ele>
        <time>2016-10-30T12:19:34Z</time>
      </trkpt>
      <trkpt lat="40.169216673821211" lon="-6.865893490612507">
        <ele>516.845947265625</ele>
        <time>2016-10-30T12:19:39Z</time>
      </trkpt>
      <trkpt lat="40.169182224199176" lon="-6.865601716563106">
        <ele>516.365234375</ele>
        <time>2016-10-30T12:19:44Z</time>
      </trkpt>
      <trkpt lat="40.169141488149762" lon="-6.865427289158106">
        <ele>515.404052734375</ele>
        <time>2016-10-30T12:19:49Z</time>
      </trkpt>
      <trkpt lat="40.169081054627895" lon="-6.865151943638921">
        <ele>512.0394287109375</ele>
        <time>2016-10-30T12:19:54Z</time>
      </trkpt>
      <trkpt lat="40.169103853404522" lon="-6.864894451573491">
        <ele>512.52001953125</ele>
        <time>2016-10-30T12:19:59Z</time>
      </trkpt>
      <trkpt lat="40.169139308854938" lon="-6.864724215120077">
        <ele>512.0394287109375</ele>
        <time>2016-10-30T12:20:04Z</time>
      </trkpt>
      <trkpt lat="40.169195383787155" lon="-6.864664033055306">
        <ele>513.000732421875</ele>
        <time>2016-10-30T12:20:09Z</time>
      </trkpt>
      <trkpt lat="40.169236874207854" lon="-6.864620866253972">
        <ele>513.9620361328125</ele>
        <time>2016-10-30T12:20:14Z</time>
      </trkpt>
      <trkpt lat="40.169289177283645" lon="-6.864571077749133">
        <ele>516.365234375</ele>
        <time>2016-10-30T12:20:19Z</time>
      </trkpt>
      <trkpt lat="40.169318933039904" lon="-6.864506117999554">
        <ele>517.8072509765625</ele>
        <time>2016-10-30T12:20:24Z</time>
      </trkpt>
      <trkpt lat="40.169364949688315" lon="-6.864458341151476">
        <ele>518.287841796875</ele>
        <time>2016-10-30T12:20:29Z</time>
      </trkpt>
      <trkpt lat="40.169404428452253" lon="-6.864402601495385">
        <ele>519.249267578125</ele>
        <time>2016-10-30T12:20:34Z</time>
      </trkpt>
      <trkpt lat="40.169437620788813" lon="-6.864337557926774">
        <ele>518.7685546875</ele>
        <time>2016-10-30T12:20:39Z</time>
      </trkpt>
      <trkpt lat="40.169469220563769" lon="-6.864276705309749">
        <ele>520.2105712890625</ele>
        <time>2016-10-30T12:20:44Z</time>
      </trkpt>
      <trkpt lat="40.1695073582232" lon="-6.864211745560169">
        <ele>521.652587890625</ele>
        <time>2016-10-30T12:20:49Z</time>
      </trkpt>
      <trkpt lat="40.169552201405168" lon="-6.864159442484379">
        <ele>522.6138916015625</ele>
        <time>2016-10-30T12:20:54Z</time>
      </trkpt>
      <trkpt lat="40.1695884950459" lon="-6.864098086953163">
        <ele>522.6138916015625</ele>
        <time>2016-10-30T12:20:59Z</time>
      </trkpt>
      <trkpt lat="40.169629482552409" lon="-6.86404125764966">
        <ele>523.5751953125</ele>
        <time>2016-10-30T12:21:04Z</time>
      </trkpt>
      <trkpt lat="40.169662591069937" lon="-6.863976800814271">
        <ele>524.5364990234375</ele>
        <time>2016-10-30T12:21:09Z</time>
      </trkpt>
      <trkpt lat="40.169692179188132" lon="-6.8639200553298">
        <ele>525.497802734375</ele>
        <time>2016-10-30T12:21:14Z</time>
      </trkpt>
      <trkpt lat="40.169715732336044" lon="-6.863847551867366">
        <ele>525.9783935546875</ele>
        <time>2016-10-30T12:21:19Z</time>
      </trkpt>
      <trkpt lat="40.16974775120616" lon="-6.86377102509141">
        <ele>525.9783935546875</ele>
        <time>2016-10-30T12:21:24Z</time>
      </trkpt>
      <trkpt lat="40.169759234413505" lon="-6.863712938502431">
        <ele>525.9783935546875</ele>
        <time>2016-10-30T12:21:29Z</time>
      </trkpt>
      <trkpt lat="40.169754205271602" lon="-6.863634986802936">
        <ele>525.9783935546875</ele>
        <time>2016-10-30T12:21:34Z</time>
      </trkpt>
      <trkpt lat="40.169755714014173" lon="-6.863551754504442">
        <ele>526.9398193359375</ele>
        <time>2016-10-30T12:21:39Z</time>
      </trkpt>
      <trkpt lat="40.169742470607162" lon="-6.863474138081074">
        <ele>527.9010009765625</ele>
        <time>2016-10-30T12:21:44Z</time>
      </trkpt>
      <trkpt lat="40.169743644073606" lon="-6.863394258543849">
        <ele>529.3431396484375</ele>
        <time>2016-10-30T12:21:49Z</time>
      </trkpt>
      <trkpt lat="40.169736854732037" lon="-6.863314211368561">
        <ele>530.304443359375</ele>
        <time>2016-10-30T12:21:54Z</time>
      </trkpt>
      <trkpt lat="40.169741380959749" lon="-6.863238690420985">
        <ele>531.2657470703125</ele>
        <time>2016-10-30T12:21:59Z</time>
      </trkpt>
      <trkpt lat="40.169729981571436" lon="-6.863170964643359">
        <ele>532.707763671875</ele>
        <time>2016-10-30T12:22:04Z</time>
      </trkpt>
      <trkpt lat="40.169730316847563" lon="-6.863106759265065">
        <ele>532.707763671875</ele>
        <time>2016-10-30T12:22:09Z</time>
      </trkpt>
      <trkpt lat="40.169738363474607" lon="-6.863053534179926">
        <ele>533.1883544921875</ele>
        <time>2016-10-30T12:22:14Z</time>
      </trkpt>
      <trkpt lat="40.169740961864591" lon="-6.863048924133182">
        <ele>533.1883544921875</ele>
        <time>2016-10-30T12:22:19Z</time>
      </trkpt>
      <trkpt lat="40.169743979349732" lon="-6.863040709868074">
        <ele>533.6689453125</ele>
        <time>2016-10-30T12:22:24Z</time>
      </trkpt>
      <trkpt lat="40.169767197221518" lon="-6.863019838929176">
        <ele>533.6689453125</ele>
        <time>2016-10-30T12:22:29Z</time>
      </trkpt>
      <trkpt lat="40.169772310182452" lon="-6.863014055415988">
        <ele>533.6689453125</ele>
        <time>2016-10-30T12:22:34Z</time>
      </trkpt>
      <trkpt lat="40.169773064553738" lon="-6.863012462854385">
        <ele>533.6689453125</ele>
        <time>2016-10-30T12:22:39Z</time>
      </trkpt>
      <trkpt lat="40.169774321839213" lon="-6.863010618835688">
        <ele>533.6689453125</ele>
        <time>2016-10-30T12:22:44Z</time>
      </trkpt>
      <trkpt lat="40.169774824753404" lon="-6.863009948283434">
        <ele>533.6689453125</ele>
        <time>2016-10-30T12:22:49Z</time>
      </trkpt>
      <trkpt lat="40.169775243848562" lon="-6.863009193912149">
        <ele>533.6689453125</ele>
        <time>2016-10-30T12:22:54Z</time>
      </trkpt>
      <trkpt lat="40.169775579124689" lon="-6.863008690997958">
        <ele>533.6689453125</ele>
        <time>2016-10-30T12:22:59Z</time>
      </trkpt>
      <trkpt lat="40.169775327667594" lon="-6.86300877481699">
        <ele>533.6689453125</ele>
        <time>2016-10-30T12:23:04Z</time>
      </trkpt>
      <trkpt lat="40.169775243848562" lon="-6.863008942455053">
        <ele>533.6689453125</ele>
        <time>2016-10-30T12:23:09Z</time>
      </trkpt>
      <trkpt lat="40.169775579124689" lon="-6.863009026274085">
        <ele>533.6689453125</ele>
        <time>2016-10-30T12:23:14Z</time>
      </trkpt>
      <trkpt lat="40.169775998219848" lon="-6.863009110093117">
        <ele>533.6689453125</ele>
        <time>2016-10-30T12:23:19Z</time>
      </trkpt>
      <trkpt lat="40.169776333495975" lon="-6.863009110093117">
        <ele>533.6689453125</ele>
        <time>2016-10-30T12:23:24Z</time>
      </trkpt>
      <trkpt lat="40.169776668772101" lon="-6.863008942455053">
        <ele>533.6689453125</ele>
        <time>2016-10-30T12:23:29Z</time>
      </trkpt>
      <trkpt lat="40.169777255505323" lon="-6.86300877481699">
        <ele>533.6689453125</ele>
        <time>2016-10-30T12:23:34Z</time>
      </trkpt>
      <trkpt lat="40.169777926057577" lon="-6.863008523359895">
        <ele>533.6689453125</ele>
        <time>2016-10-30T12:23:39Z</time>
      </trkpt>
      <trkpt lat="40.169778680428863" lon="-6.863008439540863">
        <ele>534.149658203125</ele>
        <time>2016-10-30T12:23:44Z</time>
      </trkpt>
      <trkpt lat="40.169779434800148" lon="-6.863008020445705">
        <ele>534.149658203125</ele>
        <time>2016-10-30T12:23:49Z</time>
      </trkpt>
      <trkpt lat="40.169779686257243" lon="-6.863007936626673">
        <ele>534.149658203125</ele>
        <time>2016-10-30T12:23:54Z</time>
      </trkpt>
      <trkpt lat="40.169779770076275" lon="-6.863007936626673">
        <ele>534.149658203125</ele>
        <time>2016-10-30T12:23:59Z</time>
      </trkpt>
      <trkpt lat="40.169779686257243" lon="-6.863007852807641">
        <ele>534.149658203125</ele>
        <time>2016-10-30T12:24:04Z</time>
      </trkpt>
      <trkpt lat="40.169779602438211" lon="-6.863007852807641">
        <ele>534.149658203125</ele>
        <time>2016-10-30T12:24:09Z</time>
      </trkpt>
      <trkpt lat="40.16977951861918" lon="-6.8630082719028">
        <ele>534.149658203125</ele>
        <time>2016-10-30T12:24:14Z</time>
      </trkpt>
      <trkpt lat="40.169779099524021" lon="-6.8630082719028">
        <ele>534.149658203125</ele>
        <time>2016-10-30T12:24:19Z</time>
      </trkpt>
      <trkpt lat="40.169779015704989" lon="-6.863008188083768">
        <ele>534.149658203125</ele>
        <time>2016-10-30T12:24:24Z</time>
      </trkpt>
      <trkpt lat="40.169778764247894" lon="-6.863008020445705">
        <ele>534.149658203125</ele>
        <time>2016-10-30T12:24:29Z</time>
      </trkpt>
      <trkpt lat="40.169778848066926" lon="-6.863008104264736">
        <ele>534.149658203125</ele>
        <time>2016-10-30T12:24:34Z</time>
      </trkpt>
      <trkpt lat="40.169778931885958" lon="-6.863008355721831">
        <ele>534.149658203125</ele>
        <time>2016-10-30T12:24:39Z</time>
      </trkpt>
      <trkpt lat="40.169779434800148" lon="-6.863008523359895">
        <ele>534.149658203125</ele>
        <time>2016-10-30T12:24:44Z</time>
      </trkpt>
      <trkpt lat="40.169779434800148" lon="-6.863008439540863">
        <ele>534.149658203125</ele>
        <time>2016-10-30T12:24:49Z</time>
      </trkpt>
      <trkpt lat="40.169779602438211" lon="-6.8630082719028">
        <ele>534.149658203125</ele>
        <time>2016-10-30T12:24:54Z</time>
      </trkpt>
      <trkpt lat="40.169779770076275" lon="-6.863008020445705">
        <ele>534.149658203125</ele>
        <time>2016-10-30T12:24:59Z</time>
      </trkpt>
      <trkpt lat="40.169779937714338" lon="-6.863007433712483">
        <ele>534.149658203125</ele>
        <time>2016-10-30T12:25:04Z</time>
      </trkpt>
      <trkpt lat="40.16978002153337" lon="-6.863006679341197">
        <ele>534.149658203125</ele>
        <time>2016-10-30T12:25:09Z</time>
      </trkpt>
      <trkpt lat="40.169779853895307" lon="-6.863006260246038">
        <ele>534.149658203125</ele>
        <time>2016-10-30T12:25:14Z</time>
      </trkpt>
      <trkpt lat="40.169779937714338" lon="-6.863005673512816">
        <ele>534.149658203125</ele>
        <time>2016-10-30T12:25:19Z</time>
      </trkpt>
      <trkpt lat="40.169779937714338" lon="-6.863005002960563">
        <ele>534.149658203125</ele>
        <time>2016-10-30T12:25:24Z</time>
      </trkpt>
      <trkpt lat="40.16978002153337" lon="-6.863004248589277">
        <ele>534.149658203125</ele>
        <time>2016-10-30T12:25:29Z</time>
      </trkpt>
      <trkpt lat="40.16978002153337" lon="-6.863003661856055">
        <ele>534.149658203125</ele>
        <time>2016-10-30T12:25:34Z</time>
      </trkpt>
      <trkpt lat="40.169779937714338" lon="-6.863003075122833">
        <ele>534.149658203125</ele>
        <time>2016-10-30T12:25:39Z</time>
      </trkpt>
      <trkpt lat="40.169779686257243" lon="-6.863002823665738">
        <ele>534.149658203125</ele>
        <time>2016-10-30T12:25:44Z</time>
      </trkpt>
      <trkpt lat="40.169779434800148" lon="-6.863002572208643">
        <ele>534.149658203125</ele>
        <time>2016-10-30T12:25:49Z</time>
      </trkpt>
      <trkpt lat="40.169779350981116" lon="-6.86300240457058">
        <ele>534.149658203125</ele>
        <time>2016-10-30T12:25:54Z</time>
      </trkpt>
      <trkpt lat="40.169779602438211" lon="-6.863002069294453">
        <ele>534.149658203125</ele>
        <time>2016-10-30T12:25:59Z</time>
      </trkpt>
      <trkpt lat="40.16978002153337" lon="-6.863001566380262">
        <ele>534.149658203125</ele>
        <time>2016-10-30T12:26:04Z</time>
      </trkpt>
      <trkpt lat="40.169780608266592" lon="-6.863001063466072">
        <ele>534.149658203125</ele>
        <time>2016-10-30T12:26:09Z</time>
      </trkpt>
      <trkpt lat="40.169781362637877" lon="-6.863000309094787">
        <ele>534.149658203125</ele>
        <time>2016-10-30T12:26:14Z</time>
      </trkpt>
      <trkpt lat="40.169781865552068" lon="-6.863000141456723">
        <ele>534.149658203125</ele>
        <time>2016-10-30T12:26:19Z</time>
      </trkpt>
      <trkpt lat="40.169782200828195" lon="-6.863000057637692">
        <ele>534.149658203125</ele>
        <time>2016-10-30T12:26:24Z</time>
      </trkpt>
      <trkpt lat="40.16978245228529" lon="-6.86299997381866">
        <ele>534.149658203125</ele>
        <time>2016-10-30T12:26:29Z</time>
      </trkpt>
      <trkpt lat="40.169782703742385" lon="-6.863000057637692">
        <ele>534.149658203125</ele>
        <time>2016-10-30T12:26:34Z</time>
      </trkpt>
      <trkpt lat="40.169782871380448" lon="-6.86299997381866">
        <ele>534.149658203125</ele>
        <time>2016-10-30T12:26:39Z</time>
      </trkpt>
      <trkpt lat="40.169783122837543" lon="-6.862999889999628">
        <ele>534.149658203125</ele>
        <time>2016-10-30T12:26:44Z</time>
      </trkpt>
      <trkpt lat="40.169783290475607" lon="-6.862999638542533">
        <ele>534.149658203125</ele>
        <time>2016-10-30T12:26:49Z</time>
      </trkpt>
      <trkpt lat="40.16978345811367" lon="-6.862999219447374">
        <ele>534.149658203125</ele>
        <time>2016-10-30T12:26:54Z</time>
      </trkpt>
      <trkpt lat="40.169783709570765" lon="-6.862998800352216">
        <ele>534.149658203125</ele>
        <time>2016-10-30T12:26:59Z</time>
      </trkpt>
      <trkpt lat="40.169783877208829" lon="-6.862998381257057">
        <ele>534.149658203125</ele>
        <time>2016-10-30T12:27:04Z</time>
      </trkpt>
      <trkpt lat="40.169783793389797" lon="-6.862998465076089">
        <ele>534.149658203125</ele>
        <time>2016-10-30T12:27:09Z</time>
      </trkpt>
      <trkpt lat="40.169783793389797" lon="-6.862998297438026">
        <ele>534.149658203125</ele>
        <time>2016-10-30T12:27:14Z</time>
      </trkpt>
      <trkpt lat="40.169783793389797" lon="-6.862998381257057">
        <ele>534.149658203125</ele>
        <time>2016-10-30T12:27:19Z</time>
      </trkpt>
      <trkpt lat="40.169783709570765" lon="-6.862998381257057">
        <ele>534.149658203125</ele>
        <time>2016-10-30T12:27:24Z</time>
      </trkpt>
      <trkpt lat="40.169783374294639" lon="-6.862998632714152">
        <ele>534.149658203125</ele>
        <time>2016-10-30T12:27:29Z</time>
      </trkpt>
      <trkpt lat="40.169783039018512" lon="-6.862998967990279">
        <ele>534.149658203125</ele>
        <time>2016-10-30T12:27:34Z</time>
      </trkpt>
      <trkpt lat="40.169782787561417" lon="-6.862999051809311">
        <ele>534.149658203125</ele>
        <time>2016-10-30T12:27:39Z</time>
      </trkpt>
      <trkpt lat="40.169782200828195" lon="-6.862999303266406">
        <ele>534.149658203125</ele>
        <time>2016-10-30T12:27:44Z</time>
      </trkpt>
      <trkpt lat="40.169781949371099" lon="-6.862999219447374">
        <ele>534.149658203125</ele>
        <time>2016-10-30T12:27:49Z</time>
      </trkpt>
      <trkpt lat="40.169781697914004" lon="-6.862999219447374">
        <ele>534.149658203125</ele>
        <time>2016-10-30T12:27:54Z</time>
      </trkpt>
      <trkpt lat="40.169781614094973" lon="-6.862999135628343">
        <ele>534.149658203125</ele>
        <time>2016-10-30T12:27:59Z</time>
      </trkpt>
      <trkpt lat="40.169781446456909" lon="-6.862999051809311">
        <ele>534.149658203125</ele>
        <time>2016-10-30T12:28:04Z</time>
      </trkpt>
      <trkpt lat="40.169781530275941" lon="-6.862999051809311">
        <ele>534.149658203125</ele>
        <time>2016-10-30T12:28:08Z</time>
      </trkpt>
      <trkpt lat="40.169781446456909" lon="-6.862999219447374">
        <ele>534.149658203125</ele>
        <time>2016-10-30T12:28:14Z</time>
      </trkpt>
      <trkpt lat="40.169781278818846" lon="-6.862999387085438">
        <ele>534.149658203125</ele>
        <time>2016-10-30T12:28:19Z</time>
      </trkpt>
      <trkpt lat="40.169781111180782" lon="-6.862999387085438">
        <ele>534.149658203125</ele>
        <time>2016-10-30T12:28:24Z</time>
      </trkpt>
      <trkpt lat="40.169781027361751" lon="-6.862999554723501">
        <ele>534.149658203125</ele>
        <time>2016-10-30T12:28:29Z</time>
      </trkpt>
      <trkpt lat="40.169781027361751" lon="-6.862999889999628">
        <ele>534.149658203125</ele>
        <time>2016-10-30T12:28:34Z</time>
      </trkpt>
      <trkpt lat="40.169780859723687" lon="-6.86299997381866">
        <ele>534.149658203125</ele>
        <time>2016-10-30T12:28:39Z</time>
      </trkpt>
      <trkpt lat="40.169780692085624" lon="-6.863000392913818">
        <ele>534.149658203125</ele>
        <time>2016-10-30T12:28:44Z</time>
      </trkpt>
      <trkpt lat="40.169780692085624" lon="-6.863000392913818">
        <ele>534.149658203125</ele>
        <time>2016-10-30T12:28:49Z</time>
      </trkpt>
      <trkpt lat="40.169779770076275" lon="-6.862998548895121">
        <ele>534.149658203125</ele>
        <time>2016-10-30T12:28:54Z</time>
      </trkpt>
      <trkpt lat="40.169776920229197" lon="-6.862992849200964">
        <ele>534.149658203125</ele>
        <time>2016-10-30T12:28:59Z</time>
      </trkpt>
      <trkpt lat="40.16977708786726" lon="-6.862986730411649">
        <ele>534.63037109375</ele>
        <time>2016-10-30T12:29:04Z</time>
      </trkpt>
      <trkpt lat="40.169784966856241" lon="-6.862966362386942">
        <ele>535.1109619140625</ele>
        <time>2016-10-30T12:29:09Z</time>
      </trkpt>
      <trkpt lat="40.169812375679612" lon="-6.862893607467413">
        <ele>536.0723876953125</ele>
        <time>2016-10-30T12:29:14Z</time>
      </trkpt>
      <trkpt lat="40.169848585501313" lon="-6.862817751243711">
        <ele>537.03369140625</ele>
        <time>2016-10-30T12:29:19Z</time>
      </trkpt>
      <trkpt lat="40.169902984052896" lon="-6.862728651612997">
        <ele>538.4757080078125</ele>
        <time>2016-10-30T12:29:24Z</time>
      </trkpt>
      <trkpt lat="40.169989485293627" lon="-6.862664194777608">
        <ele>537.9949951171875</ele>
        <time>2016-10-30T12:29:29Z</time>
      </trkpt>
      <trkpt lat="40.170085206627846" lon="-6.862617591395974">
        <ele>537.5142822265625</ele>
        <time>2016-10-30T12:29:34Z</time>
      </trkpt>
      <trkpt lat="40.170151926577091" lon="-6.862572245299816">
        <ele>537.9949951171875</ele>
        <time>2016-10-30T12:29:39Z</time>
      </trkpt>
      <trkpt lat="40.170235242694616" lon="-6.862524719908834">
        <ele>539.4368896484375</ele>
        <time>2016-10-30T12:29:44Z</time>
      </trkpt>
      <trkpt lat="40.170311853289604" lon="-6.862501418218017">
        <ele>538.4757080078125</ele>
        <time>2016-10-30T12:29:49Z</time>
      </trkpt>
      <trkpt lat="40.170395253226161" lon="-6.862494209781289">
        <ele>538.4757080078125</ele>
        <time>2016-10-30T12:29:54Z</time>
      </trkpt>
      <trkpt lat="40.170456608757377" lon="-6.862486749887466">
        <ele>539.4368896484375</ele>
        <time>2016-10-30T12:29:59Z</time>
      </trkpt>
      <trkpt lat="40.170518802478909" lon="-6.862491443753243">
        <ele>541.3594970703125</ele>
        <time>2016-10-30T12:30:04Z</time>
      </trkpt>
      <trkpt lat="40.17058334313333" lon="-6.862462945282459">
        <ele>544.24365234375</ele>
        <time>2016-10-30T12:30:09Z</time>
      </trkpt>
      <trkpt lat="40.170645285397768" lon="-6.862454731017351">
        <ele>544.7242431640625</ele>
        <time>2016-10-30T12:30:14Z</time>
      </trkpt>
      <trkpt lat="40.170732038095593" lon="-6.862431764602661">
        <ele>546.6468505859375</ele>
        <time>2016-10-30T12:30:19Z</time>
      </trkpt>
      <trkpt lat="40.170806888490915" lon="-6.862392034381628">
        <ele>548.0888671875</ele>
        <time>2016-10-30T12:30:24Z</time>
      </trkpt>
      <trkpt lat="40.170858688652515" lon="-6.862334115430713">
        <ele>548.0888671875</ele>
        <time>2016-10-30T12:30:29Z</time>
      </trkpt>
      <trkpt lat="40.170910740271211" lon="-6.862236550077796">
        <ele>548.0888671875</ele>
        <time>2016-10-30T12:30:34Z</time>
      </trkpt>
      <trkpt lat="40.170879308134317" lon="-6.862120125442743">
        <ele>547.608154296875</ele>
        <time>2016-10-30T12:30:39Z</time>
      </trkpt>
      <trkpt lat="40.170825999230146" lon="-6.862013842910528">
        <ele>547.12744140625</ele>
        <time>2016-10-30T12:30:44Z</time>
      </trkpt>
      <trkpt lat="40.170765984803438" lon="-6.861939830705524">
        <ele>547.608154296875</ele>
        <time>2016-10-30T12:30:49Z</time>
      </trkpt>
      <trkpt lat="40.170724242925644" lon="-6.861865567043424">
        <ele>548.0888671875</ele>
        <time>2016-10-30T12:30:54Z</time>
      </trkpt>
      <trkpt lat="40.170695157721639" lon="-6.861772108823061">
        <ele>548.0888671875</ele>
        <time>2016-10-30T12:30:59Z</time>
      </trkpt>
      <trkpt lat="40.170669173821807" lon="-6.861667586490512">
        <ele>548.5693359375</ele>
        <time>2016-10-30T12:31:04Z</time>
      </trkpt>
      <trkpt lat="40.170604884624481" lon="-6.861546887084842">
        <ele>548.0888671875</ele>
        <time>2016-10-30T12:31:09Z</time>
      </trkpt>
      <trkpt lat="40.1705452054739" lon="-6.861429372802377">
        <ele>546.166259765625</ele>
        <time>2016-10-30T12:31:14Z</time>
      </trkpt>
      <trkpt lat="40.170497931540012" lon="-6.861292999237776">
        <ele>547.608154296875</ele>
        <time>2016-10-30T12:31:19Z</time>
      </trkpt>
      <trkpt lat="40.170464906841516" lon="-6.861147070303559">
        <ele>548.0888671875</ele>
        <time>2016-10-30T12:31:24Z</time>
      </trkpt>
      <trkpt lat="40.170390894636512" lon="-6.861088732257485">
        <ele>549.53076171875</ele>
        <time>2016-10-30T12:31:29Z</time>
      </trkpt>
      <trkpt lat="40.170326186344028" lon="-6.861049253493547">
        <ele>550.4921875</ele>
        <time>2016-10-30T12:31:34Z</time>
      </trkpt>
      <trkpt lat="40.170257287099957" lon="-6.861032154411078">
        <ele>552.895263671875</ele>
        <time>2016-10-30T12:31:39Z</time>
      </trkpt>
      <trkpt lat="40.170188387855887" lon="-6.861018072813749">
        <ele>554.33740234375</ele>
        <time>2016-10-30T12:31:44Z</time>
      </trkpt>
      <trkpt lat="40.170115381479263" lon="-6.860992927104235">
        <ele>555.298583984375</ele>
        <time>2016-10-30T12:31:49Z</time>
      </trkpt>
      <trkpt lat="40.170069867745042" lon="-6.860951771959662">
        <ele>555.779296875</ele>
        <time>2016-10-30T12:31:54Z</time>
      </trkpt>
      <trkpt lat="40.170046901330352" lon="-6.860870886594057">
        <ele>556.260009765625</ele>
        <time>2016-10-30T12:31:59Z</time>
      </trkpt>
      <trkpt lat="40.170071376487613" lon="-6.860798466950655">
        <ele>557.7021484375</ele>
        <time>2016-10-30T12:32:04Z</time>
      </trkpt>
      <trkpt lat="40.170098533853889" lon="-6.860728729516268">
        <ele>558.182861328125</ele>
        <time>2016-10-30T12:32:09Z</time>
      </trkpt>
      <trkpt lat="40.170120326802135" lon="-6.860656896606088">
        <ele>559.14404296875</ele>
        <time>2016-10-30T12:32:14Z</time>
      </trkpt>
      <trkpt lat="40.170145472511649" lon="-6.860573245212436">
        <ele>560.5859375</ele>
        <time>2016-10-30T12:32:19Z</time>
      </trkpt>
      <trkpt lat="40.17017288133502" lon="-6.860482972115278">
        <ele>562.028076171875</ele>
        <time>2016-10-30T12:32:24Z</time>
      </trkpt>
      <trkpt lat="40.170198949053884" lon="-6.860391357913613">
        <ele>562.508544921875</ele>
        <time>2016-10-30T12:32:29Z</time>
      </trkpt>
      <trkpt lat="40.17022367566824" lon="-6.860234616324306">
        <ele>561.54736328125</ele>
        <time>2016-10-30T12:32:34Z</time>
      </trkpt>
      <trkpt lat="40.170247815549374" lon="-6.860026493668556">
        <ele>562.508544921875</ele>
        <time>2016-10-30T12:32:39Z</time>
      </trkpt>
      <trkpt lat="40.170259969308972" lon="-6.859891293570399">
        <ele>562.9892578125</ele>
        <time>2016-10-30T12:32:44Z</time>
      </trkpt>
      <trkpt lat="40.170290311798453" lon="-6.859797332435846">
        <ele>562.9892578125</ele>
        <time>2016-10-30T12:32:49Z</time>
      </trkpt>
      <trkpt lat="40.170308668166399" lon="-6.859735390171409">
        <ele>564.911865234375</ele>
        <time>2016-10-30T12:32:54Z</time>
      </trkpt>
      <trkpt lat="40.170334400609136" lon="-6.859642853960395">
        <ele>564.43115234375</ele>
        <time>2016-10-30T12:32:59Z</time>
      </trkpt>
      <trkpt lat="40.170355523005128" lon="-6.859548641368747">
        <ele>565.392578125</ele>
        <time>2016-10-30T12:33:04Z</time>
      </trkpt>
      <trkpt lat="40.170399360358715" lon="-6.85947353951633">
        <ele>565.873291015625</ele>
        <time>2016-10-30T12:33:09Z</time>
      </trkpt>
      <trkpt lat="40.17046800814569" lon="-6.859517125412822">
        <ele>566.83447265625</ele>
        <time>2016-10-30T12:33:14Z</time>
      </trkpt>
      <trkpt lat="40.170519892126322" lon="-6.859548557549715">
        <ele>566.83447265625</ele>
        <time>2016-10-30T12:33:19Z</time>
      </trkpt>
      <trkpt lat="40.170578733086586" lon="-6.859590718522668">
        <ele>566.83447265625</ele>
        <time>2016-10-30T12:33:24Z</time>
      </trkpt>
      <trkpt lat="40.170642100274563" lon="-6.859647464007139">
        <ele>568.757080078125</ele>
        <time>2016-10-30T12:33:29Z</time>
      </trkpt>
      <trkpt lat="40.170691385865211" lon="-6.85971200466156">
        <ele>570.198974609375</ele>
        <time>2016-10-30T12:33:34Z</time>
      </trkpt>
      <trkpt lat="40.170734971761703" lon="-6.859800182282925">
        <ele>571.640869140625</ele>
        <time>2016-10-30T12:33:39Z</time>
      </trkpt>
      <trkpt lat="40.170785682275891" lon="-6.859896322712302">
        <ele>571.640869140625</ele>
        <time>2016-10-30T12:33:44Z</time>
      </trkpt>
      <trkpt lat="40.170843852683902" lon="-6.85999883338809">
        <ele>570.198974609375</ele>
        <time>2016-10-30T12:33:49Z</time>
      </trkpt>
      <trkpt lat="40.170916775241494" lon="-6.86005256138742">
        <ele>569.23779296875</ele>
        <time>2016-10-30T12:33:54Z</time>
      </trkpt>
      <trkpt lat="40.170998750254512" lon="-6.860025320202112">
        <ele>568.757080078125</ele>
        <time>2016-10-30T12:33:59Z</time>
      </trkpt>
      <trkpt lat="40.171078126877546" lon="-6.860034540295601">
        <ele>567.795654296875</ele>
        <time>2016-10-30T12:34:04Z</time>
      </trkpt>
      <trkpt lat="40.171153815463185" lon="-6.860042922198772">
        <ele>568.757080078125</ele>
        <time>2016-10-30T12:34:09Z</time>
      </trkpt>
      <trkpt lat="40.171221122145653" lon="-6.860034121200442">
        <ele>569.718505859375</ele>
        <time>2016-10-30T12:34:14Z</time>
      </trkpt>
      <trkpt lat="40.17128792591393" lon="-6.860013082623482">
        <ele>570.6796875</ele>
        <time>2016-10-30T12:34:19Z</time>
      </trkpt>
      <trkpt lat="40.171347018331289" lon="-6.860016016289592">
        <ele>572.6025390625</ele>
        <time>2016-10-30T12:34:24Z</time>
      </trkpt>
      <trkpt lat="40.171414408832788" lon="-6.860052645206451">
        <ele>573.56396484375</ele>
        <time>2016-10-30T12:34:29Z</time>
      </trkpt>
      <trkpt lat="40.171463442966342" lon="-6.860070331022143">
        <ele>574.525146484375</ele>
        <time>2016-10-30T12:34:34Z</time>
      </trkpt>
      <trkpt lat="40.171534018591046" lon="-6.860068487003446">
        <ele>575.967041015625</ele>
        <time>2016-10-30T12:34:39Z</time>
      </trkpt>
      <trkpt lat="40.171582298353314" lon="-6.860046191141009">
        <ele>578.85107421875</ele>
        <time>2016-10-30T12:34:44Z</time>
      </trkpt>
      <trkpt lat="40.171644575893879" lon="-6.860036551952362">
        <ele>579.812255859375</ele>
        <time>2016-10-30T12:34:49Z</time>
      </trkpt>
      <trkpt lat="40.171716157346964" lon="-6.860010735690594">
        <ele>580.29296875</ele>
        <time>2016-10-30T12:34:54Z</time>
      </trkpt>
      <trkpt lat="40.171759156510234" lon="-6.859962623566389">
        <ele>581.25439453125</ele>
        <time>2016-10-30T12:34:59Z</time>
      </trkpt>
      <trkpt lat="40.171816656365991" lon="-6.859923228621483">
        <ele>582.6962890625</ele>
        <time>2016-10-30T12:35:04Z</time>
      </trkpt>
      <trkpt lat="40.171876167878509" lon="-6.859910739585757">
        <ele>583.657470703125</ele>
        <time>2016-10-30T12:35:09Z</time>
      </trkpt>
      <trkpt lat="40.171937942504883" lon="-6.859903279691935">
        <ele>582.6962890625</ele>
        <time>2016-10-30T12:35:14Z</time>
      </trkpt>
      <trkpt lat="40.171988485381007" lon="-6.8598947301507">
        <ele>583.657470703125</ele>
        <time>2016-10-30T12:35:19Z</time>
      </trkpt>
      <trkpt lat="40.172044392675161" lon="-6.859866147860885">
        <ele>585.099609375</ele>
        <time>2016-10-30T12:35:24Z</time>
      </trkpt>
      <trkpt lat="40.172076746821404" lon="-6.859797416254878">
        <ele>584.618896484375</ele>
        <time>2016-10-30T12:35:29Z</time>
      </trkpt>
      <trkpt lat="40.172121254727244" lon="-6.859729858115315">
        <ele>585.099609375</ele>
        <time>2016-10-30T12:35:34Z</time>
      </trkpt>
      <trkpt lat="40.172178000211716" lon="-6.859675962477922">
        <ele>587.02197265625</ele>
        <time>2016-10-30T12:35:39Z</time>
      </trkpt>
      <trkpt lat="40.172241115942597" lon="-6.859634723514319">
        <ele>587.502685546875</ele>
        <time>2016-10-30T12:35:44Z</time>
      </trkpt>
      <trkpt lat="40.172291994094849" lon="-6.859665904194117">
        <ele>588.46435546875</ele>
        <time>2016-10-30T12:35:49Z</time>
      </trkpt>
      <trkpt lat="40.172337088733912" lon="-6.859704796224833">
        <ele>588.945068359375</ele>
        <time>2016-10-30T12:35:54Z</time>
      </trkpt>
      <trkpt lat="40.172382351011038" lon="-6.859756680205464">
        <ele>589.90625</ele>
        <time>2016-10-30T12:35:59Z</time>
      </trkpt>
      <trkpt lat="40.172424847260118" lon="-6.859793812036514">
        <ele>590.386962890625</ele>
        <time>2016-10-30T12:36:04Z</time>
      </trkpt>
      <trkpt lat="40.172455105930567" lon="-6.859845947474241">
        <ele>590.867431640625</ele>
        <time>2016-10-30T12:36:09Z</time>
      </trkpt>
      <trkpt lat="40.172493327409029" lon="-6.859893389046192">
        <ele>590.867431640625</ele>
        <time>2016-10-30T12:36:14Z</time>
      </trkpt>
      <trkpt lat="40.172545798122883" lon="-6.859939070418477">
        <ele>591.828857421875</ele>
        <time>2016-10-30T12:36:19Z</time>
      </trkpt>
      <trkpt lat="40.172599274665117" lon="-6.859963964670897">
        <ele>591.828857421875</ele>
        <time>2016-10-30T12:36:24Z</time>
      </trkpt>
      <trkpt lat="40.172646129503846" lon="-6.859963210299611">
        <ele>592.3095703125</ele>
        <time>2016-10-30T12:36:29Z</time>
      </trkpt>
      <trkpt lat="40.17267219722271" lon="-6.859950553625822">
        <ele>595.193359375</ele>
        <time>2016-10-30T12:36:34Z</time>
      </trkpt>
      <trkpt lat="40.172736151143909" lon="-6.859949799254537">
        <ele>594.712646484375</ele>
        <time>2016-10-30T12:36:39Z</time>
      </trkpt>
      <trkpt lat="40.172786694020033" lon="-6.859960779547691">
        <ele>596.15478515625</ele>
        <time>2016-10-30T12:36:44Z</time>
      </trkpt>
      <trkpt lat="40.172842182219028" lon="-6.859964551404119">
        <ele>596.635498046875</ele>
        <time>2016-10-30T12:36:49Z</time>
      </trkpt>
      <trkpt lat="40.172889959067106" lon="-6.859975447878242">
        <ele>597.5966796875</ele>
        <time>2016-10-30T12:36:54Z</time>
      </trkpt>
      <trkpt lat="40.172944022342563" lon="-6.859971340745688">
        <ele>598.077392578125</ele>
        <time>2016-10-30T12:36:59Z</time>
      </trkpt>
      <trkpt lat="40.173015184700489" lon="-6.8599534034729">
        <ele>599.519287109375</ele>
        <time>2016-10-30T12:37:04Z</time>
      </trkpt>
      <trkpt lat="40.17306799069047" lon="-6.859938567504287">
        <ele>599.519287109375</ele>
        <time>2016-10-30T12:37:09Z</time>
      </trkpt>
      <trkpt lat="40.17311442643404" lon="-6.859918534755707">
        <ele>600</ele>
        <time>2016-10-30T12:37:14Z</time>
      </trkpt>
      <trkpt lat="40.173157677054405" lon="-6.859893221408129">
        <ele>601.922607421875</ele>
        <time>2016-10-30T12:37:19Z</time>
      </trkpt>
      <trkpt lat="40.173201262950897" lon="-6.859867656603456">
        <ele>603.364501953125</ele>
        <time>2016-10-30T12:37:24Z</time>
      </trkpt>
      <trkpt lat="40.173239568248391" lon="-6.859834128990769">
        <ele>603.84521484375</ele>
        <time>2016-10-30T12:37:29Z</time>
      </trkpt>
      <trkpt lat="40.173273347318172" lon="-6.859779395163059">
        <ele>604.326171875</ele>
        <time>2016-10-30T12:37:34Z</time>
      </trkpt>
      <trkpt lat="40.173302935436368" lon="-6.859736144542694">
        <ele>605.287353515625</ele>
        <time>2016-10-30T12:37:39Z</time>
      </trkpt>
      <trkpt lat="40.173330847173929" lon="-6.859695995226502">
        <ele>606.729248046875</ele>
        <time>2016-10-30T12:37:44Z</time>
      </trkpt>
      <trkpt lat="40.17337434925139" lon="-6.859629862010479">
        <ele>607.2099609375</ele>
        <time>2016-10-30T12:37:49Z</time>
      </trkpt>
      <trkpt lat="40.173397567123175" lon="-6.859579738229513">
        <ele>608.65185546875</ele>
        <time>2016-10-30T12:37:54Z</time>
      </trkpt>
      <trkpt lat="40.173412570729852" lon="-6.859507402405143">
        <ele>609.132568359375</ele>
        <time>2016-10-30T12:37:59Z</time>
      </trkpt>
      <trkpt lat="40.173419443890452" lon="-6.859439928084612">
        <ele>609.132568359375</ele>
        <time>2016-10-30T12:38:04Z</time>
      </trkpt>
      <trkpt lat="40.173423551023006" lon="-6.85934454202652">
        <ele>610.574462890625</ele>
        <time>2016-10-30T12:38:09Z</time>
      </trkpt>
      <trkpt lat="40.173430591821671" lon="-6.859233481809497">
        <ele>610.574462890625</ele>
        <time>2016-10-30T12:38:14Z</time>
      </trkpt>
      <trkpt lat="40.173453139141202" lon="-6.859104065224528">
        <ele>610.574462890625</ele>
        <time>2016-10-30T12:38:19Z</time>
      </trkpt>
      <trkpt lat="40.173479374498129" lon="-6.85893751680851">
        <ele>610.574462890625</ele>
        <time>2016-10-30T12:38:24Z</time>
      </trkpt>
      <trkpt lat="40.173500496894121" lon="-6.8588050827384">
        <ele>610.09375</ele>
        <time>2016-10-30T12:38:29Z</time>
      </trkpt>
      <trkpt lat="40.1735326834023" lon="-6.858679940924048">
        <ele>610.09375</ele>
        <time>2016-10-30T12:38:34Z</time>
      </trkpt>
      <trkpt lat="40.173543663695455" lon="-6.858566114678979">
        <ele>610.574462890625</ele>
        <time>2016-10-30T12:38:39Z</time>
      </trkpt>
      <trkpt lat="40.173563025891781" lon="-6.858464777469635">
        <ele>612.0166015625</ele>
        <time>2016-10-30T12:38:44Z</time>
      </trkpt>
      <trkpt lat="40.173597224056721" lon="-6.858380706980825">
        <ele>612.0166015625</ele>
        <time>2016-10-30T12:38:49Z</time>
      </trkpt>
      <trkpt lat="40.173622453585267" lon="-6.858330415561795">
        <ele>613.45849609375</ele>
        <time>2016-10-30T12:38:53Z</time>
      </trkpt>
      <trkpt lat="40.173691185191274" lon="-6.858290266245604">
        <ele>612.977783203125</ele>
        <time>2016-10-30T12:38:59Z</time>
      </trkpt>
      <trkpt lat="40.173760838806629" lon="-6.858246680349112">
        <ele>614.900390625</ele>
        <time>2016-10-30T12:39:04Z</time>
      </trkpt>
      <trkpt lat="40.173814985901117" lon="-6.858190102502704">
        <ele>614.900390625</ele>
        <time>2016-10-30T12:39:09Z</time>
      </trkpt>
      <trkpt lat="40.173866283148527" lon="-6.85814349912107">
        <ele>615.86181640625</ele>
        <time>2016-10-30T12:39:14Z</time>
      </trkpt>
      <trkpt lat="40.173924956470728" lon="-6.858087340369821">
        <ele>615.86181640625</ele>
        <time>2016-10-30T12:39:19Z</time>
      </trkpt>
      <trkpt lat="40.173999303951859" lon="-6.858027074486017">
        <ele>617.3037109375</ele>
        <time>2016-10-30T12:39:24Z</time>
      </trkpt>
      <trkpt lat="40.174084967002273" lon="-6.857944848015904">
        <ele>616.34228515625</ele>
        <time>2016-10-30T12:39:29Z</time>
      </trkpt>
      <trkpt lat="40.17420063726604" lon="-6.857870249077678">
        <ele>615.86181640625</ele>
        <time>2016-10-30T12:39:34Z</time>
      </trkpt>
      <trkpt lat="40.174328545108438" lon="-6.857826244086027">
        <ele>614.900390625</ele>
        <time>2016-10-30T12:39:39Z</time>
      </trkpt>
      <trkpt lat="40.174448154866695" lon="-6.857837811112404">
        <ele>612.4970703125</ele>
        <time>2016-10-30T12:39:44Z</time>
      </trkpt>
      <trkpt lat="40.174581427127123" lon="-6.857731863856316">
        <ele>607.2099609375</ele>
        <time>2016-10-30T12:39:49Z</time>
      </trkpt>
      <trkpt lat="40.174758033826947" lon="-6.857580570504069">
        <ele>601.922607421875</ele>
        <time>2016-10-30T12:39:54Z</time>
      </trkpt>
      <trkpt lat="40.17484956420958" lon="-6.857449812814593">
        <ele>600</ele>
        <time>2016-10-30T12:39:59Z</time>
      </trkpt>
      <trkpt lat="40.1748485583812" lon="-6.85733187943697">
        <ele>600</ele>
        <time>2016-10-30T12:40:04Z</time>
      </trkpt>
      <trkpt lat="40.174848642200232" lon="-6.857196008786559">
        <ele>597.115966796875</ele>
        <time>2016-10-30T12:40:09Z</time>
      </trkpt>
      <trkpt lat="40.174903711304069" lon="-6.857027532532811">
        <ele>595.674072265625</ele>
        <time>2016-10-30T12:40:14Z</time>
      </trkpt>
      <trkpt lat="40.174947800114751" lon="-6.856905492022634">
        <ele>593.270751953125</ele>
        <time>2016-10-30T12:40:19Z</time>
      </trkpt>
      <trkpt lat="40.175141422078013" lon="-6.856951508671045">
        <ele>590.386962890625</ele>
        <time>2016-10-30T12:40:24Z</time>
      </trkpt>
      <trkpt lat="40.17523898743093" lon="-6.856844890862703">
        <ele>589.425537109375</ele>
        <time>2016-10-30T12:40:29Z</time>
      </trkpt>
      <trkpt lat="40.175354992970824" lon="-6.856683036312461">
        <ele>587.502685546875</ele>
        <time>2016-10-30T12:40:34Z</time>
      </trkpt>
      <trkpt lat="40.175341414287686" lon="-6.85651833191514">
        <ele>586.060791015625</ele>
        <time>2016-10-30T12:40:39Z</time>
      </trkpt>
      <trkpt lat="40.175295732915401" lon="-6.856333259493113">
        <ele>581.73486328125</ele>
        <time>2016-10-30T12:40:44Z</time>
      </trkpt>
      <trkpt lat="40.175298666581511" lon="-6.856043916195631">
        <ele>579.812255859375</ele>
        <time>2016-10-30T12:40:49Z</time>
      </trkpt>
      <trkpt lat="40.175334122031927" lon="-6.855778880417347">
        <ele>577.4091796875</ele>
        <time>2016-10-30T12:40:54Z</time>
      </trkpt>
      <trkpt lat="40.175418527796865" lon="-6.855645105242729">
        <ele>573.56396484375</ele>
        <time>2016-10-30T12:40:59Z</time>
      </trkpt>
      <trkpt lat="40.17547938041389" lon="-6.855475874617696">
        <ele>571.640869140625</ele>
        <time>2016-10-30T12:41:04Z</time>
      </trkpt>
      <trkpt lat="40.175554733723402" lon="-6.85528158210218">
        <ele>570.198974609375</ele>
        <time>2016-10-30T12:41:09Z</time>
      </trkpt>
      <trkpt lat="40.175690269097686" lon="-6.855097431689501">
        <ele>567.315185546875</ele>
        <time>2016-10-30T12:41:14Z</time>
      </trkpt>
      <trkpt lat="40.175821613520384" lon="-6.854883609339595">
        <ele>565.873291015625</ele>
        <time>2016-10-30T12:41:19Z</time>
      </trkpt>
      <trkpt lat="40.17588933929801" lon="-6.854666015133262">
        <ele>563.469970703125</ele>
        <time>2016-10-30T12:41:24Z</time>
      </trkpt>
      <trkpt lat="40.175910545513034" lon="-6.854460826143622">
        <ele>562.028076171875</ele>
        <time>2016-10-30T12:41:29Z</time>
      </trkpt>
      <trkpt lat="40.175916329026222" lon="-6.854199646040797">
        <ele>561.54736328125</ele>
        <time>2016-10-30T12:41:34Z</time>
      </trkpt>
      <trkpt lat="40.175931081175804" lon="-6.853897562250495">
        <ele>561.54736328125</ele>
        <time>2016-10-30T12:41:39Z</time>
      </trkpt>
      <trkpt lat="40.175940217450261" lon="-6.85371064580977">
        <ele>560.105224609375</ele>
        <time>2016-10-30T12:41:44Z</time>
      </trkpt>
      <trkpt lat="40.175846675410867" lon="-6.8535709194839">
        <ele>558.663330078125</ele>
        <time>2016-10-30T12:41:49Z</time>
      </trkpt>
      <trkpt lat="40.175775932148099" lon="-6.853461703285575">
        <ele>558.182861328125</ele>
        <time>2016-10-30T12:41:54Z</time>
      </trkpt>
      <trkpt lat="40.175930913537741" lon="-6.853428008034825">
        <ele>553.856689453125</ele>
        <time>2016-10-30T12:41:59Z</time>
      </trkpt>
      <trkpt lat="40.176029484719038" lon="-6.853263135999441">
        <ele>549.53076171875</ele>
        <time>2016-10-30T12:42:04Z</time>
      </trkpt>
      <trkpt lat="40.17611020244658" lon="-6.853178227320314">
        <ele>546.166259765625</ele>
        <time>2016-10-30T12:42:09Z</time>
      </trkpt>
      <trkpt lat="40.176224866881967" lon="-6.853123493492603">
        <ele>545.204833984375</ele>
        <time>2016-10-30T12:42:14Z</time>
      </trkpt>
      <trkpt lat="40.176375405862927" lon="-6.853085774928331">
        <ele>542.801513671875</ele>
        <time>2016-10-30T12:42:19Z</time>
      </trkpt>
      <trkpt lat="40.176475653424859" lon="-6.853033639490604">
        <ele>539.4368896484375</ele>
        <time>2016-10-30T12:42:24Z</time>
      </trkpt>
      <trkpt lat="40.176482945680618" lon="-6.852865749970079">
        <ele>539.9176025390625</ele>
        <time>2016-10-30T12:42:29Z</time>
      </trkpt>
      <trkpt lat="40.176462410017848" lon="-6.85266399756074">
        <ele>537.03369140625</ele>
        <time>2016-10-30T12:42:34Z</time>
      </trkpt>
      <trkpt lat="40.17649669200182" lon="-6.852357303723693">
        <ele>537.5142822265625</ele>
        <time>2016-10-30T12:42:39Z</time>
      </trkpt>
      <trkpt lat="40.176595598459244" lon="-6.852279184386134">
        <ele>538.956298828125</ele>
        <time>2016-10-30T12:42:44Z</time>
      </trkpt>
      <trkpt lat="40.177061883732677" lon="-6.852352442219853">
        <ele>535.1109619140625</ele>
        <time>2016-10-30T12:42:49Z</time>
      </trkpt>
      <trkpt lat="40.17709038220346" lon="-6.852523181587458">
        <ele>531.2657470703125</ele>
        <time>2016-10-30T12:42:54Z</time>
      </trkpt>
      <trkpt lat="40.176955349743366" lon="-6.852674307301641">
        <ele>527.42041015625</ele>
        <time>2016-10-30T12:42:59Z</time>
      </trkpt>
      <trkpt lat="40.17712558619678" lon="-6.852734657004476">
        <ele>525.9783935546875</ele>
        <time>2016-10-30T12:43:04Z</time>
      </trkpt>
      <trkpt lat="40.177201861515641" lon="-6.853058869019151">
        <ele>525.0172119140625</ele>
        <time>2016-10-30T12:43:09Z</time>
      </trkpt>
      <trkpt lat="40.177342426031828" lon="-6.853239666670561">
        <ele>523.0946044921875</ele>
        <time>2016-10-30T12:43:14Z</time>
      </trkpt>
      <trkpt lat="40.177474021911621" lon="-6.853486346080899">
        <ele>523.5751953125</ele>
        <time>2016-10-30T12:43:19Z</time>
      </trkpt>
      <trkpt lat="40.177523475140333" lon="-6.853869147598743">
        <ele>521.1719970703125</ele>
        <time>2016-10-30T12:43:24Z</time>
      </trkpt>
      <trkpt lat="40.177741991356015" lon="-6.853984566405416">
        <ele>519.7298583984375</ele>
        <time>2016-10-30T12:43:29Z</time>
      </trkpt>
      <trkpt lat="40.177966542541981" lon="-6.854270808398724">
        <ele>517.32666015625</ele>
        <time>2016-10-30T12:43:34Z</time>
      </trkpt>
      <trkpt lat="40.178079446777701" lon="-6.854618154466152">
        <ele>515.404052734375</ele>
        <time>2016-10-30T12:43:39Z</time>
      </trkpt>
      <trkpt lat="40.178110376000404" lon="-6.854958543553948">
        <ele>513.000732421875</ele>
        <time>2016-10-30T12:43:44Z</time>
      </trkpt>
      <trkpt lat="40.17831833101809" lon="-6.855188459157944">
        <ele>513.4814453125</ele>
        <time>2016-10-30T12:43:49Z</time>
      </trkpt>
      <trkpt lat="40.178585797548294" lon="-6.85515115968883">
        <ele>512.52001953125</ele>
        <time>2016-10-30T12:43:54Z</time>
      </trkpt>
      <trkpt lat="40.178903639316559" lon="-6.85520145110786">
        <ele>510.5972900390625</ele>
        <time>2016-10-30T12:43:59Z</time>
      </trkpt>
      <trkpt lat="40.179239166900516" lon="-6.85543161816895">
        <ele>508.6746826171875</ele>
        <time>2016-10-30T12:44:04Z</time>
      </trkpt>
      <trkpt lat="40.179584249854088" lon="-6.855679973959923">
        <ele>505.3101806640625</ele>
        <time>2016-10-30T12:44:09Z</time>
      </trkpt>
      <trkpt lat="40.179948359727859" lon="-6.855942159891129">
        <ele>502.4261474609375</ele>
        <time>2016-10-30T12:44:14Z</time>
      </trkpt>
      <trkpt lat="40.180228147655725" lon="-6.856400147080421">
        <ele>498.100341796875</ele>
        <time>2016-10-30T12:44:19Z</time>
      </trkpt>
      <trkpt lat="40.180518915876746" lon="-6.856567030772567">
        <ele>496.177734375</ele>
        <time>2016-10-30T12:44:24Z</time>
      </trkpt>
      <trkpt lat="40.180917307734489" lon="-6.856424789875746">
        <ele>494.2550048828125</ele>
        <time>2016-10-30T12:44:29Z</time>
      </trkpt>
      <trkpt lat="40.181230455636978" lon="-6.856673061847687">
        <ele>495.2161865234375</ele>
        <time>2016-10-30T12:44:34Z</time>
      </trkpt>
      <trkpt lat="40.181276807561517" lon="-6.857211850583553">
        <ele>493.7742919921875</ele>
        <time>2016-10-30T12:44:39Z</time>
      </trkpt>
      <trkpt lat="40.181380491703749" lon="-6.857744520530105">
        <ele>489.4483642578125</ele>
        <time>2016-10-30T12:44:44Z</time>
      </trkpt>
      <trkpt lat="40.181693555787206" lon="-6.858086585998535">
        <ele>488.0064697265625</ele>
        <time>2016-10-30T12:44:49Z</time>
      </trkpt>
      <trkpt lat="40.181851387023926" lon="-6.858086585998535">
        <ele>488.0064697265625</ele>
        <time>2016-10-30T12:44:54Z</time>
      </trkpt>
      <trkpt lat="40.181904193013906" lon="-6.858564019203186">
        <ele>488.0064697265625</ele>
        <time>2016-10-30T12:44:59Z</time>
      </trkpt>
      <trkpt lat="40.181935541331768" lon="-6.858671642839909">
        <ele>488.0064697265625</ele>
        <time>2016-10-30T12:45:04Z</time>
      </trkpt>
      <trkpt lat="40.18194786272943" lon="-6.85878655873239">
        <ele>489.4483642578125</ele>
        <time>2016-10-30T12:45:09Z</time>
      </trkpt>
      <trkpt lat="40.181973511353135" lon="-6.858882699161768">
        <ele>490.4097900390625</ele>
        <time>2016-10-30T12:45:14Z</time>
      </trkpt>
      <trkpt lat="40.182057749480009" lon="-6.85890088789165">
        <ele>489.9290771484375</ele>
        <time>2016-10-30T12:45:19Z</time>
      </trkpt>
      <trkpt lat="40.182192362844944" lon="-6.859052767977119">
        <ele>488.0064697265625</ele>
        <time>2016-10-30T12:45:24Z</time>
      </trkpt>
      <trkpt lat="40.18230845220387" lon="-6.858967691659927">
        <ele>488.4871826171875</ele>
        <time>2016-10-30T12:45:29Z</time>
      </trkpt>
      <trkpt lat="40.182446669787169" lon="-6.858899379149079">
        <ele>488.0064697265625</ele>
        <time>2016-10-30T12:45:34Z</time>
      </trkpt>
      <trkpt lat="40.182951427996159" lon="-6.85839663259685">
        <ele>484.1611328125</ele>
        <time>2016-10-30T12:45:39Z</time>
      </trkpt>
      <trkpt lat="40.18304823897779" lon="-6.858536442741752">
        <ele>480.796630859375</ele>
        <time>2016-10-30T12:45:44Z</time>
      </trkpt>
      <trkpt lat="40.183110851794481" lon="-6.858640713617206">
        <ele>478.3931884765625</ele>
        <time>2016-10-30T12:45:49Z</time>
      </trkpt>
      <trkpt lat="40.183179751038551" lon="-6.858830563724041">
        <ele>476.9512939453125</ele>
        <time>2016-10-30T12:45:54Z</time>
      </trkpt>
      <trkpt lat="40.183224678039551" lon="-6.859004572033882">
        <ele>474.0672607421875</ele>
        <time>2016-10-30T12:45:59Z</time>
      </trkpt>
      <trkpt lat="40.183224678039551" lon="-6.858994765207171">
        <ele>473.1060791015625</ele>
        <time>2016-10-30T12:46:04Z</time>
      </trkpt>
      <trkpt lat="40.183766819536686" lon="-6.859689205884934">
        <ele>473.586669921875</ele>
        <time>2016-10-30T12:46:09Z</time>
      </trkpt>
      <trkpt lat="40.183824822306633" lon="-6.85978677123785">
        <ele>474.0672607421875</ele>
        <time>2016-10-30T12:46:14Z</time>
      </trkpt>
      <trkpt lat="40.183877712115645" lon="-6.859807642176747">
        <ele>474.0672607421875</ele>
        <time>2016-10-30T12:46:19Z</time>
      </trkpt>
      <trkpt lat="40.183949796482921" lon="-6.859860112890601">
        <ele>473.586669921875</ele>
        <time>2016-10-30T12:46:24Z</time>
      </trkpt>
      <trkpt lat="40.183989191427827" lon="-6.859968742355704">
        <ele>473.1060791015625</ele>
        <time>2016-10-30T12:46:29Z</time>
      </trkpt>
      <trkpt lat="40.184061275795102" lon="-6.860114419832826">
        <ele>473.586669921875</ele>
        <time>2016-10-30T12:46:34Z</time>
      </trkpt>
      <trkpt lat="40.18412958830595" lon="-6.860238304361701">
        <ele>472.1446533203125</ele>
        <time>2016-10-30T12:46:39Z</time>
      </trkpt>
      <trkpt lat="40.18421458080411" lon="-6.860352633520961">
        <ele>475.0286865234375</ele>
        <time>2016-10-30T12:46:44Z</time>
      </trkpt>
      <trkpt lat="40.184291107580066" lon="-6.860537203028798">
        <ele>472.1446533203125</ele>
        <time>2016-10-30T12:46:49Z</time>
      </trkpt>
      <trkpt lat="40.184330586344004" lon="-6.860765526071191">
        <ele>469.7413330078125</ele>
        <time>2016-10-30T12:46:54Z</time>
      </trkpt>
      <trkpt lat="40.184443909674883" lon="-6.860947078093886">
        <ele>469.2607421875</ele>
        <time>2016-10-30T12:46:59Z</time>
      </trkpt>
      <trkpt lat="40.184554131701589" lon="-6.860921094194055">
        <ele>468.780029296875</ele>
        <time>2016-10-30T12:47:04Z</time>
      </trkpt>
      <trkpt lat="40.184642393141985" lon="-6.860809782519937">
        <ele>468.780029296875</ele>
        <time>2016-10-30T12:47:09Z</time>
      </trkpt>
      <trkpt lat="40.184725625440478" lon="-6.860693441703916">
        <ele>470.70263671875</ele>
        <time>2016-10-30T12:47:14Z</time>
      </trkpt>
      <trkpt lat="40.184820676222444" lon="-6.860609874129295">
        <ele>470.70263671875</ele>
        <time>2016-10-30T12:47:19Z</time>
      </trkpt>
      <trkpt lat="40.18494707532227" lon="-6.860520523041487">
        <ele>472.1446533203125</ele>
        <time>2016-10-30T12:47:24Z</time>
      </trkpt>
      <trkpt lat="40.185030223801732" lon="-6.860375935211778">
        <ele>472.6253662109375</ele>
        <time>2016-10-30T12:47:29Z</time>
      </trkpt>
      <trkpt lat="40.184963420033455" lon="-6.86006966046989">
        <ele>470.70263671875</ele>
        <time>2016-10-30T12:47:34Z</time>
      </trkpt>
      <trkpt lat="40.184980602934957" lon="-6.859981985762715">
        <ele>470.70263671875</ele>
        <time>2016-10-30T12:47:39Z</time>
      </trkpt>
      <trkpt lat="40.184971382841468" lon="-6.85988986864686">
        <ele>472.6253662109375</ele>
        <time>2016-10-30T12:47:44Z</time>
      </trkpt>
      <trkpt lat="40.18496124073863" lon="-6.859788447618485">
        <ele>472.6253662109375</ele>
        <time>2016-10-30T12:47:49Z</time>
      </trkpt>
      <trkpt lat="40.184949673712254" lon="-6.859673196449876">
        <ele>472.1446533203125</ele>
        <time>2016-10-30T12:47:54Z</time>
      </trkpt>
      <trkpt lat="40.185727933421731" lon="-6.859472785145044">
        <ele>469.7413330078125</ele>
        <time>2016-10-30T12:47:59Z</time>
      </trkpt>
      <trkpt lat="40.185893140733242" lon="-6.859379662200809">
        <ele>468.780029296875</ele>
        <time>2016-10-30T12:48:04Z</time>
      </trkpt>
      <trkpt lat="40.186075363308191" lon="-6.859233230352402">
        <ele>467.338134765625</ele>
        <time>2016-10-30T12:48:09Z</time>
      </trkpt>
      <trkpt lat="40.186249120160937" lon="-6.859024856239557">
        <ele>467.8187255859375</ele>
        <time>2016-10-30T12:48:14Z</time>
      </trkpt>
      <trkpt lat="40.186446262523532" lon="-6.858870880678296">
        <ele>467.8187255859375</ele>
        <time>2016-10-30T12:48:19Z</time>
      </trkpt>
      <trkpt lat="40.186628401279449" lon="-6.858768118545413">
        <ele>468.29931640625</ele>
        <time>2016-10-30T12:48:24Z</time>
      </trkpt>
      <trkpt lat="40.186800062656403" lon="-6.858731154352427">
        <ele>468.29931640625</ele>
        <time>2016-10-30T12:48:29Z</time>
      </trkpt>
      <trkpt lat="40.186987398192286" lon="-6.858725706115365">
        <ele>468.29931640625</ele>
        <time>2016-10-30T12:48:34Z</time>
      </trkpt>
      <trkpt lat="40.187167441472411" lon="-6.858650268986821">
        <ele>468.29931640625</ele>
        <time>2016-10-30T12:48:39Z</time>
      </trkpt>
      <trkpt lat="40.187374223023653" lon="-6.858548345044255">
        <ele>465.41552734375</ele>
        <time>2016-10-30T12:48:44Z</time>
      </trkpt>
      <trkpt lat="40.18748695962131" lon="-6.858488833531737">
        <ele>464.4541015625</ele>
        <time>2016-10-30T12:48:49Z</time>
      </trkpt>
      <trkpt lat="40.187591901049018" lon="-6.858385819941759">
        <ele>465.8961181640625</ele>
        <time>2016-10-30T12:48:54Z</time>
      </trkpt>
      <trkpt lat="40.187717042863369" lon="-6.858283812180162">
        <ele>465.8961181640625</ele>
        <time>2016-10-30T12:48:59Z</time>
      </trkpt>
      <trkpt lat="40.187883172184229" lon="-6.858285404741764">
        <ele>465.41552734375</ele>
        <time>2016-10-30T12:49:04Z</time>
      </trkpt>
      <trkpt lat="40.188049552962184" lon="-6.858255146071315">
        <ele>462.5313720703125</ele>
        <time>2016-10-30T12:49:09Z</time>
      </trkpt>
      <trkpt lat="40.188211323693395" lon="-6.858236370608211">
        <ele>461.0894775390625</ele>
        <time>2016-10-30T12:49:14Z</time>
      </trkpt>
      <trkpt lat="40.188307128846645" lon="-6.858342904597521">
        <ele>462.05078125</ele>
        <time>2016-10-30T12:49:19Z</time>
      </trkpt>
      <trkpt lat="40.18837183713913" lon="-6.858500735834241">
        <ele>461.0894775390625</ele>
        <time>2016-10-30T12:49:24Z</time>
      </trkpt>
      <trkpt lat="40.188467223197222" lon="-6.858643731102347">
        <ele>461.0894775390625</ele>
        <time>2016-10-30T12:49:29Z</time>
      </trkpt>
      <trkpt lat="40.188506031408906" lon="-6.858747247606516">
        <ele>461.5701904296875</ele>
        <time>2016-10-30T12:49:34Z</time>
      </trkpt>
      <trkpt lat="40.188516089692712" lon="-6.858819834887981">
        <ele>462.5313720703125</ele>
        <time>2016-10-30T12:49:38Z</time>
      </trkpt>
      <trkpt lat="40.188578786328435" lon="-6.858926117420197">
        <ele>464.4541015625</ele>
        <time>2016-10-30T12:49:44Z</time>
      </trkpt>
      <trkpt lat="40.188632933422923" lon="-6.859042793512344">
        <ele>463.0120849609375</ele>
        <time>2016-10-30T12:49:49Z</time>
      </trkpt>
      <trkpt lat="40.188759248703718" lon="-6.859177742153406">
        <ele>461.5701904296875</ele>
        <time>2016-10-30T12:49:54Z</time>
      </trkpt>
      <trkpt lat="40.188909200951457" lon="-6.859346888959408">
        <ele>462.05078125</ele>
        <time>2016-10-30T12:49:59Z</time>
      </trkpt>
      <trkpt lat="40.188986733555794" lon="-6.859445376321673">
        <ele>463.0120849609375</ele>
        <time>2016-10-30T12:50:04Z</time>
      </trkpt>
      <trkpt lat="40.189019171521068" lon="-6.859523998573422">
        <ele>463.4927978515625</ele>
        <time>2016-10-30T12:50:09Z</time>
      </trkpt>
      <trkpt lat="40.18908279016614" lon="-6.859572865068913">
        <ele>463.4927978515625</ele>
        <time>2016-10-30T12:50:14Z</time>
      </trkpt>
      <trkpt lat="40.18914096057415" lon="-6.859665149822831">
        <ele>463.4927978515625</ele>
        <time>2016-10-30T12:50:19Z</time>
      </trkpt>
      <trkpt lat="40.189203070476651" lon="-6.85975550673902">
        <ele>461.5701904296875</ele>
        <time>2016-10-30T12:50:24Z</time>
      </trkpt>
      <trkpt lat="40.189273059368134" lon="-6.859857765957713">
        <ele>461.5701904296875</ele>
        <time>2016-10-30T12:50:29Z</time>
      </trkpt>
      <trkpt lat="40.189330391585827" lon="-6.859927838668227">
        <ele>463.0120849609375</ele>
        <time>2016-10-30T12:50:34Z</time>
      </trkpt>
      <trkpt lat="40.189389567822218" lon="-6.859981147572398">
        <ele>463.4927978515625</ele>
        <time>2016-10-30T12:50:39Z</time>
      </trkpt>
      <trkpt lat="40.18943315371871" lon="-6.8600207939744">
        <ele>464.934814453125</ele>
        <time>2016-10-30T12:50:44Z</time>
      </trkpt>
      <trkpt lat="40.189505992457271" lon="-6.860075360164046">
        <ele>463.0120849609375</ele>
        <time>2016-10-30T12:50:49Z</time>
      </trkpt>
      <trkpt lat="40.189551087096334" lon="-6.860195305198431">
        <ele>460.6087646484375</ele>
        <time>2016-10-30T12:50:54Z</time>
      </trkpt>
      <trkpt lat="40.189563659951091" lon="-6.860343245789409">
        <ele>457.2442626953125</ele>
        <time>2016-10-30T12:50:59Z</time>
      </trkpt>
      <trkpt lat="40.189617723226547" lon="-6.860511722043157">
        <ele>454.3602294921875</ele>
        <time>2016-10-30T12:51:04Z</time>
      </trkpt>
      <trkpt lat="40.189758790656924" lon="-6.860664524137974">
        <ele>453.879638671875</ele>
        <time>2016-10-30T12:51:09Z</time>
      </trkpt>
      <trkpt lat="40.189857529476285" lon="-6.860872227698565">
        <ele>454.8408203125</ele>
        <time>2016-10-30T12:51:14Z</time>
      </trkpt>
      <trkpt lat="40.189933720976114" lon="-6.860928386449814">
        <ele>455.321533203125</ele>
        <time>2016-10-30T12:51:19Z</time>
      </trkpt>
      <trkpt lat="40.190055510029197" lon="-6.860966691747308">
        <ele>454.8408203125</ele>
        <time>2016-10-30T12:51:24Z</time>
      </trkpt>
      <trkpt lat="40.190083421766758" lon="-6.861179172992706">
        <ele>453.39892578125</ele>
        <time>2016-10-30T12:51:29Z</time>
      </trkpt>
      <trkpt lat="40.190122397616506" lon="-6.861386625096202">
        <ele>449.5537109375</ele>
        <time>2016-10-30T12:51:34Z</time>
      </trkpt>
      <trkpt lat="40.190227590501308" lon="-6.861515203490853">
        <ele>449.5537109375</ele>
        <time>2016-10-30T12:51:39Z</time>
      </trkpt>
      <trkpt lat="40.19033077172935" lon="-6.861707651987672">
        <ele>448.11181640625</ele>
        <time>2016-10-30T12:51:44Z</time>
      </trkpt>
      <trkpt lat="40.190412579104304" lon="-6.861677560955286">
        <ele>448.5924072265625</ele>
        <time>2016-10-30T12:51:49Z</time>
      </trkpt>
      <trkpt lat="40.190566051751375" lon="-6.861407496035099">
        <ele>446.669677734375</ele>
        <time>2016-10-30T12:51:54Z</time>
      </trkpt>
      <trkpt lat="40.190711813047528" lon="-6.861138269305229">
        <ele>444.7470703125</ele>
        <time>2016-10-30T12:51:59Z</time>
      </trkpt>
      <trkpt lat="40.190908871591091" lon="-6.860987059772015">
        <ele>444.2664794921875</ele>
        <time>2016-10-30T12:52:04Z</time>
      </trkpt>
      <trkpt lat="40.191049352288246" lon="-6.860925620421767">
        <ele>442.824462890625</ele>
        <time>2016-10-30T12:52:09Z</time>
      </trkpt>
      <trkpt lat="40.191193856298923" lon="-6.861057300120592">
        <ele>440.4212646484375</ele>
        <time>2016-10-30T12:52:14Z</time>
      </trkpt>
      <trkpt lat="40.191231993958354" lon="-6.861227033659816">
        <ele>439.459716796875</ele>
        <time>2016-10-30T12:52:19Z</time>
      </trkpt>
      <trkpt lat="40.191246746107936" lon="-6.861323928460479">
        <ele>438.9791259765625</ele>
        <time>2016-10-30T12:52:24Z</time>
      </trkpt>
      <trkpt lat="40.191260073333979" lon="-6.861447310075164">
        <ele>440.4212646484375</ele>
        <time>2016-10-30T12:52:29Z</time>
      </trkpt>
      <trkpt lat="40.191300725564361" lon="-6.861565159633756">
        <ele>442.3438720703125</ele>
        <time>2016-10-30T12:52:34Z</time>
      </trkpt>
      <trkpt lat="40.191312879323959" lon="-6.861722320318222">
        <ele>440.4212646484375</ele>
        <time>2016-10-30T12:52:39Z</time>
      </trkpt>
      <trkpt lat="40.191359398886561" lon="-6.86185953207314">
        <ele>442.3438720703125</ele>
        <time>2016-10-30T12:52:44Z</time>
      </trkpt>
      <trkpt lat="40.19141404889524" lon="-6.862015100196004">
        <ele>439.9404296875</ele>
        <time>2016-10-30T12:52:49Z</time>
      </trkpt>
      <trkpt lat="40.191521253436804" lon="-6.862040497362614">
        <ele>440.4212646484375</ele>
        <time>2016-10-30T12:52:54Z</time>
      </trkpt>
      <trkpt lat="40.191664751619101" lon="-6.862067403271794">
        <ele>438.49853515625</ele>
        <time>2016-10-30T12:52:59Z</time>
      </trkpt>
      <trkpt lat="40.191760137677193" lon="-6.862156335264444">
        <ele>436.09521484375</ele>
        <time>2016-10-30T12:53:04Z</time>
      </trkpt>
      <trkpt lat="40.191808920353651" lon="-6.862110402435064">
        <ele>434.6533203125</ele>
        <time>2016-10-30T12:53:09Z</time>
      </trkpt>
      <trkpt lat="40.191874969750643" lon="-6.861995989456773">
        <ele>436.09521484375</ele>
        <time>2016-10-30T12:53:14Z</time>
      </trkpt>
      <trkpt lat="40.192020982503891" lon="-6.86195089481771">
        <ele>434.172607421875</ele>
        <time>2016-10-30T12:53:19Z</time>
      </trkpt>
      <trkpt lat="40.192131958901882" lon="-6.861874032765627">
        <ele>433.69189453125</ele>
        <time>2016-10-30T12:53:24Z</time>
      </trkpt>
      <trkpt lat="40.192279731854796" lon="-6.861930107697845">
        <ele>434.172607421875</ele>
        <time>2016-10-30T12:53:29Z</time>
      </trkpt>
      <trkpt lat="40.192418033257127" lon="-6.861839080229402">
        <ele>433.2113037109375</ele>
        <time>2016-10-30T12:53:34Z</time>
      </trkpt>
      <trkpt lat="40.192551808431745" lon="-6.86192013323307">
        <ele>431.28857421875</ele>
        <time>2016-10-30T12:53:39Z</time>
      </trkpt>
      <trkpt lat="40.192528842017055" lon="-6.862024320289493">
        <ele>431.28857421875</ele>
        <time>2016-10-30T12:53:44Z</time>
      </trkpt>
      <trkpt lat="40.19247243180871" lon="-6.862116605043411">
        <ele>432.25</ele>
        <time>2016-10-30T12:53:49Z</time>
      </trkpt>
      <trkpt lat="40.192374782636762" lon="-6.86219958588481">
        <ele>428.8853759765625</ele>
        <time>2016-10-30T12:53:54Z</time>
      </trkpt>
      <trkpt lat="40.192296914756298" lon="-6.862379377707839">
        <ele>426.9627685546875</ele>
        <time>2016-10-30T12:53:59Z</time>
      </trkpt>
      <trkpt lat="40.192382074892521" lon="-6.862498065456748">
        <ele>426.4820556640625</ele>
        <time>2016-10-30T12:54:04Z</time>
      </trkpt>
      <trkpt lat="40.19246413372457" lon="-6.862536119297147">
        <ele>425.0401611328125</ele>
        <time>2016-10-30T12:54:09Z</time>
      </trkpt>
      <trkpt lat="40.192522387951612" lon="-6.862565204501152">
        <ele>426.0013427734375</ele>
        <time>2016-10-30T12:54:14Z</time>
      </trkpt>
      <trkpt lat="40.192580055445433" lon="-6.862609041854739">
        <ele>428.8853759765625</ele>
        <time>2016-10-30T12:54:19Z</time>
      </trkpt>
      <trkpt lat="40.192609475925565" lon="-6.862695124000311">
        <ele>430.8079833984375</ele>
        <time>2016-10-30T12:54:24Z</time>
      </trkpt>
      <trkpt lat="40.192623725160956" lon="-6.862787241116166">
        <ele>429.365966796875</ele>
        <time>2016-10-30T12:54:29Z</time>
      </trkpt>
      <trkpt lat="40.192600507289171" lon="-6.862885979935527">
        <ele>429.8465576171875</ele>
        <time>2016-10-30T12:54:34Z</time>
      </trkpt>
      <trkpt lat="40.192592963576317" lon="-6.863003075122833">
        <ele>428.4046630859375</ele>
        <time>2016-10-30T12:54:39Z</time>
      </trkpt>
      <trkpt lat="40.192623976618052" lon="-6.863140538334847">
        <ele>429.365966796875</ele>
        <time>2016-10-30T12:54:44Z</time>
      </trkpt>
      <trkpt lat="40.192666221410036" lon="-6.86330197378993">
        <ele>429.365966796875</ele>
        <time>2016-10-30T12:54:49Z</time>
      </trkpt>
      <trkpt lat="40.192646523937583" lon="-6.863446813076735">
        <ele>427.443359375</ele>
        <time>2016-10-30T12:54:54Z</time>
      </trkpt>
      <trkpt lat="40.192623641341925" lon="-6.863634064793587">
        <ele>427.9239501953125</ele>
        <time>2016-10-30T12:54:59Z</time>
      </trkpt>
      <trkpt lat="40.192559435963631" lon="-6.863804804161191">
        <ele>427.9239501953125</ele>
        <time>2016-10-30T12:55:04Z</time>
      </trkpt>
      <trkpt lat="40.192494140937924" lon="-6.863947380334139">
        <ele>426.9627685546875</ele>
        <time>2016-10-30T12:55:09Z</time>
      </trkpt>
      <trkpt lat="40.192418871447444" lon="-6.864112755283713">
        <ele>426.0013427734375</ele>
        <time>2016-10-30T12:55:14Z</time>
      </trkpt>
      <trkpt lat="40.192383080720901" lon="-6.864207303151488">
        <ele>426.0013427734375</ele>
        <time>2016-10-30T12:55:19Z</time>
      </trkpt>
      <trkpt lat="40.192356761544943" lon="-6.864321883767843">
        <ele>426.0013427734375</ele>
        <time>2016-10-30T12:55:24Z</time>
      </trkpt>
      <trkpt lat="40.192350894212723" lon="-6.864446774125099">
        <ele>427.443359375</ele>
        <time>2016-10-30T12:55:29Z</time>
      </trkpt>
      <trkpt lat="40.192347289994359" lon="-6.86462027952075">
        <ele>427.9239501953125</ele>
        <time>2016-10-30T12:55:34Z</time>
      </trkpt>
      <trkpt lat="40.192332705482841" lon="-6.864854218438268">
        <ele>425.520751953125</ele>
        <time>2016-10-30T12:55:39Z</time>
      </trkpt>
      <trkpt lat="40.192393306642771" lon="-6.865112883970141">
        <ele>423.5980224609375</ele>
        <time>2016-10-30T12:55:44Z</time>
      </trkpt>
      <trkpt lat="40.192465474829078" lon="-6.865414548665285">
        <ele>420.2333984375</ele>
        <time>2016-10-30T12:55:49Z</time>
      </trkpt>
      <trkpt lat="40.192513084039092" lon="-6.865772539749742">
        <ele>420.714111328125</ele>
        <time>2016-10-30T12:55:54Z</time>
      </trkpt>
      <trkpt lat="40.192542504519224" lon="-6.866076216101646">
        <ele>420.714111328125</ele>
        <time>2016-10-30T12:55:59Z</time>
      </trkpt>
      <trkpt lat="40.192748196423054" lon="-6.866155844181776">
        <ele>421.19482421875</ele>
        <time>2016-10-30T12:56:04Z</time>
      </trkpt>
      <trkpt lat="40.19297132268548" lon="-6.866127597168088">
        <ele>419.272216796875</ele>
        <time>2016-10-30T12:56:09Z</time>
      </trkpt>
      <trkpt lat="40.193017590790987" lon="-6.866189204156399">
        <ele>418.79150390625</ele>
        <time>2016-10-30T12:56:14Z</time>
      </trkpt>
      <trkpt lat="40.193061595782638" lon="-6.866223989054561">
        <ele>418.310791015625</ele>
        <time>2016-10-30T12:56:19Z</time>
      </trkpt>
      <trkpt lat="40.193070061504841" lon="-6.866249470040202">
        <ele>418.310791015625</ele>
        <time>2016-10-30T12:56:24Z</time>
      </trkpt>
      <trkpt lat="40.193066457286477" lon="-6.866242680698633">
        <ele>417.8302001953125</ele>
        <time>2016-10-30T12:56:29Z</time>
      </trkpt>
      <trkpt lat="40.193049274384975" lon="-6.866213008761406">
        <ele>417.8302001953125</ele>
        <time>2016-10-30T12:56:34Z</time>
      </trkpt>
      <trkpt lat="40.193022787570953" lon="-6.866154922172427">
        <ele>418.310791015625</ele>
        <time>2016-10-30T12:56:39Z</time>
      </trkpt>
      <trkpt lat="40.192981045693159" lon="-6.866122651845217">
        <ele>419.272216796875</ele>
        <time>2016-10-30T12:56:44Z</time>
      </trkpt>
      <trkpt lat="40.192929580807686" lon="-6.866112593561411">
        <ele>418.79150390625</ele>
        <time>2016-10-30T12:56:49Z</time>
      </trkpt>
      <trkpt lat="40.192882223054767" lon="-6.86611887998879">
        <ele>418.79150390625</ele>
        <time>2016-10-30T12:56:54Z</time>
      </trkpt>
      <trkpt lat="40.192816173657775" lon="-6.866109995171428">
        <ele>418.310791015625</ele>
        <time>2016-10-30T12:56:59Z</time>
      </trkpt>
      <trkpt lat="40.192762529477477" lon="-6.866117790341377">
        <ele>418.310791015625</ele>
        <time>2016-10-30T12:57:04Z</time>
      </trkpt>
      <trkpt lat="40.192706286907196" lon="-6.866118377074599">
        <ele>418.310791015625</ele>
        <time>2016-10-30T12:57:09Z</time>
      </trkpt>
      <trkpt lat="40.192653480917215" lon="-6.866121981292963">
        <ele>418.79150390625</ele>
        <time>2016-10-30T12:57:14Z</time>
      </trkpt>
      <trkpt lat="40.192592041566968" lon="-6.866150982677937">
        <ele>418.79150390625</ele>
        <time>2016-10-30T12:57:19Z</time>
      </trkpt>
      <trkpt lat="40.192553149536252" lon="-6.866207309067249">
        <ele>419.272216796875</ele>
        <time>2016-10-30T12:57:24Z</time>
      </trkpt>
      <trkpt lat="40.192555915564299" lon="-6.866253325715661">
        <ele>419.7528076171875</ele>
        <time>2016-10-30T12:57:29Z</time>
      </trkpt>
      <trkpt lat="40.19255205988884" lon="-6.866393554955721">
        <ele>418.79150390625</ele>
        <time>2016-10-30T12:57:34Z</time>
      </trkpt>
      <trkpt lat="40.192511407658458" lon="-6.866631684824824">
        <ele>417.349609375</ele>
        <time>2016-10-30T12:57:39Z</time>
      </trkpt>
      <trkpt lat="40.192395653575659" lon="-6.866891020908952">
        <ele>415.907470703125</ele>
        <time>2016-10-30T12:57:44Z</time>
      </trkpt>
      <trkpt lat="40.192306134849787" lon="-6.867156978696585">
        <ele>413.0235595703125</ele>
        <time>2016-10-30T12:57:49Z</time>
      </trkpt>
      <trkpt lat="40.192394563928246" lon="-6.867342470213771">
        <ele>413.98486328125</ele>
        <time>2016-10-30T12:57:54Z</time>
      </trkpt>
      <trkpt lat="40.192445022985339" lon="-6.867551682516933">
        <ele>416.38818359375</ele>
        <time>2016-10-30T12:57:59Z</time>
      </trkpt>
      <trkpt lat="40.192514089867473" lon="-6.867706077173352">
        <ele>417.8302001953125</ele>
        <time>2016-10-30T12:58:04Z</time>
      </trkpt>
      <trkpt lat="40.192584665492177" lon="-6.867920234799385">
        <ele>417.349609375</ele>
        <time>2016-10-30T12:58:09Z</time>
      </trkpt>
      <trkpt lat="40.192679716274142" lon="-6.868156855925918">
        <ele>417.8302001953125</ele>
        <time>2016-10-30T12:58:14Z</time>
      </trkpt>
      <trkpt lat="40.192816006019711" lon="-6.86830697581172">
        <ele>417.349609375</ele>
        <time>2016-10-30T12:58:19Z</time>
      </trkpt>
      <trkpt lat="40.192766804248095" lon="-6.868443097919226">
        <ele>417.349609375</ele>
        <time>2016-10-30T12:58:24Z</time>
      </trkpt>
      <trkpt lat="40.192645685747266" lon="-6.868456928059459">
        <ele>416.38818359375</ele>
        <time>2016-10-30T12:58:29Z</time>
      </trkpt>
      <trkpt lat="40.192537056282163" lon="-6.868486348539591">
        <ele>416.38818359375</ele>
        <time>2016-10-30T12:58:34Z</time>
      </trkpt>
      <trkpt lat="40.192438485100865" lon="-6.868552733212709">
        <ele>415.907470703125</ele>
        <time>2016-10-30T12:58:39Z</time>
      </trkpt>
      <trkpt lat="40.192348547279835" lon="-6.868620291352272">
        <ele>415.4268798828125</ele>
        <time>2016-10-30T12:58:44Z</time>
      </trkpt>
      <trkpt lat="40.19226087257266" lon="-6.868693716824055">
        <ele>415.4268798828125</ele>
        <time>2016-10-30T12:58:49Z</time>
      </trkpt>
      <trkpt lat="40.192175209522247" lon="-6.868774518370628">
        <ele>414.4654541015625</ele>
        <time>2016-10-30T12:58:54Z</time>
      </trkpt>
      <trkpt lat="40.192108321934938" lon="-6.868856241926551">
        <ele>414.4654541015625</ele>
        <time>2016-10-30T12:58:59Z</time>
      </trkpt>
      <trkpt lat="40.192055432125926" lon="-6.868944754824042">
        <ele>414.9461669921875</ele>
        <time>2016-10-30T12:59:04Z</time>
      </trkpt>
      <trkpt lat="40.192006146535277" lon="-6.869051372632384">
        <ele>417.349609375</ele>
        <time>2016-10-30T12:59:09Z</time>
      </trkpt>
      <trkpt lat="40.191918220371008" lon="-6.869169138371944">
        <ele>417.8302001953125</ele>
        <time>2016-10-30T12:59:14Z</time>
      </trkpt>
      <trkpt lat="40.191848902031779" lon="-6.869285395368934">
        <ele>417.8302001953125</ele>
        <time>2016-10-30T12:59:19Z</time>
      </trkpt>
      <trkpt lat="40.191783690825105" lon="-6.869403831660748">
        <ele>419.272216796875</ele>
        <time>2016-10-30T12:59:24Z</time>
      </trkpt>
      <trkpt lat="40.191735243424773" lon="-6.869561159983277">
        <ele>419.7528076171875</ele>
        <time>2016-10-30T12:59:29Z</time>
      </trkpt>
      <trkpt lat="40.191718731075525" lon="-6.869715303182602">
        <ele>421.6754150390625</ele>
        <time>2016-10-30T12:59:34Z</time>
      </trkpt>
      <trkpt lat="40.191692328080535" lon="-6.86985838226974">
        <ele>421.6754150390625</ele>
        <time>2016-10-30T12:59:39Z</time>
      </trkpt>
      <trkpt lat="40.191668188199401" lon="-6.869997605681419">
        <ele>422.63671875</ele>
        <time>2016-10-30T12:59:44Z</time>
      </trkpt>
      <trkpt lat="40.191667014732957" lon="-6.870160466060042">
        <ele>421.19482421875</ele>
        <time>2016-10-30T12:59:49Z</time>
      </trkpt>
      <trkpt lat="40.19163248129189" lon="-6.870354423299432">
        <ele>424.5594482421875</ele>
        <time>2016-10-30T12:59:54Z</time>
      </trkpt>
      <trkpt lat="40.191567270085216" lon="-6.870478475466371">
        <ele>425.520751953125</ele>
        <time>2016-10-30T12:59:59Z</time>
      </trkpt>
      <trkpt lat="40.191471548750997" lon="-6.870653573423624">
        <ele>423.117431640625</ele>
        <time>2016-10-30T13:00:04Z</time>
      </trkpt>
      <trkpt lat="40.191270969808102" lon="-6.870906706899405">
        <ele>421.19482421875</ele>
        <time>2016-10-30T13:00:09Z</time>
      </trkpt>
      <trkpt lat="40.191163513809443" lon="-6.871165372431278">
        <ele>420.2333984375</ele>
        <time>2016-10-30T13:00:14Z</time>
      </trkpt>
      <trkpt lat="40.191114982590079" lon="-6.871336782351136">
        <ele>423.117431640625</ele>
        <time>2016-10-30T13:00:19Z</time>
      </trkpt>
      <trkpt lat="40.191139876842499" lon="-6.87148598022759">
        <ele>425.0401611328125</ele>
        <time>2016-10-30T13:00:24Z</time>
      </trkpt>
      <trkpt lat="40.191177176311612" lon="-6.871583964675665">
        <ele>426.9627685546875</ele>
        <time>2016-10-30T13:00:29Z</time>
      </trkpt>
      <trkpt lat="40.191196706146002" lon="-6.871700221672654">
        <ele>428.8853759765625</ele>
        <time>2016-10-30T13:00:34Z</time>
      </trkpt>
      <trkpt lat="40.191256804391742" lon="-6.871774066239595">
        <ele>429.8465576171875</ele>
        <time>2016-10-30T13:00:39Z</time>
      </trkpt>
      <trkpt lat="40.191303743049502" lon="-6.871876744553447">
        <ele>429.8465576171875</ele>
        <time>2016-10-30T13:00:44Z</time>
      </trkpt>
      <trkpt lat="40.191298881545663" lon="-6.871986966580153">
        <ele>430.3272705078125</ele>
        <time>2016-10-30T13:00:49Z</time>
      </trkpt>
      <trkpt lat="40.191277926787734" lon="-6.872074054554105">
        <ele>430.8079833984375</ele>
        <time>2016-10-30T13:00:54Z</time>
      </trkpt>
      <trkpt lat="40.191240794956684" lon="-6.872165836393833">
        <ele>430.3272705078125</ele>
        <time>2016-10-30T13:00:59Z</time>
      </trkpt>
      <trkpt lat="40.191183714196086" lon="-6.872227108106017">
        <ele>430.3272705078125</ele>
        <time>2016-10-30T13:01:04Z</time>
      </trkpt>
      <trkpt lat="40.19110769033432" lon="-6.872255522757769">
        <ele>431.28857421875</ele>
        <time>2016-10-30T13:01:09Z</time>
      </trkpt>
      <trkpt lat="40.191032001748681" lon="-6.872278824448586">
        <ele>432.25</ele>
        <time>2016-10-30T13:01:14Z</time>
      </trkpt>
      <trkpt lat="40.190969053655863" lon="-6.872296510264278">
        <ele>433.69189453125</ele>
        <time>2016-10-30T13:01:19Z</time>
      </trkpt>
      <trkpt lat="40.19090442918241" lon="-6.872322829440236">
        <ele>434.172607421875</ele>
        <time>2016-10-30T13:01:24Z</time>
      </trkpt>
      <trkpt lat="40.190841481089592" lon="-6.872357279062271">
        <ele>436.09521484375</ele>
        <time>2016-10-30T13:01:29Z</time>
      </trkpt>
      <trkpt lat="40.1907719951123" lon="-6.87238896265626">
        <ele>436.575927734375</ele>
        <time>2016-10-30T13:01:34Z</time>
      </trkpt>
      <trkpt lat="40.190712483599782" lon="-6.872421484440565">
        <ele>438.49853515625</ele>
        <time>2016-10-30T13:01:39Z</time>
      </trkpt>
      <trkpt lat="40.190651882439852" lon="-6.872453587129712">
        <ele>438.9791259765625</ele>
        <time>2016-10-30T13:01:44Z</time>
      </trkpt>
      <trkpt lat="40.1905906945467" lon="-6.87245836481452">
        <ele>439.459716796875</ele>
        <time>2016-10-30T13:01:49Z</time>
      </trkpt>
      <trkpt lat="40.190519616007805" lon="-6.872453838586807">
        <ele>441.3824462890625</ele>
        <time>2016-10-30T13:01:54Z</time>
      </trkpt>
      <trkpt lat="40.190457925200462" lon="-6.872455347329378">
        <ele>441.8631591796875</ele>
        <time>2016-10-30T13:01:59Z</time>
      </trkpt>
      <trkpt lat="40.190391875803471" lon="-6.872458700090647">
        <ele>441.3824462890625</ele>
        <time>2016-10-30T13:02:04Z</time>
      </trkpt>
      <trkpt lat="40.190328592434525" lon="-6.87244470231235">
        <ele>442.824462890625</ele>
        <time>2016-10-30T13:02:09Z</time>
      </trkpt>
      <trkpt lat="40.190256256610155" lon="-6.872425675392151">
        <ele>443.3050537109375</ele>
        <time>2016-10-30T13:02:14Z</time>
      </trkpt>
      <trkpt lat="40.190183250233531" lon="-6.872393321245909">
        <ele>442.824462890625</ele>
        <time>2016-10-30T13:02:19Z</time>
      </trkpt>
      <trkpt lat="40.190108735114336" lon="-6.872364403679967">
        <ele>442.824462890625</ele>
        <time>2016-10-30T13:02:24Z</time>
      </trkpt>
      <trkpt lat="40.190034387633204" lon="-6.8723557703197">
        <ele>443.3050537109375</ele>
        <time>2016-10-30T13:02:29Z</time>
      </trkpt>
      <trkpt lat="40.189953753724694" lon="-6.872315621003509">
        <ele>443.3050537109375</ele>
        <time>2016-10-30T13:02:34Z</time>
      </trkpt>
      <trkpt lat="40.189869599416852" lon="-6.87228980474174">
        <ele>443.3050537109375</ele>
        <time>2016-10-30T13:02:39Z</time>
      </trkpt>
      <trkpt lat="40.189747726544738" lon="-6.872338503599167">
        <ele>444.2664794921875</ele>
        <time>2016-10-30T13:02:44Z</time>
      </trkpt>
      <trkpt lat="40.189645132049918" lon="-6.872463142499328">
        <ele>441.8631591796875</ele>
        <time>2016-10-30T13:02:49Z</time>
      </trkpt>
      <trkpt lat="40.189452767372131" lon="-6.87257319688797">
        <ele>439.9404296875</ele>
        <time>2016-10-30T13:02:54Z</time>
      </trkpt>
      <trkpt lat="40.189376743510365" lon="-6.872906880453229">
        <ele>439.459716796875</ele>
        <time>2016-10-30T13:02:59Z</time>
      </trkpt>
      <trkpt lat="40.189276998862624" lon="-6.873274175450206">
        <ele>437.537109375</ele>
        <time>2016-10-30T13:03:04Z</time>
      </trkpt>
      <trkpt lat="40.189248332753778" lon="-6.873638704419136">
        <ele>437.537109375</ele>
        <time>2016-10-30T13:03:09Z</time>
      </trkpt>
      <trkpt lat="40.189255122095346" lon="-6.873902902007103">
        <ele>436.09521484375</ele>
        <time>2016-10-30T13:03:14Z</time>
      </trkpt>
      <trkpt lat="40.18929485231638" lon="-6.874122088775039">
        <ele>438.017822265625</ele>
        <time>2016-10-30T13:03:19Z</time>
      </trkpt>
      <trkpt lat="40.18933248706162" lon="-6.874302634969354">
        <ele>439.459716796875</ele>
        <time>2016-10-30T13:03:24Z</time>
      </trkpt>
      <trkpt lat="40.18934371881187" lon="-6.874452587217093">
        <ele>439.9404296875</ele>
        <time>2016-10-30T13:03:29Z</time>
      </trkpt>
      <trkpt lat="40.189333828166127" lon="-6.874568508937955">
        <ele>441.8631591796875</ele>
        <time>2016-10-30T13:03:34Z</time>
      </trkpt>
      <trkpt lat="40.189313292503357" lon="-6.874653920531273">
        <ele>442.824462890625</ele>
        <time>2016-10-30T13:03:39Z</time>
      </trkpt>
      <trkpt lat="40.189273562282324" lon="-6.874731034040451">
        <ele>442.824462890625</ele>
        <time>2016-10-30T13:03:44Z</time>
      </trkpt>
      <trkpt lat="40.189235089346766" lon="-6.874805549159646">
        <ele>441.3824462890625</ele>
        <time>2016-10-30T13:03:49Z</time>
      </trkpt>
      <trkpt lat="40.189210781827569" lon="-6.874895235523582">
        <ele>441.3824462890625</ele>
        <time>2016-10-30T13:03:54Z</time>
      </trkpt>
      <trkpt lat="40.189174320548773" lon="-6.874991795048118">
        <ele>441.8631591796875</ele>
        <time>2016-10-30T13:03:59Z</time>
      </trkpt>
      <trkpt lat="40.189156550914049" lon="-6.875068070366979">
        <ele>442.824462890625</ele>
        <time>2016-10-30T13:04:04Z</time>
      </trkpt>
      <trkpt lat="40.189146408811212" lon="-6.875149374827743">
        <ele>445.7083740234375</ele>
        <time>2016-10-30T13:04:09Z</time>
      </trkpt>
      <trkpt lat="40.189106930047274" lon="-6.875232774764299">
        <ele>446.1890869140625</ele>
        <time>2016-10-30T13:04:14Z</time>
      </trkpt>
      <trkpt lat="40.18907692283392" lon="-6.875363197177649">
        <ele>445.7083740234375</ele>
        <time>2016-10-30T13:04:19Z</time>
      </trkpt>
      <trkpt lat="40.18910282291472" lon="-6.875489177182317">
        <ele>446.1890869140625</ele>
        <time>2016-10-30T13:04:24Z</time>
      </trkpt>
      <trkpt lat="40.189124532043934" lon="-6.875634016469121">
        <ele>445.7083740234375</ele>
        <time>2016-10-30T13:04:29Z</time>
      </trkpt>
      <trkpt lat="40.189210027456284" lon="-6.875769719481468">
        <ele>448.5924072265625</ele>
        <time>2016-10-30T13:04:34Z</time>
      </trkpt>
      <trkpt lat="40.189342042431235" lon="-6.875870302319527">
        <ele>449.5537109375</ele>
        <time>2016-10-30T13:04:39Z</time>
      </trkpt>
      <trkpt lat="40.189449079334736" lon="-6.876005837693811">
        <ele>448.5924072265625</ele>
        <time>2016-10-30T13:04:44Z</time>
      </trkpt>
      <trkpt lat="40.189569024369121" lon="-6.876092255115509">
        <ele>449.5537109375</ele>
        <time>2016-10-30T13:04:49Z</time>
      </trkpt>
      <trkpt lat="40.189653933048248" lon="-6.876216977834702">
        <ele>451.95703125</ele>
        <time>2016-10-30T13:04:54Z</time>
      </trkpt>
      <trkpt lat="40.189784606918693" lon="-6.876318398863077">
        <ele>451.476318359375</ele>
        <time>2016-10-30T13:04:59Z</time>
      </trkpt>
      <trkpt lat="40.189882423728704" lon="-6.876525767147541">
        <ele>450.5150146484375</ele>
        <time>2016-10-30T13:05:04Z</time>
      </trkpt>
      <trkpt lat="40.189987784251571" lon="-6.876684855669737">
        <ele>448.5924072265625</ele>
        <time>2016-10-30T13:05:09Z</time>
      </trkpt>
      <trkpt lat="40.190096748992801" lon="-6.876828856766224">
        <ele>446.669677734375</ele>
        <time>2016-10-30T13:05:14Z</time>
      </trkpt>
      <trkpt lat="40.190249551087618" lon="-6.876958273351193">
        <ele>444.2664794921875</ele>
        <time>2016-10-30T13:05:19Z</time>
      </trkpt>
      <trkpt lat="40.190394641831517" lon="-6.877148458734155">
        <ele>441.8631591796875</ele>
        <time>2016-10-30T13:05:24Z</time>
      </trkpt>
      <trkpt lat="40.190591868013144" lon="-6.877233367413282">
        <ele>439.459716796875</ele>
        <time>2016-10-30T13:05:29Z</time>
      </trkpt>
      <trkpt lat="40.190839050337672" lon="-6.877261195331812">
        <ele>439.459716796875</ele>
        <time>2016-10-30T13:05:34Z</time>
      </trkpt>
      <trkpt lat="40.190999563783407" lon="-6.877273768186569">
        <ele>438.9791259765625</ele>
        <time>2016-10-30T13:05:39Z</time>
      </trkpt>
      <trkpt lat="40.191134847700596" lon="-6.87731240876019">
        <ele>440.4212646484375</ele>
        <time>2016-10-30T13:05:44Z</time>
      </trkpt>
      <trkpt lat="40.191238448023796" lon="-6.877321293577552">
        <ele>441.3824462890625</ele>
        <time>2016-10-30T13:05:49Z</time>
      </trkpt>
      <trkpt lat="40.19132612273097" lon="-6.877349875867367">
        <ele>443.3050537109375</ele>
        <time>2016-10-30T13:05:54Z</time>
      </trkpt>
      <trkpt lat="40.191407762467861" lon="-6.877355659380555">
        <ele>444.2664794921875</ele>
        <time>2016-10-30T13:05:59Z</time>
      </trkpt>
      <trkpt lat="40.191487809643149" lon="-6.877373345196247">
        <ele>443.7857666015625</ele>
        <time>2016-10-30T13:06:04Z</time>
      </trkpt>
      <trkpt lat="40.19154547713697" lon="-6.877420116215944">
        <ele>447.1502685546875</ele>
        <time>2016-10-30T13:06:09Z</time>
      </trkpt>
      <trkpt lat="40.191610436886549" lon="-6.87746973708272">
        <ele>448.11181640625</ele>
        <time>2016-10-30T13:06:14Z</time>
      </trkpt>
      <trkpt lat="40.191645557060838" lon="-6.877539558336139">
        <ele>448.5924072265625</ele>
        <time>2016-10-30T13:06:19Z</time>
      </trkpt>
      <trkpt lat="40.191696854308248" lon="-6.877634106203914">
        <ele>450.034423828125</ele>
        <time>2016-10-30T13:06:24Z</time>
      </trkpt>
      <trkpt lat="40.191758628934622" lon="-6.877711554989219">
        <ele>449.5537109375</ele>
        <time>2016-10-30T13:06:29Z</time>
      </trkpt>
      <trkpt lat="40.191866336390376" lon="-6.877812221646309">
        <ele>448.5924072265625</ele>
        <time>2016-10-30T13:06:34Z</time>
      </trkpt>
      <trkpt lat="40.192020814865828" lon="-6.877969047054648">
        <ele>447.1502685546875</ele>
        <time>2016-10-30T13:06:39Z</time>
      </trkpt>
      <trkpt lat="40.192101867869496" lon="-6.87823886051774">
        <ele>445.7083740234375</ele>
        <time>2016-10-30T13:06:44Z</time>
      </trkpt>
      <trkpt lat="40.192276211455464" lon="-6.878340197727084">
        <ele>443.7857666015625</ele>
        <time>2016-10-30T13:06:49Z</time>
      </trkpt>
      <trkpt lat="40.192508306354284" lon="-6.87837665900588">
        <ele>439.9404296875</ele>
        <time>2016-10-30T13:06:54Z</time>
      </trkpt>
      <trkpt lat="40.192766049876809" lon="-6.878595594316721">
        <ele>438.9791259765625</ele>
        <time>2016-10-30T13:06:59Z</time>
      </trkpt>
      <trkpt lat="40.193026727065444" lon="-6.878769854083657">
        <ele>436.575927734375</ele>
        <time>2016-10-30T13:07:04Z</time>
      </trkpt>
      <trkpt lat="40.193146169185638" lon="-6.878974456340075">
        <ele>431.7691650390625</ele>
        <time>2016-10-30T13:07:09Z</time>
      </trkpt>
      <trkpt lat="40.193022955209017" lon="-6.879292633384466">
        <ele>429.8465576171875</ele>
        <time>2016-10-30T13:07:14Z</time>
      </trkpt>
      <trkpt lat="40.192858586087823" lon="-6.879507629200816">
        <ele>426.0013427734375</ele>
        <time>2016-10-30T13:07:19Z</time>
      </trkpt>
      <trkpt lat="40.192738892510533" lon="-6.87985572963953">
        <ele>423.117431640625</ele>
        <time>2016-10-30T13:07:24Z</time>
      </trkpt>
      <trkpt lat="40.192557256668806" lon="-6.880278680473566">
        <ele>419.272216796875</ele>
        <time>2016-10-30T13:07:29Z</time>
      </trkpt>
      <trkpt lat="40.192406298592687" lon="-6.88067170791328">
        <ele>417.349609375</ele>
        <time>2016-10-30T13:07:34Z</time>
      </trkpt>
      <trkpt lat="40.192204797640443" lon="-6.881097927689552">
        <ele>414.9461669921875</ele>
        <time>2016-10-30T13:07:39Z</time>
      </trkpt>
      <trkpt lat="40.19197303801775" lon="-6.88146086409688">
        <ele>414.4654541015625</ele>
        <time>2016-10-30T13:07:44Z</time>
      </trkpt>
      <trkpt lat="40.191675061360002" lon="-6.881696395576">
        <ele>412.062255859375</ele>
        <time>2016-10-30T13:07:49Z</time>
      </trkpt>
      <trkpt lat="40.191416647285223" lon="-6.882007783278823">
        <ele>412.062255859375</ele>
        <time>2016-10-30T13:07:54Z</time>
      </trkpt>
      <trkpt lat="40.191149180755019" lon="-6.882277680560947">
        <ele>409.1783447265625</ele>
        <time>2016-10-30T13:07:59Z</time>
      </trkpt>
      <trkpt lat="40.190898058936" lon="-6.882557217031717">
        <ele>409.1783447265625</ele>
        <time>2016-10-30T13:08:04Z</time>
      </trkpt>
      <trkpt lat="40.1907460950315" lon="-6.882880255579948">
        <ele>407.736328125</ele>
        <time>2016-10-30T13:08:09Z</time>
      </trkpt>
      <trkpt lat="40.190560603514314" lon="-6.88318720087409">
        <ele>404.3717041015625</ele>
        <time>2016-10-30T13:08:14Z</time>
      </trkpt>
      <trkpt lat="40.190359437838197" lon="-6.883443351835012">
        <ele>400.0458984375</ele>
        <time>2016-10-30T13:08:19Z</time>
      </trkpt>
      <trkpt lat="40.190184088423848" lon="-6.883480902761221">
        <ele>398.1231689453125</ele>
        <time>2016-10-30T13:08:24Z</time>
      </trkpt>
      <trkpt lat="40.190155003219843" lon="-6.883673518896103">
        <ele>396.2005615234375</ele>
        <time>2016-10-30T13:08:29Z</time>
      </trkpt>
      <trkpt lat="40.190260782837868" lon="-6.883890023455024">
        <ele>395.7198486328125</ele>
        <time>2016-10-30T13:08:34Z</time>
      </trkpt>
      <trkpt lat="40.190433701500297" lon="-6.884161094203591">
        <ele>395.2391357421875</ele>
        <time>2016-10-30T13:08:39Z</time>
      </trkpt>
      <trkpt lat="40.190578289330006" lon="-6.884440211579204">
        <ele>395.7198486328125</ele>
        <time>2016-10-30T13:08:44Z</time>
      </trkpt>
      <trkpt lat="40.190719608217478" lon="-6.884637689217925">
        <ele>396.2005615234375</ele>
        <time>2016-10-30T13:08:49Z</time>
      </trkpt>
      <trkpt lat="40.19081792794168" lon="-6.884896773844957">
        <ele>394.2779541015625</ele>
        <time>2016-10-30T13:08:54Z</time>
      </trkpt>
      <trkpt lat="40.190979614853859" lon="-6.885076398029923">
        <ele>391.87451171875</ele>
        <time>2016-10-30T13:08:59Z</time>
      </trkpt>
      <trkpt lat="40.191141217947006" lon="-6.885095341131091">
        <ele>388.9906005859375</ele>
        <time>2016-10-30T13:09:04Z</time>
      </trkpt>
      <trkpt lat="40.191249763593078" lon="-6.885229786857963">
        <ele>386.106689453125</ele>
        <time>2016-10-30T13:09:09Z</time>
      </trkpt>
      <trkpt lat="40.191099895164371" lon="-6.885422570630908">
        <ele>382.7420654296875</ele>
        <time>2016-10-30T13:09:14Z</time>
      </trkpt>
      <trkpt lat="40.19092203117907" lon="-6.885587694123387">
        <ele>382.7420654296875</ele>
        <time>2016-10-30T13:09:19Z</time>
      </trkpt>
      <trkpt lat="40.190770318731666" lon="-6.885738233104348">
        <ele>381.300048828125</ele>
        <time>2016-10-30T13:09:24Z</time>
      </trkpt>
      <trkpt lat="40.19066889770329" lon="-6.885961527004838">
        <ele>381.300048828125</ele>
        <time>2016-10-30T13:09:29Z</time>
      </trkpt>
      <trkpt lat="40.190751878544688" lon="-6.886208122596145">
        <ele>384.18408203125</ele>
        <time>2016-10-30T13:09:34Z</time>
      </trkpt>
      <trkpt lat="40.190872997045517" lon="-6.88636913895607">
        <ele>385.6259765625</ele>
        <time>2016-10-30T13:09:39Z</time>
      </trkpt>
      <trkpt lat="40.191026888787746" lon="-6.886440636590123">
        <ele>382.7420654296875</ele>
        <time>2016-10-30T13:09:44Z</time>
      </trkpt>
      <trkpt lat="40.191087825223804" lon="-6.886523617431521">
        <ele>386.106689453125</ele>
        <time>2016-10-30T13:09:49Z</time>
      </trkpt>
      <trkpt lat="40.191115653142333" lon="-6.886590756475925">
        <ele>386.58740234375</ele>
        <time>2016-10-30T13:09:54Z</time>
      </trkpt>
      <trkpt lat="40.191142894327641" lon="-6.886634007096291">
        <ele>386.106689453125</ele>
        <time>2016-10-30T13:09:59Z</time>
      </trkpt>
      <trkpt lat="40.191177427768707" lon="-6.886722687631846">
        <ele>385.6259765625</ele>
        <time>2016-10-30T13:10:04Z</time>
      </trkpt>
      <trkpt lat="40.191210033372045" lon="-6.886773649603128">
        <ele>383.7032470703125</ele>
        <time>2016-10-30T13:10:09Z</time>
      </trkpt>
      <trkpt lat="40.191291589289904" lon="-6.886791503056884">
        <ele>383.7032470703125</ele>
        <time>2016-10-30T13:10:14Z</time>
      </trkpt>
      <trkpt lat="40.191363589838147" lon="-6.886771637946367">
        <ele>381.7806396484375</ele>
        <time>2016-10-30T13:10:19Z</time>
      </trkpt>
      <trkpt lat="40.191441541537642" lon="-6.886801645159721">
        <ele>383.22265625</ele>
        <time>2016-10-30T13:10:24Z</time>
      </trkpt>
      <trkpt lat="40.191513877362013" lon="-6.886830646544695">
        <ele>383.7032470703125</ele>
        <time>2016-10-30T13:10:29Z</time>
      </trkpt>
      <trkpt lat="40.191573807969689" lon="-6.886872723698616">
        <ele>384.18408203125</ele>
        <time>2016-10-30T13:10:34Z</time>
      </trkpt>
      <trkpt lat="40.191618902608752" lon="-6.886957716196775">
        <ele>386.106689453125</ele>
        <time>2016-10-30T13:10:39Z</time>
      </trkpt>
      <trkpt lat="40.191686879843473" lon="-6.88700239174068">
        <ele>387.0679931640625</ele>
        <time>2016-10-30T13:10:44Z</time>
      </trkpt>
      <trkpt lat="40.191749995574355" lon="-6.887013288214803">
        <ele>386.106689453125</ele>
        <time>2016-10-30T13:10:48Z</time>
      </trkpt>
      <trkpt lat="40.191843705251813" lon="-6.887012952938676">
        <ele>385.1453857421875</ele>
        <time>2016-10-30T13:10:54Z</time>
      </trkpt>
      <trkpt lat="40.191929787397385" lon="-6.887006247416139">
        <ele>384.18408203125</ele>
        <time>2016-10-30T13:10:59Z</time>
      </trkpt>
      <trkpt lat="40.192012684419751" lon="-6.887029968202114">
        <ele>384.18408203125</ele>
        <time>2016-10-30T13:11:04Z</time>
      </trkpt>
      <trkpt lat="40.192092480137944" lon="-6.887032315135002">
        <ele>383.22265625</ele>
        <time>2016-10-30T13:11:09Z</time>
      </trkpt>
      <trkpt lat="40.192169090732932" lon="-6.887034326791763">
        <ele>381.7806396484375</ele>
        <time>2016-10-30T13:11:14Z</time>
      </trkpt>
      <trkpt lat="40.19221980124712" lon="-6.88712845556438">
        <ele>384.18408203125</ele>
        <time>2016-10-30T13:11:19Z</time>
      </trkpt>
      <trkpt lat="40.192233799025416" lon="-6.887226859107614">
        <ele>384.18408203125</ele>
        <time>2016-10-30T13:11:24Z</time>
      </trkpt>
      <trkpt lat="40.192234553396702" lon="-6.887350911274552">
        <ele>384.664794921875</ele>
        <time>2016-10-30T13:11:29Z</time>
      </trkpt>
      <trkpt lat="40.192236229777336" lon="-6.887468257918954">
        <ele>385.6259765625</ele>
        <time>2016-10-30T13:11:34Z</time>
      </trkpt>
      <trkpt lat="40.192152578383684" lon="-6.887537324801087">
        <ele>385.6259765625</ele>
        <time>2016-10-30T13:11:39Z</time>
      </trkpt>
      <trkpt lat="40.192086612805724" lon="-6.887645870447159">
        <ele>383.22265625</ele>
        <time>2016-10-30T13:11:44Z</time>
      </trkpt>
      <trkpt lat="40.192123409360647" lon="-6.887776125222445">
        <ele>386.106689453125</ele>
        <time>2016-10-30T13:11:49Z</time>
      </trkpt>
      <trkpt lat="40.192186441272497" lon="-6.887891124933958">
        <ele>386.58740234375</ele>
        <time>2016-10-30T13:11:54Z</time>
      </trkpt>
      <trkpt lat="40.192245617508888" lon="-6.888000927865505">
        <ele>386.58740234375</ele>
        <time>2016-10-30T13:11:59Z</time>
      </trkpt>
      <trkpt lat="40.192303787916899" lon="-6.888139816001058">
        <ele>387.548583984375</ele>
        <time>2016-10-30T13:12:04Z</time>
      </trkpt>
      <trkpt lat="40.192357180640101" lon="-6.888248194009066">
        <ele>387.0679931640625</ele>
        <time>2016-10-30T13:12:09Z</time>
      </trkpt>
      <trkpt lat="40.192390037700534" lon="-6.888350788503885">
        <ele>387.548583984375</ele>
        <time>2016-10-30T13:12:14Z</time>
      </trkpt>
      <trkpt lat="40.192433623597026" lon="-6.888436283916235">
        <ele>388.9906005859375</ele>
        <time>2016-10-30T13:12:19Z</time>
      </trkpt>
      <trkpt lat="40.192462373524904" lon="-6.888509290292859">
        <ele>389.47119140625</ele>
        <time>2016-10-30T13:12:24Z</time>
      </trkpt>
      <trkpt lat="40.192535379901528" lon="-6.88852010294795">
        <ele>390.4326171875</ele>
        <time>2016-10-30T13:12:29Z</time>
      </trkpt>
      <trkpt lat="40.192653061822057" lon="-6.888512810692191">
        <ele>390.4326171875</ele>
        <time>2016-10-30T13:12:34Z</time>
      </trkpt>
      <trkpt lat="40.192797062918544" lon="-6.888495460152626">
        <ele>387.548583984375</ele>
        <time>2016-10-30T13:12:39Z</time>
      </trkpt>
      <trkpt lat="40.192956235259771" lon="-6.888489760458469">
        <ele>387.548583984375</ele>
        <time>2016-10-30T13:12:44Z</time>
      </trkpt>
      <trkpt lat="40.193118005990982" lon="-6.888497974723578">
        <ele>387.0679931640625</ele>
        <time>2016-10-30T13:12:49Z</time>
      </trkpt>
      <trkpt lat="40.193273155018687" lon="-6.888470565900207">
        <ele>387.548583984375</ele>
        <time>2016-10-30T13:12:54Z</time>
      </trkpt>
      <trkpt lat="40.193440206348896" lon="-6.888354895636439">
        <ele>385.1453857421875</ele>
        <time>2016-10-30T13:12:59Z</time>
      </trkpt>
      <trkpt lat="40.193478679284453" lon="-6.888089859858155">
        <ele>386.106689453125</ele>
        <time>2016-10-30T13:13:04Z</time>
      </trkpt>
      <trkpt lat="40.193541375920177" lon="-6.888498058542609">
        <ele>387.0679931640625</ele>
        <time>2016-10-30T13:13:09Z</time>
      </trkpt>
      <trkpt lat="40.193706080317497" lon="-6.887610917910934">
        <ele>388.029296875</ele>
        <time>2016-10-30T13:13:14Z</time>
      </trkpt>
      <trkpt lat="40.193866258487105" lon="-6.887474292889237">
        <ele>387.0679931640625</ele>
        <time>2016-10-30T13:13:19Z</time>
      </trkpt>
      <trkpt lat="40.194032052531838" lon="-6.887344541028142">
        <ele>385.6259765625</ele>
        <time>2016-10-30T13:13:24Z</time>
      </trkpt>
      <trkpt lat="40.194183513522148" lon="-6.88724278472364">
        <ele>385.1453857421875</ele>
        <time>2016-10-30T13:13:29Z</time>
      </trkpt>
      <trkpt lat="40.194340255111456" lon="-6.887152679264545">
        <ele>384.664794921875</ele>
        <time>2016-10-30T13:13:34Z</time>
      </trkpt>
      <trkpt lat="40.194514179602265" lon="-6.887061484158039">
        <ele>382.7420654296875</ele>
        <time>2016-10-30T13:13:39Z</time>
      </trkpt>
      <trkpt lat="40.194672597572207" lon="-6.886964421719313">
        <ele>381.7806396484375</ele>
        <time>2016-10-30T13:13:44Z</time>
      </trkpt>
      <trkpt lat="40.194828249514103" lon="-6.886869622394443">
        <ele>383.22265625</ele>
        <time>2016-10-30T13:13:49Z</time>
      </trkpt>
      <trkpt lat="40.194993121549487" lon="-6.886765016242862">
        <ele>384.664794921875</ele>
        <time>2016-10-30T13:13:54Z</time>
      </trkpt>
      <trkpt lat="40.195147600024939" lon="-6.886651441454887">
        <ele>386.106689453125</ele>
        <time>2016-10-30T13:13:59Z</time>
      </trkpt>
      <trkpt lat="40.195290595293045" lon="-6.886528143659234">
        <ele>387.548583984375</ele>
        <time>2016-10-30T13:14:04Z</time>
      </trkpt>
      <trkpt lat="40.195462172850966" lon="-6.886404594406486">
        <ele>387.548583984375</ele>
        <time>2016-10-30T13:14:09Z</time>
      </trkpt>
      <trkpt lat="40.195630313828588" lon="-6.886277524754405">
        <ele>385.6259765625</ele>
        <time>2016-10-30T13:14:14Z</time>
      </trkpt>
      <trkpt lat="40.195776494219899" lon="-6.886130422353745">
        <ele>384.664794921875</ele>
        <time>2016-10-30T13:14:19Z</time>
      </trkpt>
      <trkpt lat="40.195908006280661" lon="-6.885965298861265">
        <ele>386.58740234375</ele>
        <time>2016-10-30T13:14:24Z</time>
      </trkpt>
      <trkpt lat="40.196042116731405" lon="-6.885804450139403">
        <ele>386.58740234375</ele>
        <time>2016-10-30T13:14:29Z</time>
      </trkpt>
      <trkpt lat="40.19615669734776" lon="-6.885629100725055">
        <ele>388.510009765625</ele>
        <time>2016-10-30T13:14:34Z</time>
      </trkpt>
      <trkpt lat="40.196281000971794" lon="-6.88544662669301">
        <ele>388.9906005859375</ele>
        <time>2016-10-30T13:14:39Z</time>
      </trkpt>
      <trkpt lat="40.19640639424324" lon="-6.885257866233587">
        <ele>388.9906005859375</ele>
        <time>2016-10-30T13:14:44Z</time>
      </trkpt>
      <trkpt lat="40.196526842191815" lon="-6.88505569472909">
        <ele>389.951904296875</ele>
        <time>2016-10-30T13:14:49Z</time>
      </trkpt>
      <trkpt lat="40.196631783619523" lon="-6.884852852672339">
        <ele>390.9132080078125</ele>
        <time>2016-10-30T13:14:54Z</time>
      </trkpt>
      <trkpt lat="40.196764636784792" lon="-6.884690243750811">
        <ele>390.4326171875</ele>
        <time>2016-10-30T13:14:59Z</time>
      </trkpt>
      <trkpt lat="40.196864381432533" lon="-6.884521432220936">
        <ele>389.951904296875</ele>
        <time>2016-10-30T13:15:04Z</time>
      </trkpt>
      <trkpt lat="40.196952391415834" lon="-6.884351363405585">
        <ele>392.8359375</ele>
        <time>2016-10-30T13:15:09Z</time>
      </trkpt>
      <trkpt lat="40.197075689211488" lon="-6.884177690371871">
        <ele>391.393798828125</ele>
        <time>2016-10-30T13:15:14Z</time>
      </trkpt>
      <trkpt lat="40.197207788005471" lon="-6.884008292108774">
        <ele>390.4326171875</ele>
        <time>2016-10-30T13:15:19Z</time>
      </trkpt>
      <trkpt lat="40.197320859879255" lon="-6.883835624903441">
        <ele>393.7972412109375</ele>
        <time>2016-10-30T13:15:24Z</time>
      </trkpt>
      <trkpt lat="40.197433512657881" lon="-6.883660526946187">
        <ele>393.3165283203125</ele>
        <time>2016-10-30T13:15:29Z</time>
      </trkpt>
      <trkpt lat="40.197544991970062" lon="-6.883520465344191">
        <ele>391.393798828125</ele>
        <time>2016-10-30T13:15:34Z</time>
      </trkpt>
      <trkpt lat="40.197656555101275" lon="-6.883438909426332">
        <ele>393.3165283203125</ele>
        <time>2016-10-30T13:15:39Z</time>
      </trkpt>
      <trkpt lat="40.197778679430485" lon="-6.883365400135517">
        <ele>391.87451171875</ele>
        <time>2016-10-30T13:15:44Z</time>
      </trkpt>
      <trkpt lat="40.197895942255855" lon="-6.883304547518492">
        <ele>392.8359375</ele>
        <time>2016-10-30T13:15:49Z</time>
      </trkpt>
      <trkpt lat="40.198014797642827" lon="-6.883247718214989">
        <ele>391.87451171875</ele>
        <time>2016-10-30T13:15:54Z</time>
      </trkpt>
      <trkpt lat="40.198145471513271" lon="-6.883188625797629">
        <ele>392.8359375</ele>
        <time>2016-10-30T13:15:59Z</time>
      </trkpt>
      <trkpt lat="40.198255190625787" lon="-6.88314319588244">
        <ele>394.758544921875</ele>
        <time>2016-10-30T13:16:04Z</time>
      </trkpt>
      <trkpt lat="40.198358288034797" lon="-6.883111093193293">
        <ele>395.2391357421875</ele>
        <time>2016-10-30T13:16:09Z</time>
      </trkpt>
      <trkpt lat="40.198469096794724" lon="-6.883061220869422">
        <ele>394.758544921875</ele>
        <time>2016-10-30T13:16:14Z</time>
      </trkpt>
      <trkpt lat="40.198572780936956" lon="-6.883013779297471">
        <ele>394.758544921875</ele>
        <time>2016-10-30T13:16:19Z</time>
      </trkpt>
      <trkpt lat="40.198639668524265" lon="-6.882976898923516">
        <ele>396.2005615234375</ele>
        <time>2016-10-30T13:16:24Z</time>
      </trkpt>
      <trkpt lat="40.198716446757317" lon="-6.882952423766255">
        <ele>396.68115234375</ele>
        <time>2016-10-30T13:16:29Z</time>
      </trkpt>
      <trkpt lat="40.198783585801721" lon="-6.882928619161248">
        <ele>398.1231689453125</ele>
        <time>2016-10-30T13:16:34Z</time>
      </trkpt>
      <trkpt lat="40.198849635198712" lon="-6.882890565320849">
        <ele>400.0458984375</ele>
        <time>2016-10-30T13:16:39Z</time>
      </trkpt>
      <trkpt lat="40.198922054842114" lon="-6.882828706875444">
        <ele>400.0458984375</ele>
        <time>2016-10-30T13:16:44Z</time>
      </trkpt>
      <trkpt lat="40.198985254392028" lon="-6.882771626114845">
        <ele>401.007080078125</ele>
        <time>2016-10-30T13:16:49Z</time>
      </trkpt>
      <trkpt lat="40.199091704562306" lon="-6.882707588374615">
        <ele>401.007080078125</ele>
        <time>2016-10-30T13:16:54Z</time>
      </trkpt>
      <trkpt lat="40.19918616861105" lon="-6.882651848718524">
        <ele>401.007080078125</ele>
        <time>2016-10-30T13:16:59Z</time>
      </trkpt>
      <trkpt lat="40.199288008734584" lon="-6.882595019415021">
        <ele>399.5650634765625</ele>
        <time>2016-10-30T13:17:04Z</time>
      </trkpt>
      <trkpt lat="40.19936109893024" lon="-6.88255243934691">
        <ele>401.007080078125</ele>
        <time>2016-10-30T13:17:09Z</time>
      </trkpt>
      <trkpt lat="40.199429830536246" lon="-6.88251388259232">
        <ele>401.968505859375</ele>
        <time>2016-10-30T13:17:14Z</time>
      </trkpt>
      <trkpt lat="40.199509123340249" lon="-6.882468452677131">
        <ele>403.89111328125</ele>
        <time>2016-10-30T13:17:19Z</time>
      </trkpt>
      <trkpt lat="40.199577854946256" lon="-6.882427968084812">
        <ele>403.89111328125</ele>
        <time>2016-10-30T13:17:24Z</time>
      </trkpt>
      <trkpt lat="40.199660249054432" lon="-6.882360661402345">
        <ele>404.3717041015625</ele>
        <time>2016-10-30T13:17:29Z</time>
      </trkpt>
      <trkpt lat="40.199737697839737" lon="-6.882318500429392">
        <ele>405.3330078125</ele>
        <time>2016-10-30T13:17:34Z</time>
      </trkpt>
      <trkpt lat="40.199799053370953" lon="-6.882288493216038">
        <ele>407.255615234375</ele>
        <time>2016-10-30T13:17:39Z</time>
      </trkpt>
      <trkpt lat="40.199863510206342" lon="-6.88223778270185">
        <ele>407.255615234375</ele>
        <time>2016-10-30T13:17:44Z</time>
      </trkpt>
      <trkpt lat="40.199936684221029" lon="-6.882171565666795">
        <ele>407.255615234375</ele>
        <time>2016-10-30T13:17:49Z</time>
      </trkpt>
      <trkpt lat="40.200016815215349" lon="-6.88211658038199">
        <ele>404.852294921875</ele>
        <time>2016-10-30T13:17:54Z</time>
      </trkpt>
      <trkpt lat="40.200085965916514" lon="-6.882057068869472">
        <ele>405.3330078125</ele>
        <time>2016-10-30T13:17:59Z</time>
      </trkpt>
      <trkpt lat="40.200155535712838" lon="-6.882000071927905">
        <ele>407.255615234375</ele>
        <time>2016-10-30T13:18:04Z</time>
      </trkpt>
      <trkpt lat="40.200254777446389" lon="-6.881916839629412">
        <ele>409.1783447265625</ele>
        <time>2016-10-30T13:18:09Z</time>
      </trkpt>
      <trkpt lat="40.200393330305815" lon="-6.881757751107216">
        <ele>408.217041015625</ele>
        <time>2016-10-30T13:18:14Z</time>
      </trkpt>
      <trkpt lat="40.200670938938856" lon="-6.881587514653802">
        <ele>403.89111328125</ele>
        <time>2016-10-30T13:18:19Z</time>
      </trkpt>
      <trkpt lat="40.201053153723478" lon="-6.881452314555645">
        <ele>398.1231689453125</ele>
        <time>2016-10-30T13:18:24Z</time>
      </trkpt>
      <trkpt lat="40.201374180614948" lon="-6.881185686215758">
        <ele>395.7198486328125</ele>
        <time>2016-10-30T13:18:29Z</time>
      </trkpt>
      <trkpt lat="40.201492700725794" lon="-6.880792994052172">
        <ele>396.68115234375</ele>
        <time>2016-10-30T13:18:34Z</time>
      </trkpt>
      <trkpt lat="40.201481301337481" lon="-6.880497867241502">
        <ele>398.603759765625</ele>
        <time>2016-10-30T13:18:39Z</time>
      </trkpt>
      <trkpt lat="40.201518768444657" lon="-6.880278177559376">
        <ele>400.0458984375</ele>
        <time>2016-10-30T13:18:44Z</time>
      </trkpt>
      <trkpt lat="40.20156872458756" lon="-6.880120765417814">
        <ele>402.4490966796875</ele>
        <time>2016-10-30T13:18:49Z</time>
      </trkpt>
      <trkpt lat="40.201642820611596" lon="-6.879947176203132">
        <ele>400.0458984375</ele>
        <time>2016-10-30T13:18:54Z</time>
      </trkpt>
      <trkpt lat="40.201727896928787" lon="-6.879752967506647">
        <ele>398.1231689453125</ele>
        <time>2016-10-30T13:18:59Z</time>
      </trkpt>
      <trkpt lat="40.20180718973279" lon="-6.879567308351398">
        <ele>398.1231689453125</ele>
        <time>2016-10-30T13:19:04Z</time>
      </trkpt>
      <trkpt lat="40.201886733993888" lon="-6.879391372203827">
        <ele>399.5650634765625</ele>
        <time>2016-10-30T13:19:09Z</time>
      </trkpt>
      <trkpt lat="40.202002068981528" lon="-6.879245610907674">
        <ele>396.2005615234375</ele>
        <time>2016-10-30T13:19:14Z</time>
      </trkpt>
      <trkpt lat="40.202118577435613" lon="-6.879137735813856">
        <ele>398.1231689453125</ele>
        <time>2016-10-30T13:19:19Z</time>
      </trkpt>
      <trkpt lat="40.202230727300048" lon="-6.879027262330055">
        <ele>399.5650634765625</ele>
        <time>2016-10-30T13:19:24Z</time>
      </trkpt>
      <trkpt lat="40.202375398948789" lon="-6.878923159092665">
        <ele>397.6424560546875</ele>
        <time>2016-10-30T13:19:29Z</time>
      </trkpt>
      <trkpt lat="40.202500037848949" lon="-6.878831880167127">
        <ele>397.1617431640625</ele>
        <time>2016-10-30T13:19:34Z</time>
      </trkpt>
      <trkpt lat="40.202646218240261" lon="-6.87873381190002">
        <ele>398.603759765625</ele>
        <time>2016-10-30T13:19:39Z</time>
      </trkpt>
      <trkpt lat="40.202780328691006" lon="-6.878621242940426">
        <ele>398.603759765625</ele>
        <time>2016-10-30T13:19:44Z</time>
      </trkpt>
      <trkpt lat="40.202904045581818" lon="-6.878541698679328">
        <ele>399.5650634765625</ele>
        <time>2016-10-30T13:19:49Z</time>
      </trkpt>
      <trkpt lat="40.203039664775133" lon="-6.878461316227913">
        <ele>399.5650634765625</ele>
        <time>2016-10-30T13:19:54Z</time>
      </trkpt>
      <trkpt lat="40.203175200149417" lon="-6.878395937383175">
        <ele>400.0458984375</ele>
        <time>2016-10-30T13:19:59Z</time>
      </trkpt>
      <trkpt lat="40.203342167660594" lon="-6.87831899151206">
        <ele>401.007080078125</ele>
        <time>2016-10-30T13:20:04Z</time>
      </trkpt>
      <trkpt lat="40.203477786853909" lon="-6.878248415887356">
        <ele>400.0458984375</ele>
        <time>2016-10-30T13:20:09Z</time>
      </trkpt>
      <trkpt lat="40.203629415482283" lon="-6.878219582140446">
        <ele>399.0843505859375</ele>
        <time>2016-10-30T13:20:14Z</time>
      </trkpt>
      <trkpt lat="40.203778445720673" lon="-6.878219833597541">
        <ele>400.5264892578125</ele>
        <time>2016-10-30T13:20:19Z</time>
      </trkpt>
      <trkpt lat="40.203938875347376" lon="-6.878207512199879">
        <ele>400.5264892578125</ele>
        <time>2016-10-30T13:20:24Z</time>
      </trkpt>
      <trkpt lat="40.204095784574747" lon="-6.878219079226255">
        <ele>401.968505859375</ele>
        <time>2016-10-30T13:20:29Z</time>
      </trkpt>
      <trkpt lat="40.204261159524322" lon="-6.878232322633266">
        <ele>402.4490966796875</ele>
        <time>2016-10-30T13:20:34Z</time>
      </trkpt>
      <trkpt lat="40.204411195591092" lon="-6.878233663737774">
        <ele>402.9296875</ele>
        <time>2016-10-30T13:20:39Z</time>
      </trkpt>
      <trkpt lat="40.204542372375727" lon="-6.878259396180511">
        <ele>402.9296875</ele>
        <time>2016-10-30T13:20:44Z</time>
      </trkpt>
      <trkpt lat="40.204665502533317" lon="-6.878270711749792">
        <ele>406.77490234375</ele>
        <time>2016-10-30T13:20:49Z</time>
      </trkpt>
      <trkpt lat="40.204808078706264" lon="-6.87829602509737">
        <ele>408.217041015625</ele>
        <time>2016-10-30T13:20:54Z</time>
      </trkpt>
      <trkpt lat="40.204927353188396" lon="-6.878316812217236">
        <ele>408.217041015625</ele>
        <time>2016-10-30T13:20:59Z</time>
      </trkpt>
      <trkpt lat="40.20503556355834" lon="-6.878306418657303">
        <ele>408.217041015625</ele>
        <time>2016-10-30T13:21:04Z</time>
      </trkpt>
      <trkpt lat="40.205141846090555" lon="-6.878298372030258">
        <ele>408.217041015625</ele>
        <time>2016-10-30T13:21:09Z</time>
      </trkpt>
      <trkpt lat="40.20527889020741" lon="-6.878236765041947">
        <ele>407.255615234375</ele>
        <time>2016-10-30T13:21:14Z</time>
      </trkpt>
      <trkpt lat="40.205404534935951" lon="-6.878170045092702">
        <ele>408.217041015625</ele>
        <time>2016-10-30T13:21:19Z</time>
      </trkpt>
      <trkpt lat="40.205503022298217" lon="-6.878127967938781">
        <ele>408.217041015625</ele>
        <time>2016-10-30T13:21:23Z</time>
      </trkpt>
      <trkpt lat="40.205650627613068" lon="-6.878045909106731">
        <ele>409.1783447265625</ele>
        <time>2016-10-30T13:21:29Z</time>
      </trkpt>
      <trkpt lat="40.20579244941473" lon="-6.877967286854982">
        <ele>409.1783447265625</ele>
        <time>2016-10-30T13:21:34Z</time>
      </trkpt>
      <trkpt lat="40.205893618986011" lon="-6.877901405096054">
        <ele>410.6202392578125</ele>
        <time>2016-10-30T13:21:39Z</time>
      </trkpt>
      <trkpt lat="40.206011384725571" lon="-6.877835523337126">
        <ele>410.1396484375</ele>
        <time>2016-10-30T13:21:44Z</time>
      </trkpt>
      <trkpt lat="40.206123786047101" lon="-6.877769976854324">
        <ele>411.1009521484375</ele>
        <time>2016-10-30T13:21:49Z</time>
      </trkpt>
      <trkpt lat="40.206223782151937" lon="-6.877700658515096">
        <ele>411.1009521484375</ele>
        <time>2016-10-30T13:21:54Z</time>
      </trkpt>
      <trkpt lat="40.206344397738576" lon="-6.877637375146151">
        <ele>411.1009521484375</ele>
        <time>2016-10-30T13:21:59Z</time>
      </trkpt>
      <trkpt lat="40.206473059952259" lon="-6.877584150061011">
        <ele>410.6202392578125</ele>
        <time>2016-10-30T13:22:04Z</time>
      </trkpt>
      <trkpt lat="40.206574313342571" lon="-6.877560429275036">
        <ele>413.0235595703125</ele>
        <time>2016-10-30T13:22:09Z</time>
      </trkpt>
      <trkpt lat="40.206681014969945" lon="-6.877536792308092">
        <ele>413.0235595703125</ele>
        <time>2016-10-30T13:22:14Z</time>
      </trkpt>
      <trkpt lat="40.206783609464765" lon="-6.877498906105757">
        <ele>411.5816650390625</ele>
        <time>2016-10-30T13:22:19Z</time>
      </trkpt>
      <trkpt lat="40.206892909482121" lon="-6.877469653263688">
        <ele>412.5428466796875</ele>
        <time>2016-10-30T13:22:24Z</time>
      </trkpt>
      <trkpt lat="40.206993157044053" lon="-6.877445597201586">
        <ele>414.4654541015625</ele>
        <time>2016-10-30T13:22:29Z</time>
      </trkpt>
      <trkpt lat="40.207093991339207" lon="-6.877415673807263">
        <ele>414.9461669921875</ele>
        <time>2016-10-30T13:22:34Z</time>
      </trkpt>
      <trkpt lat="40.207196418195963" lon="-6.877381391823292">
        <ele>416.868896484375</ele>
        <time>2016-10-30T13:22:39Z</time>
      </trkpt>
      <trkpt lat="40.207301946356893" lon="-6.87736420892179">
        <ele>418.79150390625</ele>
        <time>2016-10-30T13:22:44Z</time>
      </trkpt>
      <trkpt lat="40.207412000745535" lon="-6.877353144809604">
        <ele>419.272216796875</ele>
        <time>2016-10-30T13:22:49Z</time>
      </trkpt>
      <trkpt lat="40.207543093711138" lon="-6.87734417617321">
        <ele>420.2333984375</ele>
        <time>2016-10-30T13:22:54Z</time>
      </trkpt>
      <trkpt lat="40.207671001553535" lon="-6.877335710451007">
        <ele>420.714111328125</ele>
        <time>2016-10-30T13:22:59Z</time>
      </trkpt>
      <trkpt lat="40.207801004871726" lon="-6.8772928789258">
        <ele>421.19482421875</ele>
        <time>2016-10-30T13:23:04Z</time>
      </trkpt>
      <trkpt lat="40.207924470305443" lon="-6.877230182290077">
        <ele>422.63671875</ele>
        <time>2016-10-30T13:23:09Z</time>
      </trkpt>
      <trkpt lat="40.208060005679727" lon="-6.877161031588912">
        <ele>422.63671875</ele>
        <time>2016-10-30T13:23:14Z</time>
      </trkpt>
      <trkpt lat="40.208206688985229" lon="-6.877129012718797">
        <ele>423.117431640625</ele>
        <time>2016-10-30T13:23:19Z</time>
      </trkpt>
      <trkpt lat="40.208363682031631" lon="-6.877121049910784">
        <ele>423.117431640625</ele>
        <time>2016-10-30T13:23:24Z</time>
      </trkpt>
      <trkpt lat="40.208514472469687" lon="-6.87712088227272">
        <ele>423.117431640625</ele>
        <time>2016-10-30T13:23:29Z</time>
      </trkpt>
      <trkpt lat="40.208672806620598" lon="-6.877115517854691">
        <ele>423.117431640625</ele>
        <time>2016-10-30T13:23:34Z</time>
      </trkpt>
      <trkpt lat="40.208814712241292" lon="-6.877118032425642">
        <ele>424.5594482421875</ele>
        <time>2016-10-30T13:23:39Z</time>
      </trkpt>
      <trkpt lat="40.208952175453305" lon="-6.877101771533489">
        <ele>425.520751953125</ele>
        <time>2016-10-30T13:23:44Z</time>
      </trkpt>
      <trkpt lat="40.209087040275335" lon="-6.877064136788249">
        <ele>426.4820556640625</ele>
        <time>2016-10-30T13:23:49Z</time>
      </trkpt>
      <trkpt lat="40.209212182089686" lon="-6.877032872289419">
        <ele>427.9239501953125</ele>
        <time>2016-10-30T13:23:54Z</time>
      </trkpt>
      <trkpt lat="40.209351070225239" lon="-6.876997165381908">
        <ele>426.9627685546875</ele>
        <time>2016-10-30T13:23:59Z</time>
      </trkpt>
      <trkpt lat="40.209499094635248" lon="-6.876970930024982">
        <ele>428.4046630859375</ele>
        <time>2016-10-30T13:24:04Z</time>
      </trkpt>
      <trkpt lat="40.209637312218547" lon="-6.876927092671394">
        <ele>428.8853759765625</ele>
        <time>2016-10-30T13:24:09Z</time>
      </trkpt>
      <trkpt lat="40.209780894219875" lon="-6.876881998032332">
        <ele>429.8465576171875</ele>
        <time>2016-10-30T13:24:14Z</time>
      </trkpt>
      <trkpt lat="40.209910059347749" lon="-6.876813182607293">
        <ele>430.8079833984375</ele>
        <time>2016-10-30T13:24:19Z</time>
      </trkpt>
      <trkpt lat="40.210036123171449" lon="-6.876753000542522">
        <ele>431.7691650390625</ele>
        <time>2016-10-30T13:24:24Z</time>
      </trkpt>
      <trkpt lat="40.210153637453914" lon="-6.876699775457382">
        <ele>432.730712890625</ele>
        <time>2016-10-30T13:24:29Z</time>
      </trkpt>
      <trkpt lat="40.210289340466261" lon="-6.876616291701794">
        <ele>430.3272705078125</ele>
        <time>2016-10-30T13:24:34Z</time>
      </trkpt>
      <trkpt lat="40.210413224995136" lon="-6.876547727733851">
        <ele>429.8465576171875</ele>
        <time>2016-10-30T13:24:39Z</time>
      </trkpt>
      <trkpt lat="40.210511712357402" lon="-6.876476649194956">
        <ele>430.3272705078125</ele>
        <time>2016-10-30T13:24:44Z</time>
      </trkpt>
      <trkpt lat="40.210592346265912" lon="-6.876394674181938">
        <ele>431.7691650390625</ele>
        <time>2016-10-30T13:24:49Z</time>
      </trkpt>
      <trkpt lat="40.210686726495624" lon="-6.876293839886785">
        <ele>433.2113037109375</ele>
        <time>2016-10-30T13:24:54Z</time>
      </trkpt>
      <trkpt lat="40.210770461708307" lon="-6.876192586496472">
        <ele>434.6533203125</ele>
        <time>2016-10-30T13:24:59Z</time>
      </trkpt>
      <trkpt lat="40.210889568552375" lon="-6.876124273985624">
        <ele>434.6533203125</ele>
        <time>2016-10-30T13:25:04Z</time>
      </trkpt>
      <trkpt lat="40.211005238816142" lon="-6.876093596220017">
        <ele>436.575927734375</ele>
        <time>2016-10-30T13:25:09Z</time>
      </trkpt>
      <trkpt lat="40.211159968748689" lon="-6.876078257337213">
        <ele>436.575927734375</ele>
        <time>2016-10-30T13:25:14Z</time>
      </trkpt>
      <trkpt lat="40.211304388940334" lon="-6.876072641462088">
        <ele>436.575927734375</ele>
        <time>2016-10-30T13:25:19Z</time>
      </trkpt>
      <trkpt lat="40.211441684514284" lon="-6.876080436632037">
        <ele>436.575927734375</ele>
        <time>2016-10-30T13:25:24Z</time>
      </trkpt>
      <trkpt lat="40.211555762216449" lon="-6.876103319227696">
        <ele>436.09521484375</ele>
        <time>2016-10-30T13:25:29Z</time>
      </trkpt>
      <trkpt lat="40.211664140224457" lon="-6.876123268157244">
        <ele>436.575927734375</ele>
        <time>2016-10-30T13:25:34Z</time>
      </trkpt>
      <trkpt lat="40.211769668385386" lon="-6.876168949529529">
        <ele>438.49853515625</ele>
        <time>2016-10-30T13:25:39Z</time>
      </trkpt>
      <trkpt lat="40.211885590106249" lon="-6.876199543476105">
        <ele>437.537109375</ele>
        <time>2016-10-30T13:25:44Z</time>
      </trkpt>
      <trkpt lat="40.212005116045475" lon="-6.876245560124517">
        <ele>436.575927734375</ele>
        <time>2016-10-30T13:25:49Z</time>
      </trkpt>
      <trkpt lat="40.212127156555653" lon="-6.876278668642044">
        <ele>435.614501953125</ele>
        <time>2016-10-30T13:25:54Z</time>
      </trkpt>
      <trkpt lat="40.212231259793043" lon="-6.876312280073762">
        <ele>436.09521484375</ele>
        <time>2016-10-30T13:25:59Z</time>
      </trkpt>
      <trkpt lat="40.212338212877512" lon="-6.876339185982943">
        <ele>436.575927734375</ele>
        <time>2016-10-30T13:26:04Z</time>
      </trkpt>
      <trkpt lat="40.212439885362983" lon="-6.876347651705146">
        <ele>436.575927734375</ele>
        <time>2016-10-30T13:26:09Z</time>
      </trkpt>
      <trkpt lat="40.212524374946952" lon="-6.876377742737532">
        <ele>438.49853515625</ele>
        <time>2016-10-30T13:26:14Z</time>
      </trkpt>
      <trkpt lat="40.212605427950621" lon="-6.876425603404641">
        <ele>439.9404296875</ele>
        <time>2016-10-30T13:26:19Z</time>
      </trkpt>
      <trkpt lat="40.212678853422403" lon="-6.876460891216993">
        <ele>440.90185546875</ele>
        <time>2016-10-30T13:26:24Z</time>
      </trkpt>
      <trkpt lat="40.212746746838093" lon="-6.876517133787274">
        <ele>442.3438720703125</ele>
        <time>2016-10-30T13:26:29Z</time>
      </trkpt>
      <trkpt lat="40.21280181594193" lon="-6.876591481268406">
        <ele>444.2664794921875</ele>
        <time>2016-10-30T13:26:34Z</time>
      </trkpt>
      <trkpt lat="40.212857555598021" lon="-6.87666398473084">
        <ele>445.2276611328125</ele>
        <time>2016-10-30T13:26:39Z</time>
      </trkpt>
      <trkpt lat="40.212899465113878" lon="-6.876762052997947">
        <ele>446.1890869140625</ele>
        <time>2016-10-30T13:26:44Z</time>
      </trkpt>
      <trkpt lat="40.21296551451087" lon="-6.876840423792601">
        <ele>448.5924072265625</ele>
        <time>2016-10-30T13:26:49Z</time>
      </trkpt>
      <trkpt lat="40.213021337985992" lon="-6.876952657476068">
        <ele>450.034423828125</ele>
        <time>2016-10-30T13:26:54Z</time>
      </trkpt>
      <trkpt lat="40.213110521435738" lon="-6.877025747671723">
        <ele>449.072998046875</ele>
        <time>2016-10-30T13:26:59Z</time>
      </trkpt>
      <trkpt lat="40.213195094838738" lon="-6.877115685492754">
        <ele>449.072998046875</ele>
        <time>2016-10-30T13:27:04Z</time>
      </trkpt>
      <trkpt lat="40.213295174762607" lon="-6.877164132893086">
        <ele>446.1890869140625</ele>
        <time>2016-10-30T13:27:09Z</time>
      </trkpt>
      <trkpt lat="40.213407408446074" lon="-6.877188440412283">
        <ele>445.2276611328125</ele>
        <time>2016-10-30T13:27:14Z</time>
      </trkpt>
      <trkpt lat="40.213499693199992" lon="-6.877174274995923">
        <ele>445.7083740234375</ele>
        <time>2016-10-30T13:27:19Z</time>
      </trkpt>
      <trkpt lat="40.213590050116181" lon="-6.877177460119128">
        <ele>449.5537109375</ele>
        <time>2016-10-30T13:27:24Z</time>
      </trkpt>
      <trkpt lat="40.213669510558248" lon="-6.877149296924472">
        <ele>450.5150146484375</ele>
        <time>2016-10-30T13:27:29Z</time>
      </trkpt>
      <trkpt lat="40.213752491399646" lon="-6.8771150149405">
        <ele>451.95703125</ele>
        <time>2016-10-30T13:27:34Z</time>
      </trkpt>
      <trkpt lat="40.213832454755902" lon="-6.877073608338833">
        <ele>453.39892578125</ele>
        <time>2016-10-30T13:27:39Z</time>
      </trkpt>
      <trkpt lat="40.213911412283778" lon="-6.877059359103441">
        <ele>455.321533203125</ele>
        <time>2016-10-30T13:27:44Z</time>
      </trkpt>
      <trkpt lat="40.214011492207646" lon="-6.877043852582574">
        <ele>455.80224609375</ele>
        <time>2016-10-30T13:27:49Z</time>
      </trkpt>
      <trkpt lat="40.214091120287776" lon="-6.877041757106781">
        <ele>457.2442626953125</ele>
        <time>2016-10-30T13:27:54Z</time>
      </trkpt>
      <trkpt lat="40.214187512174249" lon="-6.877059526741505">
        <ele>457.2442626953125</ele>
        <time>2016-10-30T13:27:59Z</time>
      </trkpt>
      <trkpt lat="40.214291196316481" lon="-6.877080397680402">
        <ele>455.80224609375</ele>
        <time>2016-10-30T13:28:04Z</time>
      </trkpt>
      <trkpt lat="40.214386414736509" lon="-6.877078637480736">
        <ele>456.7635498046875</ele>
        <time>2016-10-30T13:28:09Z</time>
      </trkpt>
      <trkpt lat="40.214497474953532" lon="-6.877074781805277">
        <ele>456.282958984375</ele>
        <time>2016-10-30T13:28:14Z</time>
      </trkpt>
      <trkpt lat="40.21460828371346" lon="-6.877034800127149">
        <ele>457.2442626953125</ele>
        <time>2016-10-30T13:28:19Z</time>
      </trkpt>
      <trkpt lat="40.214733257889748" lon="-6.876965062692761">
        <ele>457.2442626953125</ele>
        <time>2016-10-30T13:28:24Z</time>
      </trkpt>
      <trkpt lat="40.214863261207938" lon="-6.87690244987607">
        <ele>455.80224609375</ele>
        <time>2016-10-30T13:28:29Z</time>
      </trkpt>
      <trkpt lat="40.214977590367198" lon="-6.876845369115472">
        <ele>457.2442626953125</ele>
        <time>2016-10-30T13:28:34Z</time>
      </trkpt>
      <trkpt lat="40.215100552886724" lon="-6.876814272254705">
        <ele>456.7635498046875</ele>
        <time>2016-10-30T13:28:39Z</time>
      </trkpt>
      <trkpt lat="40.215196860954165" lon="-6.876819469034672">
        <ele>459.6475830078125</ele>
        <time>2016-10-30T13:28:44Z</time>
      </trkpt>
      <trkpt lat="40.215263832360506" lon="-6.876779403537512">
        <ele>465.8961181640625</ele>
        <time>2016-10-30T13:28:49Z</time>
      </trkpt>
      <trkpt lat="40.215351674705744" lon="-6.87676758505404">
        <ele>469.7413330078125</ele>
        <time>2016-10-30T13:28:54Z</time>
      </trkpt>
      <trkpt lat="40.215453263372183" lon="-6.876770937815309">
        <ele>470.70263671875</ele>
        <time>2016-10-30T13:28:59Z</time>
      </trkpt>
      <trkpt lat="40.215589217841625" lon="-6.876762472093105">
        <ele>470.70263671875</ele>
        <time>2016-10-30T13:29:04Z</time>
      </trkpt>
      <trkpt lat="40.21573162637651" lon="-6.876806979998946">
        <ele>470.221923828125</ele>
        <time>2016-10-30T13:29:09Z</time>
      </trkpt>
      <trkpt lat="40.215881578624249" lon="-6.876838579773903">
        <ele>468.29931640625</ele>
        <time>2016-10-30T13:29:14Z</time>
      </trkpt>
      <trkpt lat="40.216033542528749" lon="-6.876876717433333">
        <ele>465.8961181640625</ele>
        <time>2016-10-30T13:29:19Z</time>
      </trkpt>
      <trkpt lat="40.216173268854618" lon="-6.876905132085085">
        <ele>468.29931640625</ele>
        <time>2016-10-30T13:29:24Z</time>
      </trkpt>
      <trkpt lat="40.216318108141422" lon="-6.876941258087754">
        <ele>467.8187255859375</ele>
        <time>2016-10-30T13:29:29Z</time>
      </trkpt>
      <trkpt lat="40.216460768133402" lon="-6.876968750730157">
        <ele>466.376708984375</ele>
        <time>2016-10-30T13:29:34Z</time>
      </trkpt>
      <trkpt lat="40.216608373448253" lon="-6.877011833712459">
        <ele>464.934814453125</ele>
        <time>2016-10-30T13:29:39Z</time>
      </trkpt>
      <trkpt lat="40.216761846095324" lon="-6.877066818997264">
        <ele>464.4541015625</ele>
        <time>2016-10-30T13:29:44Z</time>
      </trkpt>
      <trkpt lat="40.216908697038889" lon="-6.877124486491084">
        <ele>463.4927978515625</ele>
        <time>2016-10-30T13:29:49Z</time>
      </trkpt>
      <trkpt lat="40.217048591002822" lon="-6.877158768475056">
        <ele>462.05078125</ele>
        <time>2016-10-30T13:29:54Z</time>
      </trkpt>
      <trkpt lat="40.217187395319343" lon="-6.877200845628977">
        <ele>461.5701904296875</ele>
        <time>2016-10-30T13:29:59Z</time>
      </trkpt>
      <trkpt lat="40.217308765277267" lon="-6.87725574709475">
        <ele>462.05078125</ele>
        <time>2016-10-30T13:30:04Z</time>
      </trkpt>
      <trkpt lat="40.217418819665909" lon="-6.87731291167438">
        <ele>463.973388671875</ele>
        <time>2016-10-30T13:30:09Z</time>
      </trkpt>
      <trkpt lat="40.217536669224501" lon="-6.877351719886065">
        <ele>465.8961181640625</ele>
        <time>2016-10-30T13:30:14Z</time>
      </trkpt>
      <trkpt lat="40.21767052821815" lon="-6.877302266657352">
        <ele>465.41552734375</ele>
        <time>2016-10-30T13:30:19Z</time>
      </trkpt>
      <trkpt lat="40.217750575393438" lon="-6.877221884205937">
        <ele>469.2607421875</ele>
        <time>2016-10-30T13:30:24Z</time>
      </trkpt>
      <trkpt lat="40.217783683910966" lon="-6.877136137336493">
        <ele>470.221923828125</ele>
        <time>2016-10-30T13:30:29Z</time>
      </trkpt>
      <trkpt lat="40.21778728812933" lon="-6.876930696889758">
        <ele>470.221923828125</ele>
        <time>2016-10-30T13:30:34Z</time>
      </trkpt>
      <trkpt lat="40.217907233163714" lon="-6.876757610589266">
        <ele>468.29931640625</ele>
        <time>2016-10-30T13:30:39Z</time>
      </trkpt>
      <trkpt lat="40.218066740781069" lon="-6.876678904518485">
        <ele>467.338134765625</ele>
        <time>2016-10-30T13:30:44Z</time>
      </trkpt>
      <trkpt lat="40.218202946707606" lon="-6.876826928928495">
        <ele>465.8961181640625</ele>
        <time>2016-10-30T13:30:49Z</time>
      </trkpt>
      <trkpt lat="40.218271007761359" lon="-6.877005798742175">
        <ele>465.41552734375</ele>
        <time>2016-10-30T13:30:54Z</time>
      </trkpt>
      <trkpt lat="40.218354910612106" lon="-6.877163043245673">
        <ele>466.376708984375</ele>
        <time>2016-10-30T13:30:59Z</time>
      </trkpt>
      <trkpt lat="40.218439064919949" lon="-6.877324981614947">
        <ele>463.973388671875</ele>
        <time>2016-10-30T13:31:04Z</time>
      </trkpt>
      <trkpt lat="40.218486255034804" lon="-6.877474179491401">
        <ele>463.4927978515625</ele>
        <time>2016-10-30T13:31:09Z</time>
      </trkpt>
      <trkpt lat="40.218499414622784" lon="-6.877630669623613">
        <ele>464.934814453125</ele>
        <time>2016-10-30T13:31:14Z</time>
      </trkpt>
      <trkpt lat="40.218529589474201" lon="-6.877779196947813">
        <ele>466.857421875</ele>
        <time>2016-10-30T13:31:19Z</time>
      </trkpt>
      <trkpt lat="40.218587005510926" lon="-6.877918587997556">
        <ele>469.2607421875</ele>
        <time>2016-10-30T13:31:24Z</time>
      </trkpt>
      <trkpt lat="40.218624388799071" lon="-6.878069378435612">
        <ele>470.221923828125</ele>
        <time>2016-10-30T13:31:29Z</time>
      </trkpt>
      <trkpt lat="40.218677278608084" lon="-6.878224359825254">
        <ele>470.221923828125</ele>
        <time>2016-10-30T13:31:34Z</time>
      </trkpt>
      <trkpt lat="40.218782387673855" lon="-6.878298036754131">
        <ele>468.780029296875</ele>
        <time>2016-10-30T13:31:39Z</time>
      </trkpt>
      <trkpt lat="40.218879533931613" lon="-6.878328882157803">
        <ele>468.29931640625</ele>
        <time>2016-10-30T13:31:44Z</time>
      </trkpt>
      <trkpt lat="40.218952037394047" lon="-6.878345645964146">
        <ele>468.780029296875</ele>
        <time>2016-10-30T13:31:49Z</time>
      </trkpt>
      <trkpt lat="40.219000820070505" lon="-6.878359895199537">
        <ele>470.221923828125</ele>
        <time>2016-10-30T13:31:54Z</time>
      </trkpt>
      <trkpt lat="40.219054715707898" lon="-6.878419239073992">
        <ele>471.183349609375</ele>
        <time>2016-10-30T13:31:59Z</time>
      </trkpt>
      <trkpt lat="40.219122273847461" lon="-6.878404319286346">
        <ele>471.6639404296875</ele>
        <time>2016-10-30T13:32:04Z</time>
      </trkpt>
      <trkpt lat="40.219175079837441" lon="-6.878316141664982">
        <ele>470.70263671875</ele>
        <time>2016-10-30T13:32:10Z</time>
      </trkpt>
      <trkpt lat="40.219237860292196" lon="-6.878200052306056">
        <ele>469.7413330078125</ele>
        <time>2016-10-30T13:32:15Z</time>
      </trkpt>
      <trkpt lat="40.219337521120906" lon="-6.878083795309067">
        <ele>469.2607421875</ele>
        <time>2016-10-30T13:32:20Z</time>
      </trkpt>
      <trkpt lat="40.21959912031889" lon="-6.877752626314759">
        <ele>467.8187255859375</ele>
        <time>2016-10-30T13:32:26Z</time>
      </trkpt>
      <trkpt lat="40.219844207167625" lon="-6.877460516989231">
        <ele>464.934814453125</ele>
        <time>2016-10-30T13:32:31Z</time>
      </trkpt>
      <trkpt lat="40.220088958740234" lon="-6.877355575561523">
        <ele>462.05078125</ele>
        <time>2016-10-30T13:32:36Z</time>
      </trkpt>
      <trkpt lat="40.220175795257092" lon="-6.876979395747185">
        <ele>462.5313720703125</ele>
        <time>2016-10-30T13:32:41Z</time>
      </trkpt>
      <trkpt lat="40.220197839662433" lon="-6.876738164573908">
        <ele>465.41552734375</ele>
        <time>2016-10-30T13:32:46Z</time>
      </trkpt>
      <trkpt lat="40.220174789428711" lon="-6.876530461013317">
        <ele>468.780029296875</ele>
        <time>2016-10-30T13:32:51Z</time>
      </trkpt>
      <trkpt lat="40.220174789428711" lon="-6.876359218731523">
        <ele>469.2607421875</ele>
        <time>2016-10-30T13:32:56Z</time>
      </trkpt>
      <trkpt lat="40.220174789428711" lon="-6.876181941479445">
        <ele>471.6639404296875</ele>
        <time>2016-10-30T13:33:01Z</time>
      </trkpt>
      <trkpt lat="40.220174789428711" lon="-6.876068115234375">
        <ele>473.1060791015625</ele>
        <time>2016-10-30T13:33:06Z</time>
      </trkpt>
      <trkpt lat="40.220317030325532" lon="-6.875961581245065">
        <ele>474.5479736328125</ele>
        <time>2016-10-30T13:33:11Z</time>
      </trkpt>
      <trkpt lat="40.220472095534205" lon="-6.875905925408006">
        <ele>474.5479736328125</ele>
        <time>2016-10-30T13:33:16Z</time>
      </trkpt>
      <trkpt lat="40.22059204056859" lon="-6.875873990356922">
        <ele>477.431884765625</ele>
        <time>2016-10-30T13:33:21Z</time>
      </trkpt>
      <trkpt lat="40.220715589821339" lon="-6.875841049477458">
        <ele>478.8739013671875</ele>
        <time>2016-10-30T13:33:26Z</time>
      </trkpt>
      <trkpt lat="40.220853304490447" lon="-6.875804420560598">
        <ele>480.796630859375</ele>
        <time>2016-10-30T13:33:31Z</time>
      </trkpt>
      <trkpt lat="40.220977775752544" lon="-6.875771228224039">
        <ele>483.1998291015625</ele>
        <time>2016-10-30T13:33:36Z</time>
      </trkpt>
      <trkpt lat="40.221106521785259" lon="-6.875756224617362">
        <ele>486.083740234375</ele>
        <time>2016-10-30T13:33:41Z</time>
      </trkpt>
      <trkpt lat="40.221240883693099" lon="-6.875742813572288">
        <ele>485.1224365234375</ele>
        <time>2016-10-30T13:33:46Z</time>
      </trkpt>
      <trkpt lat="40.221366863697767" lon="-6.87573024071753">
        <ele>484.1611328125</ele>
        <time>2016-10-30T13:33:51Z</time>
      </trkpt>
      <trkpt lat="40.221419334411621" lon="-6.875724792480469">
        <ele>484.1611328125</ele>
        <time>2016-10-30T13:33:56Z</time>
      </trkpt>
      <trkpt lat="40.221633911132813" lon="-6.875724792480469">
        <ele>485.1224365234375</ele>
        <time>2016-10-30T13:34:01Z</time>
      </trkpt>
      <trkpt lat="40.221724100410938" lon="-6.875724792480469">
        <ele>484.641845703125</ele>
        <time>2016-10-30T13:34:06Z</time>
      </trkpt>
      <trkpt lat="40.221724100410938" lon="-6.875724792480469">
        <ele>488.0064697265625</ele>
        <time>2016-10-30T13:34:11Z</time>
      </trkpt>
      <trkpt lat="40.221724100410938" lon="-6.875724792480469">
        <ele>488.4871826171875</ele>
        <time>2016-10-30T13:34:16Z</time>
      </trkpt>
      <trkpt lat="40.221724100410938" lon="-6.875724792480469">
        <ele>488.0064697265625</ele>
        <time>2016-10-30T13:34:21Z</time>
      </trkpt>
      <trkpt lat="40.221733739599586" lon="-6.875724792480469">
        <ele>487.525634765625</ele>
        <time>2016-10-30T13:34:26Z</time>
      </trkpt>
      <trkpt lat="40.221733739599586" lon="-6.875724792480469">
        <ele>489.9290771484375</ele>
        <time>2016-10-30T13:34:31Z</time>
      </trkpt>
      <trkpt lat="40.221733739599586" lon="-6.875724792480469">
        <ele>489.9290771484375</ele>
        <time>2016-10-30T13:34:36Z</time>
      </trkpt>
      <trkpt lat="40.221733739599586" lon="-6.875724792480469">
        <ele>489.9290771484375</ele>
        <time>2016-10-30T13:34:41Z</time>
      </trkpt>
      <trkpt lat="40.221733739599586" lon="-6.875724792480469">
        <ele>490.4097900390625</ele>
        <time>2016-10-30T13:34:46Z</time>
      </trkpt>
      <trkpt lat="40.221733739599586" lon="-6.875724792480469">
        <ele>490.4097900390625</ele>
        <time>2016-10-30T13:34:51Z</time>
      </trkpt>
      <trkpt lat="40.221733739599586" lon="-6.875724792480469">
        <ele>490.4097900390625</ele>
        <time>2016-10-30T13:34:56Z</time>
      </trkpt>
      <trkpt lat="40.221733739599586" lon="-6.875724792480469">
        <ele>490.4097900390625</ele>
        <time>2016-10-30T13:35:01Z</time>
      </trkpt>
      <trkpt lat="40.221733739599586" lon="-6.875724792480469">
        <ele>490.4097900390625</ele>
        <time>2016-10-30T13:35:06Z</time>
      </trkpt>
      <trkpt lat="40.221733739599586" lon="-6.875724792480469">
        <ele>490.4097900390625</ele>
        <time>2016-10-30T13:35:11Z</time>
      </trkpt>
      <trkpt lat="40.221733739599586" lon="-6.875724792480469">
        <ele>490.4097900390625</ele>
        <time>2016-10-30T13:35:16Z</time>
      </trkpt>
      <trkpt lat="40.22163525223732" lon="-6.875724792480469">
        <ele>490.4097900390625</ele>
        <time>2016-10-30T13:35:21Z</time>
      </trkpt>
      <trkpt lat="40.221633911132813" lon="-6.875724792480469">
        <ele>489.9290771484375</ele>
        <time>2016-10-30T13:35:26Z</time>
      </trkpt>
      <trkpt lat="40.221263682469726" lon="-6.875740550458431">
        <ele>488.9677734375</ele>
        <time>2016-10-30T13:35:31Z</time>
      </trkpt>
      <trkpt lat="40.221058744937181" lon="-6.875760918483138">
        <ele>488.4871826171875</ele>
        <time>2016-10-30T13:35:36Z</time>
      </trkpt>
      <trkpt lat="40.220904517918825" lon="-6.875790674239397">
        <ele>487.0450439453125</ele>
        <time>2016-10-30T13:35:41Z</time>
      </trkpt>
      <trkpt lat="40.220723804086447" lon="-6.875838870182633">
        <ele>486.083740234375</ele>
        <time>2016-10-30T13:35:46Z</time>
      </trkpt>
      <trkpt lat="40.220496989786625" lon="-6.8758993037045">
        <ele>483.680419921875</ele>
        <time>2016-10-30T13:35:51Z</time>
      </trkpt>
      <trkpt lat="40.220174789428711" lon="-6.876068115234375">
        <ele>482.238525390625</ele>
        <time>2016-10-30T13:35:56Z</time>
      </trkpt>
      <trkpt lat="40.220346450805664" lon="-6.87593936920166">
        <ele>478.3931884765625</ele>
        <time>2016-10-30T13:36:01Z</time>
      </trkpt>
      <trkpt lat="40.220174789428711" lon="-6.876068115234375">
        <ele>475.0286865234375</ele>
        <time>2016-10-30T13:36:06Z</time>
      </trkpt>
    </trkseg>
  </trk>

</gpx>
